<?xml version="1.0" encoding="UTF-8" standalone="no" ?>
<gpx xmlns="http://www.topografix.com/GPX/1/1" xmlns:xsi="http://www.w3.org/2001/XMLSchema-instance" xsi:schemaLocation="http://www.topografix.com/GPX/1/1 http://www.topografix.com/GPX/1/1/gpx.xsd" version="1.1" creator="VisuGPX - https://www.visugpx.com">
  <metadata>
    <name>El Punxó</name>
    <desc><![CDATA[https://subircumbres.wordpress.com/2021/07/29/el-punxo-2581m/]]></desc>
  </metadata>
  <trk>
    <name><![CDATA[07-JUL-21 11:54:38]]></name>
    <trkseg>
      <trkpt lat="42.48488" lon="1.89175">
        <ele>1592.56</ele>
        <time>2021-07-07T04:55:40Z</time>
      </trkpt>
      <trkpt lat="42.48488" lon="1.89175">
        <ele>1592.56</ele>
        <time>2021-07-07T04:55:41Z</time>
      </trkpt>
      <trkpt lat="42.48488" lon="1.89175">
        <ele>1592.56</ele>
        <time>2021-07-07T04:55:42Z</time>
      </trkpt>
      <trkpt lat="42.48488" lon="1.89175">
        <ele>1593.04</ele>
        <time>2021-07-07T04:55:44Z</time>
      </trkpt>
      <trkpt lat="42.48488" lon="1.89175">
        <ele>1593.04</ele>
        <time>2021-07-07T04:55:59Z</time>
      </trkpt>
      <trkpt lat="42.48488" lon="1.89175">
        <ele>1592.08</ele>
        <time>2021-07-07T04:56:09Z</time>
      </trkpt>
      <trkpt lat="42.48488" lon="1.89175">
        <ele>1592.56</ele>
        <time>2021-07-07T04:56:15Z</time>
      </trkpt>
      <trkpt lat="42.48494" lon="1.89172">
        <ele>1592.56</ele>
        <time>2021-07-07T04:56:23Z</time>
      </trkpt>
      <trkpt lat="42.48492" lon="1.89174">
        <ele>1592.56</ele>
        <time>2021-07-07T04:56:29Z</time>
      </trkpt>
      <trkpt lat="42.48493" lon="1.89173">
        <ele>1592.56</ele>
        <time>2021-07-07T04:56:36Z</time>
      </trkpt>
      <trkpt lat="42.48492" lon="1.89157">
        <ele>1592.56</ele>
        <time>2021-07-07T04:56:45Z</time>
      </trkpt>
      <trkpt lat="42.48496" lon="1.89146">
        <ele>1592.56</ele>
        <time>2021-07-07T04:56:53Z</time>
      </trkpt>
      <trkpt lat="42.48496" lon="1.89146">
        <ele>1592.56</ele>
        <time>2021-07-07T04:57:05Z</time>
      </trkpt>
      <trkpt lat="42.48496" lon="1.89147">
        <ele>1592.56</ele>
        <time>2021-07-07T04:57:14Z</time>
      </trkpt>
      <trkpt lat="42.48496" lon="1.89147">
        <ele>1592.56</ele>
        <time>2021-07-07T04:57:21Z</time>
      </trkpt>
      <trkpt lat="42.48497" lon="1.89147">
        <ele>1593.04</ele>
        <time>2021-07-07T04:57:33Z</time>
      </trkpt>
      <trkpt lat="42.48497" lon="1.89147">
        <ele>1593.04</ele>
        <time>2021-07-07T04:57:44Z</time>
      </trkpt>
      <trkpt lat="42.48496" lon="1.89147">
        <ele>1593.04</ele>
        <time>2021-07-07T04:57:52Z</time>
      </trkpt>
      <trkpt lat="42.48498" lon="1.89144">
        <ele>1592.56</ele>
        <time>2021-07-07T04:58:07Z</time>
      </trkpt>
      <trkpt lat="42.485" lon="1.89124">
        <ele>1591.12</ele>
        <time>2021-07-07T04:58:17Z</time>
      </trkpt>
      <trkpt lat="42.48501" lon="1.89119">
        <ele>1591.12</ele>
        <time>2021-07-07T04:58:19Z</time>
      </trkpt>
      <trkpt lat="42.48496" lon="1.89104">
        <ele>1590.16</ele>
        <time>2021-07-07T04:58:27Z</time>
      </trkpt>
      <trkpt lat="42.48486" lon="1.89091">
        <ele>1588.72</ele>
        <time>2021-07-07T04:58:35Z</time>
      </trkpt>
      <trkpt lat="42.48479" lon="1.89084">
        <ele>1588.24</ele>
        <time>2021-07-07T04:58:41Z</time>
      </trkpt>
      <trkpt lat="42.48472" lon="1.89076">
        <ele>1587.75</ele>
        <time>2021-07-07T04:58:47Z</time>
      </trkpt>
      <trkpt lat="42.48462" lon="1.89063">
        <ele>1586.31</ele>
        <time>2021-07-07T04:58:56Z</time>
      </trkpt>
      <trkpt lat="42.48453" lon="1.89054">
        <ele>1585.35</ele>
        <time>2021-07-07T04:59:02Z</time>
      </trkpt>
      <trkpt lat="42.4845" lon="1.8905">
        <ele>1584.87</ele>
        <time>2021-07-07T04:59:06Z</time>
      </trkpt>
      <trkpt lat="42.48446" lon="1.89043">
        <ele>1584.39</ele>
        <time>2021-07-07T04:59:11Z</time>
      </trkpt>
      <trkpt lat="42.48441" lon="1.89036">
        <ele>1584.39</ele>
        <time>2021-07-07T04:59:15Z</time>
      </trkpt>
      <trkpt lat="42.48435" lon="1.89023">
        <ele>1584.39</ele>
        <time>2021-07-07T04:59:23Z</time>
      </trkpt>
      <trkpt lat="42.48427" lon="1.89012">
        <ele>1584.39</ele>
        <time>2021-07-07T04:59:30Z</time>
      </trkpt>
      <trkpt lat="42.48416" lon="1.88995">
        <ele>1584.87</ele>
        <time>2021-07-07T04:59:39Z</time>
      </trkpt>
      <trkpt lat="42.48405" lon="1.88987">
        <ele>1586.31</ele>
        <time>2021-07-07T04:59:46Z</time>
      </trkpt>
      <trkpt lat="42.48395" lon="1.88981">
        <ele>1587.27</ele>
        <time>2021-07-07T04:59:54Z</time>
      </trkpt>
      <trkpt lat="42.48395" lon="1.88978">
        <ele>1587.27</ele>
        <time>2021-07-07T05:00:01Z</time>
      </trkpt>
      <trkpt lat="42.48394" lon="1.88978">
        <ele>1587.27</ele>
        <time>2021-07-07T05:00:09Z</time>
      </trkpt>
      <trkpt lat="42.48393" lon="1.88979">
        <ele>1587.27</ele>
        <time>2021-07-07T05:00:19Z</time>
      </trkpt>
      <trkpt lat="42.48393" lon="1.88979">
        <ele>1587.27</ele>
        <time>2021-07-07T05:00:32Z</time>
      </trkpt>
      <trkpt lat="42.48393" lon="1.88979">
        <ele>1587.27</ele>
        <time>2021-07-07T05:00:41Z</time>
      </trkpt>
      <trkpt lat="42.48393" lon="1.88979">
        <ele>1587.27</ele>
        <time>2021-07-07T05:00:42Z</time>
      </trkpt>
      <trkpt lat="42.48401" lon="1.88979">
        <ele>1586.79</ele>
        <time>2021-07-07T05:00:50Z</time>
      </trkpt>
      <trkpt lat="42.48403" lon="1.8898">
        <ele>1587.27</ele>
        <time>2021-07-07T05:00:51Z</time>
      </trkpt>
      <trkpt lat="42.48406" lon="1.8898">
        <ele>1587.27</ele>
        <time>2021-07-07T05:00:53Z</time>
      </trkpt>
      <trkpt lat="42.48418" lon="1.88977">
        <ele>1588.72</ele>
        <time>2021-07-07T05:01:01Z</time>
      </trkpt>
      <trkpt lat="42.48426" lon="1.88977">
        <ele>1588.72</ele>
        <time>2021-07-07T05:01:07Z</time>
      </trkpt>
      <trkpt lat="42.48432" lon="1.88979">
        <ele>1589.2</ele>
        <time>2021-07-07T05:01:13Z</time>
      </trkpt>
      <trkpt lat="42.48438" lon="1.88977">
        <ele>1589.68</ele>
        <time>2021-07-07T05:01:20Z</time>
      </trkpt>
      <trkpt lat="42.48443" lon="1.88976">
        <ele>1589.68</ele>
        <time>2021-07-07T05:01:25Z</time>
      </trkpt>
      <trkpt lat="42.48449" lon="1.88974">
        <ele>1590.16</ele>
        <time>2021-07-07T05:01:33Z</time>
      </trkpt>
      <trkpt lat="42.48454" lon="1.88973">
        <ele>1590.64</ele>
        <time>2021-07-07T05:01:37Z</time>
      </trkpt>
      <trkpt lat="42.48462" lon="1.88969">
        <ele>1591.12</ele>
        <time>2021-07-07T05:01:43Z</time>
      </trkpt>
      <trkpt lat="42.48474" lon="1.88961">
        <ele>1592.56</ele>
        <time>2021-07-07T05:01:52Z</time>
      </trkpt>
      <trkpt lat="42.48479" lon="1.88956">
        <ele>1592.56</ele>
        <time>2021-07-07T05:01:57Z</time>
      </trkpt>
      <trkpt lat="42.48485" lon="1.88945">
        <ele>1594.48</ele>
        <time>2021-07-07T05:02:06Z</time>
      </trkpt>
      <trkpt lat="42.48485" lon="1.88945">
        <ele>1594.96</ele>
        <time>2021-07-07T05:02:07Z</time>
      </trkpt>
      <trkpt lat="42.48488" lon="1.88942">
        <ele>1594.48</ele>
        <time>2021-07-07T05:02:14Z</time>
      </trkpt>
      <trkpt lat="42.48489" lon="1.88942">
        <ele>1594.96</ele>
        <time>2021-07-07T05:02:24Z</time>
      </trkpt>
      <trkpt lat="42.4849" lon="1.88942">
        <ele>1594.96</ele>
        <time>2021-07-07T05:02:38Z</time>
      </trkpt>
      <trkpt lat="42.48492" lon="1.8894">
        <ele>1594.96</ele>
        <time>2021-07-07T05:02:43Z</time>
      </trkpt>
      <trkpt lat="42.48498" lon="1.88934">
        <ele>1596.89</ele>
        <time>2021-07-07T05:02:50Z</time>
      </trkpt>
      <trkpt lat="42.485" lon="1.8893">
        <ele>1597.37</ele>
        <time>2021-07-07T05:02:53Z</time>
      </trkpt>
      <trkpt lat="42.48507" lon="1.88921">
        <ele>1597.85</ele>
        <time>2021-07-07T05:03:01Z</time>
      </trkpt>
      <trkpt lat="42.48513" lon="1.88915">
        <ele>1599.29</ele>
        <time>2021-07-07T05:03:08Z</time>
      </trkpt>
      <trkpt lat="42.48514" lon="1.88914">
        <ele>1599.29</ele>
        <time>2021-07-07T05:03:09Z</time>
      </trkpt>
      <trkpt lat="42.4852" lon="1.88902">
        <ele>1600.25</ele>
        <time>2021-07-07T05:03:17Z</time>
      </trkpt>
      <trkpt lat="42.48521" lon="1.88901">
        <ele>1600.25</ele>
        <time>2021-07-07T05:03:18Z</time>
      </trkpt>
      <trkpt lat="42.4853" lon="1.88895">
        <ele>1601.21</ele>
        <time>2021-07-07T05:03:25Z</time>
      </trkpt>
      <trkpt lat="42.48534" lon="1.88893">
        <ele>1602.17</ele>
        <time>2021-07-07T05:03:31Z</time>
      </trkpt>
      <trkpt lat="42.4854" lon="1.88892">
        <ele>1603.14</ele>
        <time>2021-07-07T05:03:36Z</time>
      </trkpt>
      <trkpt lat="42.48547" lon="1.88888">
        <ele>1603.62</ele>
        <time>2021-07-07T05:03:43Z</time>
      </trkpt>
      <trkpt lat="42.48557" lon="1.88883">
        <ele>1604.1</ele>
        <time>2021-07-07T05:03:50Z</time>
      </trkpt>
      <trkpt lat="42.48557" lon="1.88881">
        <ele>1605.06</ele>
        <time>2021-07-07T05:03:57Z</time>
      </trkpt>
      <trkpt lat="42.48563" lon="1.88875">
        <ele>1605.54</ele>
        <time>2021-07-07T05:04:04Z</time>
      </trkpt>
      <trkpt lat="42.48567" lon="1.8887">
        <ele>1606.5</ele>
        <time>2021-07-07T05:04:07Z</time>
      </trkpt>
      <trkpt lat="42.48583" lon="1.88858">
        <ele>1607.94</ele>
        <time>2021-07-07T05:04:15Z</time>
      </trkpt>
      <trkpt lat="42.48593" lon="1.88853">
        <ele>1609.86</ele>
        <time>2021-07-07T05:04:23Z</time>
      </trkpt>
      <trkpt lat="42.48596" lon="1.88851">
        <ele>1610.83</ele>
        <time>2021-07-07T05:04:29Z</time>
      </trkpt>
      <trkpt lat="42.486" lon="1.8885">
        <ele>1610.83</ele>
        <time>2021-07-07T05:04:34Z</time>
      </trkpt>
      <trkpt lat="42.48604" lon="1.88848">
        <ele>1610.83</ele>
        <time>2021-07-07T05:04:37Z</time>
      </trkpt>
      <trkpt lat="42.48616" lon="1.88846">
        <ele>1610.83</ele>
        <time>2021-07-07T05:04:43Z</time>
      </trkpt>
      <trkpt lat="42.48631" lon="1.88838">
        <ele>1611.31</ele>
        <time>2021-07-07T05:04:50Z</time>
      </trkpt>
      <trkpt lat="42.48635" lon="1.88833">
        <ele>1611.79</ele>
        <time>2021-07-07T05:04:53Z</time>
      </trkpt>
      <trkpt lat="42.48641" lon="1.8882">
        <ele>1611.79</ele>
        <time>2021-07-07T05:05:00Z</time>
      </trkpt>
      <trkpt lat="42.48643" lon="1.88811">
        <ele>1613.23</ele>
        <time>2021-07-07T05:05:06Z</time>
      </trkpt>
      <trkpt lat="42.48648" lon="1.88804">
        <ele>1614.19</ele>
        <time>2021-07-07T05:05:11Z</time>
      </trkpt>
      <trkpt lat="42.48651" lon="1.88802">
        <ele>1614.67</ele>
        <time>2021-07-07T05:05:14Z</time>
      </trkpt>
      <trkpt lat="42.48661" lon="1.88793">
        <ele>1615.63</ele>
        <time>2021-07-07T05:05:22Z</time>
      </trkpt>
      <trkpt lat="42.48665" lon="1.88789">
        <ele>1615.63</ele>
        <time>2021-07-07T05:05:30Z</time>
      </trkpt>
      <trkpt lat="42.48671" lon="1.88782">
        <ele>1616.11</ele>
        <time>2021-07-07T05:05:38Z</time>
      </trkpt>
      <trkpt lat="42.48677" lon="1.88773">
        <ele>1616.11</ele>
        <time>2021-07-07T05:05:44Z</time>
      </trkpt>
      <trkpt lat="42.48688" lon="1.88763">
        <ele>1617.07</ele>
        <time>2021-07-07T05:05:52Z</time>
      </trkpt>
      <trkpt lat="42.4869" lon="1.88762">
        <ele>1616.11</ele>
        <time>2021-07-07T05:05:53Z</time>
      </trkpt>
      <trkpt lat="42.48704" lon="1.8875">
        <ele>1616.59</ele>
        <time>2021-07-07T05:06:02Z</time>
      </trkpt>
      <trkpt lat="42.48712" lon="1.88742">
        <ele>1617.56</ele>
        <time>2021-07-07T05:06:09Z</time>
      </trkpt>
      <trkpt lat="42.48717" lon="1.88739">
        <ele>1617.07</ele>
        <time>2021-07-07T05:06:15Z</time>
      </trkpt>
      <trkpt lat="42.48722" lon="1.88733">
        <ele>1617.07</ele>
        <time>2021-07-07T05:06:18Z</time>
      </trkpt>
      <trkpt lat="42.48728" lon="1.8873">
        <ele>1617.07</ele>
        <time>2021-07-07T05:06:21Z</time>
      </trkpt>
      <trkpt lat="42.48735" lon="1.88729">
        <ele>1617.56</ele>
        <time>2021-07-07T05:06:25Z</time>
      </trkpt>
      <trkpt lat="42.48746" lon="1.88725">
        <ele>1618.52</ele>
        <time>2021-07-07T05:06:32Z</time>
      </trkpt>
      <trkpt lat="42.48756" lon="1.88718">
        <ele>1618.04</ele>
        <time>2021-07-07T05:06:41Z</time>
      </trkpt>
      <trkpt lat="42.48764" lon="1.88715">
        <ele>1618.04</ele>
        <time>2021-07-07T05:06:48Z</time>
      </trkpt>
      <trkpt lat="42.48774" lon="1.88706">
        <ele>1618.04</ele>
        <time>2021-07-07T05:06:57Z</time>
      </trkpt>
      <trkpt lat="42.48782" lon="1.88698">
        <ele>1618.52</ele>
        <time>2021-07-07T05:07:04Z</time>
      </trkpt>
      <trkpt lat="42.48784" lon="1.88691">
        <ele>1619.48</ele>
        <time>2021-07-07T05:07:11Z</time>
      </trkpt>
      <trkpt lat="42.48787" lon="1.88686">
        <ele>1620.92</ele>
        <time>2021-07-07T05:07:15Z</time>
      </trkpt>
      <trkpt lat="42.48791" lon="1.88676">
        <ele>1622.36</ele>
        <time>2021-07-07T05:07:21Z</time>
      </trkpt>
      <trkpt lat="42.48794" lon="1.88671">
        <ele>1622.36</ele>
        <time>2021-07-07T05:07:24Z</time>
      </trkpt>
      <trkpt lat="42.48798" lon="1.88664">
        <ele>1623.8</ele>
        <time>2021-07-07T05:07:32Z</time>
      </trkpt>
      <trkpt lat="42.48798" lon="1.88663">
        <ele>1623.32</ele>
        <time>2021-07-07T05:07:45Z</time>
      </trkpt>
      <trkpt lat="42.48802" lon="1.88654">
        <ele>1623.8</ele>
        <time>2021-07-07T05:07:50Z</time>
      </trkpt>
      <trkpt lat="42.48805" lon="1.88643">
        <ele>1624.28</ele>
        <time>2021-07-07T05:07:55Z</time>
      </trkpt>
      <trkpt lat="42.48813" lon="1.88631">
        <ele>1625.25</ele>
        <time>2021-07-07T05:08:04Z</time>
      </trkpt>
      <trkpt lat="42.48818" lon="1.88626">
        <ele>1625.25</ele>
        <time>2021-07-07T05:08:08Z</time>
      </trkpt>
      <trkpt lat="42.48823" lon="1.8862">
        <ele>1625.73</ele>
        <time>2021-07-07T05:08:13Z</time>
      </trkpt>
      <trkpt lat="42.4883" lon="1.88611">
        <ele>1625.73</ele>
        <time>2021-07-07T05:08:20Z</time>
      </trkpt>
      <trkpt lat="42.48838" lon="1.88607">
        <ele>1626.21</ele>
        <time>2021-07-07T05:08:26Z</time>
      </trkpt>
      <trkpt lat="42.48842" lon="1.88603">
        <ele>1626.21</ele>
        <time>2021-07-07T05:08:29Z</time>
      </trkpt>
      <trkpt lat="42.48849" lon="1.88599">
        <ele>1626.21</ele>
        <time>2021-07-07T05:08:34Z</time>
      </trkpt>
      <trkpt lat="42.48852" lon="1.88591">
        <ele>1627.17</ele>
        <time>2021-07-07T05:08:41Z</time>
      </trkpt>
      <trkpt lat="42.48857" lon="1.88583">
        <ele>1627.17</ele>
        <time>2021-07-07T05:08:47Z</time>
      </trkpt>
      <trkpt lat="42.48859" lon="1.88571">
        <ele>1628.61</ele>
        <time>2021-07-07T05:08:56Z</time>
      </trkpt>
      <trkpt lat="42.48862" lon="1.88553">
        <ele>1629.09</ele>
        <time>2021-07-07T05:09:04Z</time>
      </trkpt>
      <trkpt lat="42.48866" lon="1.88546">
        <ele>1629.57</ele>
        <time>2021-07-07T05:09:11Z</time>
      </trkpt>
      <trkpt lat="42.48866" lon="1.88532">
        <ele>1630.05</ele>
        <time>2021-07-07T05:09:17Z</time>
      </trkpt>
      <trkpt lat="42.48868" lon="1.8853">
        <ele>1630.05</ele>
        <time>2021-07-07T05:09:18Z</time>
      </trkpt>
      <trkpt lat="42.4887" lon="1.8852">
        <ele>1631.01</ele>
        <time>2021-07-07T05:09:23Z</time>
      </trkpt>
      <trkpt lat="42.48874" lon="1.8851">
        <ele>1631.49</ele>
        <time>2021-07-07T05:09:28Z</time>
      </trkpt>
      <trkpt lat="42.48878" lon="1.88501">
        <ele>1631.49</ele>
        <time>2021-07-07T05:09:32Z</time>
      </trkpt>
      <trkpt lat="42.48884" lon="1.88488">
        <ele>1631.49</ele>
        <time>2021-07-07T05:09:39Z</time>
      </trkpt>
      <trkpt lat="42.48887" lon="1.88479">
        <ele>1631.49</ele>
        <time>2021-07-07T05:09:43Z</time>
      </trkpt>
      <trkpt lat="42.48888" lon="1.88462">
        <ele>1631.98</ele>
        <time>2021-07-07T05:09:49Z</time>
      </trkpt>
      <trkpt lat="42.48888" lon="1.88453">
        <ele>1633.42</ele>
        <time>2021-07-07T05:09:55Z</time>
      </trkpt>
      <trkpt lat="42.48888" lon="1.88441">
        <ele>1633.9</ele>
        <time>2021-07-07T05:10:01Z</time>
      </trkpt>
      <trkpt lat="42.48889" lon="1.88435">
        <ele>1634.38</ele>
        <time>2021-07-07T05:10:07Z</time>
      </trkpt>
      <trkpt lat="42.48886" lon="1.88426">
        <ele>1635.34</ele>
        <time>2021-07-07T05:10:14Z</time>
      </trkpt>
      <trkpt lat="42.48887" lon="1.88419">
        <ele>1636.78</ele>
        <time>2021-07-07T05:10:21Z</time>
      </trkpt>
      <trkpt lat="42.48887" lon="1.88412">
        <ele>1637.74</ele>
        <time>2021-07-07T05:10:28Z</time>
      </trkpt>
      <trkpt lat="42.48889" lon="1.88408">
        <ele>1639.19</ele>
        <time>2021-07-07T05:10:35Z</time>
      </trkpt>
      <trkpt lat="42.48889" lon="1.88404">
        <ele>1639.67</ele>
        <time>2021-07-07T05:10:37Z</time>
      </trkpt>
      <trkpt lat="42.4889" lon="1.88394">
        <ele>1640.15</ele>
        <time>2021-07-07T05:10:43Z</time>
      </trkpt>
      <trkpt lat="42.48889" lon="1.88385">
        <ele>1641.11</ele>
        <time>2021-07-07T05:10:49Z</time>
      </trkpt>
      <trkpt lat="42.48894" lon="1.88367">
        <ele>1641.11</ele>
        <time>2021-07-07T05:10:56Z</time>
      </trkpt>
      <trkpt lat="42.48897" lon="1.88361">
        <ele>1641.59</ele>
        <time>2021-07-07T05:10:59Z</time>
      </trkpt>
      <trkpt lat="42.48899" lon="1.88359">
        <ele>1641.59</ele>
        <time>2021-07-07T05:11:01Z</time>
      </trkpt>
      <trkpt lat="42.489" lon="1.88353">
        <ele>1642.07</ele>
        <time>2021-07-07T05:11:04Z</time>
      </trkpt>
      <trkpt lat="42.48906" lon="1.88338">
        <ele>1642.55</ele>
        <time>2021-07-07T05:11:11Z</time>
      </trkpt>
      <trkpt lat="42.48908" lon="1.88331">
        <ele>1643.03</ele>
        <time>2021-07-07T05:11:15Z</time>
      </trkpt>
      <trkpt lat="42.48911" lon="1.88326">
        <ele>1643.51</ele>
        <time>2021-07-07T05:11:18Z</time>
      </trkpt>
      <trkpt lat="42.48914" lon="1.88321">
        <ele>1643.99</ele>
        <time>2021-07-07T05:11:21Z</time>
      </trkpt>
      <trkpt lat="42.48919" lon="1.88311">
        <ele>1643.99</ele>
        <time>2021-07-07T05:11:27Z</time>
      </trkpt>
      <trkpt lat="42.48927" lon="1.88296">
        <ele>1644.95</ele>
        <time>2021-07-07T05:11:36Z</time>
      </trkpt>
      <trkpt lat="42.48932" lon="1.88285">
        <ele>1646.88</ele>
        <time>2021-07-07T05:11:45Z</time>
      </trkpt>
      <trkpt lat="42.48933" lon="1.88283">
        <ele>1646.88</ele>
        <time>2021-07-07T05:11:47Z</time>
      </trkpt>
      <trkpt lat="42.48942" lon="1.88275">
        <ele>1647.84</ele>
        <time>2021-07-07T05:11:54Z</time>
      </trkpt>
      <trkpt lat="42.4895" lon="1.88266">
        <ele>1647.84</ele>
        <time>2021-07-07T05:12:01Z</time>
      </trkpt>
      <trkpt lat="42.4896" lon="1.88262">
        <ele>1648.32</ele>
        <time>2021-07-07T05:12:08Z</time>
      </trkpt>
      <trkpt lat="42.48965" lon="1.88256">
        <ele>1648.8</ele>
        <time>2021-07-07T05:12:12Z</time>
      </trkpt>
      <trkpt lat="42.48971" lon="1.88253">
        <ele>1649.28</ele>
        <time>2021-07-07T05:12:16Z</time>
      </trkpt>
      <trkpt lat="42.48975" lon="1.88245">
        <ele>1650.72</ele>
        <time>2021-07-07T05:12:24Z</time>
      </trkpt>
      <trkpt lat="42.48979" lon="1.88244">
        <ele>1651.2</ele>
        <time>2021-07-07T05:12:30Z</time>
      </trkpt>
      <trkpt lat="42.48987" lon="1.88236">
        <ele>1651.68</ele>
        <time>2021-07-07T05:12:36Z</time>
      </trkpt>
      <trkpt lat="42.48997" lon="1.88229">
        <ele>1652.16</ele>
        <time>2021-07-07T05:12:43Z</time>
      </trkpt>
      <trkpt lat="42.49003" lon="1.88218">
        <ele>1652.64</ele>
        <time>2021-07-07T05:12:50Z</time>
      </trkpt>
      <trkpt lat="42.49002" lon="1.88211">
        <ele>1653.12</ele>
        <time>2021-07-07T05:12:53Z</time>
      </trkpt>
      <trkpt lat="42.49008" lon="1.882">
        <ele>1654.57</ele>
        <time>2021-07-07T05:13:00Z</time>
      </trkpt>
      <trkpt lat="42.4901" lon="1.88197">
        <ele>1654.57</ele>
        <time>2021-07-07T05:13:02Z</time>
      </trkpt>
      <trkpt lat="42.49019" lon="1.88183">
        <ele>1655.53</ele>
        <time>2021-07-07T05:13:11Z</time>
      </trkpt>
      <trkpt lat="42.49024" lon="1.8818">
        <ele>1656.01</ele>
        <time>2021-07-07T05:13:15Z</time>
      </trkpt>
      <trkpt lat="42.49025" lon="1.8818">
        <ele>1656.01</ele>
        <time>2021-07-07T05:13:16Z</time>
      </trkpt>
      <trkpt lat="42.4903" lon="1.88176">
        <ele>1656.49</ele>
        <time>2021-07-07T05:13:24Z</time>
      </trkpt>
      <trkpt lat="42.49031" lon="1.88176">
        <ele>1656.49</ele>
        <time>2021-07-07T05:13:31Z</time>
      </trkpt>
      <trkpt lat="42.49035" lon="1.88174">
        <ele>1656.49</ele>
        <time>2021-07-07T05:13:37Z</time>
      </trkpt>
      <trkpt lat="42.49043" lon="1.88174">
        <ele>1656.49</ele>
        <time>2021-07-07T05:13:43Z</time>
      </trkpt>
      <trkpt lat="42.49052" lon="1.88168">
        <ele>1656.49</ele>
        <time>2021-07-07T05:13:50Z</time>
      </trkpt>
      <trkpt lat="42.49061" lon="1.88161">
        <ele>1657.45</ele>
        <time>2021-07-07T05:13:57Z</time>
      </trkpt>
      <trkpt lat="42.49063" lon="1.88154">
        <ele>1657.93</ele>
        <time>2021-07-07T05:14:02Z</time>
      </trkpt>
      <trkpt lat="42.49069" lon="1.88146">
        <ele>1658.41</ele>
        <time>2021-07-07T05:14:09Z</time>
      </trkpt>
      <trkpt lat="42.49073" lon="1.88141">
        <ele>1659.37</ele>
        <time>2021-07-07T05:14:16Z</time>
      </trkpt>
      <trkpt lat="42.49078" lon="1.8814">
        <ele>1660.33</ele>
        <time>2021-07-07T05:14:21Z</time>
      </trkpt>
      <trkpt lat="42.49088" lon="1.88132">
        <ele>1661.3</ele>
        <time>2021-07-07T05:14:29Z</time>
      </trkpt>
      <trkpt lat="42.49097" lon="1.88124">
        <ele>1662.74</ele>
        <time>2021-07-07T05:14:36Z</time>
      </trkpt>
      <trkpt lat="42.49098" lon="1.88123">
        <ele>1662.74</ele>
        <time>2021-07-07T05:14:37Z</time>
      </trkpt>
      <trkpt lat="42.49105" lon="1.88111">
        <ele>1664.18</ele>
        <time>2021-07-07T05:14:47Z</time>
      </trkpt>
      <trkpt lat="42.49109" lon="1.88104">
        <ele>1665.62</ele>
        <time>2021-07-07T05:14:54Z</time>
      </trkpt>
      <trkpt lat="42.49111" lon="1.88097">
        <ele>1666.58</ele>
        <time>2021-07-07T05:15:00Z</time>
      </trkpt>
      <trkpt lat="42.49111" lon="1.88092">
        <ele>1667.06</ele>
        <time>2021-07-07T05:15:03Z</time>
      </trkpt>
      <trkpt lat="42.49115" lon="1.88078">
        <ele>1668.51</ele>
        <time>2021-07-07T05:15:13Z</time>
      </trkpt>
      <trkpt lat="42.49117" lon="1.8807">
        <ele>1669.95</ele>
        <time>2021-07-07T05:15:19Z</time>
      </trkpt>
      <trkpt lat="42.49119" lon="1.88065">
        <ele>1671.39</ele>
        <time>2021-07-07T05:15:26Z</time>
      </trkpt>
      <trkpt lat="42.4912" lon="1.88057">
        <ele>1673.31</ele>
        <time>2021-07-07T05:15:33Z</time>
      </trkpt>
      <trkpt lat="42.4912" lon="1.88049">
        <ele>1675.23</ele>
        <time>2021-07-07T05:15:41Z</time>
      </trkpt>
      <trkpt lat="42.49119" lon="1.88046">
        <ele>1675.72</ele>
        <time>2021-07-07T05:15:43Z</time>
      </trkpt>
      <trkpt lat="42.49118" lon="1.88037">
        <ele>1677.16</ele>
        <time>2021-07-07T05:15:50Z</time>
      </trkpt>
      <trkpt lat="42.49118" lon="1.88031">
        <ele>1677.64</ele>
        <time>2021-07-07T05:15:54Z</time>
      </trkpt>
      <trkpt lat="42.49114" lon="1.88023">
        <ele>1678.6</ele>
        <time>2021-07-07T05:16:01Z</time>
      </trkpt>
      <trkpt lat="42.4911" lon="1.8802">
        <ele>1680.04</ele>
        <time>2021-07-07T05:16:05Z</time>
      </trkpt>
      <trkpt lat="42.49109" lon="1.88013">
        <ele>1680.04</ele>
        <time>2021-07-07T05:16:10Z</time>
      </trkpt>
      <trkpt lat="42.49104" lon="1.88001">
        <ele>1681</ele>
        <time>2021-07-07T05:16:18Z</time>
      </trkpt>
      <trkpt lat="42.49102" lon="1.87997">
        <ele>1681</ele>
        <time>2021-07-07T05:16:20Z</time>
      </trkpt>
      <trkpt lat="42.49101" lon="1.87984">
        <ele>1681.48</ele>
        <time>2021-07-07T05:16:28Z</time>
      </trkpt>
      <trkpt lat="42.491" lon="1.87982">
        <ele>1681.48</ele>
        <time>2021-07-07T05:16:29Z</time>
      </trkpt>
      <trkpt lat="42.491" lon="1.87977">
        <ele>1682.44</ele>
        <time>2021-07-07T05:16:32Z</time>
      </trkpt>
      <trkpt lat="42.49099" lon="1.87969">
        <ele>1683.41</ele>
        <time>2021-07-07T05:16:39Z</time>
      </trkpt>
      <trkpt lat="42.49099" lon="1.8797">
        <ele>1683.41</ele>
        <time>2021-07-07T05:16:54Z</time>
      </trkpt>
      <trkpt lat="42.49099" lon="1.8797">
        <ele>1684.37</ele>
        <time>2021-07-07T05:17:08Z</time>
      </trkpt>
      <trkpt lat="42.49098" lon="1.8797">
        <ele>1683.89</ele>
        <time>2021-07-07T05:17:27Z</time>
      </trkpt>
      <trkpt lat="42.49099" lon="1.8797">
        <ele>1683.41</ele>
        <time>2021-07-07T05:17:37Z</time>
      </trkpt>
      <trkpt lat="42.49098" lon="1.87967">
        <ele>1683.41</ele>
        <time>2021-07-07T05:17:39Z</time>
      </trkpt>
      <trkpt lat="42.49099" lon="1.87957">
        <ele>1683.89</ele>
        <time>2021-07-07T05:17:44Z</time>
      </trkpt>
      <trkpt lat="42.49105" lon="1.87948">
        <ele>1685.33</ele>
        <time>2021-07-07T05:17:51Z</time>
      </trkpt>
      <trkpt lat="42.49109" lon="1.87944">
        <ele>1686.29</ele>
        <time>2021-07-07T05:17:56Z</time>
      </trkpt>
      <trkpt lat="42.49118" lon="1.8794">
        <ele>1687.73</ele>
        <time>2021-07-07T05:18:04Z</time>
      </trkpt>
      <trkpt lat="42.49123" lon="1.87934">
        <ele>1689.65</ele>
        <time>2021-07-07T05:18:11Z</time>
      </trkpt>
      <trkpt lat="42.49125" lon="1.87929">
        <ele>1691.58</ele>
        <time>2021-07-07T05:18:17Z</time>
      </trkpt>
      <trkpt lat="42.49128" lon="1.87924">
        <ele>1693.02</ele>
        <time>2021-07-07T05:18:23Z</time>
      </trkpt>
      <trkpt lat="42.49133" lon="1.87917">
        <ele>1695.42</ele>
        <time>2021-07-07T05:18:32Z</time>
      </trkpt>
      <trkpt lat="42.49134" lon="1.8791">
        <ele>1696.86</ele>
        <time>2021-07-07T05:18:39Z</time>
      </trkpt>
      <trkpt lat="42.49136" lon="1.87905">
        <ele>1698.79</ele>
        <time>2021-07-07T05:18:47Z</time>
      </trkpt>
      <trkpt lat="42.49136" lon="1.879">
        <ele>1700.23</ele>
        <time>2021-07-07T05:18:52Z</time>
      </trkpt>
      <trkpt lat="42.49136" lon="1.87894">
        <ele>1702.15</ele>
        <time>2021-07-07T05:19:00Z</time>
      </trkpt>
      <trkpt lat="42.4914" lon="1.87892">
        <ele>1703.59</ele>
        <time>2021-07-07T05:19:08Z</time>
      </trkpt>
      <trkpt lat="42.49144" lon="1.87886">
        <ele>1705.04</ele>
        <time>2021-07-07T05:19:16Z</time>
      </trkpt>
      <trkpt lat="42.49147" lon="1.87881">
        <ele>1706.48</ele>
        <time>2021-07-07T05:19:24Z</time>
      </trkpt>
      <trkpt lat="42.49148" lon="1.87874">
        <ele>1708.4</ele>
        <time>2021-07-07T05:19:31Z</time>
      </trkpt>
      <trkpt lat="42.49149" lon="1.87866">
        <ele>1709.84</ele>
        <time>2021-07-07T05:19:38Z</time>
      </trkpt>
      <trkpt lat="42.4915" lon="1.87858">
        <ele>1710.8</ele>
        <time>2021-07-07T05:19:44Z</time>
      </trkpt>
      <trkpt lat="42.49153" lon="1.87852">
        <ele>1712.25</ele>
        <time>2021-07-07T05:19:50Z</time>
      </trkpt>
      <trkpt lat="42.49155" lon="1.87843">
        <ele>1714.17</ele>
        <time>2021-07-07T05:19:57Z</time>
      </trkpt>
      <trkpt lat="42.49159" lon="1.87836">
        <ele>1715.13</ele>
        <time>2021-07-07T05:20:04Z</time>
      </trkpt>
      <trkpt lat="42.49164" lon="1.87828">
        <ele>1716.57</ele>
        <time>2021-07-07T05:20:12Z</time>
      </trkpt>
      <trkpt lat="42.49167" lon="1.87821">
        <ele>1718.01</ele>
        <time>2021-07-07T05:20:19Z</time>
      </trkpt>
      <trkpt lat="42.49167" lon="1.8782">
        <ele>1718.01</ele>
        <time>2021-07-07T05:20:20Z</time>
      </trkpt>
      <trkpt lat="42.4917" lon="1.87814">
        <ele>1718.49</ele>
        <time>2021-07-07T05:20:24Z</time>
      </trkpt>
      <trkpt lat="42.49175" lon="1.87805">
        <ele>1719.46</ele>
        <time>2021-07-07T05:20:31Z</time>
      </trkpt>
      <trkpt lat="42.49178" lon="1.878">
        <ele>1719.94</ele>
        <time>2021-07-07T05:20:35Z</time>
      </trkpt>
      <trkpt lat="42.49179" lon="1.87796">
        <ele>1720.42</ele>
        <time>2021-07-07T05:20:38Z</time>
      </trkpt>
      <trkpt lat="42.49181" lon="1.87791">
        <ele>1720.9</ele>
        <time>2021-07-07T05:20:41Z</time>
      </trkpt>
      <trkpt lat="42.49183" lon="1.87783">
        <ele>1722.82</ele>
        <time>2021-07-07T05:20:48Z</time>
      </trkpt>
      <trkpt lat="42.49183" lon="1.87775">
        <ele>1724.26</ele>
        <time>2021-07-07T05:20:55Z</time>
      </trkpt>
      <trkpt lat="42.49183" lon="1.87766">
        <ele>1725.22</ele>
        <time>2021-07-07T05:21:01Z</time>
      </trkpt>
      <trkpt lat="42.49183" lon="1.87763">
        <ele>1725.7</ele>
        <time>2021-07-07T05:21:04Z</time>
      </trkpt>
      <trkpt lat="42.49184" lon="1.87756">
        <ele>1727.15</ele>
        <time>2021-07-07T05:21:10Z</time>
      </trkpt>
      <trkpt lat="42.49187" lon="1.87752">
        <ele>1728.59</ele>
        <time>2021-07-07T05:21:16Z</time>
      </trkpt>
      <trkpt lat="42.49191" lon="1.87748">
        <ele>1730.51</ele>
        <time>2021-07-07T05:21:24Z</time>
      </trkpt>
      <trkpt lat="42.49193" lon="1.87743">
        <ele>1732.43</ele>
        <time>2021-07-07T05:21:31Z</time>
      </trkpt>
      <trkpt lat="42.49195" lon="1.87735">
        <ele>1733.39</ele>
        <time>2021-07-07T05:21:38Z</time>
      </trkpt>
      <trkpt lat="42.49196" lon="1.87729">
        <ele>1734.84</ele>
        <time>2021-07-07T05:21:44Z</time>
      </trkpt>
      <trkpt lat="42.492" lon="1.87722">
        <ele>1735.8</ele>
        <time>2021-07-07T05:21:51Z</time>
      </trkpt>
      <trkpt lat="42.49201" lon="1.87719">
        <ele>1737.72</ele>
        <time>2021-07-07T05:22:00Z</time>
      </trkpt>
      <trkpt lat="42.49203" lon="1.87714">
        <ele>1739.16</ele>
        <time>2021-07-07T05:22:07Z</time>
      </trkpt>
      <trkpt lat="42.49206" lon="1.87711">
        <ele>1740.6</ele>
        <time>2021-07-07T05:22:14Z</time>
      </trkpt>
      <trkpt lat="42.49207" lon="1.8771">
        <ele>1740.6</ele>
        <time>2021-07-07T05:22:15Z</time>
      </trkpt>
      <trkpt lat="42.49212" lon="1.87705">
        <ele>1742.53</ele>
        <time>2021-07-07T05:22:22Z</time>
      </trkpt>
      <trkpt lat="42.49215" lon="1.87698">
        <ele>1743.97</ele>
        <time>2021-07-07T05:22:29Z</time>
      </trkpt>
      <trkpt lat="42.49218" lon="1.87692">
        <ele>1744.93</ele>
        <time>2021-07-07T05:22:35Z</time>
      </trkpt>
      <trkpt lat="42.49221" lon="1.87685">
        <ele>1745.89</ele>
        <time>2021-07-07T05:22:42Z</time>
      </trkpt>
      <trkpt lat="42.49224" lon="1.87679">
        <ele>1747.33</ele>
        <time>2021-07-07T05:22:48Z</time>
      </trkpt>
      <trkpt lat="42.49227" lon="1.87672">
        <ele>1749.26</ele>
        <time>2021-07-07T05:22:56Z</time>
      </trkpt>
      <trkpt lat="42.49229" lon="1.87668">
        <ele>1750.22</ele>
        <time>2021-07-07T05:23:03Z</time>
      </trkpt>
      <trkpt lat="42.49229" lon="1.87664">
        <ele>1752.14</ele>
        <time>2021-07-07T05:23:09Z</time>
      </trkpt>
      <trkpt lat="42.49228" lon="1.87658">
        <ele>1753.58</ele>
        <time>2021-07-07T05:23:16Z</time>
      </trkpt>
      <trkpt lat="42.49228" lon="1.8765">
        <ele>1755.02</ele>
        <time>2021-07-07T05:23:23Z</time>
      </trkpt>
      <trkpt lat="42.49231" lon="1.87643">
        <ele>1755.5</ele>
        <time>2021-07-07T05:23:30Z</time>
      </trkpt>
      <trkpt lat="42.49231" lon="1.87642">
        <ele>1755.5</ele>
        <time>2021-07-07T05:23:42Z</time>
      </trkpt>
      <trkpt lat="42.49231" lon="1.87643">
        <ele>1756.47</ele>
        <time>2021-07-07T05:23:54Z</time>
      </trkpt>
      <trkpt lat="42.49231" lon="1.87639">
        <ele>1755.99</ele>
        <time>2021-07-07T05:24:02Z</time>
      </trkpt>
      <trkpt lat="42.49231" lon="1.87631">
        <ele>1757.43</ele>
        <time>2021-07-07T05:24:09Z</time>
      </trkpt>
      <trkpt lat="42.49232" lon="1.87622">
        <ele>1759.35</ele>
        <time>2021-07-07T05:24:16Z</time>
      </trkpt>
      <trkpt lat="42.4923" lon="1.87608">
        <ele>1761.27</ele>
        <time>2021-07-07T05:24:26Z</time>
      </trkpt>
      <trkpt lat="42.49229" lon="1.87599">
        <ele>1763.68</ele>
        <time>2021-07-07T05:24:33Z</time>
      </trkpt>
      <trkpt lat="42.49226" lon="1.87588">
        <ele>1764.64</ele>
        <time>2021-07-07T05:24:40Z</time>
      </trkpt>
      <trkpt lat="42.49226" lon="1.87577">
        <ele>1766.08</ele>
        <time>2021-07-07T05:24:47Z</time>
      </trkpt>
      <trkpt lat="42.49228" lon="1.87568">
        <ele>1766.56</ele>
        <time>2021-07-07T05:24:54Z</time>
      </trkpt>
      <trkpt lat="42.4923" lon="1.87565">
        <ele>1767.52</ele>
        <time>2021-07-07T05:25:01Z</time>
      </trkpt>
      <trkpt lat="42.49231" lon="1.87565">
        <ele>1767.52</ele>
        <time>2021-07-07T05:25:11Z</time>
      </trkpt>
      <trkpt lat="42.49232" lon="1.87566">
        <ele>1768</ele>
        <time>2021-07-07T05:25:26Z</time>
      </trkpt>
      <trkpt lat="42.49232" lon="1.87565">
        <ele>1768</ele>
        <time>2021-07-07T05:25:43Z</time>
      </trkpt>
      <trkpt lat="42.49232" lon="1.87565">
        <ele>1768</ele>
        <time>2021-07-07T05:25:44Z</time>
      </trkpt>
      <trkpt lat="42.49237" lon="1.87555">
        <ele>1768.48</ele>
        <time>2021-07-07T05:25:51Z</time>
      </trkpt>
      <trkpt lat="42.49241" lon="1.87549">
        <ele>1769.92</ele>
        <time>2021-07-07T05:25:55Z</time>
      </trkpt>
      <trkpt lat="42.49245" lon="1.8754">
        <ele>1770.41</ele>
        <time>2021-07-07T05:26:01Z</time>
      </trkpt>
      <trkpt lat="42.49251" lon="1.8753">
        <ele>1771.85</ele>
        <time>2021-07-07T05:26:08Z</time>
      </trkpt>
      <trkpt lat="42.49254" lon="1.87526">
        <ele>1772.33</ele>
        <time>2021-07-07T05:26:11Z</time>
      </trkpt>
      <trkpt lat="42.49256" lon="1.87523">
        <ele>1772.81</ele>
        <time>2021-07-07T05:26:14Z</time>
      </trkpt>
      <trkpt lat="42.49259" lon="1.87515">
        <ele>1773.77</ele>
        <time>2021-07-07T05:26:19Z</time>
      </trkpt>
      <trkpt lat="42.49261" lon="1.8751">
        <ele>1774.73</ele>
        <time>2021-07-07T05:26:23Z</time>
      </trkpt>
      <trkpt lat="42.49264" lon="1.87506">
        <ele>1775.21</ele>
        <time>2021-07-07T05:26:27Z</time>
      </trkpt>
      <trkpt lat="42.4927" lon="1.87493">
        <ele>1776.65</ele>
        <time>2021-07-07T05:26:35Z</time>
      </trkpt>
      <trkpt lat="42.49274" lon="1.87486">
        <ele>1777.13</ele>
        <time>2021-07-07T05:26:41Z</time>
      </trkpt>
      <trkpt lat="42.49279" lon="1.87477">
        <ele>1779.06</ele>
        <time>2021-07-07T05:26:49Z</time>
      </trkpt>
      <trkpt lat="42.4928" lon="1.87475">
        <ele>1780.5</ele>
        <time>2021-07-07T05:26:57Z</time>
      </trkpt>
      <trkpt lat="42.49281" lon="1.87474">
        <ele>1780.5</ele>
        <time>2021-07-07T05:27:07Z</time>
      </trkpt>
      <trkpt lat="42.49282" lon="1.87474">
        <ele>1780.5</ele>
        <time>2021-07-07T05:27:20Z</time>
      </trkpt>
      <trkpt lat="42.49282" lon="1.87474">
        <ele>1780.5</ele>
        <time>2021-07-07T05:27:34Z</time>
      </trkpt>
      <trkpt lat="42.49282" lon="1.87474">
        <ele>1781.46</ele>
        <time>2021-07-07T05:27:50Z</time>
      </trkpt>
      <trkpt lat="42.49286" lon="1.87468">
        <ele>1782.42</ele>
        <time>2021-07-07T05:27:58Z</time>
      </trkpt>
      <trkpt lat="42.49287" lon="1.87465">
        <ele>1783.38</ele>
        <time>2021-07-07T05:28:07Z</time>
      </trkpt>
      <trkpt lat="42.4929" lon="1.87463">
        <ele>1783.86</ele>
        <time>2021-07-07T05:28:19Z</time>
      </trkpt>
      <trkpt lat="42.49292" lon="1.87463">
        <ele>1784.34</ele>
        <time>2021-07-07T05:28:26Z</time>
      </trkpt>
      <trkpt lat="42.49297" lon="1.87461">
        <ele>1785.79</ele>
        <time>2021-07-07T05:28:32Z</time>
      </trkpt>
      <trkpt lat="42.49299" lon="1.87458">
        <ele>1786.75</ele>
        <time>2021-07-07T05:28:38Z</time>
      </trkpt>
      <trkpt lat="42.49302" lon="1.87453">
        <ele>1788.19</ele>
        <time>2021-07-07T05:28:45Z</time>
      </trkpt>
      <trkpt lat="42.49306" lon="1.87443">
        <ele>1788.67</ele>
        <time>2021-07-07T05:28:52Z</time>
      </trkpt>
      <trkpt lat="42.4931" lon="1.87432">
        <ele>1789.63</ele>
        <time>2021-07-07T05:28:59Z</time>
      </trkpt>
      <trkpt lat="42.49311" lon="1.87422">
        <ele>1790.11</ele>
        <time>2021-07-07T05:29:04Z</time>
      </trkpt>
      <trkpt lat="42.49313" lon="1.87409">
        <ele>1791.07</ele>
        <time>2021-07-07T05:29:12Z</time>
      </trkpt>
      <trkpt lat="42.4932" lon="1.87402">
        <ele>1792.03</ele>
        <time>2021-07-07T05:29:19Z</time>
      </trkpt>
      <trkpt lat="42.49324" lon="1.87398">
        <ele>1793</ele>
        <time>2021-07-07T05:29:23Z</time>
      </trkpt>
      <trkpt lat="42.49328" lon="1.87394">
        <ele>1793.48</ele>
        <time>2021-07-07T05:29:28Z</time>
      </trkpt>
      <trkpt lat="42.4933" lon="1.8739">
        <ele>1793.96</ele>
        <time>2021-07-07T05:29:31Z</time>
      </trkpt>
      <trkpt lat="42.49332" lon="1.87385">
        <ele>1794.44</ele>
        <time>2021-07-07T05:29:39Z</time>
      </trkpt>
      <trkpt lat="42.49332" lon="1.87386">
        <ele>1794.44</ele>
        <time>2021-07-07T05:29:52Z</time>
      </trkpt>
      <trkpt lat="42.49332" lon="1.87386">
        <ele>1794.44</ele>
        <time>2021-07-07T05:30:10Z</time>
      </trkpt>
      <trkpt lat="42.49333" lon="1.87388">
        <ele>1794.44</ele>
        <time>2021-07-07T05:30:21Z</time>
      </trkpt>
      <trkpt lat="42.49333" lon="1.87388">
        <ele>1794.44</ele>
        <time>2021-07-07T05:30:33Z</time>
      </trkpt>
      <trkpt lat="42.49333" lon="1.87388">
        <ele>1794.44</ele>
        <time>2021-07-07T05:30:50Z</time>
      </trkpt>
      <trkpt lat="42.49333" lon="1.87388">
        <ele>1794.44</ele>
        <time>2021-07-07T05:31:09Z</time>
      </trkpt>
      <trkpt lat="42.49334" lon="1.87389">
        <ele>1794.92</ele>
        <time>2021-07-07T05:31:26Z</time>
      </trkpt>
      <trkpt lat="42.49334" lon="1.87389">
        <ele>1794.44</ele>
        <time>2021-07-07T05:31:39Z</time>
      </trkpt>
      <trkpt lat="42.49335" lon="1.87387">
        <ele>1794.92</ele>
        <time>2021-07-07T05:31:49Z</time>
      </trkpt>
      <trkpt lat="42.4934" lon="1.87379">
        <ele>1795.88</ele>
        <time>2021-07-07T05:31:55Z</time>
      </trkpt>
      <trkpt lat="42.49344" lon="1.87372">
        <ele>1795.88</ele>
        <time>2021-07-07T05:32:01Z</time>
      </trkpt>
      <trkpt lat="42.49349" lon="1.87363">
        <ele>1796.36</ele>
        <time>2021-07-07T05:32:08Z</time>
      </trkpt>
      <trkpt lat="42.49354" lon="1.87356">
        <ele>1797.32</ele>
        <time>2021-07-07T05:32:13Z</time>
      </trkpt>
      <trkpt lat="42.49357" lon="1.87347">
        <ele>1797.32</ele>
        <time>2021-07-07T05:32:19Z</time>
      </trkpt>
      <trkpt lat="42.49361" lon="1.87336">
        <ele>1795.4</ele>
        <time>2021-07-07T05:32:26Z</time>
      </trkpt>
      <trkpt lat="42.49362" lon="1.87334">
        <ele>1795.88</ele>
        <time>2021-07-07T05:32:27Z</time>
      </trkpt>
      <trkpt lat="42.49364" lon="1.8733">
        <ele>1794.92</ele>
        <time>2021-07-07T05:32:30Z</time>
      </trkpt>
      <trkpt lat="42.4937" lon="1.87323">
        <ele>1793.48</ele>
        <time>2021-07-07T05:32:35Z</time>
      </trkpt>
      <trkpt lat="42.4938" lon="1.87319">
        <ele>1794.44</ele>
        <time>2021-07-07T05:32:44Z</time>
      </trkpt>
      <trkpt lat="42.49383" lon="1.87318">
        <ele>1795.4</ele>
        <time>2021-07-07T05:32:46Z</time>
      </trkpt>
      <trkpt lat="42.49389" lon="1.87313">
        <ele>1796.84</ele>
        <time>2021-07-07T05:32:53Z</time>
      </trkpt>
      <trkpt lat="42.49397" lon="1.8731">
        <ele>1798.28</ele>
        <time>2021-07-07T05:33:00Z</time>
      </trkpt>
      <trkpt lat="42.49405" lon="1.87307">
        <ele>1799.24</ele>
        <time>2021-07-07T05:33:06Z</time>
      </trkpt>
      <trkpt lat="42.49413" lon="1.87304">
        <ele>1800.21</ele>
        <time>2021-07-07T05:33:14Z</time>
      </trkpt>
      <trkpt lat="42.49419" lon="1.87302">
        <ele>1801.17</ele>
        <time>2021-07-07T05:33:19Z</time>
      </trkpt>
      <trkpt lat="42.49427" lon="1.87299">
        <ele>1801.65</ele>
        <time>2021-07-07T05:33:26Z</time>
      </trkpt>
      <trkpt lat="42.49439" lon="1.87293">
        <ele>1803.09</ele>
        <time>2021-07-07T05:33:34Z</time>
      </trkpt>
      <trkpt lat="42.49447" lon="1.87286">
        <ele>1803.57</ele>
        <time>2021-07-07T05:33:41Z</time>
      </trkpt>
      <trkpt lat="42.49448" lon="1.87284">
        <ele>1803.57</ele>
        <time>2021-07-07T05:33:42Z</time>
      </trkpt>
      <trkpt lat="42.4945" lon="1.87282">
        <ele>1804.05</ele>
        <time>2021-07-07T05:33:44Z</time>
      </trkpt>
      <trkpt lat="42.49459" lon="1.87279">
        <ele>1805.49</ele>
        <time>2021-07-07T05:33:51Z</time>
      </trkpt>
      <trkpt lat="42.49469" lon="1.87276">
        <ele>1805.49</ele>
        <time>2021-07-07T05:33:58Z</time>
      </trkpt>
      <trkpt lat="42.49477" lon="1.87276">
        <ele>1806.45</ele>
        <time>2021-07-07T05:34:04Z</time>
      </trkpt>
      <trkpt lat="42.49482" lon="1.87275">
        <ele>1806.94</ele>
        <time>2021-07-07T05:34:12Z</time>
      </trkpt>
      <trkpt lat="42.49484" lon="1.87275">
        <ele>1806.94</ele>
        <time>2021-07-07T05:34:17Z</time>
      </trkpt>
      <trkpt lat="42.49485" lon="1.87274">
        <ele>1806.94</ele>
        <time>2021-07-07T05:34:23Z</time>
      </trkpt>
      <trkpt lat="42.49486" lon="1.87272">
        <ele>1807.42</ele>
        <time>2021-07-07T05:34:30Z</time>
      </trkpt>
      <trkpt lat="42.49485" lon="1.87271">
        <ele>1806.94</ele>
        <time>2021-07-07T05:34:35Z</time>
      </trkpt>
      <trkpt lat="42.49485" lon="1.87267">
        <ele>1807.42</ele>
        <time>2021-07-07T05:34:41Z</time>
      </trkpt>
      <trkpt lat="42.49487" lon="1.87263">
        <ele>1808.38</ele>
        <time>2021-07-07T05:34:46Z</time>
      </trkpt>
      <trkpt lat="42.49493" lon="1.87259">
        <ele>1809.34</ele>
        <time>2021-07-07T05:34:54Z</time>
      </trkpt>
      <trkpt lat="42.49492" lon="1.87258">
        <ele>1809.82</ele>
        <time>2021-07-07T05:35:04Z</time>
      </trkpt>
      <trkpt lat="42.49493" lon="1.87258">
        <ele>1809.82</ele>
        <time>2021-07-07T05:35:18Z</time>
      </trkpt>
      <trkpt lat="42.49496" lon="1.87256">
        <ele>1810.3</ele>
        <time>2021-07-07T05:35:21Z</time>
      </trkpt>
      <trkpt lat="42.495" lon="1.87247">
        <ele>1811.74</ele>
        <time>2021-07-07T05:35:28Z</time>
      </trkpt>
      <trkpt lat="42.495" lon="1.87245">
        <ele>1811.74</ele>
        <time>2021-07-07T05:35:35Z</time>
      </trkpt>
      <trkpt lat="42.49501" lon="1.87245">
        <ele>1812.22</ele>
        <time>2021-07-07T05:35:36Z</time>
      </trkpt>
      <trkpt lat="42.495" lon="1.8724">
        <ele>1812.22</ele>
        <time>2021-07-07T05:35:39Z</time>
      </trkpt>
      <trkpt lat="42.49496" lon="1.87228">
        <ele>1813.66</ele>
        <time>2021-07-07T05:35:46Z</time>
      </trkpt>
      <trkpt lat="42.49491" lon="1.87216">
        <ele>1814.63</ele>
        <time>2021-07-07T05:35:53Z</time>
      </trkpt>
      <trkpt lat="42.4949" lon="1.8721">
        <ele>1815.11</ele>
        <time>2021-07-07T05:35:57Z</time>
      </trkpt>
      <trkpt lat="42.49492" lon="1.87206">
        <ele>1815.59</ele>
        <time>2021-07-07T05:36:00Z</time>
      </trkpt>
      <trkpt lat="42.49491" lon="1.87196">
        <ele>1817.03</ele>
        <time>2021-07-07T05:36:07Z</time>
      </trkpt>
      <trkpt lat="42.49491" lon="1.87194">
        <ele>1817.99</ele>
        <time>2021-07-07T05:36:09Z</time>
      </trkpt>
      <trkpt lat="42.49494" lon="1.87186">
        <ele>1819.43</ele>
        <time>2021-07-07T05:36:16Z</time>
      </trkpt>
      <trkpt lat="42.49495" lon="1.87179">
        <ele>1821.35</ele>
        <time>2021-07-07T05:36:23Z</time>
      </trkpt>
      <trkpt lat="42.49495" lon="1.87175">
        <ele>1822.32</ele>
        <time>2021-07-07T05:36:26Z</time>
      </trkpt>
      <trkpt lat="42.49497" lon="1.87167">
        <ele>1823.76</ele>
        <time>2021-07-07T05:36:34Z</time>
      </trkpt>
      <trkpt lat="42.49499" lon="1.87158">
        <ele>1825.2</ele>
        <time>2021-07-07T05:36:41Z</time>
      </trkpt>
      <trkpt lat="42.49501" lon="1.87152">
        <ele>1826.16</ele>
        <time>2021-07-07T05:36:47Z</time>
      </trkpt>
      <trkpt lat="42.49498" lon="1.87146">
        <ele>1826.16</ele>
        <time>2021-07-07T05:36:51Z</time>
      </trkpt>
      <trkpt lat="42.49499" lon="1.87139">
        <ele>1827.6</ele>
        <time>2021-07-07T05:36:58Z</time>
      </trkpt>
      <trkpt lat="42.49499" lon="1.87134">
        <ele>1828.56</ele>
        <time>2021-07-07T05:37:03Z</time>
      </trkpt>
      <trkpt lat="42.49499" lon="1.87132">
        <ele>1829.05</ele>
        <time>2021-07-07T05:37:05Z</time>
      </trkpt>
      <trkpt lat="42.49499" lon="1.87125">
        <ele>1830.49</ele>
        <time>2021-07-07T05:37:12Z</time>
      </trkpt>
      <trkpt lat="42.49501" lon="1.87119">
        <ele>1831.93</ele>
        <time>2021-07-07T05:37:18Z</time>
      </trkpt>
      <trkpt lat="42.49504" lon="1.87112">
        <ele>1833.37</ele>
        <time>2021-07-07T05:37:25Z</time>
      </trkpt>
      <trkpt lat="42.49508" lon="1.87104">
        <ele>1834.81</ele>
        <time>2021-07-07T05:37:32Z</time>
      </trkpt>
      <trkpt lat="42.49513" lon="1.87097">
        <ele>1835.77</ele>
        <time>2021-07-07T05:37:40Z</time>
      </trkpt>
      <trkpt lat="42.4952" lon="1.87095">
        <ele>1836.26</ele>
        <time>2021-07-07T05:37:46Z</time>
      </trkpt>
      <trkpt lat="42.49531" lon="1.87091">
        <ele>1838.18</ele>
        <time>2021-07-07T05:37:57Z</time>
      </trkpt>
      <trkpt lat="42.4954" lon="1.87088">
        <ele>1839.14</ele>
        <time>2021-07-07T05:38:05Z</time>
      </trkpt>
      <trkpt lat="42.49543" lon="1.87084">
        <ele>1840.58</ele>
        <time>2021-07-07T05:38:11Z</time>
      </trkpt>
      <trkpt lat="42.49544" lon="1.8708">
        <ele>1842.02</ele>
        <time>2021-07-07T05:38:18Z</time>
      </trkpt>
      <trkpt lat="42.49545" lon="1.87074">
        <ele>1843.47</ele>
        <time>2021-07-07T05:38:25Z</time>
      </trkpt>
      <trkpt lat="42.49546" lon="1.87069">
        <ele>1845.39</ele>
        <time>2021-07-07T05:38:32Z</time>
      </trkpt>
      <trkpt lat="42.49548" lon="1.87065">
        <ele>1846.83</ele>
        <time>2021-07-07T05:38:38Z</time>
      </trkpt>
      <trkpt lat="42.49552" lon="1.87061">
        <ele>1848.75</ele>
        <time>2021-07-07T05:38:46Z</time>
      </trkpt>
      <trkpt lat="42.49554" lon="1.87062">
        <ele>1849.71</ele>
        <time>2021-07-07T05:38:51Z</time>
      </trkpt>
      <trkpt lat="42.4956" lon="1.87065">
        <ele>1849.23</ele>
        <time>2021-07-07T05:38:55Z</time>
      </trkpt>
      <trkpt lat="42.49566" lon="1.87069">
        <ele>1850.19</ele>
        <time>2021-07-07T05:39:02Z</time>
      </trkpt>
      <trkpt lat="42.4957" lon="1.87069">
        <ele>1851.16</ele>
        <time>2021-07-07T05:39:06Z</time>
      </trkpt>
      <trkpt lat="42.49576" lon="1.8707">
        <ele>1852.6</ele>
        <time>2021-07-07T05:39:14Z</time>
      </trkpt>
      <trkpt lat="42.49582" lon="1.87073">
        <ele>1854.04</ele>
        <time>2021-07-07T05:39:21Z</time>
      </trkpt>
      <trkpt lat="42.4959" lon="1.87076">
        <ele>1855</ele>
        <time>2021-07-07T05:39:29Z</time>
      </trkpt>
      <trkpt lat="42.49595" lon="1.87076">
        <ele>1856.92</ele>
        <time>2021-07-07T05:39:37Z</time>
      </trkpt>
      <trkpt lat="42.49601" lon="1.87076">
        <ele>1858.85</ele>
        <time>2021-07-07T05:39:46Z</time>
      </trkpt>
      <trkpt lat="42.49605" lon="1.87077">
        <ele>1860.29</ele>
        <time>2021-07-07T05:39:52Z</time>
      </trkpt>
      <trkpt lat="42.4961" lon="1.87077">
        <ele>1861.73</ele>
        <time>2021-07-07T05:39:59Z</time>
      </trkpt>
      <trkpt lat="42.49612" lon="1.87078">
        <ele>1862.69</ele>
        <time>2021-07-07T05:40:05Z</time>
      </trkpt>
      <trkpt lat="42.49618" lon="1.87077">
        <ele>1864.61</ele>
        <time>2021-07-07T05:40:13Z</time>
      </trkpt>
      <trkpt lat="42.49621" lon="1.87076">
        <ele>1865.58</ele>
        <time>2021-07-07T05:40:19Z</time>
      </trkpt>
      <trkpt lat="42.49625" lon="1.87079">
        <ele>1867.02</ele>
        <time>2021-07-07T05:40:26Z</time>
      </trkpt>
      <trkpt lat="42.49629" lon="1.87079">
        <ele>1867.98</ele>
        <time>2021-07-07T05:40:32Z</time>
      </trkpt>
      <trkpt lat="42.49631" lon="1.87079">
        <ele>1869.42</ele>
        <time>2021-07-07T05:40:39Z</time>
      </trkpt>
      <trkpt lat="42.49636" lon="1.87077">
        <ele>1870.38</ele>
        <time>2021-07-07T05:40:45Z</time>
      </trkpt>
      <trkpt lat="42.49639" lon="1.87074">
        <ele>1872.3</ele>
        <time>2021-07-07T05:40:52Z</time>
      </trkpt>
      <trkpt lat="42.49642" lon="1.87073">
        <ele>1873.27</ele>
        <time>2021-07-07T05:41:01Z</time>
      </trkpt>
      <trkpt lat="42.49647" lon="1.87074">
        <ele>1874.71</ele>
        <time>2021-07-07T05:41:09Z</time>
      </trkpt>
      <trkpt lat="42.4965" lon="1.87074">
        <ele>1876.15</ele>
        <time>2021-07-07T05:41:17Z</time>
      </trkpt>
      <trkpt lat="42.49656" lon="1.87077">
        <ele>1878.07</ele>
        <time>2021-07-07T05:41:25Z</time>
      </trkpt>
      <trkpt lat="42.4966" lon="1.87076">
        <ele>1879.03</ele>
        <time>2021-07-07T05:41:32Z</time>
      </trkpt>
      <trkpt lat="42.49665" lon="1.87076">
        <ele>1880.48</ele>
        <time>2021-07-07T05:41:38Z</time>
      </trkpt>
      <trkpt lat="42.49668" lon="1.87075">
        <ele>1881.92</ele>
        <time>2021-07-07T05:41:45Z</time>
      </trkpt>
      <trkpt lat="42.49668" lon="1.87075">
        <ele>1881.92</ele>
        <time>2021-07-07T05:41:51Z</time>
      </trkpt>
      <trkpt lat="42.49668" lon="1.87076">
        <ele>1880.96</ele>
        <time>2021-07-07T05:41:55Z</time>
      </trkpt>
      <trkpt lat="42.49667" lon="1.87075">
        <ele>1880.96</ele>
        <time>2021-07-07T05:42:10Z</time>
      </trkpt>
      <trkpt lat="42.49667" lon="1.87075">
        <ele>1880.96</ele>
        <time>2021-07-07T05:42:28Z</time>
      </trkpt>
      <trkpt lat="42.49666" lon="1.87075">
        <ele>1880.96</ele>
        <time>2021-07-07T05:42:48Z</time>
      </trkpt>
      <trkpt lat="42.49666" lon="1.87075">
        <ele>1880.96</ele>
        <time>2021-07-07T05:43:06Z</time>
      </trkpt>
      <trkpt lat="42.49666" lon="1.87075">
        <ele>1880.96</ele>
        <time>2021-07-07T05:43:22Z</time>
      </trkpt>
      <trkpt lat="42.49667" lon="1.87075">
        <ele>1880.96</ele>
        <time>2021-07-07T05:43:40Z</time>
      </trkpt>
      <trkpt lat="42.49667" lon="1.87076">
        <ele>1880.96</ele>
        <time>2021-07-07T05:43:57Z</time>
      </trkpt>
      <trkpt lat="42.49667" lon="1.87076">
        <ele>1881.44</ele>
        <time>2021-07-07T05:44:18Z</time>
      </trkpt>
      <trkpt lat="42.49667" lon="1.87076">
        <ele>1881.44</ele>
        <time>2021-07-07T05:44:44Z</time>
      </trkpt>
      <trkpt lat="42.49667" lon="1.87076">
        <ele>1881.44</ele>
        <time>2021-07-07T05:45:10Z</time>
      </trkpt>
      <trkpt lat="42.49667" lon="1.87075">
        <ele>1881.44</ele>
        <time>2021-07-07T05:45:27Z</time>
      </trkpt>
      <trkpt lat="42.49667" lon="1.87075">
        <ele>1881.44</ele>
        <time>2021-07-07T05:45:42Z</time>
      </trkpt>
      <trkpt lat="42.49667" lon="1.87076">
        <ele>1881.44</ele>
        <time>2021-07-07T05:45:59Z</time>
      </trkpt>
      <trkpt lat="42.49667" lon="1.87076">
        <ele>1881.44</ele>
        <time>2021-07-07T05:46:16Z</time>
      </trkpt>
      <trkpt lat="42.49667" lon="1.87075">
        <ele>1881.44</ele>
        <time>2021-07-07T05:46:30Z</time>
      </trkpt>
      <trkpt lat="42.49667" lon="1.87075">
        <ele>1881.44</ele>
        <time>2021-07-07T05:46:47Z</time>
      </trkpt>
      <trkpt lat="42.49667" lon="1.87075">
        <ele>1881.44</ele>
        <time>2021-07-07T05:47:03Z</time>
      </trkpt>
      <trkpt lat="42.49667" lon="1.87075">
        <ele>1882.4</ele>
        <time>2021-07-07T05:47:11Z</time>
      </trkpt>
      <trkpt lat="42.49668" lon="1.87074">
        <ele>1882.4</ele>
        <time>2021-07-07T05:47:18Z</time>
      </trkpt>
      <trkpt lat="42.49668" lon="1.87075">
        <ele>1882.4</ele>
        <time>2021-07-07T05:47:26Z</time>
      </trkpt>
      <trkpt lat="42.49667" lon="1.87074">
        <ele>1882.88</ele>
        <time>2021-07-07T05:47:35Z</time>
      </trkpt>
      <trkpt lat="42.49667" lon="1.87075">
        <ele>1882.4</ele>
        <time>2021-07-07T05:47:44Z</time>
      </trkpt>
      <trkpt lat="42.49668" lon="1.87075">
        <ele>1882.88</ele>
        <time>2021-07-07T05:47:52Z</time>
      </trkpt>
      <trkpt lat="42.49668" lon="1.87076">
        <ele>1882.88</ele>
        <time>2021-07-07T05:48:09Z</time>
      </trkpt>
      <trkpt lat="42.49667" lon="1.87076">
        <ele>1882.4</ele>
        <time>2021-07-07T05:48:23Z</time>
      </trkpt>
      <trkpt lat="42.49668" lon="1.87076">
        <ele>1882.4</ele>
        <time>2021-07-07T05:48:30Z</time>
      </trkpt>
      <trkpt lat="42.49668" lon="1.87076">
        <ele>1882.88</ele>
        <time>2021-07-07T05:48:36Z</time>
      </trkpt>
      <trkpt lat="42.49669" lon="1.87076">
        <ele>1882.88</ele>
        <time>2021-07-07T05:48:48Z</time>
      </trkpt>
      <trkpt lat="42.49669" lon="1.87076">
        <ele>1876.63</ele>
        <time>2021-07-07T05:48:52Z</time>
      </trkpt>
      <trkpt lat="42.49669" lon="1.87076">
        <ele>1887.21</ele>
        <time>2021-07-07T05:48:53Z</time>
      </trkpt>
      <trkpt lat="42.49669" lon="1.87076">
        <ele>1881.92</ele>
        <time>2021-07-07T05:48:54Z</time>
      </trkpt>
      <trkpt lat="42.49669" lon="1.87076">
        <ele>1885.76</ele>
        <time>2021-07-07T05:48:56Z</time>
      </trkpt>
      <trkpt lat="42.49669" lon="1.87076">
        <ele>1882.4</ele>
        <time>2021-07-07T05:48:57Z</time>
      </trkpt>
      <trkpt lat="42.4967" lon="1.87076">
        <ele>1882.88</ele>
        <time>2021-07-07T05:49:07Z</time>
      </trkpt>
      <trkpt lat="42.49671" lon="1.87077">
        <ele>1882.4</ele>
        <time>2021-07-07T05:49:14Z</time>
      </trkpt>
      <trkpt lat="42.49677" lon="1.87077">
        <ele>1882.88</ele>
        <time>2021-07-07T05:49:21Z</time>
      </trkpt>
      <trkpt lat="42.4968" lon="1.87079">
        <ele>1882.4</ele>
        <time>2021-07-07T05:49:24Z</time>
      </trkpt>
      <trkpt lat="42.49681" lon="1.8708">
        <ele>1881.44</ele>
        <time>2021-07-07T05:49:28Z</time>
      </trkpt>
      <trkpt lat="42.49681" lon="1.87084">
        <ele>1880</ele>
        <time>2021-07-07T05:49:35Z</time>
      </trkpt>
      <trkpt lat="42.49682" lon="1.87086">
        <ele>1880.48</ele>
        <time>2021-07-07T05:49:42Z</time>
      </trkpt>
      <trkpt lat="42.49683" lon="1.87087">
        <ele>1880.48</ele>
        <time>2021-07-07T05:49:54Z</time>
      </trkpt>
      <trkpt lat="42.49683" lon="1.87088">
        <ele>1880.48</ele>
        <time>2021-07-07T05:50:14Z</time>
      </trkpt>
      <trkpt lat="42.49683" lon="1.87087">
        <ele>1880.48</ele>
        <time>2021-07-07T05:50:32Z</time>
      </trkpt>
      <trkpt lat="42.49683" lon="1.87087">
        <ele>1880.96</ele>
        <time>2021-07-07T05:50:41Z</time>
      </trkpt>
      <trkpt lat="42.49683" lon="1.87088">
        <ele>1880.48</ele>
        <time>2021-07-07T05:50:46Z</time>
      </trkpt>
      <trkpt lat="42.49688" lon="1.87092">
        <ele>1881.92</ele>
        <time>2021-07-07T05:50:55Z</time>
      </trkpt>
      <trkpt lat="42.49689" lon="1.87091">
        <ele>1881.92</ele>
        <time>2021-07-07T05:51:04Z</time>
      </trkpt>
      <trkpt lat="42.4969" lon="1.8709">
        <ele>1882.88</ele>
        <time>2021-07-07T05:51:13Z</time>
      </trkpt>
      <trkpt lat="42.4969" lon="1.87089">
        <ele>1883.36</ele>
        <time>2021-07-07T05:51:14Z</time>
      </trkpt>
      <trkpt lat="42.49696" lon="1.87086">
        <ele>1885.28</ele>
        <time>2021-07-07T05:51:22Z</time>
      </trkpt>
      <trkpt lat="42.497" lon="1.87083">
        <ele>1886.72</ele>
        <time>2021-07-07T05:51:28Z</time>
      </trkpt>
      <trkpt lat="42.49701" lon="1.87078">
        <ele>1888.17</ele>
        <time>2021-07-07T05:51:35Z</time>
      </trkpt>
      <trkpt lat="42.49703" lon="1.87078">
        <ele>1890.09</ele>
        <time>2021-07-07T05:51:43Z</time>
      </trkpt>
      <trkpt lat="42.49704" lon="1.87079">
        <ele>1890.09</ele>
        <time>2021-07-07T05:51:44Z</time>
      </trkpt>
      <trkpt lat="42.49707" lon="1.87081">
        <ele>1891.05</ele>
        <time>2021-07-07T05:51:50Z</time>
      </trkpt>
      <trkpt lat="42.4971" lon="1.87083">
        <ele>1892.49</ele>
        <time>2021-07-07T05:51:56Z</time>
      </trkpt>
      <trkpt lat="42.49714" lon="1.87082">
        <ele>1893.93</ele>
        <time>2021-07-07T05:52:02Z</time>
      </trkpt>
      <trkpt lat="42.49717" lon="1.87084">
        <ele>1895.38</ele>
        <time>2021-07-07T05:52:10Z</time>
      </trkpt>
      <trkpt lat="42.49721" lon="1.8708">
        <ele>1896.34</ele>
        <time>2021-07-07T05:52:16Z</time>
      </trkpt>
      <trkpt lat="42.49722" lon="1.87076">
        <ele>1897.3</ele>
        <time>2021-07-07T05:52:23Z</time>
      </trkpt>
      <trkpt lat="42.49726" lon="1.87073">
        <ele>1898.74</ele>
        <time>2021-07-07T05:52:31Z</time>
      </trkpt>
      <trkpt lat="42.49731" lon="1.87074">
        <ele>1900.18</ele>
        <time>2021-07-07T05:52:41Z</time>
      </trkpt>
      <trkpt lat="42.49733" lon="1.87074">
        <ele>1901.14</ele>
        <time>2021-07-07T05:52:47Z</time>
      </trkpt>
      <trkpt lat="42.49735" lon="1.87072">
        <ele>1902.59</ele>
        <time>2021-07-07T05:52:54Z</time>
      </trkpt>
      <trkpt lat="42.49738" lon="1.87073">
        <ele>1903.07</ele>
        <time>2021-07-07T05:53:00Z</time>
      </trkpt>
      <trkpt lat="42.49742" lon="1.87074">
        <ele>1904.51</ele>
        <time>2021-07-07T05:53:07Z</time>
      </trkpt>
      <trkpt lat="42.49745" lon="1.87069">
        <ele>1905.95</ele>
        <time>2021-07-07T05:53:14Z</time>
      </trkpt>
      <trkpt lat="42.49748" lon="1.87066">
        <ele>1907.39</ele>
        <time>2021-07-07T05:53:23Z</time>
      </trkpt>
      <trkpt lat="42.4975" lon="1.87065">
        <ele>1908.83</ele>
        <time>2021-07-07T05:53:32Z</time>
      </trkpt>
      <trkpt lat="42.49753" lon="1.87066">
        <ele>1910.76</ele>
        <time>2021-07-07T05:53:40Z</time>
      </trkpt>
      <trkpt lat="42.49755" lon="1.87065">
        <ele>1910.76</ele>
        <time>2021-07-07T05:53:42Z</time>
      </trkpt>
      <trkpt lat="42.49758" lon="1.8706">
        <ele>1912.68</ele>
        <time>2021-07-07T05:53:50Z</time>
      </trkpt>
      <trkpt lat="42.4976" lon="1.8706">
        <ele>1915.08</ele>
        <time>2021-07-07T05:53:57Z</time>
      </trkpt>
      <trkpt lat="42.49761" lon="1.87061">
        <ele>1914.6</ele>
        <time>2021-07-07T05:54:05Z</time>
      </trkpt>
      <trkpt lat="42.49762" lon="1.87056">
        <ele>1915.08</ele>
        <time>2021-07-07T05:54:11Z</time>
      </trkpt>
      <trkpt lat="42.49764" lon="1.87055">
        <ele>1916.04</ele>
        <time>2021-07-07T05:54:17Z</time>
      </trkpt>
      <trkpt lat="42.49766" lon="1.87055">
        <ele>1917.97</ele>
        <time>2021-07-07T05:54:24Z</time>
      </trkpt>
      <trkpt lat="42.49769" lon="1.87051">
        <ele>1919.41</ele>
        <time>2021-07-07T05:54:32Z</time>
      </trkpt>
      <trkpt lat="42.49771" lon="1.87048">
        <ele>1920.37</ele>
        <time>2021-07-07T05:54:37Z</time>
      </trkpt>
      <trkpt lat="42.49773" lon="1.87046">
        <ele>1921.81</ele>
        <time>2021-07-07T05:54:46Z</time>
      </trkpt>
      <trkpt lat="42.49777" lon="1.87043">
        <ele>1923.25</ele>
        <time>2021-07-07T05:54:54Z</time>
      </trkpt>
      <trkpt lat="42.49779" lon="1.87038">
        <ele>1924.22</ele>
        <time>2021-07-07T05:55:00Z</time>
      </trkpt>
      <trkpt lat="42.49781" lon="1.87031">
        <ele>1925.66</ele>
        <time>2021-07-07T05:55:08Z</time>
      </trkpt>
      <trkpt lat="42.49785" lon="1.87032">
        <ele>1927.1</ele>
        <time>2021-07-07T05:55:17Z</time>
      </trkpt>
      <trkpt lat="42.49787" lon="1.87029">
        <ele>1928.54</ele>
        <time>2021-07-07T05:55:24Z</time>
      </trkpt>
      <trkpt lat="42.49789" lon="1.87025">
        <ele>1929.98</ele>
        <time>2021-07-07T05:55:33Z</time>
      </trkpt>
      <trkpt lat="42.49792" lon="1.87021">
        <ele>1931.43</ele>
        <time>2021-07-07T05:55:41Z</time>
      </trkpt>
      <trkpt lat="42.49794" lon="1.87017">
        <ele>1933.35</ele>
        <time>2021-07-07T05:55:49Z</time>
      </trkpt>
      <trkpt lat="42.49794" lon="1.87013">
        <ele>1933.83</ele>
        <time>2021-07-07T05:55:55Z</time>
      </trkpt>
      <trkpt lat="42.49796" lon="1.87006">
        <ele>1934.79</ele>
        <time>2021-07-07T05:56:03Z</time>
      </trkpt>
      <trkpt lat="42.49796" lon="1.87002">
        <ele>1935.27</ele>
        <time>2021-07-07T05:56:09Z</time>
      </trkpt>
      <trkpt lat="42.49798" lon="1.86996">
        <ele>1936.23</ele>
        <time>2021-07-07T05:56:16Z</time>
      </trkpt>
      <trkpt lat="42.49803" lon="1.86996">
        <ele>1938.16</ele>
        <time>2021-07-07T05:56:24Z</time>
      </trkpt>
      <trkpt lat="42.49805" lon="1.86994">
        <ele>1939.6</ele>
        <time>2021-07-07T05:56:30Z</time>
      </trkpt>
      <trkpt lat="42.49807" lon="1.86989">
        <ele>1941.04</ele>
        <time>2021-07-07T05:56:38Z</time>
      </trkpt>
      <trkpt lat="42.49808" lon="1.86986">
        <ele>1942.96</ele>
        <time>2021-07-07T05:56:44Z</time>
      </trkpt>
      <trkpt lat="42.4981" lon="1.86982">
        <ele>1943.92</ele>
        <time>2021-07-07T05:56:51Z</time>
      </trkpt>
      <trkpt lat="42.49812" lon="1.8698">
        <ele>1945.85</ele>
        <time>2021-07-07T05:56:58Z</time>
      </trkpt>
      <trkpt lat="42.49813" lon="1.8698">
        <ele>1946.33</ele>
        <time>2021-07-07T05:57:05Z</time>
      </trkpt>
      <trkpt lat="42.49812" lon="1.8698">
        <ele>1946.33</ele>
        <time>2021-07-07T05:57:17Z</time>
      </trkpt>
      <trkpt lat="42.49812" lon="1.8698">
        <ele>1946.81</ele>
        <time>2021-07-07T05:57:26Z</time>
      </trkpt>
      <trkpt lat="42.49812" lon="1.8698">
        <ele>1946.81</ele>
        <time>2021-07-07T05:57:42Z</time>
      </trkpt>
      <trkpt lat="42.49812" lon="1.8698">
        <ele>1946.81</ele>
        <time>2021-07-07T05:58:00Z</time>
      </trkpt>
      <trkpt lat="42.49812" lon="1.8698">
        <ele>1946.81</ele>
        <time>2021-07-07T05:58:12Z</time>
      </trkpt>
      <trkpt lat="42.49815" lon="1.86978">
        <ele>1947.77</ele>
        <time>2021-07-07T05:58:18Z</time>
      </trkpt>
      <trkpt lat="42.49816" lon="1.86973">
        <ele>1950.17</ele>
        <time>2021-07-07T05:58:26Z</time>
      </trkpt>
      <trkpt lat="42.49817" lon="1.8697">
        <ele>1951.61</ele>
        <time>2021-07-07T05:58:32Z</time>
      </trkpt>
      <trkpt lat="42.49818" lon="1.86965">
        <ele>1953.54</ele>
        <time>2021-07-07T05:58:39Z</time>
      </trkpt>
      <trkpt lat="42.49819" lon="1.86962">
        <ele>1955.46</ele>
        <time>2021-07-07T05:58:46Z</time>
      </trkpt>
      <trkpt lat="42.49821" lon="1.86961">
        <ele>1955.94</ele>
        <time>2021-07-07T05:58:53Z</time>
      </trkpt>
      <trkpt lat="42.49822" lon="1.86959">
        <ele>1957.38</ele>
        <time>2021-07-07T05:59:00Z</time>
      </trkpt>
      <trkpt lat="42.49823" lon="1.86955">
        <ele>1958.34</ele>
        <time>2021-07-07T05:59:06Z</time>
      </trkpt>
      <trkpt lat="42.49825" lon="1.86953">
        <ele>1959.78</ele>
        <time>2021-07-07T05:59:12Z</time>
      </trkpt>
      <trkpt lat="42.49827" lon="1.86949">
        <ele>1961.23</ele>
        <time>2021-07-07T05:59:17Z</time>
      </trkpt>
      <trkpt lat="42.4983" lon="1.86947">
        <ele>1962.67</ele>
        <time>2021-07-07T05:59:24Z</time>
      </trkpt>
      <trkpt lat="42.49833" lon="1.86942">
        <ele>1964.11</ele>
        <time>2021-07-07T05:59:32Z</time>
      </trkpt>
      <trkpt lat="42.49835" lon="1.86937">
        <ele>1966.03</ele>
        <time>2021-07-07T05:59:39Z</time>
      </trkpt>
      <trkpt lat="42.49839" lon="1.86931">
        <ele>1967.96</ele>
        <time>2021-07-07T05:59:48Z</time>
      </trkpt>
      <trkpt lat="42.4984" lon="1.86928">
        <ele>1968.92</ele>
        <time>2021-07-07T05:59:54Z</time>
      </trkpt>
      <trkpt lat="42.49841" lon="1.8692">
        <ele>1970.84</ele>
        <time>2021-07-07T06:00:02Z</time>
      </trkpt>
      <trkpt lat="42.4984" lon="1.86914">
        <ele>1972.28</ele>
        <time>2021-07-07T06:00:08Z</time>
      </trkpt>
      <trkpt lat="42.49839" lon="1.86909">
        <ele>1973.72</ele>
        <time>2021-07-07T06:00:13Z</time>
      </trkpt>
      <trkpt lat="42.49839" lon="1.86903">
        <ele>1975.17</ele>
        <time>2021-07-07T06:00:20Z</time>
      </trkpt>
      <trkpt lat="42.49836" lon="1.86897">
        <ele>1976.13</ele>
        <time>2021-07-07T06:00:27Z</time>
      </trkpt>
      <trkpt lat="42.49834" lon="1.8689">
        <ele>1977.57</ele>
        <time>2021-07-07T06:00:34Z</time>
      </trkpt>
      <trkpt lat="42.49834" lon="1.86889">
        <ele>1977.57</ele>
        <time>2021-07-07T06:00:35Z</time>
      </trkpt>
      <trkpt lat="42.49835" lon="1.86883">
        <ele>1979.01</ele>
        <time>2021-07-07T06:00:42Z</time>
      </trkpt>
      <trkpt lat="42.49837" lon="1.8688">
        <ele>1980.45</ele>
        <time>2021-07-07T06:00:49Z</time>
      </trkpt>
      <trkpt lat="42.49839" lon="1.86875">
        <ele>1981.9</ele>
        <time>2021-07-07T06:00:55Z</time>
      </trkpt>
      <trkpt lat="42.4984" lon="1.86871">
        <ele>1983.34</ele>
        <time>2021-07-07T06:01:02Z</time>
      </trkpt>
      <trkpt lat="42.49842" lon="1.86863">
        <ele>1985.26</ele>
        <time>2021-07-07T06:01:10Z</time>
      </trkpt>
      <trkpt lat="42.49842" lon="1.86856">
        <ele>1986.7</ele>
        <time>2021-07-07T06:01:18Z</time>
      </trkpt>
      <trkpt lat="42.49839" lon="1.86852">
        <ele>1987.66</ele>
        <time>2021-07-07T06:01:25Z</time>
      </trkpt>
      <trkpt lat="42.4984" lon="1.86849">
        <ele>1989.1</ele>
        <time>2021-07-07T06:01:31Z</time>
      </trkpt>
      <trkpt lat="42.49841" lon="1.86845">
        <ele>1989.59</ele>
        <time>2021-07-07T06:01:36Z</time>
      </trkpt>
      <trkpt lat="42.49841" lon="1.86838">
        <ele>1990.55</ele>
        <time>2021-07-07T06:01:42Z</time>
      </trkpt>
      <trkpt lat="42.49841" lon="1.86835">
        <ele>1991.99</ele>
        <time>2021-07-07T06:01:47Z</time>
      </trkpt>
      <trkpt lat="42.49844" lon="1.86831">
        <ele>1993.91</ele>
        <time>2021-07-07T06:01:55Z</time>
      </trkpt>
      <trkpt lat="42.49845" lon="1.86831">
        <ele>1993.91</ele>
        <time>2021-07-07T06:01:56Z</time>
      </trkpt>
      <trkpt lat="42.49848" lon="1.86825">
        <ele>1995.35</ele>
        <time>2021-07-07T06:02:03Z</time>
      </trkpt>
      <trkpt lat="42.49853" lon="1.86824">
        <ele>1996.8</ele>
        <time>2021-07-07T06:02:10Z</time>
      </trkpt>
      <trkpt lat="42.49854" lon="1.86823">
        <ele>1996.8</ele>
        <time>2021-07-07T06:02:12Z</time>
      </trkpt>
      <trkpt lat="42.49857" lon="1.86821">
        <ele>1997.28</ele>
        <time>2021-07-07T06:02:15Z</time>
      </trkpt>
      <trkpt lat="42.4986" lon="1.86818">
        <ele>1997.76</ele>
        <time>2021-07-07T06:02:18Z</time>
      </trkpt>
      <trkpt lat="42.49864" lon="1.86811">
        <ele>1999.68</ele>
        <time>2021-07-07T06:02:25Z</time>
      </trkpt>
      <trkpt lat="42.49866" lon="1.86808">
        <ele>2000.16</ele>
        <time>2021-07-07T06:02:29Z</time>
      </trkpt>
      <trkpt lat="42.4987" lon="1.86803">
        <ele>2002.08</ele>
        <time>2021-07-07T06:02:37Z</time>
      </trkpt>
      <trkpt lat="42.49872" lon="1.86799">
        <ele>2003.52</ele>
        <time>2021-07-07T06:02:43Z</time>
      </trkpt>
      <trkpt lat="42.49877" lon="1.86794">
        <ele>2004.49</ele>
        <time>2021-07-07T06:02:50Z</time>
      </trkpt>
      <trkpt lat="42.49881" lon="1.86789">
        <ele>2005.93</ele>
        <time>2021-07-07T06:02:57Z</time>
      </trkpt>
      <trkpt lat="42.49885" lon="1.86786">
        <ele>2007.37</ele>
        <time>2021-07-07T06:03:04Z</time>
      </trkpt>
      <trkpt lat="42.49888" lon="1.86782">
        <ele>2008.81</ele>
        <time>2021-07-07T06:03:11Z</time>
      </trkpt>
      <trkpt lat="42.49892" lon="1.86776">
        <ele>2010.25</ele>
        <time>2021-07-07T06:03:18Z</time>
      </trkpt>
      <trkpt lat="42.49893" lon="1.86775">
        <ele>2010.25</ele>
        <time>2021-07-07T06:03:19Z</time>
      </trkpt>
      <trkpt lat="42.49899" lon="1.8677">
        <ele>2011.7</ele>
        <time>2021-07-07T06:03:26Z</time>
      </trkpt>
      <trkpt lat="42.49902" lon="1.86766">
        <ele>2013.62</ele>
        <time>2021-07-07T06:03:33Z</time>
      </trkpt>
      <trkpt lat="42.49903" lon="1.86765">
        <ele>2014.1</ele>
        <time>2021-07-07T06:03:35Z</time>
      </trkpt>
      <trkpt lat="42.49907" lon="1.86761">
        <ele>2015.06</ele>
        <time>2021-07-07T06:03:42Z</time>
      </trkpt>
      <trkpt lat="42.4991" lon="1.86756">
        <ele>2016.5</ele>
        <time>2021-07-07T06:03:47Z</time>
      </trkpt>
      <trkpt lat="42.49912" lon="1.86752">
        <ele>2016.98</ele>
        <time>2021-07-07T06:03:51Z</time>
      </trkpt>
      <trkpt lat="42.49917" lon="1.86744">
        <ele>2018.43</ele>
        <time>2021-07-07T06:04:00Z</time>
      </trkpt>
      <trkpt lat="42.49922" lon="1.86742">
        <ele>2019.87</ele>
        <time>2021-07-07T06:04:07Z</time>
      </trkpt>
      <trkpt lat="42.49923" lon="1.86741">
        <ele>2019.87</ele>
        <time>2021-07-07T06:04:08Z</time>
      </trkpt>
      <trkpt lat="42.49928" lon="1.86737">
        <ele>2020.83</ele>
        <time>2021-07-07T06:04:14Z</time>
      </trkpt>
      <trkpt lat="42.4993" lon="1.86735">
        <ele>2021.79</ele>
        <time>2021-07-07T06:04:18Z</time>
      </trkpt>
      <trkpt lat="42.49936" lon="1.86731">
        <ele>2023.23</ele>
        <time>2021-07-07T06:04:26Z</time>
      </trkpt>
      <trkpt lat="42.49941" lon="1.86728">
        <ele>2024.19</ele>
        <time>2021-07-07T06:04:31Z</time>
      </trkpt>
      <trkpt lat="42.49944" lon="1.86728">
        <ele>2024.67</ele>
        <time>2021-07-07T06:04:35Z</time>
      </trkpt>
      <trkpt lat="42.49951" lon="1.86722">
        <ele>2026.6</ele>
        <time>2021-07-07T06:04:43Z</time>
      </trkpt>
      <trkpt lat="42.49957" lon="1.86718">
        <ele>2027.56</ele>
        <time>2021-07-07T06:04:50Z</time>
      </trkpt>
      <trkpt lat="42.49959" lon="1.86716">
        <ele>2028.04</ele>
        <time>2021-07-07T06:04:53Z</time>
      </trkpt>
      <trkpt lat="42.49967" lon="1.86712">
        <ele>2029.48</ele>
        <time>2021-07-07T06:05:01Z</time>
      </trkpt>
      <trkpt lat="42.49973" lon="1.86709">
        <ele>2030.92</ele>
        <time>2021-07-07T06:05:08Z</time>
      </trkpt>
      <trkpt lat="42.49976" lon="1.86709">
        <ele>2031.88</ele>
        <time>2021-07-07T06:05:14Z</time>
      </trkpt>
      <trkpt lat="42.49981" lon="1.86706">
        <ele>2032.84</ele>
        <time>2021-07-07T06:05:20Z</time>
      </trkpt>
      <trkpt lat="42.49984" lon="1.86705">
        <ele>2033.33</ele>
        <time>2021-07-07T06:05:23Z</time>
      </trkpt>
      <trkpt lat="42.4999" lon="1.86701">
        <ele>2034.77</ele>
        <time>2021-07-07T06:05:29Z</time>
      </trkpt>
      <trkpt lat="42.49994" lon="1.86702">
        <ele>2035.25</ele>
        <time>2021-07-07T06:05:33Z</time>
      </trkpt>
      <trkpt lat="42.5" lon="1.867">
        <ele>2036.69</ele>
        <time>2021-07-07T06:05:40Z</time>
      </trkpt>
      <trkpt lat="42.50001" lon="1.86699">
        <ele>2036.69</ele>
        <time>2021-07-07T06:05:41Z</time>
      </trkpt>
      <trkpt lat="42.50006" lon="1.86691">
        <ele>2038.13</ele>
        <time>2021-07-07T06:05:50Z</time>
      </trkpt>
      <trkpt lat="42.50008" lon="1.86686">
        <ele>2039.09</ele>
        <time>2021-07-07T06:05:54Z</time>
      </trkpt>
      <trkpt lat="42.50011" lon="1.86683">
        <ele>2039.09</ele>
        <time>2021-07-07T06:05:57Z</time>
      </trkpt>
      <trkpt lat="42.50012" lon="1.86681">
        <ele>2039.57</ele>
        <time>2021-07-07T06:05:59Z</time>
      </trkpt>
      <trkpt lat="42.5002" lon="1.86677">
        <ele>2041.02</ele>
        <time>2021-07-07T06:06:08Z</time>
      </trkpt>
      <trkpt lat="42.50023" lon="1.86674">
        <ele>2041.98</ele>
        <time>2021-07-07T06:06:12Z</time>
      </trkpt>
      <trkpt lat="42.50028" lon="1.8667">
        <ele>2043.9</ele>
        <time>2021-07-07T06:06:20Z</time>
      </trkpt>
      <trkpt lat="42.50029" lon="1.86669">
        <ele>2043.9</ele>
        <time>2021-07-07T06:06:22Z</time>
      </trkpt>
      <trkpt lat="42.50033" lon="1.86667">
        <ele>2044.86</ele>
        <time>2021-07-07T06:06:26Z</time>
      </trkpt>
      <trkpt lat="42.50036" lon="1.86667">
        <ele>2045.34</ele>
        <time>2021-07-07T06:06:30Z</time>
      </trkpt>
      <trkpt lat="42.50039" lon="1.86665">
        <ele>2046.78</ele>
        <time>2021-07-07T06:06:34Z</time>
      </trkpt>
      <trkpt lat="42.50043" lon="1.86661">
        <ele>2047.26</ele>
        <time>2021-07-07T06:06:38Z</time>
      </trkpt>
      <trkpt lat="42.50047" lon="1.8666">
        <ele>2048.23</ele>
        <time>2021-07-07T06:06:43Z</time>
      </trkpt>
      <trkpt lat="42.50052" lon="1.86659">
        <ele>2049.67</ele>
        <time>2021-07-07T06:06:49Z</time>
      </trkpt>
      <trkpt lat="42.50058" lon="1.86656">
        <ele>2050.63</ele>
        <time>2021-07-07T06:06:55Z</time>
      </trkpt>
      <trkpt lat="42.50065" lon="1.86655">
        <ele>2052.07</ele>
        <time>2021-07-07T06:07:02Z</time>
      </trkpt>
      <trkpt lat="42.50066" lon="1.86655">
        <ele>2052.07</ele>
        <time>2021-07-07T06:07:04Z</time>
      </trkpt>
      <trkpt lat="42.50074" lon="1.8665">
        <ele>2053.99</ele>
        <time>2021-07-07T06:07:12Z</time>
      </trkpt>
      <trkpt lat="42.50076" lon="1.86647">
        <ele>2053.99</ele>
        <time>2021-07-07T06:07:15Z</time>
      </trkpt>
      <trkpt lat="42.50083" lon="1.86645">
        <ele>2055.44</ele>
        <time>2021-07-07T06:07:24Z</time>
      </trkpt>
      <trkpt lat="42.50083" lon="1.86645">
        <ele>2056.4</ele>
        <time>2021-07-07T06:07:38Z</time>
      </trkpt>
      <trkpt lat="42.50083" lon="1.86645">
        <ele>2056.4</ele>
        <time>2021-07-07T06:07:55Z</time>
      </trkpt>
      <trkpt lat="42.50083" lon="1.86646">
        <ele>2055.44</ele>
        <time>2021-07-07T06:08:04Z</time>
      </trkpt>
      <trkpt lat="42.50083" lon="1.86646">
        <ele>2055.44</ele>
        <time>2021-07-07T06:08:08Z</time>
      </trkpt>
      <trkpt lat="42.50086" lon="1.86643">
        <ele>2055.92</ele>
        <time>2021-07-07T06:08:11Z</time>
      </trkpt>
      <trkpt lat="42.50092" lon="1.86643">
        <ele>2056.88</ele>
        <time>2021-07-07T06:08:17Z</time>
      </trkpt>
      <trkpt lat="42.50094" lon="1.86641">
        <ele>2057.36</ele>
        <time>2021-07-07T06:08:19Z</time>
      </trkpt>
      <trkpt lat="42.50099" lon="1.86638">
        <ele>2058.32</ele>
        <time>2021-07-07T06:08:25Z</time>
      </trkpt>
      <trkpt lat="42.50101" lon="1.86637">
        <ele>2059.28</ele>
        <time>2021-07-07T06:08:27Z</time>
      </trkpt>
      <trkpt lat="42.50108" lon="1.86637">
        <ele>2060.24</ele>
        <time>2021-07-07T06:08:34Z</time>
      </trkpt>
      <trkpt lat="42.50112" lon="1.86635">
        <ele>2060.72</ele>
        <time>2021-07-07T06:08:37Z</time>
      </trkpt>
      <trkpt lat="42.50118" lon="1.86635">
        <ele>2061.68</ele>
        <time>2021-07-07T06:08:44Z</time>
      </trkpt>
      <trkpt lat="42.5012" lon="1.86634">
        <ele>2062.17</ele>
        <time>2021-07-07T06:08:46Z</time>
      </trkpt>
      <trkpt lat="42.5013" lon="1.86629">
        <ele>2063.61</ele>
        <time>2021-07-07T06:08:53Z</time>
      </trkpt>
      <trkpt lat="42.50138" lon="1.86623">
        <ele>2065.05</ele>
        <time>2021-07-07T06:09:01Z</time>
      </trkpt>
      <trkpt lat="42.50141" lon="1.8662">
        <ele>2065.53</ele>
        <time>2021-07-07T06:09:07Z</time>
      </trkpt>
      <trkpt lat="42.50145" lon="1.86617">
        <ele>2066.49</ele>
        <time>2021-07-07T06:09:12Z</time>
      </trkpt>
      <trkpt lat="42.50151" lon="1.86609">
        <ele>2068.41</ele>
        <time>2021-07-07T06:09:20Z</time>
      </trkpt>
      <trkpt lat="42.50155" lon="1.86601">
        <ele>2069.38</ele>
        <time>2021-07-07T06:09:27Z</time>
      </trkpt>
      <trkpt lat="42.50159" lon="1.86595">
        <ele>2069.86</ele>
        <time>2021-07-07T06:09:32Z</time>
      </trkpt>
      <trkpt lat="42.50169" lon="1.86587">
        <ele>2070.34</ele>
        <time>2021-07-07T06:09:40Z</time>
      </trkpt>
      <trkpt lat="42.50177" lon="1.8658">
        <ele>2070.82</ele>
        <time>2021-07-07T06:09:47Z</time>
      </trkpt>
      <trkpt lat="42.50183" lon="1.86577">
        <ele>2071.3</ele>
        <time>2021-07-07T06:09:52Z</time>
      </trkpt>
      <trkpt lat="42.50195" lon="1.86577">
        <ele>2071.78</ele>
        <time>2021-07-07T06:10:01Z</time>
      </trkpt>
      <trkpt lat="42.502" lon="1.86577">
        <ele>2072.26</ele>
        <time>2021-07-07T06:10:07Z</time>
      </trkpt>
      <trkpt lat="42.502" lon="1.86576">
        <ele>2071.78</ele>
        <time>2021-07-07T06:10:12Z</time>
      </trkpt>
      <trkpt lat="42.50209" lon="1.86576">
        <ele>2072.26</ele>
        <time>2021-07-07T06:10:19Z</time>
      </trkpt>
      <trkpt lat="42.50218" lon="1.86573">
        <ele>2073.22</ele>
        <time>2021-07-07T06:10:27Z</time>
      </trkpt>
      <trkpt lat="42.50222" lon="1.86572">
        <ele>2074.18</ele>
        <time>2021-07-07T06:10:31Z</time>
      </trkpt>
      <trkpt lat="42.50226" lon="1.86571">
        <ele>2074.66</ele>
        <time>2021-07-07T06:10:35Z</time>
      </trkpt>
      <trkpt lat="42.50232" lon="1.86567">
        <ele>2076.1</ele>
        <time>2021-07-07T06:10:43Z</time>
      </trkpt>
      <trkpt lat="42.50233" lon="1.86565">
        <ele>2076.59</ele>
        <time>2021-07-07T06:10:45Z</time>
      </trkpt>
      <trkpt lat="42.50236" lon="1.86562">
        <ele>2077.55</ele>
        <time>2021-07-07T06:10:50Z</time>
      </trkpt>
      <trkpt lat="42.50238" lon="1.86562">
        <ele>2078.03</ele>
        <time>2021-07-07T06:10:52Z</time>
      </trkpt>
      <trkpt lat="42.50242" lon="1.86561">
        <ele>2078.51</ele>
        <time>2021-07-07T06:10:59Z</time>
      </trkpt>
      <trkpt lat="42.50247" lon="1.86557">
        <ele>2079.95</ele>
        <time>2021-07-07T06:11:07Z</time>
      </trkpt>
      <trkpt lat="42.50248" lon="1.86556">
        <ele>2079.95</ele>
        <time>2021-07-07T06:11:08Z</time>
      </trkpt>
      <trkpt lat="42.50249" lon="1.86555">
        <ele>2080.43</ele>
        <time>2021-07-07T06:11:10Z</time>
      </trkpt>
      <trkpt lat="42.50252" lon="1.86552">
        <ele>2080.91</ele>
        <time>2021-07-07T06:11:13Z</time>
      </trkpt>
      <trkpt lat="42.5026" lon="1.86549">
        <ele>2082.35</ele>
        <time>2021-07-07T06:11:21Z</time>
      </trkpt>
      <trkpt lat="42.50261" lon="1.86547">
        <ele>2083.79</ele>
        <time>2021-07-07T06:11:28Z</time>
      </trkpt>
      <trkpt lat="42.50268" lon="1.86542">
        <ele>2085.72</ele>
        <time>2021-07-07T06:11:36Z</time>
      </trkpt>
      <trkpt lat="42.50269" lon="1.86541">
        <ele>2085.72</ele>
        <time>2021-07-07T06:11:38Z</time>
      </trkpt>
      <trkpt lat="42.50276" lon="1.86537">
        <ele>2087.16</ele>
        <time>2021-07-07T06:11:45Z</time>
      </trkpt>
      <trkpt lat="42.50284" lon="1.86534">
        <ele>2088.6</ele>
        <time>2021-07-07T06:11:53Z</time>
      </trkpt>
      <trkpt lat="42.5029" lon="1.8653">
        <ele>2090.04</ele>
        <time>2021-07-07T06:12:00Z</time>
      </trkpt>
      <trkpt lat="42.50292" lon="1.8653">
        <ele>2090.52</ele>
        <time>2021-07-07T06:12:04Z</time>
      </trkpt>
      <trkpt lat="42.50295" lon="1.86527">
        <ele>2091.49</ele>
        <time>2021-07-07T06:12:08Z</time>
      </trkpt>
      <trkpt lat="42.503" lon="1.86523">
        <ele>2092.93</ele>
        <time>2021-07-07T06:12:14Z</time>
      </trkpt>
      <trkpt lat="42.50306" lon="1.86522">
        <ele>2094.37</ele>
        <time>2021-07-07T06:12:22Z</time>
      </trkpt>
      <trkpt lat="42.50308" lon="1.86516">
        <ele>2094.85</ele>
        <time>2021-07-07T06:12:28Z</time>
      </trkpt>
      <trkpt lat="42.5031" lon="1.86514">
        <ele>2095.81</ele>
        <time>2021-07-07T06:12:34Z</time>
      </trkpt>
      <trkpt lat="42.50314" lon="1.86512">
        <ele>2096.77</ele>
        <time>2021-07-07T06:12:41Z</time>
      </trkpt>
      <trkpt lat="42.50321" lon="1.86508">
        <ele>2098.21</ele>
        <time>2021-07-07T06:12:50Z</time>
      </trkpt>
      <trkpt lat="42.50324" lon="1.86505">
        <ele>2099.18</ele>
        <time>2021-07-07T06:12:54Z</time>
      </trkpt>
      <trkpt lat="42.50328" lon="1.865">
        <ele>2100.62</ele>
        <time>2021-07-07T06:13:01Z</time>
      </trkpt>
      <trkpt lat="42.50332" lon="1.86499">
        <ele>2102.06</ele>
        <time>2021-07-07T06:13:07Z</time>
      </trkpt>
      <trkpt lat="42.50337" lon="1.86495">
        <ele>2103.5</ele>
        <time>2021-07-07T06:13:14Z</time>
      </trkpt>
      <trkpt lat="42.50338" lon="1.86494">
        <ele>2105.42</ele>
        <time>2021-07-07T06:13:21Z</time>
      </trkpt>
      <trkpt lat="42.50342" lon="1.86489">
        <ele>2106.87</ele>
        <time>2021-07-07T06:13:28Z</time>
      </trkpt>
      <trkpt lat="42.50346" lon="1.86486">
        <ele>2108.31</ele>
        <time>2021-07-07T06:13:35Z</time>
      </trkpt>
      <trkpt lat="42.5035" lon="1.86483">
        <ele>2109.75</ele>
        <time>2021-07-07T06:13:41Z</time>
      </trkpt>
      <trkpt lat="42.50355" lon="1.86477">
        <ele>2111.19</ele>
        <time>2021-07-07T06:13:49Z</time>
      </trkpt>
      <trkpt lat="42.5036" lon="1.86474">
        <ele>2112.63</ele>
        <time>2021-07-07T06:13:56Z</time>
      </trkpt>
      <trkpt lat="42.50364" lon="1.86473">
        <ele>2113.6</ele>
        <time>2021-07-07T06:14:01Z</time>
      </trkpt>
      <trkpt lat="42.50369" lon="1.8647">
        <ele>2115.04</ele>
        <time>2021-07-07T06:14:08Z</time>
      </trkpt>
      <trkpt lat="42.50373" lon="1.86467">
        <ele>2116</ele>
        <time>2021-07-07T06:14:13Z</time>
      </trkpt>
      <trkpt lat="42.50374" lon="1.86467">
        <ele>2116.48</ele>
        <time>2021-07-07T06:14:15Z</time>
      </trkpt>
      <trkpt lat="42.50379" lon="1.86465">
        <ele>2117.44</ele>
        <time>2021-07-07T06:14:22Z</time>
      </trkpt>
      <trkpt lat="42.50382" lon="1.86463">
        <ele>2118.88</ele>
        <time>2021-07-07T06:14:29Z</time>
      </trkpt>
      <trkpt lat="42.50388" lon="1.86459">
        <ele>2120.32</ele>
        <time>2021-07-07T06:14:35Z</time>
      </trkpt>
      <trkpt lat="42.50394" lon="1.86455">
        <ele>2121.29</ele>
        <time>2021-07-07T06:14:43Z</time>
      </trkpt>
      <trkpt lat="42.50399" lon="1.86451">
        <ele>2123.21</ele>
        <time>2021-07-07T06:14:50Z</time>
      </trkpt>
      <trkpt lat="42.50404" lon="1.86446">
        <ele>2124.65</ele>
        <time>2021-07-07T06:14:57Z</time>
      </trkpt>
      <trkpt lat="42.5041" lon="1.86443">
        <ele>2125.61</ele>
        <time>2021-07-07T06:15:04Z</time>
      </trkpt>
      <trkpt lat="42.50414" lon="1.86444">
        <ele>2127.05</ele>
        <time>2021-07-07T06:15:09Z</time>
      </trkpt>
      <trkpt lat="42.50419" lon="1.86444">
        <ele>2128.02</ele>
        <time>2021-07-07T06:15:15Z</time>
      </trkpt>
      <trkpt lat="42.50423" lon="1.86445">
        <ele>2128.5</ele>
        <time>2021-07-07T06:15:22Z</time>
      </trkpt>
      <trkpt lat="42.50425" lon="1.86445">
        <ele>2128.98</ele>
        <time>2021-07-07T06:15:24Z</time>
      </trkpt>
      <trkpt lat="42.50433" lon="1.86445">
        <ele>2130.42</ele>
        <time>2021-07-07T06:15:32Z</time>
      </trkpt>
      <trkpt lat="42.5044" lon="1.86443">
        <ele>2131.38</ele>
        <time>2021-07-07T06:15:39Z</time>
      </trkpt>
      <trkpt lat="42.50442" lon="1.86442">
        <ele>2132.34</ele>
        <time>2021-07-07T06:15:45Z</time>
      </trkpt>
      <trkpt lat="42.50449" lon="1.86437">
        <ele>2133.78</ele>
        <time>2021-07-07T06:15:53Z</time>
      </trkpt>
      <trkpt lat="42.50451" lon="1.86435">
        <ele>2134.26</ele>
        <time>2021-07-07T06:16:00Z</time>
      </trkpt>
      <trkpt lat="42.50452" lon="1.86433">
        <ele>2134.74</ele>
        <time>2021-07-07T06:16:07Z</time>
      </trkpt>
      <trkpt lat="42.50453" lon="1.8643">
        <ele>2135.23</ele>
        <time>2021-07-07T06:16:14Z</time>
      </trkpt>
      <trkpt lat="42.50457" lon="1.86426">
        <ele>2136.19</ele>
        <time>2021-07-07T06:16:20Z</time>
      </trkpt>
      <trkpt lat="42.50459" lon="1.86424">
        <ele>2136.67</ele>
        <time>2021-07-07T06:16:23Z</time>
      </trkpt>
      <trkpt lat="42.50465" lon="1.86413">
        <ele>2138.11</ele>
        <time>2021-07-07T06:16:31Z</time>
      </trkpt>
      <trkpt lat="42.50472" lon="1.86409">
        <ele>2139.55</ele>
        <time>2021-07-07T06:16:39Z</time>
      </trkpt>
      <trkpt lat="42.50478" lon="1.86405">
        <ele>2140.99</ele>
        <time>2021-07-07T06:16:46Z</time>
      </trkpt>
      <trkpt lat="42.50482" lon="1.86402">
        <ele>2141.95</ele>
        <time>2021-07-07T06:16:52Z</time>
      </trkpt>
      <trkpt lat="42.50486" lon="1.86402">
        <ele>2141.95</ele>
        <time>2021-07-07T06:16:55Z</time>
      </trkpt>
      <trkpt lat="42.50494" lon="1.86403">
        <ele>2142.92</ele>
        <time>2021-07-07T06:17:03Z</time>
      </trkpt>
      <trkpt lat="42.50503" lon="1.864">
        <ele>2143.88</ele>
        <time>2021-07-07T06:17:10Z</time>
      </trkpt>
      <trkpt lat="42.50508" lon="1.86397">
        <ele>2145.32</ele>
        <time>2021-07-07T06:17:16Z</time>
      </trkpt>
      <trkpt lat="42.50513" lon="1.86394">
        <ele>2145.8</ele>
        <time>2021-07-07T06:17:21Z</time>
      </trkpt>
      <trkpt lat="42.50516" lon="1.86391">
        <ele>2146.28</ele>
        <time>2021-07-07T06:17:25Z</time>
      </trkpt>
      <trkpt lat="42.50526" lon="1.86385">
        <ele>2148.2</ele>
        <time>2021-07-07T06:17:35Z</time>
      </trkpt>
      <trkpt lat="42.50526" lon="1.86385">
        <ele>2148.2</ele>
        <time>2021-07-07T06:17:36Z</time>
      </trkpt>
      <trkpt lat="42.50529" lon="1.86383">
        <ele>2148.68</ele>
        <time>2021-07-07T06:17:39Z</time>
      </trkpt>
      <trkpt lat="42.50537" lon="1.86378">
        <ele>2150.13</ele>
        <time>2021-07-07T06:17:47Z</time>
      </trkpt>
      <trkpt lat="42.5054" lon="1.86376">
        <ele>2150.13</ele>
        <time>2021-07-07T06:17:49Z</time>
      </trkpt>
      <trkpt lat="42.50553" lon="1.86371">
        <ele>2151.09</ele>
        <time>2021-07-07T06:17:59Z</time>
      </trkpt>
      <trkpt lat="42.50562" lon="1.86366">
        <ele>2152.05</ele>
        <time>2021-07-07T06:18:06Z</time>
      </trkpt>
      <trkpt lat="42.50568" lon="1.86362">
        <ele>2153.01</ele>
        <time>2021-07-07T06:18:13Z</time>
      </trkpt>
      <trkpt lat="42.50569" lon="1.86362">
        <ele>2152.53</ele>
        <time>2021-07-07T06:18:24Z</time>
      </trkpt>
      <trkpt lat="42.5057" lon="1.86362">
        <ele>2153.49</ele>
        <time>2021-07-07T06:18:43Z</time>
      </trkpt>
      <trkpt lat="42.5057" lon="1.86361">
        <ele>2153.49</ele>
        <time>2021-07-07T06:18:51Z</time>
      </trkpt>
      <trkpt lat="42.5057" lon="1.86361">
        <ele>2153.49</ele>
        <time>2021-07-07T06:19:02Z</time>
      </trkpt>
      <trkpt lat="42.50571" lon="1.86361">
        <ele>2153.01</ele>
        <time>2021-07-07T06:19:13Z</time>
      </trkpt>
      <trkpt lat="42.5057" lon="1.86361">
        <ele>2153.01</ele>
        <time>2021-07-07T06:19:24Z</time>
      </trkpt>
      <trkpt lat="42.5057" lon="1.86361">
        <ele>2153.97</ele>
        <time>2021-07-07T06:19:32Z</time>
      </trkpt>
      <trkpt lat="42.5057" lon="1.8636">
        <ele>2153.97</ele>
        <time>2021-07-07T06:19:52Z</time>
      </trkpt>
      <trkpt lat="42.5057" lon="1.86361">
        <ele>2154.93</ele>
        <time>2021-07-07T06:20:06Z</time>
      </trkpt>
      <trkpt lat="42.50569" lon="1.86361">
        <ele>2153.97</ele>
        <time>2021-07-07T06:20:14Z</time>
      </trkpt>
      <trkpt lat="42.5057" lon="1.86361">
        <ele>2153.49</ele>
        <time>2021-07-07T06:20:18Z</time>
      </trkpt>
      <trkpt lat="42.50579" lon="1.86359">
        <ele>2154.45</ele>
        <time>2021-07-07T06:20:26Z</time>
      </trkpt>
      <trkpt lat="42.5059" lon="1.86357">
        <ele>2155.41</ele>
        <time>2021-07-07T06:20:34Z</time>
      </trkpt>
      <trkpt lat="42.50599" lon="1.86353">
        <ele>2155.89</ele>
        <time>2021-07-07T06:20:42Z</time>
      </trkpt>
      <trkpt lat="42.50608" lon="1.86346">
        <ele>2156.86</ele>
        <time>2021-07-07T06:20:50Z</time>
      </trkpt>
      <trkpt lat="42.50619" lon="1.86343">
        <ele>2157.34</ele>
        <time>2021-07-07T06:20:59Z</time>
      </trkpt>
      <trkpt lat="42.50623" lon="1.86341">
        <ele>2157.82</ele>
        <time>2021-07-07T06:21:02Z</time>
      </trkpt>
      <trkpt lat="42.50632" lon="1.86338">
        <ele>2158.3</ele>
        <time>2021-07-07T06:21:09Z</time>
      </trkpt>
      <trkpt lat="42.50642" lon="1.86333">
        <ele>2159.26</ele>
        <time>2021-07-07T06:21:17Z</time>
      </trkpt>
      <trkpt lat="42.50644" lon="1.86334">
        <ele>2159.26</ele>
        <time>2021-07-07T06:21:19Z</time>
      </trkpt>
      <trkpt lat="42.50657" lon="1.86329">
        <ele>2160.22</ele>
        <time>2021-07-07T06:21:29Z</time>
      </trkpt>
      <trkpt lat="42.50667" lon="1.86326">
        <ele>2161.18</ele>
        <time>2021-07-07T06:21:37Z</time>
      </trkpt>
      <trkpt lat="42.50678" lon="1.86325">
        <ele>2162.62</ele>
        <time>2021-07-07T06:21:46Z</time>
      </trkpt>
      <trkpt lat="42.50681" lon="1.86324">
        <ele>2163.1</ele>
        <time>2021-07-07T06:21:49Z</time>
      </trkpt>
      <trkpt lat="42.50683" lon="1.86322">
        <ele>2163.58</ele>
        <time>2021-07-07T06:21:51Z</time>
      </trkpt>
      <trkpt lat="42.50695" lon="1.86319">
        <ele>2165.03</ele>
        <time>2021-07-07T06:22:00Z</time>
      </trkpt>
      <trkpt lat="42.50697" lon="1.86318">
        <ele>2164.55</ele>
        <time>2021-07-07T06:22:02Z</time>
      </trkpt>
      <trkpt lat="42.50701" lon="1.86317">
        <ele>2165.51</ele>
        <time>2021-07-07T06:22:06Z</time>
      </trkpt>
      <trkpt lat="42.50712" lon="1.86316">
        <ele>2165.99</ele>
        <time>2021-07-07T06:22:14Z</time>
      </trkpt>
      <trkpt lat="42.50721" lon="1.86315">
        <ele>2166.95</ele>
        <time>2021-07-07T06:22:22Z</time>
      </trkpt>
      <trkpt lat="42.50729" lon="1.86312">
        <ele>2167.91</ele>
        <time>2021-07-07T06:22:29Z</time>
      </trkpt>
      <trkpt lat="42.5073" lon="1.86311">
        <ele>2168.87</ele>
        <time>2021-07-07T06:22:32Z</time>
      </trkpt>
      <trkpt lat="42.50734" lon="1.86311">
        <ele>2169.35</ele>
        <time>2021-07-07T06:22:35Z</time>
      </trkpt>
      <trkpt lat="42.50745" lon="1.86307">
        <ele>2170.79</ele>
        <time>2021-07-07T06:22:44Z</time>
      </trkpt>
      <trkpt lat="42.50753" lon="1.86303">
        <ele>2171.76</ele>
        <time>2021-07-07T06:22:51Z</time>
      </trkpt>
      <trkpt lat="42.50761" lon="1.86299">
        <ele>2172.72</ele>
        <time>2021-07-07T06:22:58Z</time>
      </trkpt>
      <trkpt lat="42.50763" lon="1.86299">
        <ele>2172.72</ele>
        <time>2021-07-07T06:23:00Z</time>
      </trkpt>
      <trkpt lat="42.50769" lon="1.86299">
        <ele>2173.68</ele>
        <time>2021-07-07T06:23:06Z</time>
      </trkpt>
      <trkpt lat="42.50772" lon="1.86297">
        <ele>2174.16</ele>
        <time>2021-07-07T06:23:09Z</time>
      </trkpt>
      <trkpt lat="42.50784" lon="1.86292">
        <ele>2174.64</ele>
        <time>2021-07-07T06:23:18Z</time>
      </trkpt>
      <trkpt lat="42.50792" lon="1.86288">
        <ele>2175.12</ele>
        <time>2021-07-07T06:23:25Z</time>
      </trkpt>
      <trkpt lat="42.50798" lon="1.86285">
        <ele>2175.6</ele>
        <time>2021-07-07T06:23:30Z</time>
      </trkpt>
      <trkpt lat="42.508" lon="1.86284">
        <ele>2176.08</ele>
        <time>2021-07-07T06:23:32Z</time>
      </trkpt>
      <trkpt lat="42.50811" lon="1.86274">
        <ele>2177.52</ele>
        <time>2021-07-07T06:23:43Z</time>
      </trkpt>
      <trkpt lat="42.50817" lon="1.86266">
        <ele>2178</ele>
        <time>2021-07-07T06:23:50Z</time>
      </trkpt>
      <trkpt lat="42.50824" lon="1.86258">
        <ele>2179.93</ele>
        <time>2021-07-07T06:23:58Z</time>
      </trkpt>
      <trkpt lat="42.50831" lon="1.86251">
        <ele>2180.41</ele>
        <time>2021-07-07T06:24:05Z</time>
      </trkpt>
      <trkpt lat="42.50835" lon="1.86244">
        <ele>2181.37</ele>
        <time>2021-07-07T06:24:11Z</time>
      </trkpt>
      <trkpt lat="42.50835" lon="1.86243">
        <ele>2181.37</ele>
        <time>2021-07-07T06:24:12Z</time>
      </trkpt>
      <trkpt lat="42.50842" lon="1.86237">
        <ele>2182.33</ele>
        <time>2021-07-07T06:24:19Z</time>
      </trkpt>
      <trkpt lat="42.50843" lon="1.86236">
        <ele>2182.33</ele>
        <time>2021-07-07T06:24:20Z</time>
      </trkpt>
      <trkpt lat="42.50853" lon="1.86229">
        <ele>2183.77</ele>
        <time>2021-07-07T06:24:30Z</time>
      </trkpt>
      <trkpt lat="42.50858" lon="1.86228">
        <ele>2184.25</ele>
        <time>2021-07-07T06:24:34Z</time>
      </trkpt>
      <trkpt lat="42.50861" lon="1.86228">
        <ele>2184.73</ele>
        <time>2021-07-07T06:24:37Z</time>
      </trkpt>
      <trkpt lat="42.50868" lon="1.8622">
        <ele>2186.18</ele>
        <time>2021-07-07T06:24:45Z</time>
      </trkpt>
      <trkpt lat="42.50873" lon="1.86212">
        <ele>2187.14</ele>
        <time>2021-07-07T06:24:52Z</time>
      </trkpt>
      <trkpt lat="42.5088" lon="1.86206">
        <ele>2187.62</ele>
        <time>2021-07-07T06:24:59Z</time>
      </trkpt>
      <trkpt lat="42.50886" lon="1.86197">
        <ele>2189.06</ele>
        <time>2021-07-07T06:25:06Z</time>
      </trkpt>
      <trkpt lat="42.50893" lon="1.86193">
        <ele>2190.02</ele>
        <time>2021-07-07T06:25:13Z</time>
      </trkpt>
      <trkpt lat="42.50898" lon="1.8619">
        <ele>2190.5</ele>
        <time>2021-07-07T06:25:20Z</time>
      </trkpt>
      <trkpt lat="42.509" lon="1.86187">
        <ele>2190.5</ele>
        <time>2021-07-07T06:25:24Z</time>
      </trkpt>
      <trkpt lat="42.50902" lon="1.86186">
        <ele>2190.5</ele>
        <time>2021-07-07T06:25:26Z</time>
      </trkpt>
      <trkpt lat="42.50912" lon="1.86179">
        <ele>2191.46</ele>
        <time>2021-07-07T06:25:35Z</time>
      </trkpt>
      <trkpt lat="42.50914" lon="1.86176">
        <ele>2191.46</ele>
        <time>2021-07-07T06:25:37Z</time>
      </trkpt>
      <trkpt lat="42.50917" lon="1.86171">
        <ele>2192.42</ele>
        <time>2021-07-07T06:25:42Z</time>
      </trkpt>
      <trkpt lat="42.5092" lon="1.86165">
        <ele>2193.39</ele>
        <time>2021-07-07T06:25:46Z</time>
      </trkpt>
      <trkpt lat="42.50924" lon="1.8616">
        <ele>2193.87</ele>
        <time>2021-07-07T06:25:51Z</time>
      </trkpt>
      <trkpt lat="42.50926" lon="1.86157">
        <ele>2194.35</ele>
        <time>2021-07-07T06:25:54Z</time>
      </trkpt>
      <trkpt lat="42.50937" lon="1.86153">
        <ele>2195.31</ele>
        <time>2021-07-07T06:26:03Z</time>
      </trkpt>
      <trkpt lat="42.50943" lon="1.8615">
        <ele>2195.79</ele>
        <time>2021-07-07T06:26:09Z</time>
      </trkpt>
      <trkpt lat="42.50949" lon="1.86149">
        <ele>2195.79</ele>
        <time>2021-07-07T06:26:13Z</time>
      </trkpt>
      <trkpt lat="42.50958" lon="1.86148">
        <ele>2196.75</ele>
        <time>2021-07-07T06:26:20Z</time>
      </trkpt>
      <trkpt lat="42.50966" lon="1.86147">
        <ele>2197.23</ele>
        <time>2021-07-07T06:26:27Z</time>
      </trkpt>
      <trkpt lat="42.50972" lon="1.86146">
        <ele>2197.23</ele>
        <time>2021-07-07T06:26:31Z</time>
      </trkpt>
      <trkpt lat="42.50977" lon="1.86148">
        <ele>2197.23</ele>
        <time>2021-07-07T06:26:35Z</time>
      </trkpt>
      <trkpt lat="42.50983" lon="1.86147">
        <ele>2197.23</ele>
        <time>2021-07-07T06:26:40Z</time>
      </trkpt>
      <trkpt lat="42.50991" lon="1.8614">
        <ele>2198.19</ele>
        <time>2021-07-07T06:26:48Z</time>
      </trkpt>
      <trkpt lat="42.51001" lon="1.86134">
        <ele>2200.11</ele>
        <time>2021-07-07T06:26:57Z</time>
      </trkpt>
      <trkpt lat="42.51003" lon="1.86132">
        <ele>2200.11</ele>
        <time>2021-07-07T06:26:59Z</time>
      </trkpt>
      <trkpt lat="42.51014" lon="1.86129">
        <ele>2201.56</ele>
        <time>2021-07-07T06:27:08Z</time>
      </trkpt>
      <trkpt lat="42.51022" lon="1.86122">
        <ele>2203</ele>
        <time>2021-07-07T06:27:16Z</time>
      </trkpt>
      <trkpt lat="42.51023" lon="1.86121">
        <ele>2203.48</ele>
        <time>2021-07-07T06:27:17Z</time>
      </trkpt>
      <trkpt lat="42.51024" lon="1.86118">
        <ele>2203.96</ele>
        <time>2021-07-07T06:27:20Z</time>
      </trkpt>
      <trkpt lat="42.51034" lon="1.86116">
        <ele>2204.92</ele>
        <time>2021-07-07T06:27:28Z</time>
      </trkpt>
      <trkpt lat="42.51036" lon="1.86115">
        <ele>2205.4</ele>
        <time>2021-07-07T06:27:30Z</time>
      </trkpt>
      <trkpt lat="42.5104" lon="1.86116">
        <ele>2205.88</ele>
        <time>2021-07-07T06:27:33Z</time>
      </trkpt>
      <trkpt lat="42.5105" lon="1.86112">
        <ele>2206.84</ele>
        <time>2021-07-07T06:27:42Z</time>
      </trkpt>
      <trkpt lat="42.51057" lon="1.86109">
        <ele>2207.32</ele>
        <time>2021-07-07T06:27:48Z</time>
      </trkpt>
      <trkpt lat="42.51068" lon="1.86107">
        <ele>2208.29</ele>
        <time>2021-07-07T06:27:56Z</time>
      </trkpt>
      <trkpt lat="42.51077" lon="1.86103">
        <ele>2209.25</ele>
        <time>2021-07-07T06:28:04Z</time>
      </trkpt>
      <trkpt lat="42.51086" lon="1.86102">
        <ele>2210.21</ele>
        <time>2021-07-07T06:28:11Z</time>
      </trkpt>
      <trkpt lat="42.51093" lon="1.861">
        <ele>2211.17</ele>
        <time>2021-07-07T06:28:18Z</time>
      </trkpt>
      <trkpt lat="42.51094" lon="1.861">
        <ele>2211.17</ele>
        <time>2021-07-07T06:28:19Z</time>
      </trkpt>
      <trkpt lat="42.51101" lon="1.86097">
        <ele>2212.61</ele>
        <time>2021-07-07T06:28:27Z</time>
      </trkpt>
      <trkpt lat="42.51107" lon="1.86095">
        <ele>2214.05</ele>
        <time>2021-07-07T06:28:34Z</time>
      </trkpt>
      <trkpt lat="42.51117" lon="1.86092">
        <ele>2214.53</ele>
        <time>2021-07-07T06:28:42Z</time>
      </trkpt>
      <trkpt lat="42.51126" lon="1.86085">
        <ele>2215.98</ele>
        <time>2021-07-07T06:28:50Z</time>
      </trkpt>
      <trkpt lat="42.51128" lon="1.86081">
        <ele>2216.46</ele>
        <time>2021-07-07T06:28:54Z</time>
      </trkpt>
      <trkpt lat="42.51133" lon="1.86074">
        <ele>2217.9</ele>
        <time>2021-07-07T06:29:01Z</time>
      </trkpt>
      <trkpt lat="42.51141" lon="1.86066">
        <ele>2218.86</ele>
        <time>2021-07-07T06:29:10Z</time>
      </trkpt>
      <trkpt lat="42.51144" lon="1.86063">
        <ele>2219.82</ele>
        <time>2021-07-07T06:29:16Z</time>
      </trkpt>
      <trkpt lat="42.51145" lon="1.86059">
        <ele>2220.3</ele>
        <time>2021-07-07T06:29:19Z</time>
      </trkpt>
      <trkpt lat="42.51149" lon="1.86055">
        <ele>2221.26</ele>
        <time>2021-07-07T06:29:24Z</time>
      </trkpt>
      <trkpt lat="42.51154" lon="1.86051">
        <ele>2222.22</ele>
        <time>2021-07-07T06:29:31Z</time>
      </trkpt>
      <trkpt lat="42.5116" lon="1.86044">
        <ele>2223.19</ele>
        <time>2021-07-07T06:29:38Z</time>
      </trkpt>
      <trkpt lat="42.51162" lon="1.86034">
        <ele>2224.63</ele>
        <time>2021-07-07T06:29:45Z</time>
      </trkpt>
      <trkpt lat="42.51165" lon="1.86029">
        <ele>2225.11</ele>
        <time>2021-07-07T06:29:49Z</time>
      </trkpt>
      <trkpt lat="42.51171" lon="1.8602">
        <ele>2226.55</ele>
        <time>2021-07-07T06:29:57Z</time>
      </trkpt>
      <trkpt lat="42.51176" lon="1.86012">
        <ele>2227.03</ele>
        <time>2021-07-07T06:30:03Z</time>
      </trkpt>
      <trkpt lat="42.51182" lon="1.86005">
        <ele>2227.99</ele>
        <time>2021-07-07T06:30:10Z</time>
      </trkpt>
      <trkpt lat="42.51192" lon="1.86001">
        <ele>2229.43</ele>
        <time>2021-07-07T06:30:19Z</time>
      </trkpt>
      <trkpt lat="42.512" lon="1.85995">
        <ele>2230.4</ele>
        <time>2021-07-07T06:30:27Z</time>
      </trkpt>
      <trkpt lat="42.51205" lon="1.85987">
        <ele>2231.36</ele>
        <time>2021-07-07T06:30:34Z</time>
      </trkpt>
      <trkpt lat="42.51212" lon="1.85975">
        <ele>2233.28</ele>
        <time>2021-07-07T06:30:43Z</time>
      </trkpt>
      <trkpt lat="42.51216" lon="1.85968">
        <ele>2234.24</ele>
        <time>2021-07-07T06:30:49Z</time>
      </trkpt>
      <trkpt lat="42.51223" lon="1.8596">
        <ele>2235.2</ele>
        <time>2021-07-07T06:30:56Z</time>
      </trkpt>
      <trkpt lat="42.51228" lon="1.8595">
        <ele>2236.16</ele>
        <time>2021-07-07T06:31:04Z</time>
      </trkpt>
      <trkpt lat="42.51232" lon="1.85938">
        <ele>2237.61</ele>
        <time>2021-07-07T06:31:11Z</time>
      </trkpt>
      <trkpt lat="42.51238" lon="1.85928">
        <ele>2238.09</ele>
        <time>2021-07-07T06:31:18Z</time>
      </trkpt>
      <trkpt lat="42.51245" lon="1.85919">
        <ele>2239.05</ele>
        <time>2021-07-07T06:31:25Z</time>
      </trkpt>
      <trkpt lat="42.51254" lon="1.8591">
        <ele>2240.01</ele>
        <time>2021-07-07T06:31:33Z</time>
      </trkpt>
      <trkpt lat="42.51264" lon="1.85902">
        <ele>2240.97</ele>
        <time>2021-07-07T06:31:41Z</time>
      </trkpt>
      <trkpt lat="42.51264" lon="1.85901">
        <ele>2240.97</ele>
        <time>2021-07-07T06:31:42Z</time>
      </trkpt>
      <trkpt lat="42.51268" lon="1.85893">
        <ele>2241.93</ele>
        <time>2021-07-07T06:31:47Z</time>
      </trkpt>
      <trkpt lat="42.51274" lon="1.85882">
        <ele>2242.89</ele>
        <time>2021-07-07T06:31:55Z</time>
      </trkpt>
      <trkpt lat="42.51281" lon="1.85872">
        <ele>2243.37</ele>
        <time>2021-07-07T06:32:03Z</time>
      </trkpt>
      <trkpt lat="42.51286" lon="1.85866">
        <ele>2243.85</ele>
        <time>2021-07-07T06:32:09Z</time>
      </trkpt>
      <trkpt lat="42.51292" lon="1.85857">
        <ele>2244.82</ele>
        <time>2021-07-07T06:32:16Z</time>
      </trkpt>
      <trkpt lat="42.51295" lon="1.85854">
        <ele>2245.78</ele>
        <time>2021-07-07T06:32:23Z</time>
      </trkpt>
      <trkpt lat="42.51295" lon="1.85853">
        <ele>2242.41</ele>
        <time>2021-07-07T06:32:27Z</time>
      </trkpt>
      <trkpt lat="42.51295" lon="1.85853">
        <ele>2245.78</ele>
        <time>2021-07-07T06:32:28Z</time>
      </trkpt>
      <trkpt lat="42.51295" lon="1.85853">
        <ele>2249.62</ele>
        <time>2021-07-07T06:32:29Z</time>
      </trkpt>
      <trkpt lat="42.51295" lon="1.85853">
        <ele>2245.78</ele>
        <time>2021-07-07T06:32:30Z</time>
      </trkpt>
      <trkpt lat="42.51295" lon="1.85853">
        <ele>2242.41</ele>
        <time>2021-07-07T06:32:32Z</time>
      </trkpt>
      <trkpt lat="42.51295" lon="1.85853">
        <ele>2248.18</ele>
        <time>2021-07-07T06:32:33Z</time>
      </trkpt>
      <trkpt lat="42.51297" lon="1.85852">
        <ele>2245.3</ele>
        <time>2021-07-07T06:32:36Z</time>
      </trkpt>
      <trkpt lat="42.51297" lon="1.85852">
        <ele>2245.78</ele>
        <time>2021-07-07T06:32:37Z</time>
      </trkpt>
      <trkpt lat="42.51301" lon="1.85848">
        <ele>2245.78</ele>
        <time>2021-07-07T06:32:41Z</time>
      </trkpt>
      <trkpt lat="42.51308" lon="1.85842">
        <ele>2246.26</ele>
        <time>2021-07-07T06:32:49Z</time>
      </trkpt>
      <trkpt lat="42.51311" lon="1.85842">
        <ele>2247.7</ele>
        <time>2021-07-07T06:32:56Z</time>
      </trkpt>
      <trkpt lat="42.51312" lon="1.85842">
        <ele>2246.74</ele>
        <time>2021-07-07T06:33:01Z</time>
      </trkpt>
      <trkpt lat="42.51317" lon="1.85831">
        <ele>2247.7</ele>
        <time>2021-07-07T06:33:10Z</time>
      </trkpt>
      <trkpt lat="42.51318" lon="1.85828">
        <ele>2248.18</ele>
        <time>2021-07-07T06:33:12Z</time>
      </trkpt>
      <trkpt lat="42.5132" lon="1.85826">
        <ele>2248.18</ele>
        <time>2021-07-07T06:33:14Z</time>
      </trkpt>
      <trkpt lat="42.51324" lon="1.85817">
        <ele>2249.14</ele>
        <time>2021-07-07T06:33:20Z</time>
      </trkpt>
      <trkpt lat="42.5133" lon="1.85814">
        <ele>2249.62</ele>
        <time>2021-07-07T06:33:26Z</time>
      </trkpt>
      <trkpt lat="42.51336" lon="1.85813">
        <ele>2250.58</ele>
        <time>2021-07-07T06:33:32Z</time>
      </trkpt>
      <trkpt lat="42.51338" lon="1.85815">
        <ele>2250.1</ele>
        <time>2021-07-07T06:33:35Z</time>
      </trkpt>
      <trkpt lat="42.51345" lon="1.85818">
        <ele>2250.1</ele>
        <time>2021-07-07T06:33:43Z</time>
      </trkpt>
      <trkpt lat="42.5135" lon="1.85822">
        <ele>2250.1</ele>
        <time>2021-07-07T06:33:49Z</time>
      </trkpt>
      <trkpt lat="42.51355" lon="1.85822">
        <ele>2250.58</ele>
        <time>2021-07-07T06:33:53Z</time>
      </trkpt>
      <trkpt lat="42.5136" lon="1.85822">
        <ele>2250.58</ele>
        <time>2021-07-07T06:34:00Z</time>
      </trkpt>
      <trkpt lat="42.51361" lon="1.85822">
        <ele>2251.06</ele>
        <time>2021-07-07T06:34:05Z</time>
      </trkpt>
      <trkpt lat="42.51364" lon="1.85823">
        <ele>2250.58</ele>
        <time>2021-07-07T06:34:08Z</time>
      </trkpt>
      <trkpt lat="42.51371" lon="1.85819">
        <ele>2250.58</ele>
        <time>2021-07-07T06:34:16Z</time>
      </trkpt>
      <trkpt lat="42.51376" lon="1.85818">
        <ele>2250.58</ele>
        <time>2021-07-07T06:34:21Z</time>
      </trkpt>
      <trkpt lat="42.51383" lon="1.85813">
        <ele>2251.54</ele>
        <time>2021-07-07T06:34:28Z</time>
      </trkpt>
      <trkpt lat="42.51393" lon="1.85807">
        <ele>2252.99</ele>
        <time>2021-07-07T06:34:36Z</time>
      </trkpt>
      <trkpt lat="42.51405" lon="1.85799">
        <ele>2253.47</ele>
        <time>2021-07-07T06:34:45Z</time>
      </trkpt>
      <trkpt lat="42.51406" lon="1.85798">
        <ele>2253.95</ele>
        <time>2021-07-07T06:34:46Z</time>
      </trkpt>
      <trkpt lat="42.51415" lon="1.85791">
        <ele>2254.91</ele>
        <time>2021-07-07T06:34:54Z</time>
      </trkpt>
      <trkpt lat="42.51422" lon="1.85787">
        <ele>2255.87</ele>
        <time>2021-07-07T06:35:00Z</time>
      </trkpt>
      <trkpt lat="42.5143" lon="1.85783">
        <ele>2256.35</ele>
        <time>2021-07-07T06:35:08Z</time>
      </trkpt>
      <trkpt lat="42.51435" lon="1.85782">
        <ele>2256.83</ele>
        <time>2021-07-07T06:35:19Z</time>
      </trkpt>
      <trkpt lat="42.51443" lon="1.85779">
        <ele>2257.79</ele>
        <time>2021-07-07T06:35:26Z</time>
      </trkpt>
      <trkpt lat="42.51451" lon="1.85775">
        <ele>2258.75</ele>
        <time>2021-07-07T06:35:33Z</time>
      </trkpt>
      <trkpt lat="42.51462" lon="1.85771">
        <ele>2259.72</ele>
        <time>2021-07-07T06:35:42Z</time>
      </trkpt>
      <trkpt lat="42.51471" lon="1.85766">
        <ele>2260.68</ele>
        <time>2021-07-07T06:35:50Z</time>
      </trkpt>
      <trkpt lat="42.51482" lon="1.85763">
        <ele>2261.16</ele>
        <time>2021-07-07T06:35:58Z</time>
      </trkpt>
      <trkpt lat="42.51489" lon="1.85761">
        <ele>2262.12</ele>
        <time>2021-07-07T06:36:05Z</time>
      </trkpt>
      <trkpt lat="42.51489" lon="1.8576">
        <ele>2262.6</ele>
        <time>2021-07-07T06:36:13Z</time>
      </trkpt>
      <trkpt lat="42.51491" lon="1.8576">
        <ele>2262.12</ele>
        <time>2021-07-07T06:36:15Z</time>
      </trkpt>
      <trkpt lat="42.51499" lon="1.8576">
        <ele>2262.6</ele>
        <time>2021-07-07T06:36:21Z</time>
      </trkpt>
      <trkpt lat="42.51511" lon="1.85762">
        <ele>2264.04</ele>
        <time>2021-07-07T06:36:30Z</time>
      </trkpt>
      <trkpt lat="42.51515" lon="1.85765">
        <ele>2264.52</ele>
        <time>2021-07-07T06:36:34Z</time>
      </trkpt>
      <trkpt lat="42.51523" lon="1.85768">
        <ele>2265.48</ele>
        <time>2021-07-07T06:36:42Z</time>
      </trkpt>
      <trkpt lat="42.51528" lon="1.85768">
        <ele>2265.96</ele>
        <time>2021-07-07T06:36:48Z</time>
      </trkpt>
      <trkpt lat="42.51534" lon="1.85767">
        <ele>2265.96</ele>
        <time>2021-07-07T06:36:54Z</time>
      </trkpt>
      <trkpt lat="42.51538" lon="1.85763">
        <ele>2265.96</ele>
        <time>2021-07-07T06:37:01Z</time>
      </trkpt>
      <trkpt lat="42.51539" lon="1.85758">
        <ele>2265.96</ele>
        <time>2021-07-07T06:37:04Z</time>
      </trkpt>
      <trkpt lat="42.51547" lon="1.85754">
        <ele>2266.45</ele>
        <time>2021-07-07T06:37:11Z</time>
      </trkpt>
      <trkpt lat="42.5155" lon="1.85751">
        <ele>2266.93</ele>
        <time>2021-07-07T06:37:15Z</time>
      </trkpt>
      <trkpt lat="42.51557" lon="1.85743">
        <ele>2267.41</ele>
        <time>2021-07-07T06:37:24Z</time>
      </trkpt>
      <trkpt lat="42.5156" lon="1.85741">
        <ele>2267.41</ele>
        <time>2021-07-07T06:37:29Z</time>
      </trkpt>
      <trkpt lat="42.5156" lon="1.85741">
        <ele>2267.41</ele>
        <time>2021-07-07T06:37:30Z</time>
      </trkpt>
      <trkpt lat="42.51569" lon="1.85737">
        <ele>2269.33</ele>
        <time>2021-07-07T06:37:38Z</time>
      </trkpt>
      <trkpt lat="42.51577" lon="1.85738">
        <ele>2271.25</ele>
        <time>2021-07-07T06:37:46Z</time>
      </trkpt>
      <trkpt lat="42.51584" lon="1.85738">
        <ele>2272.69</ele>
        <time>2021-07-07T06:37:54Z</time>
      </trkpt>
      <trkpt lat="42.51592" lon="1.85739">
        <ele>2275.1</ele>
        <time>2021-07-07T06:38:02Z</time>
      </trkpt>
      <trkpt lat="42.51601" lon="1.85737">
        <ele>2276.06</ele>
        <time>2021-07-07T06:38:10Z</time>
      </trkpt>
      <trkpt lat="42.51607" lon="1.85738">
        <ele>2277.02</ele>
        <time>2021-07-07T06:38:17Z</time>
      </trkpt>
      <trkpt lat="42.51617" lon="1.85738">
        <ele>2278.46</ele>
        <time>2021-07-07T06:38:26Z</time>
      </trkpt>
      <trkpt lat="42.51617" lon="1.85738">
        <ele>2278.94</ele>
        <time>2021-07-07T06:38:31Z</time>
      </trkpt>
      <trkpt lat="42.51618" lon="1.85738">
        <ele>2279.9</ele>
        <time>2021-07-07T06:38:37Z</time>
      </trkpt>
      <trkpt lat="42.51622" lon="1.85737">
        <ele>2279.42</ele>
        <time>2021-07-07T06:38:40Z</time>
      </trkpt>
      <trkpt lat="42.51629" lon="1.85736">
        <ele>2280.38</ele>
        <time>2021-07-07T06:38:47Z</time>
      </trkpt>
      <trkpt lat="42.51637" lon="1.85735">
        <ele>2281.83</ele>
        <time>2021-07-07T06:38:54Z</time>
      </trkpt>
      <trkpt lat="42.51645" lon="1.85736">
        <ele>2283.27</ele>
        <time>2021-07-07T06:39:01Z</time>
      </trkpt>
      <trkpt lat="42.51654" lon="1.85736">
        <ele>2284.71</ele>
        <time>2021-07-07T06:39:09Z</time>
      </trkpt>
      <trkpt lat="42.51662" lon="1.85737">
        <ele>2285.67</ele>
        <time>2021-07-07T06:39:16Z</time>
      </trkpt>
      <trkpt lat="42.5167" lon="1.85737">
        <ele>2287.11</ele>
        <time>2021-07-07T06:39:24Z</time>
      </trkpt>
      <trkpt lat="42.51677" lon="1.85736">
        <ele>2290</ele>
        <time>2021-07-07T06:39:32Z</time>
      </trkpt>
      <trkpt lat="42.51678" lon="1.85736">
        <ele>2288.56</ele>
        <time>2021-07-07T06:39:41Z</time>
      </trkpt>
      <trkpt lat="42.51686" lon="1.85734">
        <ele>2289.52</ele>
        <time>2021-07-07T06:39:48Z</time>
      </trkpt>
      <trkpt lat="42.51693" lon="1.85733">
        <ele>2290.48</ele>
        <time>2021-07-07T06:39:54Z</time>
      </trkpt>
      <trkpt lat="42.51702" lon="1.85733">
        <ele>2291.44</ele>
        <time>2021-07-07T06:40:01Z</time>
      </trkpt>
      <trkpt lat="42.51712" lon="1.85731">
        <ele>2292.4</ele>
        <time>2021-07-07T06:40:09Z</time>
      </trkpt>
      <trkpt lat="42.51719" lon="1.8573">
        <ele>2293.36</ele>
        <time>2021-07-07T06:40:15Z</time>
      </trkpt>
      <trkpt lat="42.51727" lon="1.85728">
        <ele>2294.32</ele>
        <time>2021-07-07T06:40:22Z</time>
      </trkpt>
      <trkpt lat="42.51734" lon="1.85725">
        <ele>2295.77</ele>
        <time>2021-07-07T06:40:29Z</time>
      </trkpt>
      <trkpt lat="42.5174" lon="1.85725">
        <ele>2297.21</ele>
        <time>2021-07-07T06:40:35Z</time>
      </trkpt>
      <trkpt lat="42.51747" lon="1.85723">
        <ele>2297.69</ele>
        <time>2021-07-07T06:40:41Z</time>
      </trkpt>
      <trkpt lat="42.51752" lon="1.85723">
        <ele>2298.65</ele>
        <time>2021-07-07T06:40:47Z</time>
      </trkpt>
      <trkpt lat="42.51758" lon="1.85724">
        <ele>2300.09</ele>
        <time>2021-07-07T06:40:53Z</time>
      </trkpt>
      <trkpt lat="42.5176" lon="1.85724">
        <ele>2300.57</ele>
        <time>2021-07-07T06:40:58Z</time>
      </trkpt>
      <trkpt lat="42.51764" lon="1.85729">
        <ele>2301.53</ele>
        <time>2021-07-07T06:41:05Z</time>
      </trkpt>
      <trkpt lat="42.5177" lon="1.85729">
        <ele>2302.98</ele>
        <time>2021-07-07T06:41:11Z</time>
      </trkpt>
      <trkpt lat="42.51778" lon="1.85729">
        <ele>2303.46</ele>
        <time>2021-07-07T06:41:19Z</time>
      </trkpt>
      <trkpt lat="42.51785" lon="1.85727">
        <ele>2303.94</ele>
        <time>2021-07-07T06:41:27Z</time>
      </trkpt>
      <trkpt lat="42.51787" lon="1.85727">
        <ele>2303.94</ele>
        <time>2021-07-07T06:41:29Z</time>
      </trkpt>
      <trkpt lat="42.51795" lon="1.85727">
        <ele>2304.42</ele>
        <time>2021-07-07T06:41:36Z</time>
      </trkpt>
      <trkpt lat="42.51803" lon="1.85726">
        <ele>2306.34</ele>
        <time>2021-07-07T06:41:44Z</time>
      </trkpt>
      <trkpt lat="42.51805" lon="1.85725">
        <ele>2306.82</ele>
        <time>2021-07-07T06:41:47Z</time>
      </trkpt>
      <trkpt lat="42.51815" lon="1.85726">
        <ele>2307.78</ele>
        <time>2021-07-07T06:41:56Z</time>
      </trkpt>
      <trkpt lat="42.51817" lon="1.85726">
        <ele>2309.22</ele>
        <time>2021-07-07T06:42:04Z</time>
      </trkpt>
      <trkpt lat="42.51817" lon="1.85726">
        <ele>2308.74</ele>
        <time>2021-07-07T06:42:14Z</time>
      </trkpt>
      <trkpt lat="42.51817" lon="1.85726">
        <ele>2309.22</ele>
        <time>2021-07-07T06:42:24Z</time>
      </trkpt>
      <trkpt lat="42.51819" lon="1.85728">
        <ele>2309.7</ele>
        <time>2021-07-07T06:42:27Z</time>
      </trkpt>
      <trkpt lat="42.51828" lon="1.85734">
        <ele>2310.67</ele>
        <time>2021-07-07T06:42:35Z</time>
      </trkpt>
      <trkpt lat="42.51829" lon="1.85734">
        <ele>2311.15</ele>
        <time>2021-07-07T06:42:37Z</time>
      </trkpt>
      <trkpt lat="42.51837" lon="1.8574">
        <ele>2313.07</ele>
        <time>2021-07-07T06:42:46Z</time>
      </trkpt>
      <trkpt lat="42.51841" lon="1.85745">
        <ele>2313.55</ele>
        <time>2021-07-07T06:42:51Z</time>
      </trkpt>
      <trkpt lat="42.51846" lon="1.85756">
        <ele>2314.03</ele>
        <time>2021-07-07T06:43:00Z</time>
      </trkpt>
      <trkpt lat="42.51848" lon="1.85759">
        <ele>2314.03</ele>
        <time>2021-07-07T06:43:05Z</time>
      </trkpt>
      <trkpt lat="42.51851" lon="1.8577">
        <ele>2314.99</ele>
        <time>2021-07-07T06:43:12Z</time>
      </trkpt>
      <trkpt lat="42.51853" lon="1.85784">
        <ele>2316.43</ele>
        <time>2021-07-07T06:43:20Z</time>
      </trkpt>
      <trkpt lat="42.51853" lon="1.85793">
        <ele>2317.4</ele>
        <time>2021-07-07T06:43:26Z</time>
      </trkpt>
      <trkpt lat="42.51854" lon="1.85799">
        <ele>2317.88</ele>
        <time>2021-07-07T06:43:30Z</time>
      </trkpt>
      <trkpt lat="42.51854" lon="1.85805">
        <ele>2318.84</ele>
        <time>2021-07-07T06:43:34Z</time>
      </trkpt>
      <trkpt lat="42.51856" lon="1.85813">
        <ele>2319.8</ele>
        <time>2021-07-07T06:43:39Z</time>
      </trkpt>
      <trkpt lat="42.51861" lon="1.85821">
        <ele>2320.76</ele>
        <time>2021-07-07T06:43:46Z</time>
      </trkpt>
      <trkpt lat="42.51864" lon="1.8583">
        <ele>2321.24</ele>
        <time>2021-07-07T06:43:51Z</time>
      </trkpt>
      <trkpt lat="42.51867" lon="1.85839">
        <ele>2322.2</ele>
        <time>2021-07-07T06:43:57Z</time>
      </trkpt>
      <trkpt lat="42.51873" lon="1.85853">
        <ele>2323.64</ele>
        <time>2021-07-07T06:44:07Z</time>
      </trkpt>
      <trkpt lat="42.51875" lon="1.85865">
        <ele>2324.61</ele>
        <time>2021-07-07T06:44:14Z</time>
      </trkpt>
      <trkpt lat="42.51877" lon="1.85872">
        <ele>2324.61</ele>
        <time>2021-07-07T06:44:18Z</time>
      </trkpt>
      <trkpt lat="42.51883" lon="1.85884">
        <ele>2326.53</ele>
        <time>2021-07-07T06:44:27Z</time>
      </trkpt>
      <trkpt lat="42.51888" lon="1.85891">
        <ele>2327.49</ele>
        <time>2021-07-07T06:44:34Z</time>
      </trkpt>
      <trkpt lat="42.51893" lon="1.85902">
        <ele>2328.93</ele>
        <time>2021-07-07T06:44:42Z</time>
      </trkpt>
      <trkpt lat="42.51897" lon="1.85913">
        <ele>2329.41</ele>
        <time>2021-07-07T06:44:49Z</time>
      </trkpt>
      <trkpt lat="42.51899" lon="1.85914">
        <ele>2330.37</ele>
        <time>2021-07-07T06:44:57Z</time>
      </trkpt>
      <trkpt lat="42.51899" lon="1.85914">
        <ele>2321.24</ele>
        <time>2021-07-07T06:44:59Z</time>
      </trkpt>
      <trkpt lat="42.51898" lon="1.85914">
        <ele>2338.06</ele>
        <time>2021-07-07T06:45:00Z</time>
      </trkpt>
      <trkpt lat="42.51898" lon="1.85914">
        <ele>2327.01</ele>
        <time>2021-07-07T06:45:01Z</time>
      </trkpt>
      <trkpt lat="42.51899" lon="1.85914">
        <ele>2330.37</ele>
        <time>2021-07-07T06:45:02Z</time>
      </trkpt>
      <trkpt lat="42.51899" lon="1.85914">
        <ele>2334.22</ele>
        <time>2021-07-07T06:45:03Z</time>
      </trkpt>
      <trkpt lat="42.51899" lon="1.85914">
        <ele>2330.85</ele>
        <time>2021-07-07T06:45:04Z</time>
      </trkpt>
      <trkpt lat="42.519" lon="1.85917">
        <ele>2330.85</ele>
        <time>2021-07-07T06:45:13Z</time>
      </trkpt>
      <trkpt lat="42.51901" lon="1.85918">
        <ele>2330.37</ele>
        <time>2021-07-07T06:45:14Z</time>
      </trkpt>
      <trkpt lat="42.51903" lon="1.85929">
        <ele>2331.81</ele>
        <time>2021-07-07T06:45:21Z</time>
      </trkpt>
      <trkpt lat="42.51905" lon="1.85934">
        <ele>2332.3</ele>
        <time>2021-07-07T06:45:24Z</time>
      </trkpt>
      <trkpt lat="42.51905" lon="1.85945">
        <ele>2333.74</ele>
        <time>2021-07-07T06:45:30Z</time>
      </trkpt>
      <trkpt lat="42.51907" lon="1.85957">
        <ele>2334.7</ele>
        <time>2021-07-07T06:45:38Z</time>
      </trkpt>
      <trkpt lat="42.51909" lon="1.85963">
        <ele>2335.18</ele>
        <time>2021-07-07T06:45:46Z</time>
      </trkpt>
      <trkpt lat="42.51909" lon="1.85967">
        <ele>2336.14</ele>
        <time>2021-07-07T06:45:49Z</time>
      </trkpt>
      <trkpt lat="42.51915" lon="1.85983">
        <ele>2337.58</ele>
        <time>2021-07-07T06:46:00Z</time>
      </trkpt>
      <trkpt lat="42.51919" lon="1.85994">
        <ele>2339.02</ele>
        <time>2021-07-07T06:46:08Z</time>
      </trkpt>
      <trkpt lat="42.51924" lon="1.86005">
        <ele>2339.99</ele>
        <time>2021-07-07T06:46:15Z</time>
      </trkpt>
      <trkpt lat="42.51928" lon="1.86016">
        <ele>2341.43</ele>
        <time>2021-07-07T06:46:23Z</time>
      </trkpt>
      <trkpt lat="42.51932" lon="1.86024">
        <ele>2341.91</ele>
        <time>2021-07-07T06:46:29Z</time>
      </trkpt>
      <trkpt lat="42.51933" lon="1.86031">
        <ele>2342.39</ele>
        <time>2021-07-07T06:46:37Z</time>
      </trkpt>
      <trkpt lat="42.51933" lon="1.86031">
        <ele>2345.75</ele>
        <time>2021-07-07T06:46:38Z</time>
      </trkpt>
      <trkpt lat="42.51936" lon="1.86037">
        <ele>2343.83</ele>
        <time>2021-07-07T06:46:44Z</time>
      </trkpt>
      <trkpt lat="42.51939" lon="1.86047">
        <ele>2344.79</ele>
        <time>2021-07-07T06:46:51Z</time>
      </trkpt>
      <trkpt lat="42.51939" lon="1.86052">
        <ele>2345.75</ele>
        <time>2021-07-07T06:46:54Z</time>
      </trkpt>
      <trkpt lat="42.5194" lon="1.86061">
        <ele>2346.23</ele>
        <time>2021-07-07T06:47:00Z</time>
      </trkpt>
      <trkpt lat="42.5194" lon="1.86067">
        <ele>2346.23</ele>
        <time>2021-07-07T06:47:03Z</time>
      </trkpt>
      <trkpt lat="42.51942" lon="1.86073">
        <ele>2346.72</ele>
        <time>2021-07-07T06:47:07Z</time>
      </trkpt>
      <trkpt lat="42.51942" lon="1.86077">
        <ele>2347.2</ele>
        <time>2021-07-07T06:47:09Z</time>
      </trkpt>
      <trkpt lat="42.51942" lon="1.86084">
        <ele>2347.2</ele>
        <time>2021-07-07T06:47:13Z</time>
      </trkpt>
      <trkpt lat="42.51945" lon="1.86092">
        <ele>2347.68</ele>
        <time>2021-07-07T06:47:18Z</time>
      </trkpt>
      <trkpt lat="42.51947" lon="1.86097">
        <ele>2348.64</ele>
        <time>2021-07-07T06:47:21Z</time>
      </trkpt>
      <trkpt lat="42.51948" lon="1.861">
        <ele>2348.64</ele>
        <time>2021-07-07T06:47:23Z</time>
      </trkpt>
      <trkpt lat="42.51952" lon="1.86109">
        <ele>2348.64</ele>
        <time>2021-07-07T06:47:29Z</time>
      </trkpt>
      <trkpt lat="42.51954" lon="1.86112">
        <ele>2349.12</ele>
        <time>2021-07-07T06:47:31Z</time>
      </trkpt>
      <trkpt lat="42.5196" lon="1.8612">
        <ele>2349.6</ele>
        <time>2021-07-07T06:47:38Z</time>
      </trkpt>
      <trkpt lat="42.51961" lon="1.86121">
        <ele>2349.6</ele>
        <time>2021-07-07T06:47:39Z</time>
      </trkpt>
      <trkpt lat="42.51964" lon="1.86123">
        <ele>2349.6</ele>
        <time>2021-07-07T06:47:41Z</time>
      </trkpt>
      <trkpt lat="42.51968" lon="1.86132">
        <ele>2350.56</ele>
        <time>2021-07-07T06:47:49Z</time>
      </trkpt>
      <trkpt lat="42.51971" lon="1.86135">
        <ele>2351.04</ele>
        <time>2021-07-07T06:47:56Z</time>
      </trkpt>
      <trkpt lat="42.5197" lon="1.86137">
        <ele>2351.04</ele>
        <time>2021-07-07T06:48:02Z</time>
      </trkpt>
      <trkpt lat="42.51971" lon="1.86139">
        <ele>2350.56</ele>
        <time>2021-07-07T06:48:05Z</time>
      </trkpt>
      <trkpt lat="42.51974" lon="1.86143">
        <ele>2351.04</ele>
        <time>2021-07-07T06:48:11Z</time>
      </trkpt>
      <trkpt lat="42.51975" lon="1.86145">
        <ele>2351.04</ele>
        <time>2021-07-07T06:48:13Z</time>
      </trkpt>
      <trkpt lat="42.51981" lon="1.8615">
        <ele>2351.52</ele>
        <time>2021-07-07T06:48:20Z</time>
      </trkpt>
      <trkpt lat="42.51984" lon="1.86152">
        <ele>2352.48</ele>
        <time>2021-07-07T06:48:25Z</time>
      </trkpt>
      <trkpt lat="42.51991" lon="1.86156">
        <ele>2352.96</ele>
        <time>2021-07-07T06:48:32Z</time>
      </trkpt>
      <trkpt lat="42.52" lon="1.8616">
        <ele>2353.44</ele>
        <time>2021-07-07T06:48:39Z</time>
      </trkpt>
      <trkpt lat="42.5201" lon="1.86164">
        <ele>2353.44</ele>
        <time>2021-07-07T06:48:46Z</time>
      </trkpt>
      <trkpt lat="42.52016" lon="1.86166">
        <ele>2353.93</ele>
        <time>2021-07-07T06:48:51Z</time>
      </trkpt>
      <trkpt lat="42.52022" lon="1.86168">
        <ele>2354.89</ele>
        <time>2021-07-07T06:48:57Z</time>
      </trkpt>
      <trkpt lat="42.52024" lon="1.86168">
        <ele>2355.37</ele>
        <time>2021-07-07T06:48:59Z</time>
      </trkpt>
      <trkpt lat="42.52034" lon="1.86171">
        <ele>2356.81</ele>
        <time>2021-07-07T06:49:07Z</time>
      </trkpt>
      <trkpt lat="42.52038" lon="1.86173">
        <ele>2357.29</ele>
        <time>2021-07-07T06:49:11Z</time>
      </trkpt>
      <trkpt lat="42.52045" lon="1.8618">
        <ele>2358.25</ele>
        <time>2021-07-07T06:49:19Z</time>
      </trkpt>
      <trkpt lat="42.52046" lon="1.86181">
        <ele>2358.25</ele>
        <time>2021-07-07T06:49:20Z</time>
      </trkpt>
      <trkpt lat="42.52052" lon="1.86186">
        <ele>2360.17</ele>
        <time>2021-07-07T06:49:27Z</time>
      </trkpt>
      <trkpt lat="42.52054" lon="1.86187">
        <ele>2361.14</ele>
        <time>2021-07-07T06:49:30Z</time>
      </trkpt>
      <trkpt lat="42.52058" lon="1.86187">
        <ele>2361.62</ele>
        <time>2021-07-07T06:49:37Z</time>
      </trkpt>
      <trkpt lat="42.5206" lon="1.86187">
        <ele>2362.1</ele>
        <time>2021-07-07T06:49:39Z</time>
      </trkpt>
      <trkpt lat="42.52068" lon="1.86184">
        <ele>2362.58</ele>
        <time>2021-07-07T06:49:47Z</time>
      </trkpt>
      <trkpt lat="42.52076" lon="1.86182">
        <ele>2363.54</ele>
        <time>2021-07-07T06:49:54Z</time>
      </trkpt>
      <trkpt lat="42.52084" lon="1.86183">
        <ele>2363.54</ele>
        <time>2021-07-07T06:50:00Z</time>
      </trkpt>
      <trkpt lat="42.52092" lon="1.86183">
        <ele>2364.02</ele>
        <time>2021-07-07T06:50:06Z</time>
      </trkpt>
      <trkpt lat="42.52101" lon="1.86182">
        <ele>2364.02</ele>
        <time>2021-07-07T06:50:13Z</time>
      </trkpt>
      <trkpt lat="42.52112" lon="1.86178">
        <ele>2364.5</ele>
        <time>2021-07-07T06:50:21Z</time>
      </trkpt>
      <trkpt lat="42.52114" lon="1.86177">
        <ele>2364.5</ele>
        <time>2021-07-07T06:50:23Z</time>
      </trkpt>
      <trkpt lat="42.52128" lon="1.86173">
        <ele>2364.02</ele>
        <time>2021-07-07T06:50:33Z</time>
      </trkpt>
      <trkpt lat="42.52139" lon="1.8617">
        <ele>2364.02</ele>
        <time>2021-07-07T06:50:41Z</time>
      </trkpt>
      <trkpt lat="42.52148" lon="1.86167">
        <ele>2364.02</ele>
        <time>2021-07-07T06:50:48Z</time>
      </trkpt>
      <trkpt lat="42.52157" lon="1.86164">
        <ele>2363.54</ele>
        <time>2021-07-07T06:50:54Z</time>
      </trkpt>
      <trkpt lat="42.52167" lon="1.8616">
        <ele>2362.1</ele>
        <time>2021-07-07T06:51:02Z</time>
      </trkpt>
      <trkpt lat="42.52169" lon="1.8616">
        <ele>2365.46</ele>
        <time>2021-07-07T06:51:03Z</time>
      </trkpt>
      <trkpt lat="42.52177" lon="1.86156">
        <ele>2363.54</ele>
        <time>2021-07-07T06:51:10Z</time>
      </trkpt>
      <trkpt lat="42.52187" lon="1.86155">
        <ele>2363.06</ele>
        <time>2021-07-07T06:51:17Z</time>
      </trkpt>
      <trkpt lat="42.52196" lon="1.86151">
        <ele>2363.54</ele>
        <time>2021-07-07T06:51:24Z</time>
      </trkpt>
      <trkpt lat="42.52208" lon="1.86148">
        <ele>2363.54</ele>
        <time>2021-07-07T06:51:33Z</time>
      </trkpt>
      <trkpt lat="42.52216" lon="1.86146">
        <ele>2364.02</ele>
        <time>2021-07-07T06:51:39Z</time>
      </trkpt>
      <trkpt lat="42.5222" lon="1.86144">
        <ele>2364.02</ele>
        <time>2021-07-07T06:51:42Z</time>
      </trkpt>
      <trkpt lat="42.52227" lon="1.86144">
        <ele>2364.02</ele>
        <time>2021-07-07T06:51:48Z</time>
      </trkpt>
      <trkpt lat="42.52232" lon="1.86145">
        <ele>2364.02</ele>
        <time>2021-07-07T06:51:52Z</time>
      </trkpt>
      <trkpt lat="42.52238" lon="1.86145">
        <ele>2364.02</ele>
        <time>2021-07-07T06:51:57Z</time>
      </trkpt>
      <trkpt lat="42.52242" lon="1.86142">
        <ele>2364.5</ele>
        <time>2021-07-07T06:52:02Z</time>
      </trkpt>
      <trkpt lat="42.52246" lon="1.86144">
        <ele>2364.5</ele>
        <time>2021-07-07T06:52:05Z</time>
      </trkpt>
      <trkpt lat="42.52257" lon="1.86146">
        <ele>2364.98</ele>
        <time>2021-07-07T06:52:14Z</time>
      </trkpt>
      <trkpt lat="42.52259" lon="1.86147">
        <ele>2364.98</ele>
        <time>2021-07-07T06:52:16Z</time>
      </trkpt>
      <trkpt lat="42.52262" lon="1.86146">
        <ele>2364.98</ele>
        <time>2021-07-07T06:52:19Z</time>
      </trkpt>
      <trkpt lat="42.52269" lon="1.86142">
        <ele>2365.94</ele>
        <time>2021-07-07T06:52:29Z</time>
      </trkpt>
      <trkpt lat="42.5227" lon="1.86142">
        <ele>2365.94</ele>
        <time>2021-07-07T06:52:42Z</time>
      </trkpt>
      <trkpt lat="42.5227" lon="1.86142">
        <ele>2365.94</ele>
        <time>2021-07-07T06:53:00Z</time>
      </trkpt>
      <trkpt lat="42.52269" lon="1.86142">
        <ele>2365.94</ele>
        <time>2021-07-07T06:53:15Z</time>
      </trkpt>
      <trkpt lat="42.52271" lon="1.86142">
        <ele>2365.94</ele>
        <time>2021-07-07T06:53:19Z</time>
      </trkpt>
      <trkpt lat="42.52278" lon="1.86141">
        <ele>2365.94</ele>
        <time>2021-07-07T06:53:25Z</time>
      </trkpt>
      <trkpt lat="42.5228" lon="1.86139">
        <ele>2365.94</ele>
        <time>2021-07-07T06:53:27Z</time>
      </trkpt>
      <trkpt lat="42.52284" lon="1.86139">
        <ele>2366.42</ele>
        <time>2021-07-07T06:53:30Z</time>
      </trkpt>
      <trkpt lat="42.52288" lon="1.86138">
        <ele>2366.42</ele>
        <time>2021-07-07T06:53:33Z</time>
      </trkpt>
      <trkpt lat="42.523" lon="1.86137">
        <ele>2366.9</ele>
        <time>2021-07-07T06:53:43Z</time>
      </trkpt>
      <trkpt lat="42.52308" lon="1.86133">
        <ele>2367.38</ele>
        <time>2021-07-07T06:53:50Z</time>
      </trkpt>
      <trkpt lat="42.5231" lon="1.86129">
        <ele>2367.86</ele>
        <time>2021-07-07T06:53:53Z</time>
      </trkpt>
      <trkpt lat="42.52318" lon="1.86128">
        <ele>2368.35</ele>
        <time>2021-07-07T06:53:59Z</time>
      </trkpt>
      <trkpt lat="42.5232" lon="1.86127">
        <ele>2368.35</ele>
        <time>2021-07-07T06:54:01Z</time>
      </trkpt>
      <trkpt lat="42.52335" lon="1.86131">
        <ele>2369.79</ele>
        <time>2021-07-07T06:54:11Z</time>
      </trkpt>
      <trkpt lat="42.5234" lon="1.86132">
        <ele>2370.27</ele>
        <time>2021-07-07T06:54:16Z</time>
      </trkpt>
      <trkpt lat="42.52349" lon="1.86134">
        <ele>2371.71</ele>
        <time>2021-07-07T06:54:24Z</time>
      </trkpt>
      <trkpt lat="42.52353" lon="1.86135">
        <ele>2372.19</ele>
        <time>2021-07-07T06:54:28Z</time>
      </trkpt>
      <trkpt lat="42.52358" lon="1.86136">
        <ele>2372.67</ele>
        <time>2021-07-07T06:54:32Z</time>
      </trkpt>
      <trkpt lat="42.52361" lon="1.86135">
        <ele>2373.15</ele>
        <time>2021-07-07T06:54:35Z</time>
      </trkpt>
      <trkpt lat="42.5237" lon="1.86139">
        <ele>2374.59</ele>
        <time>2021-07-07T06:54:43Z</time>
      </trkpt>
      <trkpt lat="42.52376" lon="1.86139">
        <ele>2375.07</ele>
        <time>2021-07-07T06:54:50Z</time>
      </trkpt>
      <trkpt lat="42.52375" lon="1.86138">
        <ele>2373.63</ele>
        <time>2021-07-07T06:55:04Z</time>
      </trkpt>
      <trkpt lat="42.52375" lon="1.86138">
        <ele>2377.48</ele>
        <time>2021-07-07T06:55:05Z</time>
      </trkpt>
      <trkpt lat="42.52374" lon="1.86138">
        <ele>2375.55</ele>
        <time>2021-07-07T06:55:16Z</time>
      </trkpt>
      <trkpt lat="42.52375" lon="1.86138">
        <ele>2375.55</ele>
        <time>2021-07-07T06:55:18Z</time>
      </trkpt>
      <trkpt lat="42.52377" lon="1.86139">
        <ele>2375.55</ele>
        <time>2021-07-07T06:55:21Z</time>
      </trkpt>
      <trkpt lat="42.52388" lon="1.86138">
        <ele>2377</ele>
        <time>2021-07-07T06:55:30Z</time>
      </trkpt>
      <trkpt lat="42.52394" lon="1.86135">
        <ele>2378.44</ele>
        <time>2021-07-07T06:55:38Z</time>
      </trkpt>
      <trkpt lat="42.52395" lon="1.86135">
        <ele>2378.44</ele>
        <time>2021-07-07T06:55:39Z</time>
      </trkpt>
      <trkpt lat="42.52406" lon="1.86136">
        <ele>2379.88</ele>
        <time>2021-07-07T06:55:48Z</time>
      </trkpt>
      <trkpt lat="42.52413" lon="1.86135">
        <ele>2381.32</ele>
        <time>2021-07-07T06:55:55Z</time>
      </trkpt>
      <trkpt lat="42.52418" lon="1.86133">
        <ele>2382.28</ele>
        <time>2021-07-07T06:56:02Z</time>
      </trkpt>
      <trkpt lat="42.52427" lon="1.86131">
        <ele>2384.21</ele>
        <time>2021-07-07T06:56:10Z</time>
      </trkpt>
      <trkpt lat="42.52431" lon="1.86132">
        <ele>2384.69</ele>
        <time>2021-07-07T06:56:14Z</time>
      </trkpt>
      <trkpt lat="42.52433" lon="1.86132">
        <ele>2385.17</ele>
        <time>2021-07-07T06:56:16Z</time>
      </trkpt>
      <trkpt lat="42.52439" lon="1.86133">
        <ele>2386.61</ele>
        <time>2021-07-07T06:56:23Z</time>
      </trkpt>
      <trkpt lat="42.5244" lon="1.86133">
        <ele>2386.61</ele>
        <time>2021-07-07T06:56:24Z</time>
      </trkpt>
      <trkpt lat="42.52443" lon="1.86135">
        <ele>2387.09</ele>
        <time>2021-07-07T06:56:28Z</time>
      </trkpt>
      <trkpt lat="42.52447" lon="1.86137">
        <ele>2388.05</ele>
        <time>2021-07-07T06:56:32Z</time>
      </trkpt>
      <trkpt lat="42.52456" lon="1.86137">
        <ele>2389.49</ele>
        <time>2021-07-07T06:56:41Z</time>
      </trkpt>
      <trkpt lat="42.52461" lon="1.86134">
        <ele>2391.42</ele>
        <time>2021-07-07T06:56:49Z</time>
      </trkpt>
      <trkpt lat="42.52463" lon="1.86134">
        <ele>2391.9</ele>
        <time>2021-07-07T06:56:55Z</time>
      </trkpt>
      <trkpt lat="42.52463" lon="1.86133">
        <ele>2391.9</ele>
        <time>2021-07-07T06:56:56Z</time>
      </trkpt>
      <trkpt lat="42.52466" lon="1.86125">
        <ele>2392.38</ele>
        <time>2021-07-07T06:57:03Z</time>
      </trkpt>
      <trkpt lat="42.52469" lon="1.86118">
        <ele>2392.86</ele>
        <time>2021-07-07T06:57:09Z</time>
      </trkpt>
      <trkpt lat="42.52473" lon="1.86111">
        <ele>2394.3</ele>
        <time>2021-07-07T06:57:17Z</time>
      </trkpt>
      <trkpt lat="42.52478" lon="1.86111">
        <ele>2395.74</ele>
        <time>2021-07-07T06:57:25Z</time>
      </trkpt>
      <trkpt lat="42.52483" lon="1.86116">
        <ele>2398.15</ele>
        <time>2021-07-07T06:57:34Z</time>
      </trkpt>
      <trkpt lat="42.52485" lon="1.86116">
        <ele>2398.63</ele>
        <time>2021-07-07T06:57:38Z</time>
      </trkpt>
      <trkpt lat="42.52487" lon="1.86116">
        <ele>2399.11</ele>
        <time>2021-07-07T06:57:40Z</time>
      </trkpt>
      <trkpt lat="42.52491" lon="1.86119">
        <ele>2399.59</ele>
        <time>2021-07-07T06:57:45Z</time>
      </trkpt>
      <trkpt lat="42.52494" lon="1.8612">
        <ele>2400.07</ele>
        <time>2021-07-07T06:57:48Z</time>
      </trkpt>
      <trkpt lat="42.52502" lon="1.86123">
        <ele>2401.99</ele>
        <time>2021-07-07T06:57:56Z</time>
      </trkpt>
      <trkpt lat="42.52505" lon="1.86126">
        <ele>2402.95</ele>
        <time>2021-07-07T06:58:04Z</time>
      </trkpt>
      <trkpt lat="42.52507" lon="1.86127">
        <ele>2402.47</ele>
        <time>2021-07-07T06:58:15Z</time>
      </trkpt>
      <trkpt lat="42.5251" lon="1.8613">
        <ele>2403.43</ele>
        <time>2021-07-07T06:58:22Z</time>
      </trkpt>
      <trkpt lat="42.52514" lon="1.86131">
        <ele>2404.39</ele>
        <time>2021-07-07T06:58:30Z</time>
      </trkpt>
      <trkpt lat="42.52515" lon="1.8613">
        <ele>2404.39</ele>
        <time>2021-07-07T06:58:38Z</time>
      </trkpt>
      <trkpt lat="42.52521" lon="1.86128">
        <ele>2405.84</ele>
        <time>2021-07-07T06:58:44Z</time>
      </trkpt>
      <trkpt lat="42.52525" lon="1.86125">
        <ele>2406.8</ele>
        <time>2021-07-07T06:58:52Z</time>
      </trkpt>
      <trkpt lat="42.5253" lon="1.86122">
        <ele>2407.28</ele>
        <time>2021-07-07T06:59:01Z</time>
      </trkpt>
      <trkpt lat="42.52531" lon="1.86124">
        <ele>2407.76</ele>
        <time>2021-07-07T06:59:03Z</time>
      </trkpt>
      <trkpt lat="42.52538" lon="1.86128">
        <ele>2409.68</ele>
        <time>2021-07-07T06:59:11Z</time>
      </trkpt>
      <trkpt lat="42.5254" lon="1.86128">
        <ele>2410.16</ele>
        <time>2021-07-07T06:59:14Z</time>
      </trkpt>
      <trkpt lat="42.52542" lon="1.86128">
        <ele>2411.6</ele>
        <time>2021-07-07T06:59:21Z</time>
      </trkpt>
      <trkpt lat="42.52546" lon="1.86129">
        <ele>2412.57</ele>
        <time>2021-07-07T06:59:28Z</time>
      </trkpt>
      <trkpt lat="42.52554" lon="1.8613">
        <ele>2414.49</ele>
        <time>2021-07-07T06:59:35Z</time>
      </trkpt>
      <trkpt lat="42.52561" lon="1.86128">
        <ele>2415.45</ele>
        <time>2021-07-07T06:59:44Z</time>
      </trkpt>
      <trkpt lat="42.52566" lon="1.86129">
        <ele>2416.89</ele>
        <time>2021-07-07T06:59:52Z</time>
      </trkpt>
      <trkpt lat="42.52568" lon="1.86128">
        <ele>2417.85</ele>
        <time>2021-07-07T06:59:55Z</time>
      </trkpt>
      <trkpt lat="42.52572" lon="1.86128">
        <ele>2418.81</ele>
        <time>2021-07-07T07:00:02Z</time>
      </trkpt>
      <trkpt lat="42.52575" lon="1.86125">
        <ele>2418.81</ele>
        <time>2021-07-07T07:00:08Z</time>
      </trkpt>
      <trkpt lat="42.52579" lon="1.86123">
        <ele>2419.3</ele>
        <time>2021-07-07T07:00:16Z</time>
      </trkpt>
      <trkpt lat="42.5258" lon="1.86121">
        <ele>2419.78</ele>
        <time>2021-07-07T07:00:23Z</time>
      </trkpt>
      <trkpt lat="42.52584" lon="1.86117">
        <ele>2420.74</ele>
        <time>2021-07-07T07:00:30Z</time>
      </trkpt>
      <trkpt lat="42.52592" lon="1.86118">
        <ele>2422.18</ele>
        <time>2021-07-07T07:00:38Z</time>
      </trkpt>
      <trkpt lat="42.52593" lon="1.86118">
        <ele>2422.66</ele>
        <time>2021-07-07T07:00:46Z</time>
      </trkpt>
      <trkpt lat="42.52596" lon="1.86116">
        <ele>2422.66</ele>
        <time>2021-07-07T07:00:54Z</time>
      </trkpt>
      <trkpt lat="42.52601" lon="1.86111">
        <ele>2424.1</ele>
        <time>2021-07-07T07:01:00Z</time>
      </trkpt>
      <trkpt lat="42.52602" lon="1.86108">
        <ele>2424.58</ele>
        <time>2021-07-07T07:01:08Z</time>
      </trkpt>
      <trkpt lat="42.52605" lon="1.86106">
        <ele>2425.06</ele>
        <time>2021-07-07T07:01:14Z</time>
      </trkpt>
      <trkpt lat="42.52609" lon="1.86101">
        <ele>2426.5</ele>
        <time>2021-07-07T07:01:22Z</time>
      </trkpt>
      <trkpt lat="42.52614" lon="1.86099">
        <ele>2427.95</ele>
        <time>2021-07-07T07:01:30Z</time>
      </trkpt>
      <trkpt lat="42.52617" lon="1.861">
        <ele>2429.39</ele>
        <time>2021-07-07T07:01:37Z</time>
      </trkpt>
      <trkpt lat="42.52619" lon="1.86103">
        <ele>2430.83</ele>
        <time>2021-07-07T07:01:44Z</time>
      </trkpt>
      <trkpt lat="42.52623" lon="1.86102">
        <ele>2431.79</ele>
        <time>2021-07-07T07:01:49Z</time>
      </trkpt>
      <trkpt lat="42.52625" lon="1.86101">
        <ele>2433.23</ele>
        <time>2021-07-07T07:01:56Z</time>
      </trkpt>
      <trkpt lat="42.52631" lon="1.86098">
        <ele>2435.64</ele>
        <time>2021-07-07T07:02:04Z</time>
      </trkpt>
      <trkpt lat="42.52635" lon="1.86099">
        <ele>2436.6</ele>
        <time>2021-07-07T07:02:11Z</time>
      </trkpt>
      <trkpt lat="42.52638" lon="1.86099">
        <ele>2438.04</ele>
        <time>2021-07-07T07:02:19Z</time>
      </trkpt>
      <trkpt lat="42.52639" lon="1.86098">
        <ele>2438.04</ele>
        <time>2021-07-07T07:02:29Z</time>
      </trkpt>
      <trkpt lat="42.52641" lon="1.86096">
        <ele>2438.04</ele>
        <time>2021-07-07T07:02:32Z</time>
      </trkpt>
      <trkpt lat="42.52648" lon="1.86095">
        <ele>2439</ele>
        <time>2021-07-07T07:02:38Z</time>
      </trkpt>
      <trkpt lat="42.52655" lon="1.86097">
        <ele>2439.96</ele>
        <time>2021-07-07T07:02:45Z</time>
      </trkpt>
      <trkpt lat="42.52657" lon="1.86097">
        <ele>2441.41</ele>
        <time>2021-07-07T07:02:52Z</time>
      </trkpt>
      <trkpt lat="42.52657" lon="1.86097">
        <ele>2442.37</ele>
        <time>2021-07-07T07:02:54Z</time>
      </trkpt>
      <trkpt lat="42.52661" lon="1.86098">
        <ele>2443.81</ele>
        <time>2021-07-07T07:03:01Z</time>
      </trkpt>
      <trkpt lat="42.52665" lon="1.86096">
        <ele>2444.77</ele>
        <time>2021-07-07T07:03:07Z</time>
      </trkpt>
      <trkpt lat="42.52667" lon="1.86095">
        <ele>2445.73</ele>
        <time>2021-07-07T07:03:11Z</time>
      </trkpt>
      <trkpt lat="42.52674" lon="1.86096">
        <ele>2447.65</ele>
        <time>2021-07-07T07:03:18Z</time>
      </trkpt>
      <trkpt lat="42.5268" lon="1.86095">
        <ele>2449.1</ele>
        <time>2021-07-07T07:03:25Z</time>
      </trkpt>
      <trkpt lat="42.52684" lon="1.86091">
        <ele>2450.54</ele>
        <time>2021-07-07T07:03:32Z</time>
      </trkpt>
      <trkpt lat="42.52686" lon="1.86089">
        <ele>2451.02</ele>
        <time>2021-07-07T07:03:39Z</time>
      </trkpt>
      <trkpt lat="42.52689" lon="1.86087">
        <ele>2452.46</ele>
        <time>2021-07-07T07:03:45Z</time>
      </trkpt>
      <trkpt lat="42.52693" lon="1.86083">
        <ele>2453.42</ele>
        <time>2021-07-07T07:03:51Z</time>
      </trkpt>
      <trkpt lat="42.52697" lon="1.86083">
        <ele>2454.38</ele>
        <time>2021-07-07T07:03:58Z</time>
      </trkpt>
      <trkpt lat="42.52701" lon="1.86079">
        <ele>2455.34</ele>
        <time>2021-07-07T07:04:04Z</time>
      </trkpt>
      <trkpt lat="42.52703" lon="1.86079">
        <ele>2457.27</ele>
        <time>2021-07-07T07:04:11Z</time>
      </trkpt>
      <trkpt lat="42.52704" lon="1.86079">
        <ele>2459.19</ele>
        <time>2021-07-07T07:04:19Z</time>
      </trkpt>
      <trkpt lat="42.52706" lon="1.86079">
        <ele>2458.71</ele>
        <time>2021-07-07T07:04:27Z</time>
      </trkpt>
      <trkpt lat="42.52711" lon="1.8608">
        <ele>2460.15</ele>
        <time>2021-07-07T07:04:33Z</time>
      </trkpt>
      <trkpt lat="42.52716" lon="1.86082">
        <ele>2461.11</ele>
        <time>2021-07-07T07:04:38Z</time>
      </trkpt>
      <trkpt lat="42.52719" lon="1.86078">
        <ele>2462.55</ele>
        <time>2021-07-07T07:04:45Z</time>
      </trkpt>
      <trkpt lat="42.52723" lon="1.86079">
        <ele>2463.52</ele>
        <time>2021-07-07T07:04:49Z</time>
      </trkpt>
      <trkpt lat="42.52727" lon="1.86077">
        <ele>2464.48</ele>
        <time>2021-07-07T07:04:55Z</time>
      </trkpt>
      <trkpt lat="42.52728" lon="1.86077">
        <ele>2464.48</ele>
        <time>2021-07-07T07:04:56Z</time>
      </trkpt>
      <trkpt lat="42.52733" lon="1.86071">
        <ele>2465.92</ele>
        <time>2021-07-07T07:05:02Z</time>
      </trkpt>
      <trkpt lat="42.52735" lon="1.8607">
        <ele>2465.92</ele>
        <time>2021-07-07T07:05:04Z</time>
      </trkpt>
      <trkpt lat="42.52737" lon="1.86069">
        <ele>2466.4</ele>
        <time>2021-07-07T07:05:07Z</time>
      </trkpt>
      <trkpt lat="42.52746" lon="1.8607">
        <ele>2467.84</ele>
        <time>2021-07-07T07:05:14Z</time>
      </trkpt>
      <trkpt lat="42.52749" lon="1.8607">
        <ele>2468.32</ele>
        <time>2021-07-07T07:05:20Z</time>
      </trkpt>
      <trkpt lat="42.52753" lon="1.86066">
        <ele>2469.28</ele>
        <time>2021-07-07T07:05:25Z</time>
      </trkpt>
      <trkpt lat="42.52758" lon="1.8606">
        <ele>2470.73</ele>
        <time>2021-07-07T07:05:33Z</time>
      </trkpt>
      <trkpt lat="42.52762" lon="1.86054">
        <ele>2471.69</ele>
        <time>2021-07-07T07:05:40Z</time>
      </trkpt>
      <trkpt lat="42.52767" lon="1.86054">
        <ele>2473.13</ele>
        <time>2021-07-07T07:05:46Z</time>
      </trkpt>
      <trkpt lat="42.52769" lon="1.86052">
        <ele>2473.13</ele>
        <time>2021-07-07T07:05:51Z</time>
      </trkpt>
      <trkpt lat="42.52774" lon="1.8605">
        <ele>2474.57</ele>
        <time>2021-07-07T07:05:57Z</time>
      </trkpt>
      <trkpt lat="42.52778" lon="1.86049">
        <ele>2476.49</ele>
        <time>2021-07-07T07:06:04Z</time>
      </trkpt>
      <trkpt lat="42.52782" lon="1.86047">
        <ele>2477.45</ele>
        <time>2021-07-07T07:06:10Z</time>
      </trkpt>
      <trkpt lat="42.52787" lon="1.86046">
        <ele>2478.9</ele>
        <time>2021-07-07T07:06:16Z</time>
      </trkpt>
      <trkpt lat="42.52792" lon="1.86045">
        <ele>2479.86</ele>
        <time>2021-07-07T07:06:22Z</time>
      </trkpt>
      <trkpt lat="42.52797" lon="1.86044">
        <ele>2481.3</ele>
        <time>2021-07-07T07:06:28Z</time>
      </trkpt>
      <trkpt lat="42.52802" lon="1.86041">
        <ele>2482.74</ele>
        <time>2021-07-07T07:06:35Z</time>
      </trkpt>
      <trkpt lat="42.52807" lon="1.86041">
        <ele>2484.18</ele>
        <time>2021-07-07T07:06:43Z</time>
      </trkpt>
      <trkpt lat="42.52807" lon="1.86041">
        <ele>2484.66</ele>
        <time>2021-07-07T07:06:52Z</time>
      </trkpt>
      <trkpt lat="42.52807" lon="1.8604">
        <ele>2484.18</ele>
        <time>2021-07-07T07:07:05Z</time>
      </trkpt>
      <trkpt lat="42.52808" lon="1.8604">
        <ele>2484.66</ele>
        <time>2021-07-07T07:07:14Z</time>
      </trkpt>
      <trkpt lat="42.5281" lon="1.86038">
        <ele>2485.63</ele>
        <time>2021-07-07T07:07:21Z</time>
      </trkpt>
      <trkpt lat="42.52813" lon="1.86037">
        <ele>2487.07</ele>
        <time>2021-07-07T07:07:27Z</time>
      </trkpt>
      <trkpt lat="42.52815" lon="1.86035">
        <ele>2488.51</ele>
        <time>2021-07-07T07:07:32Z</time>
      </trkpt>
      <trkpt lat="42.5282" lon="1.86032">
        <ele>2489.47</ele>
        <time>2021-07-07T07:07:37Z</time>
      </trkpt>
      <trkpt lat="42.52825" lon="1.86031">
        <ele>2490.91</ele>
        <time>2021-07-07T07:07:44Z</time>
      </trkpt>
      <trkpt lat="42.5283" lon="1.86032">
        <ele>2491.87</ele>
        <time>2021-07-07T07:07:51Z</time>
      </trkpt>
      <trkpt lat="42.52834" lon="1.8603">
        <ele>2493.8</ele>
        <time>2021-07-07T07:07:57Z</time>
      </trkpt>
      <trkpt lat="42.52837" lon="1.86029">
        <ele>2494.76</ele>
        <time>2021-07-07T07:08:02Z</time>
      </trkpt>
      <trkpt lat="42.52842" lon="1.86026">
        <ele>2496.68</ele>
        <time>2021-07-07T07:08:10Z</time>
      </trkpt>
      <trkpt lat="42.52845" lon="1.86025">
        <ele>2497.16</ele>
        <time>2021-07-07T07:08:15Z</time>
      </trkpt>
      <trkpt lat="42.52851" lon="1.86025">
        <ele>2498.6</ele>
        <time>2021-07-07T07:08:20Z</time>
      </trkpt>
      <trkpt lat="42.52858" lon="1.86024">
        <ele>2500.05</ele>
        <time>2021-07-07T07:08:28Z</time>
      </trkpt>
      <trkpt lat="42.52862" lon="1.86022">
        <ele>2501.49</ele>
        <time>2021-07-07T07:08:36Z</time>
      </trkpt>
      <trkpt lat="42.52866" lon="1.86027">
        <ele>2503.41</ele>
        <time>2021-07-07T07:08:44Z</time>
      </trkpt>
      <trkpt lat="42.52869" lon="1.86029">
        <ele>2504.37</ele>
        <time>2021-07-07T07:08:51Z</time>
      </trkpt>
      <trkpt lat="42.5287" lon="1.8603">
        <ele>2506.77</ele>
        <time>2021-07-07T07:09:00Z</time>
      </trkpt>
      <trkpt lat="42.52873" lon="1.86029">
        <ele>2507.74</ele>
        <time>2021-07-07T07:09:07Z</time>
      </trkpt>
      <trkpt lat="42.52877" lon="1.8603">
        <ele>2508.7</ele>
        <time>2021-07-07T07:09:14Z</time>
      </trkpt>
      <trkpt lat="42.5288" lon="1.86034">
        <ele>2510.14</ele>
        <time>2021-07-07T07:09:20Z</time>
      </trkpt>
      <trkpt lat="42.52882" lon="1.86036">
        <ele>2511.58</ele>
        <time>2021-07-07T07:09:27Z</time>
      </trkpt>
      <trkpt lat="42.52888" lon="1.86039">
        <ele>2513.02</ele>
        <time>2021-07-07T07:09:32Z</time>
      </trkpt>
      <trkpt lat="42.5289" lon="1.8604">
        <ele>2513.98</ele>
        <time>2021-07-07T07:09:38Z</time>
      </trkpt>
      <trkpt lat="42.52891" lon="1.86041">
        <ele>2515.91</ele>
        <time>2021-07-07T07:09:45Z</time>
      </trkpt>
      <trkpt lat="42.52892" lon="1.86039">
        <ele>2516.87</ele>
        <time>2021-07-07T07:09:49Z</time>
      </trkpt>
      <trkpt lat="42.52896" lon="1.8604">
        <ele>2518.31</ele>
        <time>2021-07-07T07:09:56Z</time>
      </trkpt>
      <trkpt lat="42.529" lon="1.86041">
        <ele>2519.27</ele>
        <time>2021-07-07T07:09:59Z</time>
      </trkpt>
      <trkpt lat="42.52904" lon="1.86041">
        <ele>2521.19</ele>
        <time>2021-07-07T07:10:06Z</time>
      </trkpt>
      <trkpt lat="42.52908" lon="1.8604">
        <ele>2522.16</ele>
        <time>2021-07-07T07:10:11Z</time>
      </trkpt>
      <trkpt lat="42.52913" lon="1.86041">
        <ele>2523.6</ele>
        <time>2021-07-07T07:10:18Z</time>
      </trkpt>
      <trkpt lat="42.52914" lon="1.86042">
        <ele>2524.08</ele>
        <time>2021-07-07T07:10:20Z</time>
      </trkpt>
      <trkpt lat="42.52918" lon="1.86045">
        <ele>2525.04</ele>
        <time>2021-07-07T07:10:27Z</time>
      </trkpt>
      <trkpt lat="42.52923" lon="1.8605">
        <ele>2526</ele>
        <time>2021-07-07T07:10:35Z</time>
      </trkpt>
      <trkpt lat="42.52924" lon="1.86047">
        <ele>2527.44</ele>
        <time>2021-07-07T07:10:41Z</time>
      </trkpt>
      <trkpt lat="42.5293" lon="1.86048">
        <ele>2528.89</ele>
        <time>2021-07-07T07:10:48Z</time>
      </trkpt>
      <trkpt lat="42.52933" lon="1.86052">
        <ele>2529.85</ele>
        <time>2021-07-07T07:10:54Z</time>
      </trkpt>
      <trkpt lat="42.52937" lon="1.86056">
        <ele>2531.29</ele>
        <time>2021-07-07T07:11:00Z</time>
      </trkpt>
      <trkpt lat="42.5294" lon="1.86054">
        <ele>2532.73</ele>
        <time>2021-07-07T07:11:06Z</time>
      </trkpt>
      <trkpt lat="42.52941" lon="1.86054">
        <ele>2533.21</ele>
        <time>2021-07-07T07:11:13Z</time>
      </trkpt>
      <trkpt lat="42.52942" lon="1.86054">
        <ele>2533.21</ele>
        <time>2021-07-07T07:11:15Z</time>
      </trkpt>
      <trkpt lat="42.52945" lon="1.86052">
        <ele>2532.73</ele>
        <time>2021-07-07T07:11:20Z</time>
      </trkpt>
      <trkpt lat="42.52954" lon="1.86051">
        <ele>2535.13</ele>
        <time>2021-07-07T07:11:28Z</time>
      </trkpt>
      <trkpt lat="42.52955" lon="1.8605">
        <ele>2535.13</ele>
        <time>2021-07-07T07:11:29Z</time>
      </trkpt>
      <trkpt lat="42.5296" lon="1.86048">
        <ele>2535.13</ele>
        <time>2021-07-07T07:11:33Z</time>
      </trkpt>
      <trkpt lat="42.52964" lon="1.86044">
        <ele>2537.06</ele>
        <time>2021-07-07T07:11:41Z</time>
      </trkpt>
      <trkpt lat="42.52968" lon="1.86043">
        <ele>2535.13</ele>
        <time>2021-07-07T07:11:52Z</time>
      </trkpt>
      <trkpt lat="42.52973" lon="1.8604">
        <ele>2536.58</ele>
        <time>2021-07-07T07:12:00Z</time>
      </trkpt>
      <trkpt lat="42.52977" lon="1.86039">
        <ele>2537.06</ele>
        <time>2021-07-07T07:12:08Z</time>
      </trkpt>
      <trkpt lat="42.52983" lon="1.86037">
        <ele>2536.1</ele>
        <time>2021-07-07T07:12:15Z</time>
      </trkpt>
      <trkpt lat="42.52984" lon="1.86037">
        <ele>2537.06</ele>
        <time>2021-07-07T07:12:16Z</time>
      </trkpt>
      <trkpt lat="42.52994" lon="1.86032">
        <ele>2537.54</ele>
        <time>2021-07-07T07:12:23Z</time>
      </trkpt>
      <trkpt lat="42.53" lon="1.86026">
        <ele>2537.54</ele>
        <time>2021-07-07T07:12:28Z</time>
      </trkpt>
      <trkpt lat="42.53004" lon="1.86022">
        <ele>2537.06</ele>
        <time>2021-07-07T07:12:34Z</time>
      </trkpt>
      <trkpt lat="42.5301" lon="1.86019">
        <ele>2537.54</ele>
        <time>2021-07-07T07:12:39Z</time>
      </trkpt>
      <trkpt lat="42.5301" lon="1.86018">
        <ele>2537.54</ele>
        <time>2021-07-07T07:12:40Z</time>
      </trkpt>
      <trkpt lat="42.53014" lon="1.86016">
        <ele>2538.02</ele>
        <time>2021-07-07T07:12:43Z</time>
      </trkpt>
      <trkpt lat="42.53023" lon="1.86012">
        <ele>2538.98</ele>
        <time>2021-07-07T07:12:50Z</time>
      </trkpt>
      <trkpt lat="42.5303" lon="1.8601">
        <ele>2539.94</ele>
        <time>2021-07-07T07:12:57Z</time>
      </trkpt>
      <trkpt lat="42.53034" lon="1.86009">
        <ele>2539.94</ele>
        <time>2021-07-07T07:13:05Z</time>
      </trkpt>
      <trkpt lat="42.53035" lon="1.86008">
        <ele>2539.46</ele>
        <time>2021-07-07T07:13:07Z</time>
      </trkpt>
      <trkpt lat="42.53044" lon="1.8599">
        <ele>2538.98</ele>
        <time>2021-07-07T07:13:16Z</time>
      </trkpt>
      <trkpt lat="42.53047" lon="1.86004">
        <ele>2539.94</ele>
        <time>2021-07-07T07:13:21Z</time>
      </trkpt>
      <trkpt lat="42.53048" lon="1.86005">
        <ele>2538.98</ele>
        <time>2021-07-07T07:13:34Z</time>
      </trkpt>
      <trkpt lat="42.53047" lon="1.86004">
        <ele>2539.46</ele>
        <time>2021-07-07T07:13:44Z</time>
      </trkpt>
      <trkpt lat="42.5305" lon="1.86003">
        <ele>2539.46</ele>
        <time>2021-07-07T07:13:50Z</time>
      </trkpt>
      <trkpt lat="42.53056" lon="1.86">
        <ele>2539.94</ele>
        <time>2021-07-07T07:13:58Z</time>
      </trkpt>
      <trkpt lat="42.53056" lon="1.86">
        <ele>2539.46</ele>
        <time>2021-07-07T07:14:10Z</time>
      </trkpt>
      <trkpt lat="42.53057" lon="1.86">
        <ele>2539.94</ele>
        <time>2021-07-07T07:14:25Z</time>
      </trkpt>
      <trkpt lat="42.53057" lon="1.85999">
        <ele>2539.94</ele>
        <time>2021-07-07T07:14:27Z</time>
      </trkpt>
      <trkpt lat="42.53068" lon="1.85991">
        <ele>2540.42</ele>
        <time>2021-07-07T07:14:37Z</time>
      </trkpt>
      <trkpt lat="42.53071" lon="1.85986">
        <ele>2542.34</ele>
        <time>2021-07-07T07:14:41Z</time>
      </trkpt>
      <trkpt lat="42.53077" lon="1.85979">
        <ele>2541.38</ele>
        <time>2021-07-07T07:14:49Z</time>
      </trkpt>
      <trkpt lat="42.53083" lon="1.85969">
        <ele>2542.34</ele>
        <time>2021-07-07T07:14:56Z</time>
      </trkpt>
      <trkpt lat="42.53087" lon="1.85964">
        <ele>2542.82</ele>
        <time>2021-07-07T07:15:00Z</time>
      </trkpt>
      <trkpt lat="42.53093" lon="1.85954">
        <ele>2543.79</ele>
        <time>2021-07-07T07:15:07Z</time>
      </trkpt>
      <trkpt lat="42.53097" lon="1.85948">
        <ele>2544.27</ele>
        <time>2021-07-07T07:15:14Z</time>
      </trkpt>
      <trkpt lat="42.53102" lon="1.85939">
        <ele>2544.75</ele>
        <time>2021-07-07T07:15:21Z</time>
      </trkpt>
      <trkpt lat="42.53105" lon="1.85932">
        <ele>2545.71</ele>
        <time>2021-07-07T07:15:26Z</time>
      </trkpt>
      <trkpt lat="42.53108" lon="1.85923">
        <ele>2547.15</ele>
        <time>2021-07-07T07:15:34Z</time>
      </trkpt>
      <trkpt lat="42.53112" lon="1.85917">
        <ele>2548.11</ele>
        <time>2021-07-07T07:15:40Z</time>
      </trkpt>
      <trkpt lat="42.53115" lon="1.85912">
        <ele>2549.07</ele>
        <time>2021-07-07T07:15:45Z</time>
      </trkpt>
      <trkpt lat="42.53116" lon="1.85909">
        <ele>2550.51</ele>
        <time>2021-07-07T07:15:48Z</time>
      </trkpt>
      <trkpt lat="42.53116" lon="1.85906">
        <ele>2551</ele>
        <time>2021-07-07T07:15:50Z</time>
      </trkpt>
      <trkpt lat="42.5312" lon="1.85897">
        <ele>2551.96</ele>
        <time>2021-07-07T07:15:58Z</time>
      </trkpt>
      <trkpt lat="42.53121" lon="1.85894">
        <ele>2551.96</ele>
        <time>2021-07-07T07:16:00Z</time>
      </trkpt>
      <trkpt lat="42.53122" lon="1.85882">
        <ele>2552.92</ele>
        <time>2021-07-07T07:16:07Z</time>
      </trkpt>
      <trkpt lat="42.53122" lon="1.8588">
        <ele>2552.92</ele>
        <time>2021-07-07T07:16:09Z</time>
      </trkpt>
      <trkpt lat="42.53123" lon="1.85875">
        <ele>2553.88</ele>
        <time>2021-07-07T07:16:12Z</time>
      </trkpt>
      <trkpt lat="42.53124" lon="1.85873">
        <ele>2554.36</ele>
        <time>2021-07-07T07:16:14Z</time>
      </trkpt>
      <trkpt lat="42.53124" lon="1.8587">
        <ele>2554.36</ele>
        <time>2021-07-07T07:16:16Z</time>
      </trkpt>
      <trkpt lat="42.53128" lon="1.85863">
        <ele>2555.8</ele>
        <time>2021-07-07T07:16:23Z</time>
      </trkpt>
      <trkpt lat="42.53129" lon="1.85862">
        <ele>2556.28</ele>
        <time>2021-07-07T07:16:25Z</time>
      </trkpt>
      <trkpt lat="42.53134" lon="1.85855">
        <ele>2557.73</ele>
        <time>2021-07-07T07:16:32Z</time>
      </trkpt>
      <trkpt lat="42.53136" lon="1.85852">
        <ele>2558.21</ele>
        <time>2021-07-07T07:16:38Z</time>
      </trkpt>
      <trkpt lat="42.53138" lon="1.8585">
        <ele>2558.69</ele>
        <time>2021-07-07T07:16:45Z</time>
      </trkpt>
      <trkpt lat="42.53138" lon="1.8585">
        <ele>2558.21</ele>
        <time>2021-07-07T07:16:54Z</time>
      </trkpt>
      <trkpt lat="42.53138" lon="1.85849">
        <ele>2559.17</ele>
        <time>2021-07-07T07:17:06Z</time>
      </trkpt>
      <trkpt lat="42.53139" lon="1.85846">
        <ele>2559.65</ele>
        <time>2021-07-07T07:17:09Z</time>
      </trkpt>
      <trkpt lat="42.53143" lon="1.85837">
        <ele>2560.61</ele>
        <time>2021-07-07T07:17:16Z</time>
      </trkpt>
      <trkpt lat="42.53148" lon="1.85824">
        <ele>2561.57</ele>
        <time>2021-07-07T07:17:25Z</time>
      </trkpt>
      <trkpt lat="42.53148" lon="1.85823">
        <ele>2561.57</ele>
        <time>2021-07-07T07:17:35Z</time>
      </trkpt>
      <trkpt lat="42.53149" lon="1.85823">
        <ele>2561.09</ele>
        <time>2021-07-07T07:17:47Z</time>
      </trkpt>
      <trkpt lat="42.53149" lon="1.8582">
        <ele>2561.57</ele>
        <time>2021-07-07T07:17:55Z</time>
      </trkpt>
      <trkpt lat="42.53148" lon="1.8581">
        <ele>2562.05</ele>
        <time>2021-07-07T07:18:01Z</time>
      </trkpt>
      <trkpt lat="42.5315" lon="1.85794">
        <ele>2561.09</ele>
        <time>2021-07-07T07:18:09Z</time>
      </trkpt>
      <trkpt lat="42.53151" lon="1.85778">
        <ele>2560.13</ele>
        <time>2021-07-07T07:18:17Z</time>
      </trkpt>
      <trkpt lat="42.5315" lon="1.85762">
        <ele>2560.13</ele>
        <time>2021-07-07T07:18:25Z</time>
      </trkpt>
      <trkpt lat="42.5315" lon="1.85755">
        <ele>2559.17</ele>
        <time>2021-07-07T07:18:29Z</time>
      </trkpt>
      <trkpt lat="42.5315" lon="1.85742">
        <ele>2560.13</ele>
        <time>2021-07-07T07:18:37Z</time>
      </trkpt>
      <trkpt lat="42.53149" lon="1.85731">
        <ele>2560.13</ele>
        <time>2021-07-07T07:18:43Z</time>
      </trkpt>
      <trkpt lat="42.53147" lon="1.85716">
        <ele>2561.09</ele>
        <time>2021-07-07T07:18:52Z</time>
      </trkpt>
      <trkpt lat="42.53147" lon="1.85714">
        <ele>2562.05</ele>
        <time>2021-07-07T07:18:59Z</time>
      </trkpt>
      <trkpt lat="42.53147" lon="1.85711">
        <ele>2561.57</ele>
        <time>2021-07-07T07:19:01Z</time>
      </trkpt>
      <trkpt lat="42.53146" lon="1.85703">
        <ele>2563.01</ele>
        <time>2021-07-07T07:19:08Z</time>
      </trkpt>
      <trkpt lat="42.53146" lon="1.85695">
        <ele>2564.45</ele>
        <time>2021-07-07T07:19:14Z</time>
      </trkpt>
      <trkpt lat="42.53146" lon="1.85691">
        <ele>2564.93</ele>
        <time>2021-07-07T07:19:20Z</time>
      </trkpt>
      <trkpt lat="42.53146" lon="1.85691">
        <ele>2565.42</ele>
        <time>2021-07-07T07:19:23Z</time>
      </trkpt>
      <trkpt lat="42.53145" lon="1.85686">
        <ele>2566.38</ele>
        <time>2021-07-07T07:19:28Z</time>
      </trkpt>
      <trkpt lat="42.53146" lon="1.85683">
        <ele>2566.38</ele>
        <time>2021-07-07T07:19:30Z</time>
      </trkpt>
      <trkpt lat="42.53145" lon="1.85671">
        <ele>2567.82</ele>
        <time>2021-07-07T07:19:38Z</time>
      </trkpt>
      <trkpt lat="42.53144" lon="1.85663">
        <ele>2568.78</ele>
        <time>2021-07-07T07:19:43Z</time>
      </trkpt>
      <trkpt lat="42.53143" lon="1.85649">
        <ele>2568.78</ele>
        <time>2021-07-07T07:19:51Z</time>
      </trkpt>
      <trkpt lat="42.53142" lon="1.85644">
        <ele>2569.26</ele>
        <time>2021-07-07T07:19:54Z</time>
      </trkpt>
      <trkpt lat="42.53137" lon="1.85634">
        <ele>2570.22</ele>
        <time>2021-07-07T07:20:03Z</time>
      </trkpt>
      <trkpt lat="42.53137" lon="1.85632">
        <ele>2570.22</ele>
        <time>2021-07-07T07:20:13Z</time>
      </trkpt>
      <trkpt lat="42.53137" lon="1.85632">
        <ele>2569.74</ele>
        <time>2021-07-07T07:20:34Z</time>
      </trkpt>
      <trkpt lat="42.53137" lon="1.85632">
        <ele>2569.74</ele>
        <time>2021-07-07T07:20:38Z</time>
      </trkpt>
      <trkpt lat="42.53137" lon="1.8563">
        <ele>2569.74</ele>
        <time>2021-07-07T07:20:40Z</time>
      </trkpt>
      <trkpt lat="42.53137" lon="1.85627">
        <ele>2569.26</ele>
        <time>2021-07-07T07:20:42Z</time>
      </trkpt>
      <trkpt lat="42.53133" lon="1.85612">
        <ele>2568.78</ele>
        <time>2021-07-07T07:20:51Z</time>
      </trkpt>
      <trkpt lat="42.5313" lon="1.85598">
        <ele>2567.82</ele>
        <time>2021-07-07T07:20:59Z</time>
      </trkpt>
      <trkpt lat="42.53124" lon="1.85583">
        <ele>2566.38</ele>
        <time>2021-07-07T07:21:07Z</time>
      </trkpt>
      <trkpt lat="42.5312" lon="1.85573">
        <ele>2564.93</ele>
        <time>2021-07-07T07:21:13Z</time>
      </trkpt>
      <trkpt lat="42.53114" lon="1.85559">
        <ele>2563.49</ele>
        <time>2021-07-07T07:21:21Z</time>
      </trkpt>
      <trkpt lat="42.53106" lon="1.85542">
        <ele>2562.53</ele>
        <time>2021-07-07T07:21:31Z</time>
      </trkpt>
      <trkpt lat="42.53099" lon="1.85528">
        <ele>2563.49</ele>
        <time>2021-07-07T07:21:40Z</time>
      </trkpt>
      <trkpt lat="42.53096" lon="1.85521">
        <ele>2564.45</ele>
        <time>2021-07-07T07:21:45Z</time>
      </trkpt>
      <trkpt lat="42.53093" lon="1.85518">
        <ele>2564.93</ele>
        <time>2021-07-07T07:21:49Z</time>
      </trkpt>
      <trkpt lat="42.53089" lon="1.85511">
        <ele>2564.93</ele>
        <time>2021-07-07T07:21:54Z</time>
      </trkpt>
      <trkpt lat="42.53085" lon="1.85504">
        <ele>2565.42</ele>
        <time>2021-07-07T07:21:59Z</time>
      </trkpt>
      <trkpt lat="42.53078" lon="1.85497">
        <ele>2567.34</ele>
        <time>2021-07-07T07:22:07Z</time>
      </trkpt>
      <trkpt lat="42.53077" lon="1.85497">
        <ele>2567.34</ele>
        <time>2021-07-07T07:22:08Z</time>
      </trkpt>
      <trkpt lat="42.53074" lon="1.85495">
        <ele>2568.78</ele>
        <time>2021-07-07T07:22:11Z</time>
      </trkpt>
      <trkpt lat="42.53073" lon="1.85494">
        <ele>2568.78</ele>
        <time>2021-07-07T07:22:13Z</time>
      </trkpt>
      <trkpt lat="42.53068" lon="1.85491">
        <ele>2568.3</ele>
        <time>2021-07-07T07:22:17Z</time>
      </trkpt>
      <trkpt lat="42.53064" lon="1.85482">
        <ele>2569.74</ele>
        <time>2021-07-07T07:22:25Z</time>
      </trkpt>
      <trkpt lat="42.53063" lon="1.85476">
        <ele>2571.66</ele>
        <time>2021-07-07T07:22:34Z</time>
      </trkpt>
      <trkpt lat="42.53062" lon="1.85475">
        <ele>2572.63</ele>
        <time>2021-07-07T07:22:40Z</time>
      </trkpt>
      <trkpt lat="42.53061" lon="1.85475">
        <ele>2573.59</ele>
        <time>2021-07-07T07:22:46Z</time>
      </trkpt>
      <trkpt lat="42.53061" lon="1.85475">
        <ele>2574.55</ele>
        <time>2021-07-07T07:22:53Z</time>
      </trkpt>
      <trkpt lat="42.53061" lon="1.85476">
        <ele>2573.59</ele>
        <time>2021-07-07T07:23:09Z</time>
      </trkpt>
      <trkpt lat="42.53061" lon="1.85476">
        <ele>2574.07</ele>
        <time>2021-07-07T07:23:19Z</time>
      </trkpt>
      <trkpt lat="42.53061" lon="1.85476">
        <ele>2573.59</ele>
        <time>2021-07-07T07:23:31Z</time>
      </trkpt>
      <trkpt lat="42.53061" lon="1.85476">
        <ele>2573.59</ele>
        <time>2021-07-07T07:23:35Z</time>
      </trkpt>
      <trkpt lat="42.5306" lon="1.85475">
        <ele>2572.63</ele>
        <time>2021-07-07T07:23:41Z</time>
      </trkpt>
      <trkpt lat="42.5306" lon="1.85475">
        <ele>2572.63</ele>
        <time>2021-07-07T07:23:56Z</time>
      </trkpt>
      <trkpt lat="42.53059" lon="1.85475">
        <ele>2572.63</ele>
        <time>2021-07-07T07:24:12Z</time>
      </trkpt>
      <trkpt lat="42.53059" lon="1.85474">
        <ele>2572.63</ele>
        <time>2021-07-07T07:24:30Z</time>
      </trkpt>
      <trkpt lat="42.53059" lon="1.85474">
        <ele>2572.63</ele>
        <time>2021-07-07T07:24:48Z</time>
      </trkpt>
      <trkpt lat="42.53058" lon="1.85474">
        <ele>2572.63</ele>
        <time>2021-07-07T07:25:04Z</time>
      </trkpt>
      <trkpt lat="42.53058" lon="1.85474">
        <ele>2573.11</ele>
        <time>2021-07-07T07:25:23Z</time>
      </trkpt>
      <trkpt lat="42.53058" lon="1.85474">
        <ele>2573.11</ele>
        <time>2021-07-07T07:25:45Z</time>
      </trkpt>
      <trkpt lat="42.53058" lon="1.85474">
        <ele>2573.11</ele>
        <time>2021-07-07T07:26:08Z</time>
      </trkpt>
      <trkpt lat="42.53058" lon="1.85474">
        <ele>2573.11</ele>
        <time>2021-07-07T07:26:34Z</time>
      </trkpt>
      <trkpt lat="42.53058" lon="1.85474">
        <ele>2573.59</ele>
        <time>2021-07-07T07:26:58Z</time>
      </trkpt>
      <trkpt lat="42.53058" lon="1.85475">
        <ele>2573.59</ele>
        <time>2021-07-07T07:27:22Z</time>
      </trkpt>
      <trkpt lat="42.53058" lon="1.85475">
        <ele>2573.11</ele>
        <time>2021-07-07T07:27:42Z</time>
      </trkpt>
      <trkpt lat="42.53058" lon="1.85475">
        <ele>2573.59</ele>
        <time>2021-07-07T07:28:03Z</time>
      </trkpt>
      <trkpt lat="42.53058" lon="1.85475">
        <ele>2573.59</ele>
        <time>2021-07-07T07:28:20Z</time>
      </trkpt>
      <trkpt lat="42.53058" lon="1.85475">
        <ele>2573.59</ele>
        <time>2021-07-07T07:28:37Z</time>
      </trkpt>
      <trkpt lat="42.53059" lon="1.85475">
        <ele>2573.59</ele>
        <time>2021-07-07T07:28:58Z</time>
      </trkpt>
      <trkpt lat="42.53059" lon="1.85475">
        <ele>2573.59</ele>
        <time>2021-07-07T07:29:24Z</time>
      </trkpt>
      <trkpt lat="42.53059" lon="1.85475">
        <ele>2574.07</ele>
        <time>2021-07-07T07:29:49Z</time>
      </trkpt>
      <trkpt lat="42.53059" lon="1.85475">
        <ele>2574.55</ele>
        <time>2021-07-07T07:30:15Z</time>
      </trkpt>
      <trkpt lat="42.53058" lon="1.85475">
        <ele>2574.55</ele>
        <time>2021-07-07T07:30:37Z</time>
      </trkpt>
      <trkpt lat="42.53058" lon="1.85475">
        <ele>2574.55</ele>
        <time>2021-07-07T07:30:55Z</time>
      </trkpt>
      <trkpt lat="42.53058" lon="1.85475">
        <ele>2574.55</ele>
        <time>2021-07-07T07:31:15Z</time>
      </trkpt>
      <trkpt lat="42.53058" lon="1.85475">
        <ele>2574.55</ele>
        <time>2021-07-07T07:31:35Z</time>
      </trkpt>
      <trkpt lat="42.53058" lon="1.85475">
        <ele>2574.55</ele>
        <time>2021-07-07T07:31:59Z</time>
      </trkpt>
      <trkpt lat="42.53058" lon="1.85475">
        <ele>2574.55</ele>
        <time>2021-07-07T07:32:22Z</time>
      </trkpt>
      <trkpt lat="42.53058" lon="1.85475">
        <ele>2575.03</ele>
        <time>2021-07-07T07:32:44Z</time>
      </trkpt>
      <trkpt lat="42.53058" lon="1.85475">
        <ele>2575.03</ele>
        <time>2021-07-07T07:32:59Z</time>
      </trkpt>
      <trkpt lat="42.53058" lon="1.85475">
        <ele>2575.51</ele>
        <time>2021-07-07T07:33:19Z</time>
      </trkpt>
      <trkpt lat="42.53058" lon="1.85475">
        <ele>2575.03</ele>
        <time>2021-07-07T07:33:37Z</time>
      </trkpt>
      <trkpt lat="42.53058" lon="1.85475">
        <ele>2575.51</ele>
        <time>2021-07-07T07:33:57Z</time>
      </trkpt>
      <trkpt lat="42.53058" lon="1.85475">
        <ele>2575.51</ele>
        <time>2021-07-07T07:34:19Z</time>
      </trkpt>
      <trkpt lat="42.53058" lon="1.85475">
        <ele>2575.99</ele>
        <time>2021-07-07T07:34:41Z</time>
      </trkpt>
      <trkpt lat="42.53058" lon="1.85475">
        <ele>2575.99</ele>
        <time>2021-07-07T07:34:59Z</time>
      </trkpt>
      <trkpt lat="42.53058" lon="1.85474">
        <ele>2575.51</ele>
        <time>2021-07-07T07:35:21Z</time>
      </trkpt>
      <trkpt lat="42.53059" lon="1.85474">
        <ele>2575.99</ele>
        <time>2021-07-07T07:35:45Z</time>
      </trkpt>
      <trkpt lat="42.53059" lon="1.85474">
        <ele>2575.99</ele>
        <time>2021-07-07T07:36:06Z</time>
      </trkpt>
      <trkpt lat="42.53059" lon="1.85474">
        <ele>2575.51</ele>
        <time>2021-07-07T07:36:30Z</time>
      </trkpt>
      <trkpt lat="42.53059" lon="1.85475">
        <ele>2575.51</ele>
        <time>2021-07-07T07:36:54Z</time>
      </trkpt>
      <trkpt lat="42.53059" lon="1.85474">
        <ele>2575.51</ele>
        <time>2021-07-07T07:37:16Z</time>
      </trkpt>
      <trkpt lat="42.53059" lon="1.85474">
        <ele>2575.99</ele>
        <time>2021-07-07T07:37:39Z</time>
      </trkpt>
      <trkpt lat="42.53059" lon="1.85475">
        <ele>2575.99</ele>
        <time>2021-07-07T07:38:00Z</time>
      </trkpt>
      <trkpt lat="42.53059" lon="1.85475">
        <ele>2575.99</ele>
        <time>2021-07-07T07:38:22Z</time>
      </trkpt>
      <trkpt lat="42.53059" lon="1.85475">
        <ele>2575.51</ele>
        <time>2021-07-07T07:38:40Z</time>
      </trkpt>
      <trkpt lat="42.53058" lon="1.85475">
        <ele>2575.99</ele>
        <time>2021-07-07T07:39:00Z</time>
      </trkpt>
      <trkpt lat="42.53059" lon="1.85475">
        <ele>2575.99</ele>
        <time>2021-07-07T07:39:24Z</time>
      </trkpt>
      <trkpt lat="42.53059" lon="1.85474">
        <ele>2575.99</ele>
        <time>2021-07-07T07:39:43Z</time>
      </trkpt>
      <trkpt lat="42.53059" lon="1.85474">
        <ele>2575.99</ele>
        <time>2021-07-07T07:40:00Z</time>
      </trkpt>
      <trkpt lat="42.53059" lon="1.85474">
        <ele>2576.47</ele>
        <time>2021-07-07T07:40:22Z</time>
      </trkpt>
      <trkpt lat="42.53059" lon="1.85474">
        <ele>2576.95</ele>
        <time>2021-07-07T07:40:43Z</time>
      </trkpt>
      <trkpt lat="42.53059" lon="1.85474">
        <ele>2576.47</ele>
        <time>2021-07-07T07:41:04Z</time>
      </trkpt>
      <trkpt lat="42.53059" lon="1.85474">
        <ele>2576.47</ele>
        <time>2021-07-07T07:41:24Z</time>
      </trkpt>
      <trkpt lat="42.53059" lon="1.85474">
        <ele>2576.47</ele>
        <time>2021-07-07T07:41:44Z</time>
      </trkpt>
      <trkpt lat="42.53059" lon="1.85474">
        <ele>2576.47</ele>
        <time>2021-07-07T07:42:03Z</time>
      </trkpt>
      <trkpt lat="42.53059" lon="1.85474">
        <ele>2576.47</ele>
        <time>2021-07-07T07:42:20Z</time>
      </trkpt>
      <trkpt lat="42.53058" lon="1.85474">
        <ele>2576.47</ele>
        <time>2021-07-07T07:42:36Z</time>
      </trkpt>
      <trkpt lat="42.53058" lon="1.85474">
        <ele>2576.47</ele>
        <time>2021-07-07T07:42:51Z</time>
      </trkpt>
      <trkpt lat="42.53058" lon="1.85474">
        <ele>2576.95</ele>
        <time>2021-07-07T07:43:10Z</time>
      </trkpt>
      <trkpt lat="42.53059" lon="1.85474">
        <ele>2576.95</ele>
        <time>2021-07-07T07:43:28Z</time>
      </trkpt>
      <trkpt lat="42.53058" lon="1.85474">
        <ele>2576.95</ele>
        <time>2021-07-07T07:43:46Z</time>
      </trkpt>
      <trkpt lat="42.53059" lon="1.85474">
        <ele>2576.47</ele>
        <time>2021-07-07T07:44:06Z</time>
      </trkpt>
      <trkpt lat="42.53059" lon="1.85473">
        <ele>2576.95</ele>
        <time>2021-07-07T07:44:27Z</time>
      </trkpt>
      <trkpt lat="42.53059" lon="1.85473">
        <ele>2576.95</ele>
        <time>2021-07-07T07:44:46Z</time>
      </trkpt>
      <trkpt lat="42.53059" lon="1.85473">
        <ele>2577.43</ele>
        <time>2021-07-07T07:45:06Z</time>
      </trkpt>
      <trkpt lat="42.53059" lon="1.85473">
        <ele>2577.43</ele>
        <time>2021-07-07T07:45:28Z</time>
      </trkpt>
      <trkpt lat="42.53059" lon="1.85473">
        <ele>2577.43</ele>
        <time>2021-07-07T07:45:48Z</time>
      </trkpt>
      <trkpt lat="42.53059" lon="1.85473">
        <ele>2577.91</ele>
        <time>2021-07-07T07:46:08Z</time>
      </trkpt>
      <trkpt lat="42.53059" lon="1.85473">
        <ele>2577.91</ele>
        <time>2021-07-07T07:46:28Z</time>
      </trkpt>
      <trkpt lat="42.53059" lon="1.85473">
        <ele>2577.91</ele>
        <time>2021-07-07T07:46:48Z</time>
      </trkpt>
      <trkpt lat="42.53059" lon="1.85473">
        <ele>2577.91</ele>
        <time>2021-07-07T07:47:09Z</time>
      </trkpt>
      <trkpt lat="42.53059" lon="1.85473">
        <ele>2577.91</ele>
        <time>2021-07-07T07:47:24Z</time>
      </trkpt>
      <trkpt lat="42.53059" lon="1.85473">
        <ele>2578.39</ele>
        <time>2021-07-07T07:47:42Z</time>
      </trkpt>
      <trkpt lat="42.53059" lon="1.85473">
        <ele>2578.39</ele>
        <time>2021-07-07T07:47:55Z</time>
      </trkpt>
      <trkpt lat="42.53058" lon="1.85473">
        <ele>2578.87</ele>
        <time>2021-07-07T07:48:15Z</time>
      </trkpt>
      <trkpt lat="42.53058" lon="1.85473">
        <ele>2578.39</ele>
        <time>2021-07-07T07:48:35Z</time>
      </trkpt>
      <trkpt lat="42.53058" lon="1.85474">
        <ele>2578.39</ele>
        <time>2021-07-07T07:48:54Z</time>
      </trkpt>
      <trkpt lat="42.53058" lon="1.85473">
        <ele>2578.39</ele>
        <time>2021-07-07T07:49:11Z</time>
      </trkpt>
      <trkpt lat="42.53057" lon="1.85473">
        <ele>2578.39</ele>
        <time>2021-07-07T07:49:32Z</time>
      </trkpt>
      <trkpt lat="42.53057" lon="1.85473">
        <ele>2578.39</ele>
        <time>2021-07-07T07:49:53Z</time>
      </trkpt>
      <trkpt lat="42.53057" lon="1.85473">
        <ele>2578.39</ele>
        <time>2021-07-07T07:50:17Z</time>
      </trkpt>
      <trkpt lat="42.53057" lon="1.85473">
        <ele>2578.39</ele>
        <time>2021-07-07T07:50:36Z</time>
      </trkpt>
      <trkpt lat="42.53057" lon="1.85473">
        <ele>2578.87</ele>
        <time>2021-07-07T07:50:53Z</time>
      </trkpt>
      <trkpt lat="42.53057" lon="1.85473">
        <ele>2578.39</ele>
        <time>2021-07-07T07:51:11Z</time>
      </trkpt>
      <trkpt lat="42.53057" lon="1.85473">
        <ele>2578.87</ele>
        <time>2021-07-07T07:51:31Z</time>
      </trkpt>
      <trkpt lat="42.53058" lon="1.85474">
        <ele>2579.84</ele>
        <time>2021-07-07T07:51:42Z</time>
      </trkpt>
      <trkpt lat="42.53058" lon="1.85474">
        <ele>2579.84</ele>
        <time>2021-07-07T07:52:01Z</time>
      </trkpt>
      <trkpt lat="42.53058" lon="1.85473">
        <ele>2579.84</ele>
        <time>2021-07-07T07:52:21Z</time>
      </trkpt>
      <trkpt lat="42.53058" lon="1.85473">
        <ele>2579.35</ele>
        <time>2021-07-07T07:52:31Z</time>
      </trkpt>
      <trkpt lat="42.53058" lon="1.85474">
        <ele>2579.84</ele>
        <time>2021-07-07T07:52:51Z</time>
      </trkpt>
      <trkpt lat="42.53058" lon="1.85474">
        <ele>2580.8</ele>
        <time>2021-07-07T07:52:58Z</time>
      </trkpt>
      <trkpt lat="42.53058" lon="1.85474">
        <ele>2580.8</ele>
        <time>2021-07-07T07:53:05Z</time>
      </trkpt>
      <trkpt lat="42.53059" lon="1.85474">
        <ele>2580.8</ele>
        <time>2021-07-07T07:53:15Z</time>
      </trkpt>
      <trkpt lat="42.53058" lon="1.85474">
        <ele>2580.32</ele>
        <time>2021-07-07T07:53:28Z</time>
      </trkpt>
      <trkpt lat="42.53058" lon="1.85474">
        <ele>2580.32</ele>
        <time>2021-07-07T07:53:37Z</time>
      </trkpt>
      <trkpt lat="42.53058" lon="1.85474">
        <ele>2580.32</ele>
        <time>2021-07-07T07:53:49Z</time>
      </trkpt>
      <trkpt lat="42.53058" lon="1.85474">
        <ele>2580.32</ele>
        <time>2021-07-07T07:54:00Z</time>
      </trkpt>
      <trkpt lat="42.53058" lon="1.85474">
        <ele>2580.32</ele>
        <time>2021-07-07T07:54:14Z</time>
      </trkpt>
      <trkpt lat="42.53058" lon="1.85474">
        <ele>2579.84</ele>
        <time>2021-07-07T07:54:21Z</time>
      </trkpt>
      <trkpt lat="42.53059" lon="1.85474">
        <ele>2578.87</ele>
        <time>2021-07-07T07:54:27Z</time>
      </trkpt>
      <trkpt lat="42.53061" lon="1.85474">
        <ele>2578.39</ele>
        <time>2021-07-07T07:54:34Z</time>
      </trkpt>
      <trkpt lat="42.53062" lon="1.85475">
        <ele>2577.91</ele>
        <time>2021-07-07T07:54:40Z</time>
      </trkpt>
      <trkpt lat="42.53062" lon="1.85476">
        <ele>2578.87</ele>
        <time>2021-07-07T07:54:54Z</time>
      </trkpt>
      <trkpt lat="42.53065" lon="1.85477">
        <ele>2577.43</ele>
        <time>2021-07-07T07:55:02Z</time>
      </trkpt>
      <trkpt lat="42.53065" lon="1.85478">
        <ele>2576.95</ele>
        <time>2021-07-07T07:55:09Z</time>
      </trkpt>
      <trkpt lat="42.53065" lon="1.85477">
        <ele>2576.95</ele>
        <time>2021-07-07T07:55:29Z</time>
      </trkpt>
      <trkpt lat="42.53065" lon="1.85478">
        <ele>2577.43</ele>
        <time>2021-07-07T07:55:37Z</time>
      </trkpt>
      <trkpt lat="42.53072" lon="1.85483">
        <ele>2575.99</ele>
        <time>2021-07-07T07:55:43Z</time>
      </trkpt>
      <trkpt lat="42.53078" lon="1.85485">
        <ele>2575.51</ele>
        <time>2021-07-07T07:55:49Z</time>
      </trkpt>
      <trkpt lat="42.53082" lon="1.85489">
        <ele>2573.59</ele>
        <time>2021-07-07T07:55:54Z</time>
      </trkpt>
      <trkpt lat="42.53089" lon="1.85497">
        <ele>2572.63</ele>
        <time>2021-07-07T07:56:00Z</time>
      </trkpt>
      <trkpt lat="42.53098" lon="1.85516">
        <ele>2570.7</ele>
        <time>2021-07-07T07:56:11Z</time>
      </trkpt>
      <trkpt lat="42.53101" lon="1.85527">
        <ele>2569.26</ele>
        <time>2021-07-07T07:56:17Z</time>
      </trkpt>
      <trkpt lat="42.53106" lon="1.8554">
        <ele>2568.78</ele>
        <time>2021-07-07T07:56:24Z</time>
      </trkpt>
      <trkpt lat="42.53111" lon="1.85551">
        <ele>2569.26</ele>
        <time>2021-07-07T07:56:31Z</time>
      </trkpt>
      <trkpt lat="42.53113" lon="1.85558">
        <ele>2569.74</ele>
        <time>2021-07-07T07:56:36Z</time>
      </trkpt>
      <trkpt lat="42.53121" lon="1.85573">
        <ele>2570.7</ele>
        <time>2021-07-07T07:56:46Z</time>
      </trkpt>
      <trkpt lat="42.53124" lon="1.85578">
        <ele>2572.14</ele>
        <time>2021-07-07T07:56:50Z</time>
      </trkpt>
      <trkpt lat="42.53126" lon="1.85585">
        <ele>2573.11</ele>
        <time>2021-07-07T07:56:54Z</time>
      </trkpt>
      <trkpt lat="42.53133" lon="1.85599">
        <ele>2574.07</ele>
        <time>2021-07-07T07:57:04Z</time>
      </trkpt>
      <trkpt lat="42.53136" lon="1.85606">
        <ele>2574.55</ele>
        <time>2021-07-07T07:57:09Z</time>
      </trkpt>
      <trkpt lat="42.53134" lon="1.85612">
        <ele>2574.07</ele>
        <time>2021-07-07T07:57:13Z</time>
      </trkpt>
      <trkpt lat="42.53134" lon="1.85615">
        <ele>2575.03</ele>
        <time>2021-07-07T07:57:15Z</time>
      </trkpt>
      <trkpt lat="42.53136" lon="1.85619">
        <ele>2575.99</ele>
        <time>2021-07-07T07:57:19Z</time>
      </trkpt>
      <trkpt lat="42.53137" lon="1.85632">
        <ele>2575.99</ele>
        <time>2021-07-07T07:57:27Z</time>
      </trkpt>
      <trkpt lat="42.53139" lon="1.85638">
        <ele>2575.99</ele>
        <time>2021-07-07T07:57:31Z</time>
      </trkpt>
      <trkpt lat="42.53142" lon="1.85654">
        <ele>2575.51</ele>
        <time>2021-07-07T07:57:41Z</time>
      </trkpt>
      <trkpt lat="42.53144" lon="1.85669">
        <ele>2574.55</ele>
        <time>2021-07-07T07:57:50Z</time>
      </trkpt>
      <trkpt lat="42.53145" lon="1.8568">
        <ele>2573.59</ele>
        <time>2021-07-07T07:57:58Z</time>
      </trkpt>
      <trkpt lat="42.53146" lon="1.85685">
        <ele>2572.63</ele>
        <time>2021-07-07T07:58:05Z</time>
      </trkpt>
      <trkpt lat="42.53146" lon="1.85686">
        <ele>2572.63</ele>
        <time>2021-07-07T07:58:07Z</time>
      </trkpt>
      <trkpt lat="42.53149" lon="1.85695">
        <ele>2570.7</ele>
        <time>2021-07-07T07:58:13Z</time>
      </trkpt>
      <trkpt lat="42.53149" lon="1.8571">
        <ele>2569.26</ele>
        <time>2021-07-07T07:58:21Z</time>
      </trkpt>
      <trkpt lat="42.53149" lon="1.8571">
        <ele>2568.78</ele>
        <time>2021-07-07T07:58:22Z</time>
      </trkpt>
      <trkpt lat="42.53159" lon="1.85718">
        <ele>2567.82</ele>
        <time>2021-07-07T07:58:29Z</time>
      </trkpt>
      <trkpt lat="42.53169" lon="1.85723">
        <ele>2566.86</ele>
        <time>2021-07-07T07:58:35Z</time>
      </trkpt>
      <trkpt lat="42.5318" lon="1.85729">
        <ele>2565.9</ele>
        <time>2021-07-07T07:58:44Z</time>
      </trkpt>
      <trkpt lat="42.53184" lon="1.85733">
        <ele>2566.38</ele>
        <time>2021-07-07T07:58:48Z</time>
      </trkpt>
      <trkpt lat="42.53187" lon="1.85732">
        <ele>2567.34</ele>
        <time>2021-07-07T07:58:55Z</time>
      </trkpt>
      <trkpt lat="42.53186" lon="1.85729">
        <ele>2567.34</ele>
        <time>2021-07-07T07:59:02Z</time>
      </trkpt>
      <trkpt lat="42.53186" lon="1.85729">
        <ele>2567.34</ele>
        <time>2021-07-07T07:59:13Z</time>
      </trkpt>
      <trkpt lat="42.53186" lon="1.85729">
        <ele>2567.34</ele>
        <time>2021-07-07T07:59:22Z</time>
      </trkpt>
      <trkpt lat="42.53185" lon="1.85729">
        <ele>2567.34</ele>
        <time>2021-07-07T07:59:35Z</time>
      </trkpt>
      <trkpt lat="42.53185" lon="1.8573">
        <ele>2567.34</ele>
        <time>2021-07-07T07:59:52Z</time>
      </trkpt>
      <trkpt lat="42.53185" lon="1.8573">
        <ele>2567.34</ele>
        <time>2021-07-07T08:00:00Z</time>
      </trkpt>
      <trkpt lat="42.53185" lon="1.8573">
        <ele>2567.34</ele>
        <time>2021-07-07T08:00:09Z</time>
      </trkpt>
      <trkpt lat="42.53184" lon="1.8573">
        <ele>2566.86</ele>
        <time>2021-07-07T08:00:22Z</time>
      </trkpt>
      <trkpt lat="42.53183" lon="1.8573">
        <ele>2566.86</ele>
        <time>2021-07-07T08:00:34Z</time>
      </trkpt>
      <trkpt lat="42.53184" lon="1.85731">
        <ele>2567.34</ele>
        <time>2021-07-07T08:00:54Z</time>
      </trkpt>
      <trkpt lat="42.53184" lon="1.85731">
        <ele>2567.34</ele>
        <time>2021-07-07T08:01:11Z</time>
      </trkpt>
      <trkpt lat="42.53185" lon="1.8573">
        <ele>2567.34</ele>
        <time>2021-07-07T08:01:31Z</time>
      </trkpt>
      <trkpt lat="42.53185" lon="1.85729">
        <ele>2567.34</ele>
        <time>2021-07-07T08:01:50Z</time>
      </trkpt>
      <trkpt lat="42.53184" lon="1.8573">
        <ele>2567.34</ele>
        <time>2021-07-07T08:02:10Z</time>
      </trkpt>
      <trkpt lat="42.53185" lon="1.85729">
        <ele>2566.86</ele>
        <time>2021-07-07T08:02:27Z</time>
      </trkpt>
      <trkpt lat="42.53185" lon="1.85729">
        <ele>2566.38</ele>
        <time>2021-07-07T08:02:32Z</time>
      </trkpt>
      <trkpt lat="42.53183" lon="1.85731">
        <ele>2565.9</ele>
        <time>2021-07-07T08:02:35Z</time>
      </trkpt>
      <trkpt lat="42.53181" lon="1.85739">
        <ele>2564.93</ele>
        <time>2021-07-07T08:02:43Z</time>
      </trkpt>
      <trkpt lat="42.53183" lon="1.85742">
        <ele>2564.93</ele>
        <time>2021-07-07T08:02:52Z</time>
      </trkpt>
      <trkpt lat="42.53183" lon="1.85742">
        <ele>2564.93</ele>
        <time>2021-07-07T08:02:59Z</time>
      </trkpt>
      <trkpt lat="42.53174" lon="1.85748">
        <ele>2564.93</ele>
        <time>2021-07-07T08:03:08Z</time>
      </trkpt>
      <trkpt lat="42.53166" lon="1.85758">
        <ele>2564.93</ele>
        <time>2021-07-07T08:03:15Z</time>
      </trkpt>
      <trkpt lat="42.53163" lon="1.85761">
        <ele>2564.93</ele>
        <time>2021-07-07T08:03:18Z</time>
      </trkpt>
      <trkpt lat="42.5316" lon="1.85773">
        <ele>2562.53</ele>
        <time>2021-07-07T08:03:27Z</time>
      </trkpt>
      <trkpt lat="42.5316" lon="1.85773">
        <ele>2568.78</ele>
        <time>2021-07-07T08:03:28Z</time>
      </trkpt>
      <trkpt lat="42.53159" lon="1.85774">
        <ele>2561.57</ele>
        <time>2021-07-07T08:03:30Z</time>
      </trkpt>
      <trkpt lat="42.53159" lon="1.85774">
        <ele>2565.9</ele>
        <time>2021-07-07T08:03:31Z</time>
      </trkpt>
      <trkpt lat="42.53159" lon="1.85774">
        <ele>2562.05</ele>
        <time>2021-07-07T08:03:33Z</time>
      </trkpt>
      <trkpt lat="42.53159" lon="1.85774">
        <ele>2568.3</ele>
        <time>2021-07-07T08:03:34Z</time>
      </trkpt>
      <trkpt lat="42.53159" lon="1.85774">
        <ele>2560.61</ele>
        <time>2021-07-07T08:03:35Z</time>
      </trkpt>
      <trkpt lat="42.53159" lon="1.85774">
        <ele>2570.22</ele>
        <time>2021-07-07T08:03:36Z</time>
      </trkpt>
      <trkpt lat="42.53159" lon="1.85774">
        <ele>2565.9</ele>
        <time>2021-07-07T08:03:37Z</time>
      </trkpt>
      <trkpt lat="42.53159" lon="1.85774">
        <ele>2562.53</ele>
        <time>2021-07-07T08:03:40Z</time>
      </trkpt>
      <trkpt lat="42.53159" lon="1.85773">
        <ele>2566.86</ele>
        <time>2021-07-07T08:03:41Z</time>
      </trkpt>
      <trkpt lat="42.53159" lon="1.85773">
        <ele>2563.01</ele>
        <time>2021-07-07T08:03:43Z</time>
      </trkpt>
      <trkpt lat="42.53159" lon="1.85773">
        <ele>2568.78</ele>
        <time>2021-07-07T08:03:44Z</time>
      </trkpt>
      <trkpt lat="42.53159" lon="1.85774">
        <ele>2565.9</ele>
        <time>2021-07-07T08:03:46Z</time>
      </trkpt>
      <trkpt lat="42.53153" lon="1.85783">
        <ele>2565.9</ele>
        <time>2021-07-07T08:03:53Z</time>
      </trkpt>
      <trkpt lat="42.53146" lon="1.85794">
        <ele>2565.42</ele>
        <time>2021-07-07T08:04:02Z</time>
      </trkpt>
      <trkpt lat="42.53145" lon="1.85795">
        <ele>2565.9</ele>
        <time>2021-07-07T08:04:03Z</time>
      </trkpt>
      <trkpt lat="42.53143" lon="1.85804">
        <ele>2565.9</ele>
        <time>2021-07-07T08:04:09Z</time>
      </trkpt>
      <trkpt lat="42.53143" lon="1.8581">
        <ele>2566.38</ele>
        <time>2021-07-07T08:04:12Z</time>
      </trkpt>
      <trkpt lat="42.53143" lon="1.85812">
        <ele>2566.38</ele>
        <time>2021-07-07T08:04:14Z</time>
      </trkpt>
      <trkpt lat="42.53142" lon="1.8582">
        <ele>2566.86</ele>
        <time>2021-07-07T08:04:19Z</time>
      </trkpt>
      <trkpt lat="42.53142" lon="1.85828">
        <ele>2566.38</ele>
        <time>2021-07-07T08:04:23Z</time>
      </trkpt>
      <trkpt lat="42.53141" lon="1.85833">
        <ele>2565.9</ele>
        <time>2021-07-07T08:04:30Z</time>
      </trkpt>
      <trkpt lat="42.53141" lon="1.85833">
        <ele>2565.9</ele>
        <time>2021-07-07T08:04:32Z</time>
      </trkpt>
      <trkpt lat="42.53134" lon="1.85844">
        <ele>2563.97</ele>
        <time>2021-07-07T08:04:40Z</time>
      </trkpt>
      <trkpt lat="42.53134" lon="1.85846">
        <ele>2563.49</ele>
        <time>2021-07-07T08:04:41Z</time>
      </trkpt>
      <trkpt lat="42.53132" lon="1.85859">
        <ele>2563.49</ele>
        <time>2021-07-07T08:04:49Z</time>
      </trkpt>
      <trkpt lat="42.53129" lon="1.85862">
        <ele>2562.05</ele>
        <time>2021-07-07T08:04:52Z</time>
      </trkpt>
      <trkpt lat="42.53123" lon="1.85876">
        <ele>2559.17</ele>
        <time>2021-07-07T08:05:02Z</time>
      </trkpt>
      <trkpt lat="42.53119" lon="1.85893">
        <ele>2558.69</ele>
        <time>2021-07-07T08:05:11Z</time>
      </trkpt>
      <trkpt lat="42.53115" lon="1.85903">
        <ele>2557.24</ele>
        <time>2021-07-07T08:05:18Z</time>
      </trkpt>
      <trkpt lat="42.53115" lon="1.85909">
        <ele>2556.76</ele>
        <time>2021-07-07T08:05:21Z</time>
      </trkpt>
      <trkpt lat="42.53113" lon="1.85915">
        <ele>2555.32</ele>
        <time>2021-07-07T08:05:28Z</time>
      </trkpt>
      <trkpt lat="42.53113" lon="1.85915">
        <ele>2555.32</ele>
        <time>2021-07-07T08:05:34Z</time>
      </trkpt>
      <trkpt lat="42.5311" lon="1.85921">
        <ele>2555.32</ele>
        <time>2021-07-07T08:05:39Z</time>
      </trkpt>
      <trkpt lat="42.53105" lon="1.85928">
        <ele>2553.4</ele>
        <time>2021-07-07T08:05:44Z</time>
      </trkpt>
      <trkpt lat="42.53103" lon="1.85929">
        <ele>2553.4</ele>
        <time>2021-07-07T08:05:45Z</time>
      </trkpt>
      <trkpt lat="42.53095" lon="1.85942">
        <ele>2551.96</ele>
        <time>2021-07-07T08:05:54Z</time>
      </trkpt>
      <trkpt lat="42.53088" lon="1.85952">
        <ele>2550.51</ele>
        <time>2021-07-07T08:06:01Z</time>
      </trkpt>
      <trkpt lat="42.53079" lon="1.85963">
        <ele>2548.59</ele>
        <time>2021-07-07T08:06:09Z</time>
      </trkpt>
      <trkpt lat="42.53072" lon="1.85971">
        <ele>2547.15</ele>
        <time>2021-07-07T08:06:15Z</time>
      </trkpt>
      <trkpt lat="42.53069" lon="1.85977">
        <ele>2547.63</ele>
        <time>2021-07-07T08:06:18Z</time>
      </trkpt>
      <trkpt lat="42.5306" lon="1.85985">
        <ele>2546.19</ele>
        <time>2021-07-07T08:06:25Z</time>
      </trkpt>
      <trkpt lat="42.53049" lon="1.85996">
        <ele>2546.67</ele>
        <time>2021-07-07T08:06:34Z</time>
      </trkpt>
      <trkpt lat="42.5304" lon="1.86003">
        <ele>2547.15</ele>
        <time>2021-07-07T08:06:41Z</time>
      </trkpt>
      <trkpt lat="42.53029" lon="1.86011">
        <ele>2548.11</ele>
        <time>2021-07-07T08:06:49Z</time>
      </trkpt>
      <trkpt lat="42.53017" lon="1.86016">
        <ele>2545.71</ele>
        <time>2021-07-07T08:06:58Z</time>
      </trkpt>
      <trkpt lat="42.53006" lon="1.8602">
        <ele>2544.75</ele>
        <time>2021-07-07T08:07:06Z</time>
      </trkpt>
      <trkpt lat="42.52996" lon="1.86027">
        <ele>2544.27</ele>
        <time>2021-07-07T08:07:14Z</time>
      </trkpt>
      <trkpt lat="42.52992" lon="1.86031">
        <ele>2544.27</ele>
        <time>2021-07-07T08:07:20Z</time>
      </trkpt>
      <trkpt lat="42.52988" lon="1.86037">
        <ele>2544.27</ele>
        <time>2021-07-07T08:07:25Z</time>
      </trkpt>
      <trkpt lat="42.52988" lon="1.86041">
        <ele>2544.75</ele>
        <time>2021-07-07T08:07:31Z</time>
      </trkpt>
      <trkpt lat="42.52987" lon="1.86044">
        <ele>2545.23</ele>
        <time>2021-07-07T08:07:34Z</time>
      </trkpt>
      <trkpt lat="42.52979" lon="1.86055">
        <ele>2544.75</ele>
        <time>2021-07-07T08:07:42Z</time>
      </trkpt>
      <trkpt lat="42.52973" lon="1.86061">
        <ele>2544.75</ele>
        <time>2021-07-07T08:07:47Z</time>
      </trkpt>
      <trkpt lat="42.52964" lon="1.86068">
        <ele>2542.82</ele>
        <time>2021-07-07T08:07:54Z</time>
      </trkpt>
      <trkpt lat="42.52959" lon="1.86075">
        <ele>2543.31</ele>
        <time>2021-07-07T08:08:00Z</time>
      </trkpt>
      <trkpt lat="42.52955" lon="1.8608">
        <ele>2542.82</ele>
        <time>2021-07-07T08:08:04Z</time>
      </trkpt>
      <trkpt lat="42.52952" lon="1.86085">
        <ele>2542.82</ele>
        <time>2021-07-07T08:08:08Z</time>
      </trkpt>
      <trkpt lat="42.52952" lon="1.86087">
        <ele>2542.34</ele>
        <time>2021-07-07T08:08:10Z</time>
      </trkpt>
      <trkpt lat="42.52946" lon="1.86092">
        <ele>2541.38</ele>
        <time>2021-07-07T08:08:15Z</time>
      </trkpt>
      <trkpt lat="42.52942" lon="1.86095">
        <ele>2539.94</ele>
        <time>2021-07-07T08:08:22Z</time>
      </trkpt>
      <trkpt lat="42.52941" lon="1.86098">
        <ele>2539.46</ele>
        <time>2021-07-07T08:08:24Z</time>
      </trkpt>
      <trkpt lat="42.52937" lon="1.86104">
        <ele>2538.5</ele>
        <time>2021-07-07T08:08:30Z</time>
      </trkpt>
      <trkpt lat="42.52935" lon="1.8611">
        <ele>2537.54</ele>
        <time>2021-07-07T08:08:34Z</time>
      </trkpt>
      <trkpt lat="42.52931" lon="1.86115">
        <ele>2537.06</ele>
        <time>2021-07-07T08:08:41Z</time>
      </trkpt>
      <trkpt lat="42.52929" lon="1.86119">
        <ele>2537.06</ele>
        <time>2021-07-07T08:08:46Z</time>
      </trkpt>
      <trkpt lat="42.52924" lon="1.86131">
        <ele>2537.06</ele>
        <time>2021-07-07T08:08:54Z</time>
      </trkpt>
      <trkpt lat="42.52922" lon="1.86136">
        <ele>2536.1</ele>
        <time>2021-07-07T08:08:58Z</time>
      </trkpt>
      <trkpt lat="42.52921" lon="1.86139">
        <ele>2536.58</ele>
        <time>2021-07-07T08:09:00Z</time>
      </trkpt>
      <trkpt lat="42.52917" lon="1.8615">
        <ele>2535.13</ele>
        <time>2021-07-07T08:09:07Z</time>
      </trkpt>
      <trkpt lat="42.52914" lon="1.86159">
        <ele>2534.65</ele>
        <time>2021-07-07T08:09:12Z</time>
      </trkpt>
      <trkpt lat="42.52911" lon="1.86173">
        <ele>2533.21</ele>
        <time>2021-07-07T08:09:20Z</time>
      </trkpt>
      <trkpt lat="42.52909" lon="1.86179">
        <ele>2531.29</ele>
        <time>2021-07-07T08:09:26Z</time>
      </trkpt>
      <trkpt lat="42.52908" lon="1.86181">
        <ele>2531.77</ele>
        <time>2021-07-07T08:09:27Z</time>
      </trkpt>
      <trkpt lat="42.52904" lon="1.86202">
        <ele>2530.33</ele>
        <time>2021-07-07T08:09:37Z</time>
      </trkpt>
      <trkpt lat="42.52901" lon="1.86218">
        <ele>2529.85</ele>
        <time>2021-07-07T08:09:45Z</time>
      </trkpt>
      <trkpt lat="42.52897" lon="1.86229">
        <ele>2528.4</ele>
        <time>2021-07-07T08:09:52Z</time>
      </trkpt>
      <trkpt lat="42.52895" lon="1.86232">
        <ele>2525.04</ele>
        <time>2021-07-07T08:09:54Z</time>
      </trkpt>
      <trkpt lat="42.52895" lon="1.86233">
        <ele>2532.25</ele>
        <time>2021-07-07T08:09:55Z</time>
      </trkpt>
      <trkpt lat="42.52894" lon="1.86235">
        <ele>2527.44</ele>
        <time>2021-07-07T08:09:56Z</time>
      </trkpt>
      <trkpt lat="42.52887" lon="1.86246">
        <ele>2526</ele>
        <time>2021-07-07T08:10:05Z</time>
      </trkpt>
      <trkpt lat="42.52882" lon="1.86259">
        <ele>2525.04</ele>
        <time>2021-07-07T08:10:12Z</time>
      </trkpt>
      <trkpt lat="42.52877" lon="1.86268">
        <ele>2522.64</ele>
        <time>2021-07-07T08:10:18Z</time>
      </trkpt>
      <trkpt lat="42.52872" lon="1.86279">
        <ele>2522.16</ele>
        <time>2021-07-07T08:10:25Z</time>
      </trkpt>
      <trkpt lat="42.52871" lon="1.86283">
        <ele>2522.64</ele>
        <time>2021-07-07T08:10:28Z</time>
      </trkpt>
      <trkpt lat="42.52866" lon="1.86293">
        <ele>2520.23</ele>
        <time>2021-07-07T08:10:35Z</time>
      </trkpt>
      <trkpt lat="42.52861" lon="1.86299">
        <ele>2519.27</ele>
        <time>2021-07-07T08:10:42Z</time>
      </trkpt>
      <trkpt lat="42.5286" lon="1.86299">
        <ele>2519.27</ele>
        <time>2021-07-07T08:10:57Z</time>
      </trkpt>
      <trkpt lat="42.52858" lon="1.86302">
        <ele>2518.31</ele>
        <time>2021-07-07T08:11:05Z</time>
      </trkpt>
      <trkpt lat="42.52857" lon="1.86309">
        <ele>2517.83</ele>
        <time>2021-07-07T08:11:09Z</time>
      </trkpt>
      <trkpt lat="42.52855" lon="1.86313">
        <ele>2516.87</ele>
        <time>2021-07-07T08:11:16Z</time>
      </trkpt>
      <trkpt lat="42.52855" lon="1.86313">
        <ele>2516.87</ele>
        <time>2021-07-07T08:11:17Z</time>
      </trkpt>
      <trkpt lat="42.52851" lon="1.86318">
        <ele>2516.39</ele>
        <time>2021-07-07T08:11:21Z</time>
      </trkpt>
      <trkpt lat="42.5285" lon="1.86326">
        <ele>2514.47</ele>
        <time>2021-07-07T08:11:26Z</time>
      </trkpt>
      <trkpt lat="42.52845" lon="1.86341">
        <ele>2513.02</ele>
        <time>2021-07-07T08:11:34Z</time>
      </trkpt>
      <trkpt lat="42.52839" lon="1.86357">
        <ele>2512.06</ele>
        <time>2021-07-07T08:11:42Z</time>
      </trkpt>
      <trkpt lat="42.52835" lon="1.86368">
        <ele>2510.62</ele>
        <time>2021-07-07T08:11:49Z</time>
      </trkpt>
      <trkpt lat="42.5283" lon="1.86377">
        <ele>2508.7</ele>
        <time>2021-07-07T08:11:57Z</time>
      </trkpt>
      <trkpt lat="42.52824" lon="1.86388">
        <ele>2507.74</ele>
        <time>2021-07-07T08:12:03Z</time>
      </trkpt>
      <trkpt lat="42.52819" lon="1.86396">
        <ele>2506.29</ele>
        <time>2021-07-07T08:12:11Z</time>
      </trkpt>
      <trkpt lat="42.52817" lon="1.86401">
        <ele>2505.33</ele>
        <time>2021-07-07T08:12:19Z</time>
      </trkpt>
      <trkpt lat="42.52815" lon="1.86413">
        <ele>2503.89</ele>
        <time>2021-07-07T08:12:26Z</time>
      </trkpt>
      <trkpt lat="42.52814" lon="1.86422">
        <ele>2501.49</ele>
        <time>2021-07-07T08:12:33Z</time>
      </trkpt>
      <trkpt lat="42.5281" lon="1.86434">
        <ele>2499.57</ele>
        <time>2021-07-07T08:12:40Z</time>
      </trkpt>
      <trkpt lat="42.52808" lon="1.8645">
        <ele>2498.6</ele>
        <time>2021-07-07T08:12:48Z</time>
      </trkpt>
      <trkpt lat="42.52805" lon="1.86462">
        <ele>2497.64</ele>
        <time>2021-07-07T08:12:56Z</time>
      </trkpt>
      <trkpt lat="42.52798" lon="1.86475">
        <ele>2495.24</ele>
        <time>2021-07-07T08:13:04Z</time>
      </trkpt>
      <trkpt lat="42.52796" lon="1.86482">
        <ele>2494.76</ele>
        <time>2021-07-07T08:13:10Z</time>
      </trkpt>
      <trkpt lat="42.52796" lon="1.86482">
        <ele>2494.28</ele>
        <time>2021-07-07T08:13:31Z</time>
      </trkpt>
      <trkpt lat="42.52796" lon="1.86482">
        <ele>2494.76</ele>
        <time>2021-07-07T08:13:51Z</time>
      </trkpt>
      <trkpt lat="42.52794" lon="1.86486">
        <ele>2493.8</ele>
        <time>2021-07-07T08:14:01Z</time>
      </trkpt>
      <trkpt lat="42.52792" lon="1.86501">
        <ele>2492.36</ele>
        <time>2021-07-07T08:14:08Z</time>
      </trkpt>
      <trkpt lat="42.52789" lon="1.86511">
        <ele>2491.87</ele>
        <time>2021-07-07T08:14:14Z</time>
      </trkpt>
      <trkpt lat="42.52784" lon="1.86518">
        <ele>2489.47</ele>
        <time>2021-07-07T08:14:20Z</time>
      </trkpt>
      <trkpt lat="42.52781" lon="1.86529">
        <ele>2487.55</ele>
        <time>2021-07-07T08:14:27Z</time>
      </trkpt>
      <trkpt lat="42.52775" lon="1.86539">
        <ele>2486.59</ele>
        <time>2021-07-07T08:14:33Z</time>
      </trkpt>
      <trkpt lat="42.52772" lon="1.86547">
        <ele>2485.63</ele>
        <time>2021-07-07T08:14:39Z</time>
      </trkpt>
      <trkpt lat="42.52771" lon="1.8655">
        <ele>2483.22</ele>
        <time>2021-07-07T08:14:44Z</time>
      </trkpt>
      <trkpt lat="42.52769" lon="1.86556">
        <ele>2479.86</ele>
        <time>2021-07-07T08:14:48Z</time>
      </trkpt>
      <trkpt lat="42.52768" lon="1.86557">
        <ele>2483.7</ele>
        <time>2021-07-07T08:14:49Z</time>
      </trkpt>
      <trkpt lat="42.52762" lon="1.86564">
        <ele>2479.86</ele>
        <time>2021-07-07T08:14:56Z</time>
      </trkpt>
      <trkpt lat="42.52757" lon="1.86576">
        <ele>2478.42</ele>
        <time>2021-07-07T08:15:03Z</time>
      </trkpt>
      <trkpt lat="42.52751" lon="1.86591">
        <ele>2477.45</ele>
        <time>2021-07-07T08:15:11Z</time>
      </trkpt>
      <trkpt lat="42.52747" lon="1.86597">
        <ele>2475.53</ele>
        <time>2021-07-07T08:15:16Z</time>
      </trkpt>
      <trkpt lat="42.52747" lon="1.86597">
        <ele>2475.53</ele>
        <time>2021-07-07T08:15:17Z</time>
      </trkpt>
      <trkpt lat="42.52746" lon="1.86603">
        <ele>2475.05</ele>
        <time>2021-07-07T08:15:21Z</time>
      </trkpt>
      <trkpt lat="42.52738" lon="1.86615">
        <ele>2473.13</ele>
        <time>2021-07-07T08:15:30Z</time>
      </trkpt>
      <trkpt lat="42.52729" lon="1.8663">
        <ele>2471.69</ele>
        <time>2021-07-07T08:15:39Z</time>
      </trkpt>
      <trkpt lat="42.52728" lon="1.86634">
        <ele>2470.24</ele>
        <time>2021-07-07T08:15:42Z</time>
      </trkpt>
      <trkpt lat="42.52724" lon="1.86646">
        <ele>2467.84</ele>
        <time>2021-07-07T08:15:50Z</time>
      </trkpt>
      <trkpt lat="42.52721" lon="1.86655">
        <ele>2466.88</ele>
        <time>2021-07-07T08:15:55Z</time>
      </trkpt>
      <trkpt lat="42.52717" lon="1.86664">
        <ele>2464.96</ele>
        <time>2021-07-07T08:16:01Z</time>
      </trkpt>
      <trkpt lat="42.52712" lon="1.86674">
        <ele>2463.04</ele>
        <time>2021-07-07T08:16:08Z</time>
      </trkpt>
      <trkpt lat="42.52705" lon="1.86688">
        <ele>2461.11</ele>
        <time>2021-07-07T08:16:16Z</time>
      </trkpt>
      <trkpt lat="42.52699" lon="1.86698">
        <ele>2459.67</ele>
        <time>2021-07-07T08:16:23Z</time>
      </trkpt>
      <trkpt lat="42.52684" lon="1.8671">
        <ele>2457.27</ele>
        <time>2021-07-07T08:16:34Z</time>
      </trkpt>
      <trkpt lat="42.52675" lon="1.86718">
        <ele>2455.34</ele>
        <time>2021-07-07T08:16:42Z</time>
      </trkpt>
      <trkpt lat="42.52666" lon="1.86723">
        <ele>2453.42</ele>
        <time>2021-07-07T08:16:50Z</time>
      </trkpt>
      <trkpt lat="42.52657" lon="1.86733">
        <ele>2452.46</ele>
        <time>2021-07-07T08:16:58Z</time>
      </trkpt>
      <trkpt lat="42.52654" lon="1.86735">
        <ele>2451.02</ele>
        <time>2021-07-07T08:17:00Z</time>
      </trkpt>
      <trkpt lat="42.52646" lon="1.86741">
        <ele>2449.58</ele>
        <time>2021-07-07T08:17:06Z</time>
      </trkpt>
      <trkpt lat="42.52638" lon="1.86748">
        <ele>2447.65</ele>
        <time>2021-07-07T08:17:15Z</time>
      </trkpt>
      <trkpt lat="42.52631" lon="1.86754">
        <ele>2446.69</ele>
        <time>2021-07-07T08:17:22Z</time>
      </trkpt>
      <trkpt lat="42.52625" lon="1.86761">
        <ele>2444.77</ele>
        <time>2021-07-07T08:17:28Z</time>
      </trkpt>
      <trkpt lat="42.52624" lon="1.86763">
        <ele>2444.77</ele>
        <time>2021-07-07T08:17:29Z</time>
      </trkpt>
      <trkpt lat="42.52614" lon="1.86773">
        <ele>2441.89</ele>
        <time>2021-07-07T08:17:37Z</time>
      </trkpt>
      <trkpt lat="42.52605" lon="1.86779">
        <ele>2439.48</ele>
        <time>2021-07-07T08:17:45Z</time>
      </trkpt>
      <trkpt lat="42.52595" lon="1.86789">
        <ele>2437.56</ele>
        <time>2021-07-07T08:17:53Z</time>
      </trkpt>
      <trkpt lat="42.52587" lon="1.86797">
        <ele>2435.16</ele>
        <time>2021-07-07T08:18:00Z</time>
      </trkpt>
      <trkpt lat="42.52585" lon="1.86798">
        <ele>2434.2</ele>
        <time>2021-07-07T08:18:05Z</time>
      </trkpt>
      <trkpt lat="42.52585" lon="1.86798">
        <ele>2434.2</ele>
        <time>2021-07-07T08:18:06Z</time>
      </trkpt>
      <trkpt lat="42.52579" lon="1.86809">
        <ele>2432.75</ele>
        <time>2021-07-07T08:18:13Z</time>
      </trkpt>
      <trkpt lat="42.52577" lon="1.8681">
        <ele>2432.75</ele>
        <time>2021-07-07T08:18:14Z</time>
      </trkpt>
      <trkpt lat="42.52569" lon="1.86818">
        <ele>2430.35</ele>
        <time>2021-07-07T08:18:20Z</time>
      </trkpt>
      <trkpt lat="42.52561" lon="1.86826">
        <ele>2428.91</ele>
        <time>2021-07-07T08:18:27Z</time>
      </trkpt>
      <trkpt lat="42.52552" lon="1.86836">
        <ele>2427.47</ele>
        <time>2021-07-07T08:18:35Z</time>
      </trkpt>
      <trkpt lat="42.52542" lon="1.8684">
        <ele>2424.1</ele>
        <time>2021-07-07T08:18:42Z</time>
      </trkpt>
      <trkpt lat="42.52531" lon="1.86845">
        <ele>2422.18</ele>
        <time>2021-07-07T08:18:50Z</time>
      </trkpt>
      <trkpt lat="42.52526" lon="1.86849">
        <ele>2421.22</ele>
        <time>2021-07-07T08:18:57Z</time>
      </trkpt>
      <trkpt lat="42.52521" lon="1.86854">
        <ele>2420.26</ele>
        <time>2021-07-07T08:19:03Z</time>
      </trkpt>
      <trkpt lat="42.52518" lon="1.86863">
        <ele>2419.78</ele>
        <time>2021-07-07T08:19:09Z</time>
      </trkpt>
      <trkpt lat="42.52512" lon="1.86875">
        <ele>2418.33</ele>
        <time>2021-07-07T08:19:16Z</time>
      </trkpt>
      <trkpt lat="42.52507" lon="1.86887">
        <ele>2415.93</ele>
        <time>2021-07-07T08:19:24Z</time>
      </trkpt>
      <trkpt lat="42.52503" lon="1.86896">
        <ele>2414.01</ele>
        <time>2021-07-07T08:19:30Z</time>
      </trkpt>
      <trkpt lat="42.52495" lon="1.86907">
        <ele>2412.09</ele>
        <time>2021-07-07T08:19:37Z</time>
      </trkpt>
      <trkpt lat="42.52486" lon="1.86919">
        <ele>2410.64</ele>
        <time>2021-07-07T08:19:46Z</time>
      </trkpt>
      <trkpt lat="42.52486" lon="1.86924">
        <ele>2410.16</ele>
        <time>2021-07-07T08:19:49Z</time>
      </trkpt>
      <trkpt lat="42.5248" lon="1.86932">
        <ele>2406.8</ele>
        <time>2021-07-07T08:19:57Z</time>
      </trkpt>
      <trkpt lat="42.52478" lon="1.86933">
        <ele>2405.84</ele>
        <time>2021-07-07T08:19:59Z</time>
      </trkpt>
      <trkpt lat="42.52474" lon="1.86941">
        <ele>2403.91</ele>
        <time>2021-07-07T08:20:07Z</time>
      </trkpt>
      <trkpt lat="42.52474" lon="1.86941">
        <ele>2405.36</ele>
        <time>2021-07-07T08:20:10Z</time>
      </trkpt>
      <trkpt lat="42.52474" lon="1.86941">
        <ele>2404.39</ele>
        <time>2021-07-07T08:20:12Z</time>
      </trkpt>
      <trkpt lat="42.52474" lon="1.86941">
        <ele>2401.51</ele>
        <time>2021-07-07T08:20:16Z</time>
      </trkpt>
      <trkpt lat="42.52474" lon="1.86941">
        <ele>2401.51</ele>
        <time>2021-07-07T08:20:17Z</time>
      </trkpt>
      <trkpt lat="42.52474" lon="1.8694">
        <ele>2405.84</ele>
        <time>2021-07-07T08:20:20Z</time>
      </trkpt>
      <trkpt lat="42.52474" lon="1.86941">
        <ele>2404.39</ele>
        <time>2021-07-07T08:20:27Z</time>
      </trkpt>
      <trkpt lat="42.52472" lon="1.86958">
        <ele>2403.43</ele>
        <time>2021-07-07T08:20:36Z</time>
      </trkpt>
      <trkpt lat="42.52473" lon="1.86963">
        <ele>2402.47</ele>
        <time>2021-07-07T08:20:39Z</time>
      </trkpt>
      <trkpt lat="42.52473" lon="1.8697">
        <ele>2401.51</ele>
        <time>2021-07-07T08:20:44Z</time>
      </trkpt>
      <trkpt lat="42.52476" lon="1.86979">
        <ele>2401.51</ele>
        <time>2021-07-07T08:20:50Z</time>
      </trkpt>
      <trkpt lat="42.52477" lon="1.86993">
        <ele>2401.51</ele>
        <time>2021-07-07T08:20:58Z</time>
      </trkpt>
      <trkpt lat="42.52476" lon="1.86995">
        <ele>2401.03</ele>
        <time>2021-07-07T08:21:00Z</time>
      </trkpt>
      <trkpt lat="42.52471" lon="1.8701">
        <ele>2399.11</ele>
        <time>2021-07-07T08:21:08Z</time>
      </trkpt>
      <trkpt lat="42.5247" lon="1.87012">
        <ele>2399.11</ele>
        <time>2021-07-07T08:21:09Z</time>
      </trkpt>
      <trkpt lat="42.52469" lon="1.87014">
        <ele>2398.63</ele>
        <time>2021-07-07T08:21:10Z</time>
      </trkpt>
      <trkpt lat="42.52463" lon="1.87029">
        <ele>2398.15</ele>
        <time>2021-07-07T08:21:19Z</time>
      </trkpt>
      <trkpt lat="42.52462" lon="1.87031">
        <ele>2398.15</ele>
        <time>2021-07-07T08:21:20Z</time>
      </trkpt>
      <trkpt lat="42.52459" lon="1.87036">
        <ele>2397.18</ele>
        <time>2021-07-07T08:21:23Z</time>
      </trkpt>
      <trkpt lat="42.52456" lon="1.87046">
        <ele>2396.22</ele>
        <time>2021-07-07T08:21:29Z</time>
      </trkpt>
      <trkpt lat="42.52453" lon="1.87052">
        <ele>2396.7</ele>
        <time>2021-07-07T08:21:34Z</time>
      </trkpt>
      <trkpt lat="42.52451" lon="1.87056">
        <ele>2395.26</ele>
        <time>2021-07-07T08:21:37Z</time>
      </trkpt>
      <trkpt lat="42.52445" lon="1.87062">
        <ele>2394.3</ele>
        <time>2021-07-07T08:21:42Z</time>
      </trkpt>
      <trkpt lat="42.5244" lon="1.87064">
        <ele>2394.3</ele>
        <time>2021-07-07T08:21:48Z</time>
      </trkpt>
      <trkpt lat="42.5244" lon="1.87065">
        <ele>2393.82</ele>
        <time>2021-07-07T08:21:50Z</time>
      </trkpt>
      <trkpt lat="42.52436" lon="1.8707">
        <ele>2392.86</ele>
        <time>2021-07-07T08:21:54Z</time>
      </trkpt>
      <trkpt lat="42.52434" lon="1.87083">
        <ele>2392.86</ele>
        <time>2021-07-07T08:22:01Z</time>
      </trkpt>
      <trkpt lat="42.52434" lon="1.87085">
        <ele>2393.34</ele>
        <time>2021-07-07T08:22:02Z</time>
      </trkpt>
      <trkpt lat="42.52432" lon="1.87092">
        <ele>2392.38</ele>
        <time>2021-07-07T08:22:06Z</time>
      </trkpt>
      <trkpt lat="42.52431" lon="1.87095">
        <ele>2391.9</ele>
        <time>2021-07-07T08:22:08Z</time>
      </trkpt>
      <trkpt lat="42.52427" lon="1.87107">
        <ele>2390.46</ele>
        <time>2021-07-07T08:22:15Z</time>
      </trkpt>
      <trkpt lat="42.52425" lon="1.87109">
        <ele>2389.97</ele>
        <time>2021-07-07T08:22:17Z</time>
      </trkpt>
      <trkpt lat="42.52424" lon="1.87113">
        <ele>2389.01</ele>
        <time>2021-07-07T08:22:20Z</time>
      </trkpt>
      <trkpt lat="42.52419" lon="1.87121">
        <ele>2387.57</ele>
        <time>2021-07-07T08:22:26Z</time>
      </trkpt>
      <trkpt lat="42.52413" lon="1.87136">
        <ele>2386.61</ele>
        <time>2021-07-07T08:22:34Z</time>
      </trkpt>
      <trkpt lat="42.52411" lon="1.8714">
        <ele>2386.61</ele>
        <time>2021-07-07T08:22:37Z</time>
      </trkpt>
      <trkpt lat="42.52409" lon="1.87145">
        <ele>2386.61</ele>
        <time>2021-07-07T08:22:41Z</time>
      </trkpt>
      <trkpt lat="42.52405" lon="1.87151">
        <ele>2385.65</ele>
        <time>2021-07-07T08:22:48Z</time>
      </trkpt>
      <trkpt lat="42.52402" lon="1.87156">
        <ele>2384.69</ele>
        <time>2021-07-07T08:22:54Z</time>
      </trkpt>
      <trkpt lat="42.52401" lon="1.87158">
        <ele>2384.21</ele>
        <time>2021-07-07T08:23:02Z</time>
      </trkpt>
      <trkpt lat="42.52395" lon="1.87171">
        <ele>2383.25</ele>
        <time>2021-07-07T08:23:10Z</time>
      </trkpt>
      <trkpt lat="42.5239" lon="1.87184">
        <ele>2382.28</ele>
        <time>2021-07-07T08:23:17Z</time>
      </trkpt>
      <trkpt lat="42.52388" lon="1.8719">
        <ele>2381.32</ele>
        <time>2021-07-07T08:23:23Z</time>
      </trkpt>
      <trkpt lat="42.52389" lon="1.87191">
        <ele>2381.32</ele>
        <time>2021-07-07T08:23:24Z</time>
      </trkpt>
      <trkpt lat="42.52384" lon="1.87204">
        <ele>2380.36</ele>
        <time>2021-07-07T08:23:32Z</time>
      </trkpt>
      <trkpt lat="42.52375" lon="1.87217">
        <ele>2378.92</ele>
        <time>2021-07-07T08:23:40Z</time>
      </trkpt>
      <trkpt lat="42.52372" lon="1.87224">
        <ele>2378.44</ele>
        <time>2021-07-07T08:23:45Z</time>
      </trkpt>
      <trkpt lat="42.52362" lon="1.87235">
        <ele>2377</ele>
        <time>2021-07-07T08:23:54Z</time>
      </trkpt>
      <trkpt lat="42.52359" lon="1.87243">
        <ele>2376.04</ele>
        <time>2021-07-07T08:24:00Z</time>
      </trkpt>
      <trkpt lat="42.5235" lon="1.87254">
        <ele>2375.55</ele>
        <time>2021-07-07T08:24:07Z</time>
      </trkpt>
      <trkpt lat="42.52348" lon="1.87258">
        <ele>2375.07</ele>
        <time>2021-07-07T08:24:09Z</time>
      </trkpt>
      <trkpt lat="42.52344" lon="1.87264">
        <ele>2375.55</ele>
        <time>2021-07-07T08:24:13Z</time>
      </trkpt>
      <trkpt lat="42.52337" lon="1.87277">
        <ele>2372.19</ele>
        <time>2021-07-07T08:24:21Z</time>
      </trkpt>
      <trkpt lat="42.52332" lon="1.87284">
        <ele>2372.67</ele>
        <time>2021-07-07T08:24:27Z</time>
      </trkpt>
      <trkpt lat="42.52331" lon="1.87288">
        <ele>2371.71</ele>
        <time>2021-07-07T08:24:29Z</time>
      </trkpt>
      <trkpt lat="42.52329" lon="1.87293">
        <ele>2371.23</ele>
        <time>2021-07-07T08:24:32Z</time>
      </trkpt>
      <trkpt lat="42.52324" lon="1.87308">
        <ele>2369.79</ele>
        <time>2021-07-07T08:24:41Z</time>
      </trkpt>
      <trkpt lat="42.52319" lon="1.87321">
        <ele>2367.86</ele>
        <time>2021-07-07T08:24:49Z</time>
      </trkpt>
      <trkpt lat="42.5231" lon="1.87334">
        <ele>2365.94</ele>
        <time>2021-07-07T08:24:58Z</time>
      </trkpt>
      <trkpt lat="42.52304" lon="1.87341">
        <ele>2364.5</ele>
        <time>2021-07-07T08:25:06Z</time>
      </trkpt>
      <trkpt lat="42.52301" lon="1.87347">
        <ele>2364.02</ele>
        <time>2021-07-07T08:25:11Z</time>
      </trkpt>
      <trkpt lat="42.52302" lon="1.87356">
        <ele>2363.54</ele>
        <time>2021-07-07T08:25:19Z</time>
      </trkpt>
      <trkpt lat="42.52302" lon="1.87361">
        <ele>2363.54</ele>
        <time>2021-07-07T08:25:22Z</time>
      </trkpt>
      <trkpt lat="42.52295" lon="1.8737">
        <ele>2362.1</ele>
        <time>2021-07-07T08:25:28Z</time>
      </trkpt>
      <trkpt lat="42.52293" lon="1.87378">
        <ele>2361.14</ele>
        <time>2021-07-07T08:25:34Z</time>
      </trkpt>
      <trkpt lat="42.52287" lon="1.87391">
        <ele>2360.17</ele>
        <time>2021-07-07T08:25:41Z</time>
      </trkpt>
      <trkpt lat="42.52282" lon="1.87404">
        <ele>2358.25</ele>
        <time>2021-07-07T08:25:48Z</time>
      </trkpt>
      <trkpt lat="42.52276" lon="1.87419">
        <ele>2357.29</ele>
        <time>2021-07-07T08:25:56Z</time>
      </trkpt>
      <trkpt lat="42.52272" lon="1.87432">
        <ele>2356.81</ele>
        <time>2021-07-07T08:26:03Z</time>
      </trkpt>
      <trkpt lat="42.5227" lon="1.87436">
        <ele>2355.85</ele>
        <time>2021-07-07T08:26:05Z</time>
      </trkpt>
      <trkpt lat="42.52266" lon="1.87449">
        <ele>2355.37</ele>
        <time>2021-07-07T08:26:13Z</time>
      </trkpt>
      <trkpt lat="42.52265" lon="1.87451">
        <ele>2354.89</ele>
        <time>2021-07-07T08:26:14Z</time>
      </trkpt>
      <trkpt lat="42.52261" lon="1.87462">
        <ele>2353.93</ele>
        <time>2021-07-07T08:26:21Z</time>
      </trkpt>
      <trkpt lat="42.52259" lon="1.87471">
        <ele>2353.44</ele>
        <time>2021-07-07T08:26:25Z</time>
      </trkpt>
      <trkpt lat="42.52252" lon="1.8748">
        <ele>2352.48</ele>
        <time>2021-07-07T08:26:32Z</time>
      </trkpt>
      <trkpt lat="42.52251" lon="1.87492">
        <ele>2352.48</ele>
        <time>2021-07-07T08:26:39Z</time>
      </trkpt>
      <trkpt lat="42.52251" lon="1.87497">
        <ele>2352.96</ele>
        <time>2021-07-07T08:26:44Z</time>
      </trkpt>
      <trkpt lat="42.52249" lon="1.87511">
        <ele>2352.48</ele>
        <time>2021-07-07T08:26:51Z</time>
      </trkpt>
      <trkpt lat="42.52248" lon="1.87523">
        <ele>2352</ele>
        <time>2021-07-07T08:26:57Z</time>
      </trkpt>
      <trkpt lat="42.52248" lon="1.87525">
        <ele>2352</ele>
        <time>2021-07-07T08:26:58Z</time>
      </trkpt>
      <trkpt lat="42.52248" lon="1.87533">
        <ele>2351.52</ele>
        <time>2021-07-07T08:27:02Z</time>
      </trkpt>
      <trkpt lat="42.52245" lon="1.87546">
        <ele>2350.08</ele>
        <time>2021-07-07T08:27:10Z</time>
      </trkpt>
      <trkpt lat="42.52247" lon="1.87557">
        <ele>2349.6</ele>
        <time>2021-07-07T08:27:16Z</time>
      </trkpt>
      <trkpt lat="42.52246" lon="1.87574">
        <ele>2348.16</ele>
        <time>2021-07-07T08:27:25Z</time>
      </trkpt>
      <trkpt lat="42.52244" lon="1.87586">
        <ele>2347.68</ele>
        <time>2021-07-07T08:27:32Z</time>
      </trkpt>
      <trkpt lat="42.52242" lon="1.87589">
        <ele>2347.2</ele>
        <time>2021-07-07T08:27:38Z</time>
      </trkpt>
      <trkpt lat="42.52235" lon="1.87588">
        <ele>2345.27</ele>
        <time>2021-07-07T08:27:45Z</time>
      </trkpt>
      <trkpt lat="42.52231" lon="1.87596">
        <ele>2343.35</ele>
        <time>2021-07-07T08:27:51Z</time>
      </trkpt>
      <trkpt lat="42.52229" lon="1.87601">
        <ele>2342.39</ele>
        <time>2021-07-07T08:27:54Z</time>
      </trkpt>
      <trkpt lat="42.52217" lon="1.87607">
        <ele>2339.99</ele>
        <time>2021-07-07T08:28:03Z</time>
      </trkpt>
      <trkpt lat="42.52213" lon="1.87609">
        <ele>2339.02</ele>
        <time>2021-07-07T08:28:09Z</time>
      </trkpt>
      <trkpt lat="42.52211" lon="1.8761">
        <ele>2338.54</ele>
        <time>2021-07-07T08:28:10Z</time>
      </trkpt>
      <trkpt lat="42.52204" lon="1.87615">
        <ele>2336.14</ele>
        <time>2021-07-07T08:28:16Z</time>
      </trkpt>
      <trkpt lat="42.52201" lon="1.87614">
        <ele>2335.66</ele>
        <time>2021-07-07T08:28:19Z</time>
      </trkpt>
      <trkpt lat="42.52196" lon="1.8762">
        <ele>2333.26</ele>
        <time>2021-07-07T08:28:24Z</time>
      </trkpt>
      <trkpt lat="42.52191" lon="1.87629">
        <ele>2333.26</ele>
        <time>2021-07-07T08:28:33Z</time>
      </trkpt>
      <trkpt lat="42.5219" lon="1.8763">
        <ele>2333.26</ele>
        <time>2021-07-07T08:28:39Z</time>
      </trkpt>
      <trkpt lat="42.5219" lon="1.8763">
        <ele>2332.78</ele>
        <time>2021-07-07T08:28:42Z</time>
      </trkpt>
      <trkpt lat="42.52178" lon="1.8763">
        <ele>2330.85</ele>
        <time>2021-07-07T08:28:51Z</time>
      </trkpt>
      <trkpt lat="42.52176" lon="1.8763">
        <ele>2330.85</ele>
        <time>2021-07-07T08:28:52Z</time>
      </trkpt>
      <trkpt lat="42.5217" lon="1.87631">
        <ele>2328.93</ele>
        <time>2021-07-07T08:28:59Z</time>
      </trkpt>
      <trkpt lat="42.52163" lon="1.87629">
        <ele>2327.49</ele>
        <time>2021-07-07T08:29:06Z</time>
      </trkpt>
      <trkpt lat="42.52162" lon="1.87626">
        <ele>2327.01</ele>
        <time>2021-07-07T08:29:12Z</time>
      </trkpt>
      <trkpt lat="42.52161" lon="1.87625">
        <ele>2326.53</ele>
        <time>2021-07-07T08:29:14Z</time>
      </trkpt>
      <trkpt lat="42.52154" lon="1.87628">
        <ele>2325.57</ele>
        <time>2021-07-07T08:29:19Z</time>
      </trkpt>
      <trkpt lat="42.52141" lon="1.87631">
        <ele>2322.2</ele>
        <time>2021-07-07T08:29:29Z</time>
      </trkpt>
      <trkpt lat="42.52135" lon="1.87631">
        <ele>2320.76</ele>
        <time>2021-07-07T08:29:33Z</time>
      </trkpt>
      <trkpt lat="42.52127" lon="1.87631">
        <ele>2319.32</ele>
        <time>2021-07-07T08:29:40Z</time>
      </trkpt>
      <trkpt lat="42.52119" lon="1.87632">
        <ele>2318.36</ele>
        <time>2021-07-07T08:29:47Z</time>
      </trkpt>
      <trkpt lat="42.52116" lon="1.87635">
        <ele>2317.4</ele>
        <time>2021-07-07T08:29:52Z</time>
      </trkpt>
      <trkpt lat="42.52111" lon="1.87634">
        <ele>2316.43</ele>
        <time>2021-07-07T08:29:57Z</time>
      </trkpt>
      <trkpt lat="42.52107" lon="1.87638">
        <ele>2315.47</ele>
        <time>2021-07-07T08:30:03Z</time>
      </trkpt>
      <trkpt lat="42.52105" lon="1.8764">
        <ele>2314.51</ele>
        <time>2021-07-07T08:30:05Z</time>
      </trkpt>
      <trkpt lat="42.52104" lon="1.87644">
        <ele>2313.55</ele>
        <time>2021-07-07T08:30:13Z</time>
      </trkpt>
      <trkpt lat="42.52099" lon="1.87645">
        <ele>2312.59</ele>
        <time>2021-07-07T08:30:17Z</time>
      </trkpt>
      <trkpt lat="42.52094" lon="1.87645">
        <ele>2311.15</ele>
        <time>2021-07-07T08:30:20Z</time>
      </trkpt>
      <trkpt lat="42.52087" lon="1.87648">
        <ele>2308.74</ele>
        <time>2021-07-07T08:30:27Z</time>
      </trkpt>
      <trkpt lat="42.52081" lon="1.87653">
        <ele>2307.3</ele>
        <time>2021-07-07T08:30:33Z</time>
      </trkpt>
      <trkpt lat="42.52075" lon="1.87654">
        <ele>2305.86</ele>
        <time>2021-07-07T08:30:40Z</time>
      </trkpt>
      <trkpt lat="42.52074" lon="1.87655">
        <ele>2304.9</ele>
        <time>2021-07-07T08:30:47Z</time>
      </trkpt>
      <trkpt lat="42.52072" lon="1.87654">
        <ele>2304.42</ele>
        <time>2021-07-07T08:30:49Z</time>
      </trkpt>
      <trkpt lat="42.52067" lon="1.87653">
        <ele>2302.49</ele>
        <time>2021-07-07T08:30:53Z</time>
      </trkpt>
      <trkpt lat="42.52058" lon="1.8766">
        <ele>2300.57</ele>
        <time>2021-07-07T08:31:01Z</time>
      </trkpt>
      <trkpt lat="42.5205" lon="1.87665">
        <ele>2298.65</ele>
        <time>2021-07-07T08:31:07Z</time>
      </trkpt>
      <trkpt lat="42.52043" lon="1.87667">
        <ele>2297.21</ele>
        <time>2021-07-07T08:31:13Z</time>
      </trkpt>
      <trkpt lat="42.52036" lon="1.87671">
        <ele>2296.25</ele>
        <time>2021-07-07T08:31:18Z</time>
      </trkpt>
      <trkpt lat="42.5203" lon="1.87678">
        <ele>2294.32</ele>
        <time>2021-07-07T08:31:24Z</time>
      </trkpt>
      <trkpt lat="42.52021" lon="1.87682">
        <ele>2292.4</ele>
        <time>2021-07-07T08:31:31Z</time>
      </trkpt>
      <trkpt lat="42.52019" lon="1.87681">
        <ele>2291.92</ele>
        <time>2021-07-07T08:31:33Z</time>
      </trkpt>
      <trkpt lat="42.52014" lon="1.87684">
        <ele>2290.96</ele>
        <time>2021-07-07T08:31:38Z</time>
      </trkpt>
      <trkpt lat="42.52009" lon="1.87688">
        <ele>2290</ele>
        <time>2021-07-07T08:31:42Z</time>
      </trkpt>
      <trkpt lat="42.52001" lon="1.87696">
        <ele>2288.08</ele>
        <time>2021-07-07T08:31:50Z</time>
      </trkpt>
      <trkpt lat="42.51997" lon="1.877">
        <ele>2287.11</ele>
        <time>2021-07-07T08:31:56Z</time>
      </trkpt>
      <trkpt lat="42.51991" lon="1.87703">
        <ele>2286.15</ele>
        <time>2021-07-07T08:32:04Z</time>
      </trkpt>
      <trkpt lat="42.51991" lon="1.87703">
        <ele>2286.15</ele>
        <time>2021-07-07T08:32:05Z</time>
      </trkpt>
      <trkpt lat="42.51985" lon="1.8771">
        <ele>2285.19</ele>
        <time>2021-07-07T08:32:12Z</time>
      </trkpt>
      <trkpt lat="42.51981" lon="1.87712">
        <ele>2284.71</ele>
        <time>2021-07-07T08:32:19Z</time>
      </trkpt>
      <trkpt lat="42.51977" lon="1.87717">
        <ele>2283.75</ele>
        <time>2021-07-07T08:32:30Z</time>
      </trkpt>
      <trkpt lat="42.51976" lon="1.8772">
        <ele>2284.23</ele>
        <time>2021-07-07T08:32:34Z</time>
      </trkpt>
      <trkpt lat="42.51977" lon="1.87723">
        <ele>2283.75</ele>
        <time>2021-07-07T08:32:38Z</time>
      </trkpt>
      <trkpt lat="42.51977" lon="1.87727">
        <ele>2282.79</ele>
        <time>2021-07-07T08:32:40Z</time>
      </trkpt>
      <trkpt lat="42.51974" lon="1.87731">
        <ele>2283.27</ele>
        <time>2021-07-07T08:32:43Z</time>
      </trkpt>
      <trkpt lat="42.51967" lon="1.87742">
        <ele>2282.31</ele>
        <time>2021-07-07T08:32:52Z</time>
      </trkpt>
      <trkpt lat="42.51962" lon="1.87749">
        <ele>2280.87</ele>
        <time>2021-07-07T08:32:57Z</time>
      </trkpt>
      <trkpt lat="42.51962" lon="1.87751">
        <ele>2280.87</ele>
        <time>2021-07-07T08:32:59Z</time>
      </trkpt>
      <trkpt lat="42.51959" lon="1.87754">
        <ele>2280.38</ele>
        <time>2021-07-07T08:33:02Z</time>
      </trkpt>
      <trkpt lat="42.51952" lon="1.87764">
        <ele>2279.42</ele>
        <time>2021-07-07T08:33:10Z</time>
      </trkpt>
      <trkpt lat="42.51951" lon="1.87766">
        <ele>2278.94</ele>
        <time>2021-07-07T08:33:12Z</time>
      </trkpt>
      <trkpt lat="42.51944" lon="1.87771">
        <ele>2277.98</ele>
        <time>2021-07-07T08:33:19Z</time>
      </trkpt>
      <trkpt lat="42.51937" lon="1.87774">
        <ele>2276.06</ele>
        <time>2021-07-07T08:33:26Z</time>
      </trkpt>
      <trkpt lat="42.5193" lon="1.87773">
        <ele>2274.14</ele>
        <time>2021-07-07T08:33:33Z</time>
      </trkpt>
      <trkpt lat="42.51929" lon="1.87773">
        <ele>2275.1</ele>
        <time>2021-07-07T08:33:40Z</time>
      </trkpt>
      <trkpt lat="42.51927" lon="1.87775">
        <ele>2273.17</ele>
        <time>2021-07-07T08:33:42Z</time>
      </trkpt>
      <trkpt lat="42.51922" lon="1.87782">
        <ele>2273.17</ele>
        <time>2021-07-07T08:33:50Z</time>
      </trkpt>
      <trkpt lat="42.51923" lon="1.87781">
        <ele>2272.21</ele>
        <time>2021-07-07T08:33:51Z</time>
      </trkpt>
      <trkpt lat="42.51921" lon="1.87785">
        <ele>2271.73</ele>
        <time>2021-07-07T08:33:54Z</time>
      </trkpt>
      <trkpt lat="42.51918" lon="1.87792">
        <ele>2271.25</ele>
        <time>2021-07-07T08:33:58Z</time>
      </trkpt>
      <trkpt lat="42.51914" lon="1.87798">
        <ele>2271.25</ele>
        <time>2021-07-07T08:34:03Z</time>
      </trkpt>
      <trkpt lat="42.51911" lon="1.87803">
        <ele>2269.81</ele>
        <time>2021-07-07T08:34:07Z</time>
      </trkpt>
      <trkpt lat="42.51906" lon="1.87809">
        <ele>2268.37</ele>
        <time>2021-07-07T08:34:13Z</time>
      </trkpt>
      <trkpt lat="42.51897" lon="1.87814">
        <ele>2266.93</ele>
        <time>2021-07-07T08:34:20Z</time>
      </trkpt>
      <trkpt lat="42.51887" lon="1.87819">
        <ele>2266.45</ele>
        <time>2021-07-07T08:34:28Z</time>
      </trkpt>
      <trkpt lat="42.51879" lon="1.87823">
        <ele>2266.93</ele>
        <time>2021-07-07T08:34:33Z</time>
      </trkpt>
      <trkpt lat="42.51868" lon="1.87829">
        <ele>2266.45</ele>
        <time>2021-07-07T08:34:41Z</time>
      </trkpt>
      <trkpt lat="42.51863" lon="1.87832">
        <ele>2267.41</ele>
        <time>2021-07-07T08:34:47Z</time>
      </trkpt>
      <trkpt lat="42.5186" lon="1.87833">
        <ele>2266.45</ele>
        <time>2021-07-07T08:34:56Z</time>
      </trkpt>
      <trkpt lat="42.51851" lon="1.87842">
        <ele>2266.45</ele>
        <time>2021-07-07T08:35:04Z</time>
      </trkpt>
      <trkpt lat="42.51849" lon="1.87844">
        <ele>2266.93</ele>
        <time>2021-07-07T08:35:08Z</time>
      </trkpt>
      <trkpt lat="42.51845" lon="1.87851">
        <ele>2266.93</ele>
        <time>2021-07-07T08:35:13Z</time>
      </trkpt>
      <trkpt lat="42.51836" lon="1.8786">
        <ele>2265</ele>
        <time>2021-07-07T08:35:21Z</time>
      </trkpt>
      <trkpt lat="42.51831" lon="1.8787">
        <ele>2264.52</ele>
        <time>2021-07-07T08:35:27Z</time>
      </trkpt>
      <trkpt lat="42.51823" lon="1.87879">
        <ele>2263.08</ele>
        <time>2021-07-07T08:35:35Z</time>
      </trkpt>
      <trkpt lat="42.51819" lon="1.87886">
        <ele>2262.12</ele>
        <time>2021-07-07T08:35:40Z</time>
      </trkpt>
      <trkpt lat="42.51814" lon="1.87897">
        <ele>2260.68</ele>
        <time>2021-07-07T08:35:48Z</time>
      </trkpt>
      <trkpt lat="42.51807" lon="1.87903">
        <ele>2259.72</ele>
        <time>2021-07-07T08:35:54Z</time>
      </trkpt>
      <trkpt lat="42.51802" lon="1.87908">
        <ele>2258.75</ele>
        <time>2021-07-07T08:35:58Z</time>
      </trkpt>
      <trkpt lat="42.51795" lon="1.87917">
        <ele>2257.31</ele>
        <time>2021-07-07T08:36:07Z</time>
      </trkpt>
      <trkpt lat="42.51791" lon="1.87919">
        <ele>2256.35</ele>
        <time>2021-07-07T08:36:10Z</time>
      </trkpt>
      <trkpt lat="42.51781" lon="1.87928">
        <ele>2256.35</ele>
        <time>2021-07-07T08:36:18Z</time>
      </trkpt>
      <trkpt lat="42.51781" lon="1.87928">
        <ele>2255.39</ele>
        <time>2021-07-07T08:36:19Z</time>
      </trkpt>
      <trkpt lat="42.51776" lon="1.87931">
        <ele>2253.95</ele>
        <time>2021-07-07T08:36:23Z</time>
      </trkpt>
      <trkpt lat="42.51773" lon="1.87933">
        <ele>2254.43</ele>
        <time>2021-07-07T08:36:27Z</time>
      </trkpt>
      <trkpt lat="42.51761" lon="1.87943">
        <ele>2252.03</ele>
        <time>2021-07-07T08:36:37Z</time>
      </trkpt>
      <trkpt lat="42.51754" lon="1.87951">
        <ele>2251.06</ele>
        <time>2021-07-07T08:36:44Z</time>
      </trkpt>
      <trkpt lat="42.51745" lon="1.8796">
        <ele>2249.62</ele>
        <time>2021-07-07T08:36:52Z</time>
      </trkpt>
      <trkpt lat="42.51736" lon="1.8797">
        <ele>2247.7</ele>
        <time>2021-07-07T08:37:00Z</time>
      </trkpt>
      <trkpt lat="42.51728" lon="1.87977">
        <ele>2246.26</ele>
        <time>2021-07-07T08:37:06Z</time>
      </trkpt>
      <trkpt lat="42.51722" lon="1.87987">
        <ele>2245.78</ele>
        <time>2021-07-07T08:37:13Z</time>
      </trkpt>
      <trkpt lat="42.51715" lon="1.87996">
        <ele>2245.3</ele>
        <time>2021-07-07T08:37:21Z</time>
      </trkpt>
      <trkpt lat="42.51715" lon="1.87997">
        <ele>2243.85</ele>
        <time>2021-07-07T08:37:30Z</time>
      </trkpt>
      <trkpt lat="42.51714" lon="1.87996">
        <ele>2244.82</ele>
        <time>2021-07-07T08:37:46Z</time>
      </trkpt>
      <trkpt lat="42.51714" lon="1.87997">
        <ele>2245.3</ele>
        <time>2021-07-07T08:37:54Z</time>
      </trkpt>
      <trkpt lat="42.51714" lon="1.87997">
        <ele>2243.85</ele>
        <time>2021-07-07T08:37:59Z</time>
      </trkpt>
      <trkpt lat="42.51715" lon="1.87997">
        <ele>2243.85</ele>
        <time>2021-07-07T08:38:14Z</time>
      </trkpt>
      <trkpt lat="42.51715" lon="1.87996">
        <ele>2243.85</ele>
        <time>2021-07-07T08:38:33Z</time>
      </trkpt>
      <trkpt lat="42.51715" lon="1.87996">
        <ele>2243.85</ele>
        <time>2021-07-07T08:38:52Z</time>
      </trkpt>
      <trkpt lat="42.51715" lon="1.87996">
        <ele>2243.85</ele>
        <time>2021-07-07T08:39:12Z</time>
      </trkpt>
      <trkpt lat="42.51715" lon="1.87996">
        <ele>2243.85</ele>
        <time>2021-07-07T08:39:32Z</time>
      </trkpt>
      <trkpt lat="42.51715" lon="1.87997">
        <ele>2244.33</ele>
        <time>2021-07-07T08:39:52Z</time>
      </trkpt>
      <trkpt lat="42.51715" lon="1.87997">
        <ele>2243.85</ele>
        <time>2021-07-07T08:40:14Z</time>
      </trkpt>
      <trkpt lat="42.51715" lon="1.87997">
        <ele>2244.82</ele>
        <time>2021-07-07T08:40:26Z</time>
      </trkpt>
      <trkpt lat="42.51715" lon="1.87997">
        <ele>2244.82</ele>
        <time>2021-07-07T08:40:34Z</time>
      </trkpt>
      <trkpt lat="42.51715" lon="1.87997">
        <ele>2244.82</ele>
        <time>2021-07-07T08:40:41Z</time>
      </trkpt>
      <trkpt lat="42.51715" lon="1.87997">
        <ele>2244.82</ele>
        <time>2021-07-07T08:40:53Z</time>
      </trkpt>
      <trkpt lat="42.51715" lon="1.87997">
        <ele>2244.82</ele>
        <time>2021-07-07T08:41:02Z</time>
      </trkpt>
      <trkpt lat="42.51714" lon="1.87998">
        <ele>2244.82</ele>
        <time>2021-07-07T08:41:09Z</time>
      </trkpt>
      <trkpt lat="42.51707" lon="1.88005">
        <ele>2243.37</ele>
        <time>2021-07-07T08:41:16Z</time>
      </trkpt>
      <trkpt lat="42.51698" lon="1.88011">
        <ele>2242.41</ele>
        <time>2021-07-07T08:41:23Z</time>
      </trkpt>
      <trkpt lat="42.51688" lon="1.88018">
        <ele>2241.93</ele>
        <time>2021-07-07T08:41:31Z</time>
      </trkpt>
      <trkpt lat="42.51678" lon="1.88024">
        <ele>2240.97</ele>
        <time>2021-07-07T08:41:39Z</time>
      </trkpt>
      <trkpt lat="42.51671" lon="1.88027">
        <ele>2240.01</ele>
        <time>2021-07-07T08:41:45Z</time>
      </trkpt>
      <trkpt lat="42.51658" lon="1.88033">
        <ele>2240.01</ele>
        <time>2021-07-07T08:41:54Z</time>
      </trkpt>
      <trkpt lat="42.51654" lon="1.88034">
        <ele>2240.01</ele>
        <time>2021-07-07T08:41:57Z</time>
      </trkpt>
      <trkpt lat="42.51643" lon="1.88038">
        <ele>2239.53</ele>
        <time>2021-07-07T08:42:05Z</time>
      </trkpt>
      <trkpt lat="42.51639" lon="1.88039">
        <ele>2239.05</ele>
        <time>2021-07-07T08:42:12Z</time>
      </trkpt>
      <trkpt lat="42.51639" lon="1.8804">
        <ele>2239.53</ele>
        <time>2021-07-07T08:42:26Z</time>
      </trkpt>
      <trkpt lat="42.51639" lon="1.8804">
        <ele>2239.05</ele>
        <time>2021-07-07T08:42:36Z</time>
      </trkpt>
      <trkpt lat="42.51629" lon="1.88047">
        <ele>2237.13</ele>
        <time>2021-07-07T08:42:45Z</time>
      </trkpt>
      <trkpt lat="42.51625" lon="1.8805">
        <ele>2237.13</ele>
        <time>2021-07-07T08:42:52Z</time>
      </trkpt>
      <trkpt lat="42.51625" lon="1.88051">
        <ele>2236.64</ele>
        <time>2021-07-07T08:42:58Z</time>
      </trkpt>
      <trkpt lat="42.51623" lon="1.88053">
        <ele>2236.64</ele>
        <time>2021-07-07T08:43:00Z</time>
      </trkpt>
      <trkpt lat="42.51615" lon="1.88057">
        <ele>2236.16</ele>
        <time>2021-07-07T08:43:05Z</time>
      </trkpt>
      <trkpt lat="42.51603" lon="1.88057">
        <ele>2235.2</ele>
        <time>2021-07-07T08:43:14Z</time>
      </trkpt>
      <trkpt lat="42.51592" lon="1.88062">
        <ele>2234.72</ele>
        <time>2021-07-07T08:43:22Z</time>
      </trkpt>
      <trkpt lat="42.51584" lon="1.88074">
        <ele>2234.72</ele>
        <time>2021-07-07T08:43:31Z</time>
      </trkpt>
      <trkpt lat="42.51575" lon="1.88084">
        <ele>2233.76</ele>
        <time>2021-07-07T08:43:38Z</time>
      </trkpt>
      <trkpt lat="42.51565" lon="1.88098">
        <ele>2234.24</ele>
        <time>2021-07-07T08:43:47Z</time>
      </trkpt>
      <trkpt lat="42.51556" lon="1.88108">
        <ele>2233.28</ele>
        <time>2021-07-07T08:43:55Z</time>
      </trkpt>
      <trkpt lat="42.51542" lon="1.88119">
        <ele>2232.8</ele>
        <time>2021-07-07T08:44:05Z</time>
      </trkpt>
      <trkpt lat="42.51531" lon="1.8813">
        <ele>2232.32</ele>
        <time>2021-07-07T08:44:15Z</time>
      </trkpt>
      <trkpt lat="42.51528" lon="1.88134">
        <ele>2231.36</ele>
        <time>2021-07-07T08:44:18Z</time>
      </trkpt>
      <trkpt lat="42.51525" lon="1.88138">
        <ele>2230.88</ele>
        <time>2021-07-07T08:44:22Z</time>
      </trkpt>
      <trkpt lat="42.51512" lon="1.88139">
        <ele>2229.92</ele>
        <time>2021-07-07T08:44:31Z</time>
      </trkpt>
      <trkpt lat="42.51508" lon="1.88141">
        <ele>2229.43</ele>
        <time>2021-07-07T08:44:37Z</time>
      </trkpt>
      <trkpt lat="42.51502" lon="1.88143">
        <ele>2230.4</ele>
        <time>2021-07-07T08:44:43Z</time>
      </trkpt>
      <trkpt lat="42.51494" lon="1.88147">
        <ele>2230.88</ele>
        <time>2021-07-07T08:44:49Z</time>
      </trkpt>
      <trkpt lat="42.5149" lon="1.8815">
        <ele>2231.36</ele>
        <time>2021-07-07T08:44:55Z</time>
      </trkpt>
      <trkpt lat="42.51482" lon="1.88154">
        <ele>2231.84</ele>
        <time>2021-07-07T08:45:01Z</time>
      </trkpt>
      <trkpt lat="42.51476" lon="1.88155">
        <ele>2232.32</ele>
        <time>2021-07-07T08:45:05Z</time>
      </trkpt>
      <trkpt lat="42.51468" lon="1.88159">
        <ele>2232.8</ele>
        <time>2021-07-07T08:45:12Z</time>
      </trkpt>
      <trkpt lat="42.5146" lon="1.88167">
        <ele>2232.8</ele>
        <time>2021-07-07T08:45:19Z</time>
      </trkpt>
      <trkpt lat="42.5145" lon="1.88172">
        <ele>2233.76</ele>
        <time>2021-07-07T08:45:26Z</time>
      </trkpt>
      <trkpt lat="42.51444" lon="1.88178">
        <ele>2234.24</ele>
        <time>2021-07-07T08:45:32Z</time>
      </trkpt>
      <trkpt lat="42.51434" lon="1.88181">
        <ele>2234.72</ele>
        <time>2021-07-07T08:45:41Z</time>
      </trkpt>
      <trkpt lat="42.51425" lon="1.88187">
        <ele>2235.2</ele>
        <time>2021-07-07T08:45:48Z</time>
      </trkpt>
      <trkpt lat="42.51415" lon="1.88193">
        <ele>2235.68</ele>
        <time>2021-07-07T08:45:56Z</time>
      </trkpt>
      <trkpt lat="42.51408" lon="1.88198">
        <ele>2236.16</ele>
        <time>2021-07-07T08:46:03Z</time>
      </trkpt>
      <trkpt lat="42.51398" lon="1.88203">
        <ele>2236.64</ele>
        <time>2021-07-07T08:46:11Z</time>
      </trkpt>
      <trkpt lat="42.51389" lon="1.88208">
        <ele>2237.13</ele>
        <time>2021-07-07T08:46:18Z</time>
      </trkpt>
      <trkpt lat="42.51383" lon="1.88213">
        <ele>2237.61</ele>
        <time>2021-07-07T08:46:24Z</time>
      </trkpt>
      <trkpt lat="42.51378" lon="1.88215">
        <ele>2237.13</ele>
        <time>2021-07-07T08:46:31Z</time>
      </trkpt>
      <trkpt lat="42.51366" lon="1.88221">
        <ele>2238.57</ele>
        <time>2021-07-07T08:46:39Z</time>
      </trkpt>
      <trkpt lat="42.51359" lon="1.88224">
        <ele>2239.05</ele>
        <time>2021-07-07T08:46:45Z</time>
      </trkpt>
      <trkpt lat="42.5135" lon="1.88226">
        <ele>2239.53</ele>
        <time>2021-07-07T08:46:52Z</time>
      </trkpt>
      <trkpt lat="42.51338" lon="1.88229">
        <ele>2240.01</ele>
        <time>2021-07-07T08:47:01Z</time>
      </trkpt>
      <trkpt lat="42.51335" lon="1.8823">
        <ele>2240.97</ele>
        <time>2021-07-07T08:47:04Z</time>
      </trkpt>
      <trkpt lat="42.51334" lon="1.88231">
        <ele>2241.93</ele>
        <time>2021-07-07T08:47:11Z</time>
      </trkpt>
      <trkpt lat="42.51334" lon="1.88231">
        <ele>2241.93</ele>
        <time>2021-07-07T08:47:24Z</time>
      </trkpt>
      <trkpt lat="42.51334" lon="1.88231">
        <ele>2241.93</ele>
        <time>2021-07-07T08:47:37Z</time>
      </trkpt>
      <trkpt lat="42.51334" lon="1.88231">
        <ele>2241.93</ele>
        <time>2021-07-07T08:47:46Z</time>
      </trkpt>
      <trkpt lat="42.51334" lon="1.88232">
        <ele>2241.93</ele>
        <time>2021-07-07T08:47:50Z</time>
      </trkpt>
      <trkpt lat="42.51323" lon="1.88236">
        <ele>2242.41</ele>
        <time>2021-07-07T08:47:58Z</time>
      </trkpt>
      <trkpt lat="42.51313" lon="1.8824">
        <ele>2242.89</ele>
        <time>2021-07-07T08:48:06Z</time>
      </trkpt>
      <trkpt lat="42.51301" lon="1.88246">
        <ele>2243.37</ele>
        <time>2021-07-07T08:48:14Z</time>
      </trkpt>
      <trkpt lat="42.51292" lon="1.88251">
        <ele>2243.85</ele>
        <time>2021-07-07T08:48:22Z</time>
      </trkpt>
      <trkpt lat="42.51282" lon="1.88255">
        <ele>2244.33</ele>
        <time>2021-07-07T08:48:30Z</time>
      </trkpt>
      <trkpt lat="42.51279" lon="1.88257">
        <ele>2246.26</ele>
        <time>2021-07-07T08:48:37Z</time>
      </trkpt>
      <trkpt lat="42.51279" lon="1.88257">
        <ele>2245.78</ele>
        <time>2021-07-07T08:48:41Z</time>
      </trkpt>
      <trkpt lat="42.51269" lon="1.88262">
        <ele>2244.33</ele>
        <time>2021-07-07T08:48:49Z</time>
      </trkpt>
      <trkpt lat="42.51263" lon="1.88263">
        <ele>2245.3</ele>
        <time>2021-07-07T08:48:55Z</time>
      </trkpt>
      <trkpt lat="42.51263" lon="1.88263">
        <ele>2245.78</ele>
        <time>2021-07-07T08:49:07Z</time>
      </trkpt>
      <trkpt lat="42.51252" lon="1.88265">
        <ele>2244.33</ele>
        <time>2021-07-07T08:49:14Z</time>
      </trkpt>
      <trkpt lat="42.51248" lon="1.88266">
        <ele>2244.33</ele>
        <time>2021-07-07T08:49:17Z</time>
      </trkpt>
      <trkpt lat="42.51235" lon="1.88265">
        <ele>2243.37</ele>
        <time>2021-07-07T08:49:26Z</time>
      </trkpt>
      <trkpt lat="42.51223" lon="1.88264">
        <ele>2243.85</ele>
        <time>2021-07-07T08:49:34Z</time>
      </trkpt>
      <trkpt lat="42.5121" lon="1.88266">
        <ele>2243.37</ele>
        <time>2021-07-07T08:49:43Z</time>
      </trkpt>
      <trkpt lat="42.51201" lon="1.88267">
        <ele>2243.37</ele>
        <time>2021-07-07T08:49:49Z</time>
      </trkpt>
      <trkpt lat="42.51191" lon="1.88266">
        <ele>2241.93</ele>
        <time>2021-07-07T08:49:56Z</time>
      </trkpt>
      <trkpt lat="42.51188" lon="1.88267">
        <ele>2242.89</ele>
        <time>2021-07-07T08:50:01Z</time>
      </trkpt>
      <trkpt lat="42.51188" lon="1.88267">
        <ele>2242.41</ele>
        <time>2021-07-07T08:50:12Z</time>
      </trkpt>
      <trkpt lat="42.51188" lon="1.88267">
        <ele>2241.45</ele>
        <time>2021-07-07T08:50:27Z</time>
      </trkpt>
      <trkpt lat="42.51187" lon="1.88267">
        <ele>2240.97</ele>
        <time>2021-07-07T08:50:31Z</time>
      </trkpt>
      <trkpt lat="42.5118" lon="1.88269">
        <ele>2240.49</ele>
        <time>2021-07-07T08:50:36Z</time>
      </trkpt>
      <trkpt lat="42.51169" lon="1.88269">
        <ele>2240.01</ele>
        <time>2021-07-07T08:50:44Z</time>
      </trkpt>
      <trkpt lat="42.51157" lon="1.8827">
        <ele>2239.53</ele>
        <time>2021-07-07T08:50:52Z</time>
      </trkpt>
      <trkpt lat="42.51153" lon="1.88273">
        <ele>2239.05</ele>
        <time>2021-07-07T08:50:55Z</time>
      </trkpt>
      <trkpt lat="42.51145" lon="1.88274">
        <ele>2238.57</ele>
        <time>2021-07-07T08:51:01Z</time>
      </trkpt>
      <trkpt lat="42.51138" lon="1.88276">
        <ele>2238.09</ele>
        <time>2021-07-07T08:51:06Z</time>
      </trkpt>
      <trkpt lat="42.51131" lon="1.88277">
        <ele>2236.64</ele>
        <time>2021-07-07T08:51:10Z</time>
      </trkpt>
      <trkpt lat="42.51129" lon="1.88279">
        <ele>2237.13</ele>
        <time>2021-07-07T08:51:12Z</time>
      </trkpt>
      <trkpt lat="42.51124" lon="1.88281">
        <ele>2236.16</ele>
        <time>2021-07-07T08:51:16Z</time>
      </trkpt>
      <trkpt lat="42.5112" lon="1.88279">
        <ele>2236.64</ele>
        <time>2021-07-07T08:51:19Z</time>
      </trkpt>
      <trkpt lat="42.5111" lon="1.88279">
        <ele>2236.16</ele>
        <time>2021-07-07T08:51:25Z</time>
      </trkpt>
      <trkpt lat="42.511" lon="1.88282">
        <ele>2235.68</ele>
        <time>2021-07-07T08:51:32Z</time>
      </trkpt>
      <trkpt lat="42.51092" lon="1.88284">
        <ele>2236.16</ele>
        <time>2021-07-07T08:51:40Z</time>
      </trkpt>
      <trkpt lat="42.51092" lon="1.88284">
        <ele>2236.16</ele>
        <time>2021-07-07T08:51:47Z</time>
      </trkpt>
      <trkpt lat="42.51086" lon="1.88285">
        <ele>2235.68</ele>
        <time>2021-07-07T08:51:53Z</time>
      </trkpt>
      <trkpt lat="42.51083" lon="1.88286">
        <ele>2235.68</ele>
        <time>2021-07-07T08:51:55Z</time>
      </trkpt>
      <trkpt lat="42.51074" lon="1.88284">
        <ele>2235.68</ele>
        <time>2021-07-07T08:52:02Z</time>
      </trkpt>
      <trkpt lat="42.51071" lon="1.88285">
        <ele>2234.72</ele>
        <time>2021-07-07T08:52:04Z</time>
      </trkpt>
      <trkpt lat="42.51069" lon="1.88285">
        <ele>2233.76</ele>
        <time>2021-07-07T08:52:05Z</time>
      </trkpt>
      <trkpt lat="42.51057" lon="1.88283">
        <ele>2232.32</ele>
        <time>2021-07-07T08:52:14Z</time>
      </trkpt>
      <trkpt lat="42.51051" lon="1.88283">
        <ele>2233.76</ele>
        <time>2021-07-07T08:52:22Z</time>
      </trkpt>
      <trkpt lat="42.51051" lon="1.88282">
        <ele>2232.8</ele>
        <time>2021-07-07T08:52:36Z</time>
      </trkpt>
      <trkpt lat="42.5105" lon="1.88281">
        <ele>2233.28</ele>
        <time>2021-07-07T08:52:49Z</time>
      </trkpt>
      <trkpt lat="42.5105" lon="1.88281">
        <ele>2233.28</ele>
        <time>2021-07-07T08:52:58Z</time>
      </trkpt>
      <trkpt lat="42.5105" lon="1.88281">
        <ele>2232.8</ele>
        <time>2021-07-07T08:53:06Z</time>
      </trkpt>
      <trkpt lat="42.5105" lon="1.88282">
        <ele>2232.8</ele>
        <time>2021-07-07T08:53:18Z</time>
      </trkpt>
      <trkpt lat="42.51051" lon="1.88282">
        <ele>2232.8</ele>
        <time>2021-07-07T08:53:26Z</time>
      </trkpt>
      <trkpt lat="42.51051" lon="1.88282">
        <ele>2233.28</ele>
        <time>2021-07-07T08:53:40Z</time>
      </trkpt>
      <trkpt lat="42.5105" lon="1.88281">
        <ele>2232.8</ele>
        <time>2021-07-07T08:53:55Z</time>
      </trkpt>
      <trkpt lat="42.51048" lon="1.88281">
        <ele>2232.8</ele>
        <time>2021-07-07T08:54:03Z</time>
      </trkpt>
      <trkpt lat="42.51047" lon="1.88287">
        <ele>2231.84</ele>
        <time>2021-07-07T08:54:11Z</time>
      </trkpt>
      <trkpt lat="42.51047" lon="1.88287">
        <ele>2231.84</ele>
        <time>2021-07-07T08:54:21Z</time>
      </trkpt>
      <trkpt lat="42.51047" lon="1.88287">
        <ele>2231.84</ele>
        <time>2021-07-07T08:54:22Z</time>
      </trkpt>
      <trkpt lat="42.51045" lon="1.88289">
        <ele>2231.36</ele>
        <time>2021-07-07T08:54:25Z</time>
      </trkpt>
      <trkpt lat="42.51041" lon="1.88293">
        <ele>2234.24</ele>
        <time>2021-07-07T08:54:29Z</time>
      </trkpt>
      <trkpt lat="42.51041" lon="1.88293">
        <ele>2230.88</ele>
        <time>2021-07-07T08:54:37Z</time>
      </trkpt>
      <trkpt lat="42.51029" lon="1.88304">
        <ele>2228.47</ele>
        <time>2021-07-07T08:54:47Z</time>
      </trkpt>
      <trkpt lat="42.5102" lon="1.88315">
        <ele>2227.99</ele>
        <time>2021-07-07T08:54:55Z</time>
      </trkpt>
      <trkpt lat="42.51012" lon="1.88325">
        <ele>2227.51</ele>
        <time>2021-07-07T08:55:04Z</time>
      </trkpt>
      <trkpt lat="42.51005" lon="1.88332">
        <ele>2226.55</ele>
        <time>2021-07-07T08:55:10Z</time>
      </trkpt>
      <trkpt lat="42.50997" lon="1.88341">
        <ele>2225.59</ele>
        <time>2021-07-07T08:55:18Z</time>
      </trkpt>
      <trkpt lat="42.50985" lon="1.88342">
        <ele>2225.11</ele>
        <time>2021-07-07T08:55:27Z</time>
      </trkpt>
      <trkpt lat="42.50974" lon="1.88342">
        <ele>2224.15</ele>
        <time>2021-07-07T08:55:35Z</time>
      </trkpt>
      <trkpt lat="42.50962" lon="1.88344">
        <ele>2223.19</ele>
        <time>2021-07-07T08:55:43Z</time>
      </trkpt>
      <trkpt lat="42.50961" lon="1.88345">
        <ele>2222.71</ele>
        <time>2021-07-07T08:55:44Z</time>
      </trkpt>
      <trkpt lat="42.50955" lon="1.88351">
        <ele>2221.74</ele>
        <time>2021-07-07T08:55:51Z</time>
      </trkpt>
      <trkpt lat="42.50953" lon="1.88357">
        <ele>2221.26</ele>
        <time>2021-07-07T08:55:55Z</time>
      </trkpt>
      <trkpt lat="42.50952" lon="1.88365">
        <ele>2219.34</ele>
        <time>2021-07-07T08:56:00Z</time>
      </trkpt>
      <trkpt lat="42.50943" lon="1.88372">
        <ele>2216.94</ele>
        <time>2021-07-07T08:56:09Z</time>
      </trkpt>
      <trkpt lat="42.50938" lon="1.88374">
        <ele>2216.46</ele>
        <time>2021-07-07T08:56:14Z</time>
      </trkpt>
      <trkpt lat="42.50928" lon="1.88378">
        <ele>2214.53</ele>
        <time>2021-07-07T08:56:22Z</time>
      </trkpt>
      <trkpt lat="42.50918" lon="1.88383">
        <ele>2213.09</ele>
        <time>2021-07-07T08:56:29Z</time>
      </trkpt>
      <trkpt lat="42.50914" lon="1.88386">
        <ele>2213.57</ele>
        <time>2021-07-07T08:56:35Z</time>
      </trkpt>
      <trkpt lat="42.50913" lon="1.8839">
        <ele>2213.09</ele>
        <time>2021-07-07T08:56:41Z</time>
      </trkpt>
      <trkpt lat="42.50912" lon="1.88392">
        <ele>2212.61</ele>
        <time>2021-07-07T08:56:47Z</time>
      </trkpt>
      <trkpt lat="42.50911" lon="1.88393">
        <ele>2212.61</ele>
        <time>2021-07-07T08:56:57Z</time>
      </trkpt>
      <trkpt lat="42.50912" lon="1.88405">
        <ele>2210.69</ele>
        <time>2021-07-07T08:57:04Z</time>
      </trkpt>
      <trkpt lat="42.50912" lon="1.88409">
        <ele>2210.69</ele>
        <time>2021-07-07T08:57:09Z</time>
      </trkpt>
      <trkpt lat="42.50912" lon="1.88408">
        <ele>2210.69</ele>
        <time>2021-07-07T08:57:11Z</time>
      </trkpt>
      <trkpt lat="42.50913" lon="1.88409">
        <ele>2210.69</ele>
        <time>2021-07-07T08:57:13Z</time>
      </trkpt>
      <trkpt lat="42.50914" lon="1.8842">
        <ele>2210.21</ele>
        <time>2021-07-07T08:57:20Z</time>
      </trkpt>
      <trkpt lat="42.50911" lon="1.88429">
        <ele>2209.25</ele>
        <time>2021-07-07T08:57:26Z</time>
      </trkpt>
      <trkpt lat="42.50909" lon="1.88433">
        <ele>2207.81</ele>
        <time>2021-07-07T08:57:29Z</time>
      </trkpt>
      <trkpt lat="42.50903" lon="1.88444">
        <ele>2205.88</ele>
        <time>2021-07-07T08:57:37Z</time>
      </trkpt>
      <trkpt lat="42.50902" lon="1.88449">
        <ele>2205.4</ele>
        <time>2021-07-07T08:57:40Z</time>
      </trkpt>
      <trkpt lat="42.50896" lon="1.88464">
        <ele>2203</ele>
        <time>2021-07-07T08:57:49Z</time>
      </trkpt>
      <trkpt lat="42.50893" lon="1.88468">
        <ele>2201.56</ele>
        <time>2021-07-07T08:57:52Z</time>
      </trkpt>
      <trkpt lat="42.50887" lon="1.88478">
        <ele>2199.63</ele>
        <time>2021-07-07T08:57:59Z</time>
      </trkpt>
      <trkpt lat="42.50879" lon="1.88486">
        <ele>2197.71</ele>
        <time>2021-07-07T08:58:07Z</time>
      </trkpt>
      <trkpt lat="42.50878" lon="1.88487">
        <ele>2197.71</ele>
        <time>2021-07-07T08:58:08Z</time>
      </trkpt>
      <trkpt lat="42.50874" lon="1.88495">
        <ele>2196.27</ele>
        <time>2021-07-07T08:58:14Z</time>
      </trkpt>
      <trkpt lat="42.50872" lon="1.88499">
        <ele>2195.79</ele>
        <time>2021-07-07T08:58:16Z</time>
      </trkpt>
      <trkpt lat="42.50862" lon="1.88506">
        <ele>2193.87</ele>
        <time>2021-07-07T08:58:24Z</time>
      </trkpt>
      <trkpt lat="42.5086" lon="1.88521">
        <ele>2193.39</ele>
        <time>2021-07-07T08:58:32Z</time>
      </trkpt>
      <trkpt lat="42.5086" lon="1.88528">
        <ele>2192.42</ele>
        <time>2021-07-07T08:58:36Z</time>
      </trkpt>
      <trkpt lat="42.50853" lon="1.88535">
        <ele>2190.98</ele>
        <time>2021-07-07T08:58:43Z</time>
      </trkpt>
      <trkpt lat="42.5085" lon="1.88539">
        <ele>2190.02</ele>
        <time>2021-07-07T08:58:46Z</time>
      </trkpt>
      <trkpt lat="42.50841" lon="1.88548">
        <ele>2188.58</ele>
        <time>2021-07-07T08:58:54Z</time>
      </trkpt>
      <trkpt lat="42.50833" lon="1.88555">
        <ele>2186.18</ele>
        <time>2021-07-07T08:59:01Z</time>
      </trkpt>
      <trkpt lat="42.50826" lon="1.8856">
        <ele>2185.21</ele>
        <time>2021-07-07T08:59:07Z</time>
      </trkpt>
      <trkpt lat="42.5082" lon="1.88567">
        <ele>2185.69</ele>
        <time>2021-07-07T08:59:14Z</time>
      </trkpt>
      <trkpt lat="42.50819" lon="1.88572">
        <ele>2183.77</ele>
        <time>2021-07-07T08:59:18Z</time>
      </trkpt>
      <trkpt lat="42.5081" lon="1.88587">
        <ele>2181.85</ele>
        <time>2021-07-07T08:59:28Z</time>
      </trkpt>
      <trkpt lat="42.50808" lon="1.88592">
        <ele>2181.37</ele>
        <time>2021-07-07T08:59:31Z</time>
      </trkpt>
      <trkpt lat="42.50804" lon="1.88597">
        <ele>2180.41</ele>
        <time>2021-07-07T08:59:35Z</time>
      </trkpt>
      <trkpt lat="42.50799" lon="1.88605">
        <ele>2178.97</ele>
        <time>2021-07-07T08:59:42Z</time>
      </trkpt>
      <trkpt lat="42.50797" lon="1.88606">
        <ele>2178.48</ele>
        <time>2021-07-07T08:59:44Z</time>
      </trkpt>
      <trkpt lat="42.50788" lon="1.88608">
        <ele>2177.04</ele>
        <time>2021-07-07T08:59:52Z</time>
      </trkpt>
      <trkpt lat="42.50787" lon="1.88608">
        <ele>2177.04</ele>
        <time>2021-07-07T08:59:58Z</time>
      </trkpt>
      <trkpt lat="42.50785" lon="1.88608">
        <ele>2176.08</ele>
        <time>2021-07-07T09:00:01Z</time>
      </trkpt>
      <trkpt lat="42.50781" lon="1.88605">
        <ele>2175.6</ele>
        <time>2021-07-07T09:00:05Z</time>
      </trkpt>
      <trkpt lat="42.50772" lon="1.88603">
        <ele>2172.72</ele>
        <time>2021-07-07T09:00:12Z</time>
      </trkpt>
      <trkpt lat="42.50765" lon="1.88604">
        <ele>2170.79</ele>
        <time>2021-07-07T09:00:19Z</time>
      </trkpt>
      <trkpt lat="42.50758" lon="1.88604">
        <ele>2168.87</ele>
        <time>2021-07-07T09:00:26Z</time>
      </trkpt>
      <trkpt lat="42.50748" lon="1.88607">
        <ele>2165.99</ele>
        <time>2021-07-07T09:00:33Z</time>
      </trkpt>
      <trkpt lat="42.50736" lon="1.8861">
        <ele>2163.1</ele>
        <time>2021-07-07T09:00:42Z</time>
      </trkpt>
      <trkpt lat="42.50731" lon="1.88615">
        <ele>2162.14</ele>
        <time>2021-07-07T09:00:47Z</time>
      </trkpt>
      <trkpt lat="42.50729" lon="1.88615">
        <ele>2162.14</ele>
        <time>2021-07-07T09:00:54Z</time>
      </trkpt>
      <trkpt lat="42.50726" lon="1.88617">
        <ele>2160.7</ele>
        <time>2021-07-07T09:00:58Z</time>
      </trkpt>
      <trkpt lat="42.50719" lon="1.88619">
        <ele>2159.26</ele>
        <time>2021-07-07T09:01:03Z</time>
      </trkpt>
      <trkpt lat="42.50713" lon="1.88626">
        <ele>2157.34</ele>
        <time>2021-07-07T09:01:11Z</time>
      </trkpt>
      <trkpt lat="42.5071" lon="1.88629">
        <ele>2156.37</ele>
        <time>2021-07-07T09:01:15Z</time>
      </trkpt>
      <trkpt lat="42.50705" lon="1.88635">
        <ele>2153.97</ele>
        <time>2021-07-07T09:01:23Z</time>
      </trkpt>
      <trkpt lat="42.50701" lon="1.88635">
        <ele>2152.53</ele>
        <time>2021-07-07T09:01:28Z</time>
      </trkpt>
      <trkpt lat="42.50698" lon="1.88638">
        <ele>2151.09</ele>
        <time>2021-07-07T09:01:33Z</time>
      </trkpt>
      <trkpt lat="42.50693" lon="1.88642">
        <ele>2148.68</ele>
        <time>2021-07-07T09:01:40Z</time>
      </trkpt>
      <trkpt lat="42.50691" lon="1.88643">
        <ele>2148.2</ele>
        <time>2021-07-07T09:01:47Z</time>
      </trkpt>
      <trkpt lat="42.5069" lon="1.88644">
        <ele>2147.72</ele>
        <time>2021-07-07T09:01:54Z</time>
      </trkpt>
      <trkpt lat="42.50689" lon="1.88644">
        <ele>2146.76</ele>
        <time>2021-07-07T09:02:01Z</time>
      </trkpt>
      <trkpt lat="42.50685" lon="1.88646">
        <ele>2146.28</ele>
        <time>2021-07-07T09:02:05Z</time>
      </trkpt>
      <trkpt lat="42.50682" lon="1.88646">
        <ele>2144.84</ele>
        <time>2021-07-07T09:02:07Z</time>
      </trkpt>
      <trkpt lat="42.50674" lon="1.88649">
        <ele>2142.92</ele>
        <time>2021-07-07T09:02:13Z</time>
      </trkpt>
      <trkpt lat="42.50666" lon="1.8865">
        <ele>2140.51</ele>
        <time>2021-07-07T09:02:20Z</time>
      </trkpt>
      <trkpt lat="42.50664" lon="1.8865">
        <ele>2140.03</ele>
        <time>2021-07-07T09:02:22Z</time>
      </trkpt>
      <trkpt lat="42.50655" lon="1.88652">
        <ele>2138.11</ele>
        <time>2021-07-07T09:02:28Z</time>
      </trkpt>
      <trkpt lat="42.50648" lon="1.88653">
        <ele>2136.19</ele>
        <time>2021-07-07T09:02:34Z</time>
      </trkpt>
      <trkpt lat="42.50647" lon="1.88653">
        <ele>2136.19</ele>
        <time>2021-07-07T09:02:41Z</time>
      </trkpt>
      <trkpt lat="42.50644" lon="1.88653">
        <ele>2135.23</ele>
        <time>2021-07-07T09:02:49Z</time>
      </trkpt>
      <trkpt lat="42.50636" lon="1.88654">
        <ele>2133.78</ele>
        <time>2021-07-07T09:02:55Z</time>
      </trkpt>
      <trkpt lat="42.50634" lon="1.88653">
        <ele>2132.82</ele>
        <time>2021-07-07T09:02:57Z</time>
      </trkpt>
      <trkpt lat="42.50628" lon="1.88653">
        <ele>2131.38</ele>
        <time>2021-07-07T09:03:02Z</time>
      </trkpt>
      <trkpt lat="42.50621" lon="1.88654">
        <ele>2129.46</ele>
        <time>2021-07-07T09:03:08Z</time>
      </trkpt>
      <trkpt lat="42.50612" lon="1.88655">
        <ele>2128.02</ele>
        <time>2021-07-07T09:03:15Z</time>
      </trkpt>
      <trkpt lat="42.50602" lon="1.88656">
        <ele>2125.61</ele>
        <time>2021-07-07T09:03:22Z</time>
      </trkpt>
      <trkpt lat="42.50598" lon="1.88658">
        <ele>2123.69</ele>
        <time>2021-07-07T09:03:26Z</time>
      </trkpt>
      <trkpt lat="42.50586" lon="1.88658">
        <ele>2121.29</ele>
        <time>2021-07-07T09:03:36Z</time>
      </trkpt>
      <trkpt lat="42.50574" lon="1.8866">
        <ele>2119.36</ele>
        <time>2021-07-07T09:03:45Z</time>
      </trkpt>
      <trkpt lat="42.50567" lon="1.88661">
        <ele>2118.4</ele>
        <time>2021-07-07T09:03:52Z</time>
      </trkpt>
      <trkpt lat="42.50556" lon="1.88661">
        <ele>2116.96</ele>
        <time>2021-07-07T09:03:59Z</time>
      </trkpt>
      <trkpt lat="42.50547" lon="1.88663">
        <ele>2116</ele>
        <time>2021-07-07T09:04:06Z</time>
      </trkpt>
      <trkpt lat="42.50536" lon="1.88664">
        <ele>2114.56</ele>
        <time>2021-07-07T09:04:14Z</time>
      </trkpt>
      <trkpt lat="42.50527" lon="1.88665">
        <ele>2113.6</ele>
        <time>2021-07-07T09:04:21Z</time>
      </trkpt>
      <trkpt lat="42.50521" lon="1.88664">
        <ele>2112.63</ele>
        <time>2021-07-07T09:04:28Z</time>
      </trkpt>
      <trkpt lat="42.50511" lon="1.88668">
        <ele>2110.71</ele>
        <time>2021-07-07T09:04:35Z</time>
      </trkpt>
      <trkpt lat="42.50498" lon="1.88672">
        <ele>2110.71</ele>
        <time>2021-07-07T09:04:44Z</time>
      </trkpt>
      <trkpt lat="42.50492" lon="1.88674">
        <ele>2110.23</ele>
        <time>2021-07-07T09:04:50Z</time>
      </trkpt>
      <trkpt lat="42.5049" lon="1.88675">
        <ele>2110.23</ele>
        <time>2021-07-07T09:04:51Z</time>
      </trkpt>
      <trkpt lat="42.50482" lon="1.88679">
        <ele>2110.23</ele>
        <time>2021-07-07T09:04:56Z</time>
      </trkpt>
      <trkpt lat="42.5047" lon="1.88685">
        <ele>2109.27</ele>
        <time>2021-07-07T09:05:04Z</time>
      </trkpt>
      <trkpt lat="42.50459" lon="1.88692">
        <ele>2110.23</ele>
        <time>2021-07-07T09:05:12Z</time>
      </trkpt>
      <trkpt lat="42.50449" lon="1.88696">
        <ele>2108.79</ele>
        <time>2021-07-07T09:05:19Z</time>
      </trkpt>
      <trkpt lat="42.50439" lon="1.88701">
        <ele>2108.79</ele>
        <time>2021-07-07T09:05:26Z</time>
      </trkpt>
      <trkpt lat="42.50428" lon="1.88706">
        <ele>2108.79</ele>
        <time>2021-07-07T09:05:34Z</time>
      </trkpt>
      <trkpt lat="42.50421" lon="1.88709">
        <ele>2108.79</ele>
        <time>2021-07-07T09:05:39Z</time>
      </trkpt>
      <trkpt lat="42.50417" lon="1.88711">
        <ele>2108.79</ele>
        <time>2021-07-07T09:05:42Z</time>
      </trkpt>
      <trkpt lat="42.50405" lon="1.88715">
        <ele>2107.83</ele>
        <time>2021-07-07T09:05:50Z</time>
      </trkpt>
      <trkpt lat="42.504" lon="1.88718">
        <ele>2109.75</ele>
        <time>2021-07-07T09:05:54Z</time>
      </trkpt>
      <trkpt lat="42.504" lon="1.88718">
        <ele>2109.27</ele>
        <time>2021-07-07T09:05:56Z</time>
      </trkpt>
      <trkpt lat="42.50396" lon="1.88719">
        <ele>2108.79</ele>
        <time>2021-07-07T09:06:00Z</time>
      </trkpt>
      <trkpt lat="42.50385" lon="1.88721">
        <ele>2108.79</ele>
        <time>2021-07-07T09:06:07Z</time>
      </trkpt>
      <trkpt lat="42.50373" lon="1.88726">
        <ele>2109.27</ele>
        <time>2021-07-07T09:06:16Z</time>
      </trkpt>
      <trkpt lat="42.50361" lon="1.88728">
        <ele>2109.75</ele>
        <time>2021-07-07T09:06:24Z</time>
      </trkpt>
      <trkpt lat="42.50352" lon="1.88731">
        <ele>2110.23</ele>
        <time>2021-07-07T09:06:31Z</time>
      </trkpt>
      <trkpt lat="42.50342" lon="1.88736">
        <ele>2110.71</ele>
        <time>2021-07-07T09:06:39Z</time>
      </trkpt>
      <trkpt lat="42.50336" lon="1.8874">
        <ele>2111.19</ele>
        <time>2021-07-07T09:06:44Z</time>
      </trkpt>
      <trkpt lat="42.50333" lon="1.88741">
        <ele>2110.71</ele>
        <time>2021-07-07T09:06:51Z</time>
      </trkpt>
      <trkpt lat="42.50333" lon="1.88741">
        <ele>2113.6</ele>
        <time>2021-07-07T09:07:00Z</time>
      </trkpt>
      <trkpt lat="42.50333" lon="1.88741">
        <ele>2110.23</ele>
        <time>2021-07-07T09:07:03Z</time>
      </trkpt>
      <trkpt lat="42.50333" lon="1.88741">
        <ele>2100.62</ele>
        <time>2021-07-07T09:07:04Z</time>
      </trkpt>
      <trkpt lat="42.50333" lon="1.88741">
        <ele>2112.63</ele>
        <time>2021-07-07T09:07:05Z</time>
      </trkpt>
      <trkpt lat="42.50333" lon="1.88741">
        <ele>2117.92</ele>
        <time>2021-07-07T09:07:06Z</time>
      </trkpt>
      <trkpt lat="42.50333" lon="1.88741">
        <ele>2111.19</ele>
        <time>2021-07-07T09:07:07Z</time>
      </trkpt>
      <trkpt lat="42.50333" lon="1.88741">
        <ele>2114.56</ele>
        <time>2021-07-07T09:07:08Z</time>
      </trkpt>
      <trkpt lat="42.50333" lon="1.88741">
        <ele>2110.23</ele>
        <time>2021-07-07T09:07:09Z</time>
      </trkpt>
      <trkpt lat="42.50333" lon="1.8874">
        <ele>2103.5</ele>
        <time>2021-07-07T09:07:14Z</time>
      </trkpt>
      <trkpt lat="42.50333" lon="1.8874">
        <ele>2115.04</ele>
        <time>2021-07-07T09:07:15Z</time>
      </trkpt>
      <trkpt lat="42.50333" lon="1.8874">
        <ele>2108.79</ele>
        <time>2021-07-07T09:07:16Z</time>
      </trkpt>
      <trkpt lat="42.50333" lon="1.8874">
        <ele>2110.23</ele>
        <time>2021-07-07T09:07:25Z</time>
      </trkpt>
      <trkpt lat="42.50328" lon="1.88738">
        <ele>2109.27</ele>
        <time>2021-07-07T09:07:30Z</time>
      </trkpt>
      <trkpt lat="42.50321" lon="1.88737">
        <ele>2106.87</ele>
        <time>2021-07-07T09:07:38Z</time>
      </trkpt>
      <trkpt lat="42.50321" lon="1.88737">
        <ele>2107.35</ele>
        <time>2021-07-07T09:07:40Z</time>
      </trkpt>
      <trkpt lat="42.50318" lon="1.88737">
        <ele>2105.91</ele>
        <time>2021-07-07T09:07:47Z</time>
      </trkpt>
      <trkpt lat="42.50307" lon="1.88738">
        <ele>2103.98</ele>
        <time>2021-07-07T09:07:54Z</time>
      </trkpt>
      <trkpt lat="42.50298" lon="1.88737">
        <ele>2101.58</ele>
        <time>2021-07-07T09:08:01Z</time>
      </trkpt>
      <trkpt lat="42.50288" lon="1.88736">
        <ele>2101.1</ele>
        <time>2021-07-07T09:08:08Z</time>
      </trkpt>
      <trkpt lat="42.50284" lon="1.88733">
        <ele>2099.18</ele>
        <time>2021-07-07T09:08:11Z</time>
      </trkpt>
      <trkpt lat="42.50271" lon="1.88728">
        <ele>2097.25</ele>
        <time>2021-07-07T09:08:19Z</time>
      </trkpt>
      <trkpt lat="42.50268" lon="1.88727">
        <ele>2096.77</ele>
        <time>2021-07-07T09:08:21Z</time>
      </trkpt>
      <trkpt lat="42.50264" lon="1.88726">
        <ele>2095.81</ele>
        <time>2021-07-07T09:08:24Z</time>
      </trkpt>
      <trkpt lat="42.50261" lon="1.88727">
        <ele>2094.85</ele>
        <time>2021-07-07T09:08:26Z</time>
      </trkpt>
      <trkpt lat="42.50258" lon="1.8873">
        <ele>2093.41</ele>
        <time>2021-07-07T09:08:29Z</time>
      </trkpt>
      <trkpt lat="42.50253" lon="1.8873">
        <ele>2092.93</ele>
        <time>2021-07-07T09:08:35Z</time>
      </trkpt>
      <trkpt lat="42.50253" lon="1.88729">
        <ele>2089.08</ele>
        <time>2021-07-07T09:08:40Z</time>
      </trkpt>
      <trkpt lat="42.50253" lon="1.88729">
        <ele>2094.37</ele>
        <time>2021-07-07T09:08:41Z</time>
      </trkpt>
      <trkpt lat="42.50253" lon="1.88729">
        <ele>2092.45</ele>
        <time>2021-07-07T09:08:47Z</time>
      </trkpt>
      <trkpt lat="42.50246" lon="1.88736">
        <ele>2091</ele>
        <time>2021-07-07T09:08:54Z</time>
      </trkpt>
      <trkpt lat="42.50239" lon="1.88749">
        <ele>2088.12</ele>
        <time>2021-07-07T09:09:03Z</time>
      </trkpt>
      <trkpt lat="42.50236" lon="1.88757">
        <ele>2086.68</ele>
        <time>2021-07-07T09:09:08Z</time>
      </trkpt>
      <trkpt lat="42.50233" lon="1.88759">
        <ele>2086.2</ele>
        <time>2021-07-07T09:09:10Z</time>
      </trkpt>
      <trkpt lat="42.5023" lon="1.88766">
        <ele>2084.76</ele>
        <time>2021-07-07T09:09:16Z</time>
      </trkpt>
      <trkpt lat="42.50229" lon="1.88767">
        <ele>2084.28</ele>
        <time>2021-07-07T09:09:30Z</time>
      </trkpt>
      <trkpt lat="42.50225" lon="1.88776">
        <ele>2082.35</ele>
        <time>2021-07-07T09:09:37Z</time>
      </trkpt>
      <trkpt lat="42.50222" lon="1.8878">
        <ele>2080.91</ele>
        <time>2021-07-07T09:09:40Z</time>
      </trkpt>
      <trkpt lat="42.50218" lon="1.88787">
        <ele>2078.99</ele>
        <time>2021-07-07T09:09:45Z</time>
      </trkpt>
      <trkpt lat="42.50216" lon="1.88788">
        <ele>2078.99</ele>
        <time>2021-07-07T09:09:47Z</time>
      </trkpt>
      <trkpt lat="42.50213" lon="1.88791">
        <ele>2077.55</ele>
        <time>2021-07-07T09:09:50Z</time>
      </trkpt>
      <trkpt lat="42.50213" lon="1.88793">
        <ele>2077.55</ele>
        <time>2021-07-07T09:09:51Z</time>
      </trkpt>
      <trkpt lat="42.50208" lon="1.88804">
        <ele>2075.62</ele>
        <time>2021-07-07T09:09:58Z</time>
      </trkpt>
      <trkpt lat="42.50206" lon="1.88809">
        <ele>2074.18</ele>
        <time>2021-07-07T09:10:06Z</time>
      </trkpt>
      <trkpt lat="42.50203" lon="1.88813">
        <ele>2072.74</ele>
        <time>2021-07-07T09:10:10Z</time>
      </trkpt>
      <trkpt lat="42.50197" lon="1.88825">
        <ele>2070.34</ele>
        <time>2021-07-07T09:10:18Z</time>
      </trkpt>
      <trkpt lat="42.50193" lon="1.8883">
        <ele>2067.93</ele>
        <time>2021-07-07T09:10:23Z</time>
      </trkpt>
      <trkpt lat="42.50185" lon="1.88833">
        <ele>2066.49</ele>
        <time>2021-07-07T09:10:29Z</time>
      </trkpt>
      <trkpt lat="42.50182" lon="1.88836">
        <ele>2064.09</ele>
        <time>2021-07-07T09:10:33Z</time>
      </trkpt>
      <trkpt lat="42.50177" lon="1.8884">
        <ele>2063.13</ele>
        <time>2021-07-07T09:10:37Z</time>
      </trkpt>
      <trkpt lat="42.50169" lon="1.88851">
        <ele>2060.24</ele>
        <time>2021-07-07T09:10:45Z</time>
      </trkpt>
      <trkpt lat="42.50161" lon="1.8886">
        <ele>2057.84</ele>
        <time>2021-07-07T09:10:53Z</time>
      </trkpt>
      <trkpt lat="42.50153" lon="1.88866">
        <ele>2055.44</ele>
        <time>2021-07-07T09:11:00Z</time>
      </trkpt>
      <trkpt lat="42.50147" lon="1.88872">
        <ele>2053.99</ele>
        <time>2021-07-07T09:11:07Z</time>
      </trkpt>
      <trkpt lat="42.50139" lon="1.88876">
        <ele>2052.55</ele>
        <time>2021-07-07T09:11:13Z</time>
      </trkpt>
      <trkpt lat="42.50135" lon="1.88879">
        <ele>2051.11</ele>
        <time>2021-07-07T09:11:16Z</time>
      </trkpt>
      <trkpt lat="42.50128" lon="1.88885">
        <ele>2048.23</ele>
        <time>2021-07-07T09:11:23Z</time>
      </trkpt>
      <trkpt lat="42.50124" lon="1.88887">
        <ele>2047.75</ele>
        <time>2021-07-07T09:11:28Z</time>
      </trkpt>
      <trkpt lat="42.50112" lon="1.8889">
        <ele>2044.86</ele>
        <time>2021-07-07T09:11:35Z</time>
      </trkpt>
      <trkpt lat="42.50111" lon="1.8889">
        <ele>2044.86</ele>
        <time>2021-07-07T09:11:36Z</time>
      </trkpt>
      <trkpt lat="42.50102" lon="1.88893">
        <ele>2042.94</ele>
        <time>2021-07-07T09:11:43Z</time>
      </trkpt>
      <trkpt lat="42.50093" lon="1.889">
        <ele>2041.98</ele>
        <time>2021-07-07T09:11:51Z</time>
      </trkpt>
      <trkpt lat="42.50088" lon="1.88905">
        <ele>2041.5</ele>
        <time>2021-07-07T09:11:55Z</time>
      </trkpt>
      <trkpt lat="42.50079" lon="1.8891">
        <ele>2038.13</ele>
        <time>2021-07-07T09:12:04Z</time>
      </trkpt>
      <trkpt lat="42.50078" lon="1.88911">
        <ele>2037.65</ele>
        <time>2021-07-07T09:12:05Z</time>
      </trkpt>
      <trkpt lat="42.50074" lon="1.88913">
        <ele>2036.69</ele>
        <time>2021-07-07T09:12:08Z</time>
      </trkpt>
      <trkpt lat="42.50066" lon="1.88921">
        <ele>2034.77</ele>
        <time>2021-07-07T09:12:16Z</time>
      </trkpt>
      <trkpt lat="42.50057" lon="1.8892">
        <ele>2032.84</ele>
        <time>2021-07-07T09:12:23Z</time>
      </trkpt>
      <trkpt lat="42.5005" lon="1.88923">
        <ele>2031.4</ele>
        <time>2021-07-07T09:12:28Z</time>
      </trkpt>
      <trkpt lat="42.50043" lon="1.88923">
        <ele>2029.48</ele>
        <time>2021-07-07T09:12:33Z</time>
      </trkpt>
      <trkpt lat="42.50041" lon="1.88923">
        <ele>2029.96</ele>
        <time>2021-07-07T09:12:39Z</time>
      </trkpt>
      <trkpt lat="42.50041" lon="1.88923">
        <ele>2029.48</ele>
        <time>2021-07-07T09:12:43Z</time>
      </trkpt>
      <trkpt lat="42.50034" lon="1.88922">
        <ele>2028.04</ele>
        <time>2021-07-07T09:12:49Z</time>
      </trkpt>
      <trkpt lat="42.50029" lon="1.88924">
        <ele>2026.6</ele>
        <time>2021-07-07T09:12:54Z</time>
      </trkpt>
      <trkpt lat="42.50026" lon="1.88925">
        <ele>2026.12</ele>
        <time>2021-07-07T09:12:57Z</time>
      </trkpt>
      <trkpt lat="42.50015" lon="1.88925">
        <ele>2024.19</ele>
        <time>2021-07-07T09:13:05Z</time>
      </trkpt>
      <trkpt lat="42.50012" lon="1.88925">
        <ele>2023.71</ele>
        <time>2021-07-07T09:13:08Z</time>
      </trkpt>
      <trkpt lat="42.50009" lon="1.88934">
        <ele>2021.79</ele>
        <time>2021-07-07T09:13:14Z</time>
      </trkpt>
      <trkpt lat="42.5001" lon="1.88937">
        <ele>2021.31</ele>
        <time>2021-07-07T09:13:16Z</time>
      </trkpt>
      <trkpt lat="42.50006" lon="1.88946">
        <ele>2019.39</ele>
        <time>2021-07-07T09:13:22Z</time>
      </trkpt>
      <trkpt lat="42.50004" lon="1.88947">
        <ele>2017.94</ele>
        <time>2021-07-07T09:13:24Z</time>
      </trkpt>
      <trkpt lat="42.49992" lon="1.88945">
        <ele>2016.02</ele>
        <time>2021-07-07T09:13:33Z</time>
      </trkpt>
      <trkpt lat="42.49987" lon="1.88947">
        <ele>2014.1</ele>
        <time>2021-07-07T09:13:37Z</time>
      </trkpt>
      <trkpt lat="42.49984" lon="1.88948">
        <ele>2013.62</ele>
        <time>2021-07-07T09:13:39Z</time>
      </trkpt>
      <trkpt lat="42.49973" lon="1.88948">
        <ele>2011.22</ele>
        <time>2021-07-07T09:13:48Z</time>
      </trkpt>
      <trkpt lat="42.49974" lon="1.88949">
        <ele>2011.7</ele>
        <time>2021-07-07T09:13:55Z</time>
      </trkpt>
      <trkpt lat="42.49974" lon="1.8895">
        <ele>2011.7</ele>
        <time>2021-07-07T09:14:06Z</time>
      </trkpt>
      <trkpt lat="42.49974" lon="1.8895">
        <ele>2011.7</ele>
        <time>2021-07-07T09:14:26Z</time>
      </trkpt>
      <trkpt lat="42.49974" lon="1.8895">
        <ele>2011.22</ele>
        <time>2021-07-07T09:14:47Z</time>
      </trkpt>
      <trkpt lat="42.49974" lon="1.88951">
        <ele>2011.22</ele>
        <time>2021-07-07T09:14:57Z</time>
      </trkpt>
      <trkpt lat="42.49975" lon="1.8895">
        <ele>2010.73</ele>
        <time>2021-07-07T09:15:09Z</time>
      </trkpt>
      <trkpt lat="42.49974" lon="1.88951">
        <ele>2011.22</ele>
        <time>2021-07-07T09:15:10Z</time>
      </trkpt>
      <trkpt lat="42.49965" lon="1.8895">
        <ele>2009.29</ele>
        <time>2021-07-07T09:15:17Z</time>
      </trkpt>
      <trkpt lat="42.49955" lon="1.8895">
        <ele>2006.89</ele>
        <time>2021-07-07T09:15:24Z</time>
      </trkpt>
      <trkpt lat="42.49948" lon="1.88949">
        <ele>2005.45</ele>
        <time>2021-07-07T09:15:29Z</time>
      </trkpt>
      <trkpt lat="42.49935" lon="1.88945">
        <ele>2003.04</ele>
        <time>2021-07-07T09:15:38Z</time>
      </trkpt>
      <trkpt lat="42.49924" lon="1.88944">
        <ele>2001.12</ele>
        <time>2021-07-07T09:15:46Z</time>
      </trkpt>
      <trkpt lat="42.49921" lon="1.88944">
        <ele>2001.12</ele>
        <time>2021-07-07T09:15:48Z</time>
      </trkpt>
      <trkpt lat="42.49918" lon="1.88949">
        <ele>2000.16</ele>
        <time>2021-07-07T09:15:52Z</time>
      </trkpt>
      <trkpt lat="42.49916" lon="1.88962">
        <ele>1998.24</ele>
        <time>2021-07-07T09:16:00Z</time>
      </trkpt>
      <trkpt lat="42.49915" lon="1.88975">
        <ele>1996.32</ele>
        <time>2021-07-07T09:16:07Z</time>
      </trkpt>
      <trkpt lat="42.49913" lon="1.88981">
        <ele>1994.39</ele>
        <time>2021-07-07T09:16:11Z</time>
      </trkpt>
      <trkpt lat="42.4991" lon="1.89">
        <ele>1992.47</ele>
        <time>2021-07-07T09:16:20Z</time>
      </trkpt>
      <trkpt lat="42.49904" lon="1.89012">
        <ele>1990.07</ele>
        <time>2021-07-07T09:16:28Z</time>
      </trkpt>
      <trkpt lat="42.49904" lon="1.89012">
        <ele>1990.07</ele>
        <time>2021-07-07T09:16:29Z</time>
      </trkpt>
      <trkpt lat="42.49899" lon="1.89016">
        <ele>1988.14</ele>
        <time>2021-07-07T09:16:33Z</time>
      </trkpt>
      <trkpt lat="42.49896" lon="1.89016">
        <ele>1987.18</ele>
        <time>2021-07-07T09:16:35Z</time>
      </trkpt>
      <trkpt lat="42.49891" lon="1.89018">
        <ele>1986.22</ele>
        <time>2021-07-07T09:16:38Z</time>
      </trkpt>
      <trkpt lat="42.49885" lon="1.89023">
        <ele>1983.82</ele>
        <time>2021-07-07T09:16:44Z</time>
      </trkpt>
      <trkpt lat="42.49875" lon="1.89024">
        <ele>1981.41</ele>
        <time>2021-07-07T09:16:52Z</time>
      </trkpt>
      <trkpt lat="42.49865" lon="1.89028">
        <ele>1978.53</ele>
        <time>2021-07-07T09:17:00Z</time>
      </trkpt>
      <trkpt lat="42.49864" lon="1.89029">
        <ele>1978.53</ele>
        <time>2021-07-07T09:17:01Z</time>
      </trkpt>
      <trkpt lat="42.49863" lon="1.89029">
        <ele>1978.53</ele>
        <time>2021-07-07T09:17:02Z</time>
      </trkpt>
      <trkpt lat="42.49855" lon="1.89031">
        <ele>1976.61</ele>
        <time>2021-07-07T09:17:09Z</time>
      </trkpt>
      <trkpt lat="42.49851" lon="1.89032">
        <ele>1975.17</ele>
        <time>2021-07-07T09:17:12Z</time>
      </trkpt>
      <trkpt lat="42.49845" lon="1.8903">
        <ele>1974.2</ele>
        <time>2021-07-07T09:17:16Z</time>
      </trkpt>
      <trkpt lat="42.4984" lon="1.89028">
        <ele>1973.72</ele>
        <time>2021-07-07T09:17:19Z</time>
      </trkpt>
      <trkpt lat="42.49836" lon="1.89023">
        <ele>1973.24</ele>
        <time>2021-07-07T09:17:26Z</time>
      </trkpt>
      <trkpt lat="42.49835" lon="1.8902">
        <ele>1971.32</ele>
        <time>2021-07-07T09:17:35Z</time>
      </trkpt>
      <trkpt lat="42.49831" lon="1.89011">
        <ele>1969.88</ele>
        <time>2021-07-07T09:17:41Z</time>
      </trkpt>
      <trkpt lat="42.4983" lon="1.8901">
        <ele>1969.4</ele>
        <time>2021-07-07T09:17:42Z</time>
      </trkpt>
      <trkpt lat="42.49829" lon="1.89007">
        <ele>1969.4</ele>
        <time>2021-07-07T09:17:44Z</time>
      </trkpt>
      <trkpt lat="42.49828" lon="1.89005">
        <ele>1968.44</ele>
        <time>2021-07-07T09:17:46Z</time>
      </trkpt>
      <trkpt lat="42.49824" lon="1.88999">
        <ele>1967.48</ele>
        <time>2021-07-07T09:17:50Z</time>
      </trkpt>
      <trkpt lat="42.49813" lon="1.88989">
        <ele>1964.59</ele>
        <time>2021-07-07T09:17:59Z</time>
      </trkpt>
      <trkpt lat="42.49805" lon="1.88981">
        <ele>1962.67</ele>
        <time>2021-07-07T09:18:06Z</time>
      </trkpt>
      <trkpt lat="42.49799" lon="1.88974">
        <ele>1960.75</ele>
        <time>2021-07-07T09:18:12Z</time>
      </trkpt>
      <trkpt lat="42.49787" lon="1.88966">
        <ele>1957.38</ele>
        <time>2021-07-07T09:18:22Z</time>
      </trkpt>
      <trkpt lat="42.49781" lon="1.88961">
        <ele>1955.94</ele>
        <time>2021-07-07T09:18:27Z</time>
      </trkpt>
      <trkpt lat="42.49777" lon="1.88957">
        <ele>1954.5</ele>
        <time>2021-07-07T09:18:31Z</time>
      </trkpt>
      <trkpt lat="42.49767" lon="1.88943">
        <ele>1952.09</ele>
        <time>2021-07-07T09:18:41Z</time>
      </trkpt>
      <trkpt lat="42.49758" lon="1.88934">
        <ele>1949.21</ele>
        <time>2021-07-07T09:18:49Z</time>
      </trkpt>
      <trkpt lat="42.49757" lon="1.88931">
        <ele>1948.73</ele>
        <time>2021-07-07T09:18:51Z</time>
      </trkpt>
      <trkpt lat="42.49748" lon="1.88922">
        <ele>1946.33</ele>
        <time>2021-07-07T09:18:59Z</time>
      </trkpt>
      <trkpt lat="42.49739" lon="1.88915">
        <ele>1944.4</ele>
        <time>2021-07-07T09:19:07Z</time>
      </trkpt>
      <trkpt lat="42.49728" lon="1.88905">
        <ele>1942</ele>
        <time>2021-07-07T09:19:16Z</time>
      </trkpt>
      <trkpt lat="42.49714" lon="1.88901">
        <ele>1938.64</ele>
        <time>2021-07-07T09:19:26Z</time>
      </trkpt>
      <trkpt lat="42.49704" lon="1.88905">
        <ele>1937.19</ele>
        <time>2021-07-07T09:19:34Z</time>
      </trkpt>
      <trkpt lat="42.49699" lon="1.88908">
        <ele>1935.75</ele>
        <time>2021-07-07T09:19:39Z</time>
      </trkpt>
      <trkpt lat="42.49699" lon="1.88908">
        <ele>1935.75</ele>
        <time>2021-07-07T09:19:48Z</time>
      </trkpt>
      <trkpt lat="42.49698" lon="1.88908">
        <ele>1936.23</ele>
        <time>2021-07-07T09:19:50Z</time>
      </trkpt>
      <trkpt lat="42.49692" lon="1.8892">
        <ele>1934.31</ele>
        <time>2021-07-07T09:19:58Z</time>
      </trkpt>
      <trkpt lat="42.49685" lon="1.88931">
        <ele>1932.39</ele>
        <time>2021-07-07T09:20:06Z</time>
      </trkpt>
      <trkpt lat="42.49684" lon="1.88933">
        <ele>1932.39</ele>
        <time>2021-07-07T09:20:07Z</time>
      </trkpt>
      <trkpt lat="42.49677" lon="1.88946">
        <ele>1930.46</ele>
        <time>2021-07-07T09:20:15Z</time>
      </trkpt>
      <trkpt lat="42.49676" lon="1.88964">
        <ele>1927.58</ele>
        <time>2021-07-07T09:20:24Z</time>
      </trkpt>
      <trkpt lat="42.49675" lon="1.88965">
        <ele>1927.1</ele>
        <time>2021-07-07T09:20:25Z</time>
      </trkpt>
      <trkpt lat="42.49672" lon="1.88971">
        <ele>1926.14</ele>
        <time>2021-07-07T09:20:29Z</time>
      </trkpt>
      <trkpt lat="42.49668" lon="1.88983">
        <ele>1924.7</ele>
        <time>2021-07-07T09:20:35Z</time>
      </trkpt>
      <trkpt lat="42.49666" lon="1.88995">
        <ele>1922.77</ele>
        <time>2021-07-07T09:20:42Z</time>
      </trkpt>
      <trkpt lat="42.49667" lon="1.89009">
        <ele>1921.33</ele>
        <time>2021-07-07T09:20:49Z</time>
      </trkpt>
      <trkpt lat="42.49667" lon="1.89024">
        <ele>1919.41</ele>
        <time>2021-07-07T09:20:57Z</time>
      </trkpt>
      <trkpt lat="42.49673" lon="1.89039">
        <ele>1918.45</ele>
        <time>2021-07-07T09:21:05Z</time>
      </trkpt>
      <trkpt lat="42.49676" lon="1.89051">
        <ele>1916.53</ele>
        <time>2021-07-07T09:21:11Z</time>
      </trkpt>
      <trkpt lat="42.49677" lon="1.89059">
        <ele>1916.04</ele>
        <time>2021-07-07T09:21:15Z</time>
      </trkpt>
      <trkpt lat="42.49679" lon="1.89072">
        <ele>1913.16</ele>
        <time>2021-07-07T09:21:22Z</time>
      </trkpt>
      <trkpt lat="42.49679" lon="1.89088">
        <ele>1911.24</ele>
        <time>2021-07-07T09:21:31Z</time>
      </trkpt>
      <trkpt lat="42.49683" lon="1.89102">
        <ele>1909.32</ele>
        <time>2021-07-07T09:21:38Z</time>
      </trkpt>
      <trkpt lat="42.49681" lon="1.89107">
        <ele>1908.35</ele>
        <time>2021-07-07T09:21:42Z</time>
      </trkpt>
      <trkpt lat="42.49676" lon="1.89107">
        <ele>1905.95</ele>
        <time>2021-07-07T09:21:46Z</time>
      </trkpt>
      <trkpt lat="42.49671" lon="1.89109">
        <ele>1905.47</ele>
        <time>2021-07-07T09:21:52Z</time>
      </trkpt>
      <trkpt lat="42.49669" lon="1.89113">
        <ele>1903.55</ele>
        <time>2021-07-07T09:21:56Z</time>
      </trkpt>
      <trkpt lat="42.49667" lon="1.8912">
        <ele>1901.14</ele>
        <time>2021-07-07T09:22:03Z</time>
      </trkpt>
      <trkpt lat="42.49666" lon="1.89127">
        <ele>1898.74</ele>
        <time>2021-07-07T09:22:09Z</time>
      </trkpt>
      <trkpt lat="42.49664" lon="1.8913">
        <ele>1897.78</ele>
        <time>2021-07-07T09:22:11Z</time>
      </trkpt>
      <trkpt lat="42.49662" lon="1.89132">
        <ele>1897.78</ele>
        <time>2021-07-07T09:22:13Z</time>
      </trkpt>
      <trkpt lat="42.49658" lon="1.8914">
        <ele>1895.38</ele>
        <time>2021-07-07T09:22:21Z</time>
      </trkpt>
      <trkpt lat="42.49657" lon="1.89143">
        <ele>1893.93</ele>
        <time>2021-07-07T09:22:26Z</time>
      </trkpt>
      <trkpt lat="42.49656" lon="1.89146">
        <ele>1894.42</ele>
        <time>2021-07-07T09:22:33Z</time>
      </trkpt>
      <trkpt lat="42.49656" lon="1.89146">
        <ele>1892.97</ele>
        <time>2021-07-07T09:22:40Z</time>
      </trkpt>
      <trkpt lat="42.49656" lon="1.89146">
        <ele>1892.97</ele>
        <time>2021-07-07T09:22:41Z</time>
      </trkpt>
      <trkpt lat="42.49651" lon="1.89144">
        <ele>1892.01</ele>
        <time>2021-07-07T09:22:50Z</time>
      </trkpt>
      <trkpt lat="42.49636" lon="1.89139">
        <ele>1889.61</ele>
        <time>2021-07-07T09:23:00Z</time>
      </trkpt>
      <trkpt lat="42.49631" lon="1.89137">
        <ele>1889.13</ele>
        <time>2021-07-07T09:23:07Z</time>
      </trkpt>
      <trkpt lat="42.49632" lon="1.89138">
        <ele>1888.17</ele>
        <time>2021-07-07T09:23:17Z</time>
      </trkpt>
      <trkpt lat="42.49632" lon="1.89138">
        <ele>1888.17</ele>
        <time>2021-07-07T09:23:35Z</time>
      </trkpt>
      <trkpt lat="42.49628" lon="1.89138">
        <ele>1887.69</ele>
        <time>2021-07-07T09:23:44Z</time>
      </trkpt>
      <trkpt lat="42.49621" lon="1.89136">
        <ele>1886.72</ele>
        <time>2021-07-07T09:23:49Z</time>
      </trkpt>
      <trkpt lat="42.49619" lon="1.89135">
        <ele>1886.24</ele>
        <time>2021-07-07T09:23:51Z</time>
      </trkpt>
      <trkpt lat="42.49614" lon="1.89134">
        <ele>1885.28</ele>
        <time>2021-07-07T09:23:54Z</time>
      </trkpt>
      <trkpt lat="42.49604" lon="1.89133">
        <ele>1882.4</ele>
        <time>2021-07-07T09:24:03Z</time>
      </trkpt>
      <trkpt lat="42.496" lon="1.89138">
        <ele>1880.48</ele>
        <time>2021-07-07T09:24:10Z</time>
      </trkpt>
      <trkpt lat="42.496" lon="1.8914">
        <ele>1880.96</ele>
        <time>2021-07-07T09:24:18Z</time>
      </trkpt>
      <trkpt lat="42.49599" lon="1.89138">
        <ele>1881.44</ele>
        <time>2021-07-07T09:24:22Z</time>
      </trkpt>
      <trkpt lat="42.49597" lon="1.89135">
        <ele>1880.48</ele>
        <time>2021-07-07T09:24:25Z</time>
      </trkpt>
      <trkpt lat="42.49588" lon="1.89133">
        <ele>1877.59</ele>
        <time>2021-07-07T09:24:32Z</time>
      </trkpt>
      <trkpt lat="42.49582" lon="1.89133">
        <ele>1876.15</ele>
        <time>2021-07-07T09:24:37Z</time>
      </trkpt>
      <trkpt lat="42.49573" lon="1.89135">
        <ele>1873.27</ele>
        <time>2021-07-07T09:24:44Z</time>
      </trkpt>
      <trkpt lat="42.49562" lon="1.89137">
        <ele>1872.3</ele>
        <time>2021-07-07T09:24:52Z</time>
      </trkpt>
      <trkpt lat="42.49552" lon="1.8914">
        <ele>1871.34</ele>
        <time>2021-07-07T09:24:59Z</time>
      </trkpt>
      <trkpt lat="42.49544" lon="1.89142">
        <ele>1870.38</ele>
        <time>2021-07-07T09:25:07Z</time>
      </trkpt>
      <trkpt lat="42.49543" lon="1.89142">
        <ele>1869.9</ele>
        <time>2021-07-07T09:25:10Z</time>
      </trkpt>
      <trkpt lat="42.49538" lon="1.89142">
        <ele>1868.46</ele>
        <time>2021-07-07T09:25:15Z</time>
      </trkpt>
      <trkpt lat="42.49528" lon="1.89144">
        <ele>1866.06</ele>
        <time>2021-07-07T09:25:22Z</time>
      </trkpt>
      <trkpt lat="42.49527" lon="1.89153">
        <ele>1864.61</ele>
        <time>2021-07-07T09:25:28Z</time>
      </trkpt>
      <trkpt lat="42.49527" lon="1.89164">
        <ele>1863.17</ele>
        <time>2021-07-07T09:25:34Z</time>
      </trkpt>
      <trkpt lat="42.49532" lon="1.89175">
        <ele>1860.77</ele>
        <time>2021-07-07T09:25:41Z</time>
      </trkpt>
      <trkpt lat="42.49534" lon="1.89179">
        <ele>1859.81</ele>
        <time>2021-07-07T09:25:45Z</time>
      </trkpt>
      <trkpt lat="42.4954" lon="1.89186">
        <ele>1857.89</ele>
        <time>2021-07-07T09:25:53Z</time>
      </trkpt>
      <trkpt lat="42.49541" lon="1.89187">
        <ele>1857.4</ele>
        <time>2021-07-07T09:25:54Z</time>
      </trkpt>
      <trkpt lat="42.49554" lon="1.89187">
        <ele>1855</ele>
        <time>2021-07-07T09:26:03Z</time>
      </trkpt>
      <trkpt lat="42.49559" lon="1.89188">
        <ele>1853.56</ele>
        <time>2021-07-07T09:26:09Z</time>
      </trkpt>
      <trkpt lat="42.49561" lon="1.89189">
        <ele>1852.12</ele>
        <time>2021-07-07T09:26:12Z</time>
      </trkpt>
      <trkpt lat="42.49573" lon="1.89204">
        <ele>1850.68</ele>
        <time>2021-07-07T09:26:21Z</time>
      </trkpt>
      <trkpt lat="42.49576" lon="1.89207">
        <ele>1850.19</ele>
        <time>2021-07-07T09:26:23Z</time>
      </trkpt>
      <trkpt lat="42.49579" lon="1.89209">
        <ele>1848.75</ele>
        <time>2021-07-07T09:26:26Z</time>
      </trkpt>
      <trkpt lat="42.49581" lon="1.89217">
        <ele>1845.87</ele>
        <time>2021-07-07T09:26:32Z</time>
      </trkpt>
      <trkpt lat="42.49579" lon="1.89218">
        <ele>1845.87</ele>
        <time>2021-07-07T09:26:34Z</time>
      </trkpt>
      <trkpt lat="42.49571" lon="1.89219">
        <ele>1842.98</ele>
        <time>2021-07-07T09:26:41Z</time>
      </trkpt>
      <trkpt lat="42.49568" lon="1.89222">
        <ele>1842.98</ele>
        <time>2021-07-07T09:26:48Z</time>
      </trkpt>
      <trkpt lat="42.49567" lon="1.89222">
        <ele>1842.5</ele>
        <time>2021-07-07T09:26:49Z</time>
      </trkpt>
      <trkpt lat="42.49561" lon="1.89223">
        <ele>1841.54</ele>
        <time>2021-07-07T09:26:53Z</time>
      </trkpt>
      <trkpt lat="42.49558" lon="1.89224">
        <ele>1841.06</ele>
        <time>2021-07-07T09:26:55Z</time>
      </trkpt>
      <trkpt lat="42.49548" lon="1.89228">
        <ele>1837.7</ele>
        <time>2021-07-07T09:27:03Z</time>
      </trkpt>
      <trkpt lat="42.49547" lon="1.89229">
        <ele>1837.22</ele>
        <time>2021-07-07T09:27:04Z</time>
      </trkpt>
      <trkpt lat="42.49546" lon="1.89232">
        <ele>1836.26</ele>
        <time>2021-07-07T09:27:06Z</time>
      </trkpt>
      <trkpt lat="42.49549" lon="1.89243">
        <ele>1835.29</ele>
        <time>2021-07-07T09:27:12Z</time>
      </trkpt>
      <trkpt lat="42.49558" lon="1.89251">
        <ele>1832.89</ele>
        <time>2021-07-07T09:27:20Z</time>
      </trkpt>
      <trkpt lat="42.49564" lon="1.89258">
        <ele>1831.93</ele>
        <time>2021-07-07T09:27:26Z</time>
      </trkpt>
      <trkpt lat="42.49574" lon="1.89263">
        <ele>1829.53</ele>
        <time>2021-07-07T09:27:33Z</time>
      </trkpt>
      <trkpt lat="42.49571" lon="1.89272">
        <ele>1827.12</ele>
        <time>2021-07-07T09:27:38Z</time>
      </trkpt>
      <trkpt lat="42.49569" lon="1.89279">
        <ele>1825.2</ele>
        <time>2021-07-07T09:27:43Z</time>
      </trkpt>
      <trkpt lat="42.49569" lon="1.8928">
        <ele>1825.68</ele>
        <time>2021-07-07T09:27:50Z</time>
      </trkpt>
      <trkpt lat="42.49569" lon="1.89281">
        <ele>1825.68</ele>
        <time>2021-07-07T09:28:04Z</time>
      </trkpt>
      <trkpt lat="42.49569" lon="1.89281">
        <ele>1825.2</ele>
        <time>2021-07-07T09:28:15Z</time>
      </trkpt>
      <trkpt lat="42.49568" lon="1.89283">
        <ele>1824.24</ele>
        <time>2021-07-07T09:28:18Z</time>
      </trkpt>
      <trkpt lat="42.49568" lon="1.89291">
        <ele>1822.32</ele>
        <time>2021-07-07T09:28:25Z</time>
      </trkpt>
      <trkpt lat="42.49566" lon="1.89298">
        <ele>1818.95</ele>
        <time>2021-07-07T09:28:29Z</time>
      </trkpt>
      <trkpt lat="42.49562" lon="1.89314">
        <ele>1816.07</ele>
        <time>2021-07-07T09:28:37Z</time>
      </trkpt>
      <trkpt lat="42.49562" lon="1.89319">
        <ele>1814.63</ele>
        <time>2021-07-07T09:28:41Z</time>
      </trkpt>
      <trkpt lat="42.49562" lon="1.8932">
        <ele>1814.15</ele>
        <time>2021-07-07T09:28:42Z</time>
      </trkpt>
      <trkpt lat="42.49561" lon="1.89336">
        <ele>1812.7</ele>
        <time>2021-07-07T09:28:51Z</time>
      </trkpt>
      <trkpt lat="42.4956" lon="1.89342">
        <ele>1809.82</ele>
        <time>2021-07-07T09:28:55Z</time>
      </trkpt>
      <trkpt lat="42.49559" lon="1.89355">
        <ele>1807.9</ele>
        <time>2021-07-07T09:29:01Z</time>
      </trkpt>
      <trkpt lat="42.49557" lon="1.8936">
        <ele>1806.45</ele>
        <time>2021-07-07T09:29:06Z</time>
      </trkpt>
      <trkpt lat="42.49556" lon="1.89361">
        <ele>1805.97</ele>
        <time>2021-07-07T09:29:10Z</time>
      </trkpt>
      <trkpt lat="42.49553" lon="1.89362">
        <ele>1805.01</ele>
        <time>2021-07-07T09:29:13Z</time>
      </trkpt>
      <trkpt lat="42.49546" lon="1.89369">
        <ele>1803.09</ele>
        <time>2021-07-07T09:29:20Z</time>
      </trkpt>
      <trkpt lat="42.49542" lon="1.89374">
        <ele>1800.21</ele>
        <time>2021-07-07T09:29:25Z</time>
      </trkpt>
      <trkpt lat="42.49539" lon="1.8938">
        <ele>1797.8</ele>
        <time>2021-07-07T09:29:31Z</time>
      </trkpt>
      <trkpt lat="42.49539" lon="1.89382">
        <ele>1797.8</ele>
        <time>2021-07-07T09:29:32Z</time>
      </trkpt>
      <trkpt lat="42.49538" lon="1.89385">
        <ele>1796.84</ele>
        <time>2021-07-07T09:29:35Z</time>
      </trkpt>
      <trkpt lat="42.49535" lon="1.8939">
        <ele>1794.92</ele>
        <time>2021-07-07T09:29:39Z</time>
      </trkpt>
      <trkpt lat="42.49529" lon="1.89401">
        <ele>1793</ele>
        <time>2021-07-07T09:29:46Z</time>
      </trkpt>
      <trkpt lat="42.49529" lon="1.89403">
        <ele>1792.03</ele>
        <time>2021-07-07T09:29:48Z</time>
      </trkpt>
      <trkpt lat="42.49522" lon="1.8941">
        <ele>1790.11</ele>
        <time>2021-07-07T09:29:54Z</time>
      </trkpt>
      <trkpt lat="42.49517" lon="1.89411">
        <ele>1789.15</ele>
        <time>2021-07-07T09:29:57Z</time>
      </trkpt>
      <trkpt lat="42.49513" lon="1.89411">
        <ele>1788.67</ele>
        <time>2021-07-07T09:30:00Z</time>
      </trkpt>
      <trkpt lat="42.49509" lon="1.89411">
        <ele>1786.75</ele>
        <time>2021-07-07T09:30:07Z</time>
      </trkpt>
      <trkpt lat="42.49508" lon="1.89413">
        <ele>1786.27</ele>
        <time>2021-07-07T09:30:08Z</time>
      </trkpt>
      <trkpt lat="42.49508" lon="1.89415">
        <ele>1785.79</ele>
        <time>2021-07-07T09:30:11Z</time>
      </trkpt>
      <trkpt lat="42.49507" lon="1.89421">
        <ele>1783.86</ele>
        <time>2021-07-07T09:30:16Z</time>
      </trkpt>
      <trkpt lat="42.49502" lon="1.89425">
        <ele>1780.98</ele>
        <time>2021-07-07T09:30:22Z</time>
      </trkpt>
      <trkpt lat="42.49499" lon="1.89427">
        <ele>1779.54</ele>
        <time>2021-07-07T09:30:26Z</time>
      </trkpt>
      <trkpt lat="42.49491" lon="1.89424">
        <ele>1778.58</ele>
        <time>2021-07-07T09:30:34Z</time>
      </trkpt>
      <trkpt lat="42.49491" lon="1.89423">
        <ele>1778.58</ele>
        <time>2021-07-07T09:30:35Z</time>
      </trkpt>
      <trkpt lat="42.49486" lon="1.89421">
        <ele>1777.13</ele>
        <time>2021-07-07T09:30:43Z</time>
      </trkpt>
      <trkpt lat="42.49486" lon="1.89422">
        <ele>1777.61</ele>
        <time>2021-07-07T09:30:44Z</time>
      </trkpt>
      <trkpt lat="42.49481" lon="1.89425">
        <ele>1776.17</ele>
        <time>2021-07-07T09:30:50Z</time>
      </trkpt>
      <trkpt lat="42.49475" lon="1.89433">
        <ele>1773.29</ele>
        <time>2021-07-07T09:30:57Z</time>
      </trkpt>
      <trkpt lat="42.49472" lon="1.89442">
        <ele>1771.85</ele>
        <time>2021-07-07T09:31:04Z</time>
      </trkpt>
      <trkpt lat="42.49472" lon="1.89443">
        <ele>1771.85</ele>
        <time>2021-07-07T09:31:05Z</time>
      </trkpt>
      <trkpt lat="42.49469" lon="1.8945">
        <ele>1769.44</ele>
        <time>2021-07-07T09:31:10Z</time>
      </trkpt>
      <trkpt lat="42.49467" lon="1.89454">
        <ele>1767.52</ele>
        <time>2021-07-07T09:31:12Z</time>
      </trkpt>
      <trkpt lat="42.49462" lon="1.89465">
        <ele>1765.12</ele>
        <time>2021-07-07T09:31:20Z</time>
      </trkpt>
      <trkpt lat="42.49459" lon="1.89468">
        <ele>1762.71</ele>
        <time>2021-07-07T09:31:23Z</time>
      </trkpt>
      <trkpt lat="42.49449" lon="1.89475">
        <ele>1760.31</ele>
        <time>2021-07-07T09:31:31Z</time>
      </trkpt>
      <trkpt lat="42.49447" lon="1.89476">
        <ele>1759.35</ele>
        <time>2021-07-07T09:31:33Z</time>
      </trkpt>
      <trkpt lat="42.49446" lon="1.89477">
        <ele>1759.35</ele>
        <time>2021-07-07T09:31:34Z</time>
      </trkpt>
      <trkpt lat="42.49441" lon="1.89484">
        <ele>1758.87</ele>
        <time>2021-07-07T09:31:38Z</time>
      </trkpt>
      <trkpt lat="42.49438" lon="1.8949">
        <ele>1757.43</ele>
        <time>2021-07-07T09:31:41Z</time>
      </trkpt>
      <trkpt lat="42.49431" lon="1.89503">
        <ele>1754.54</ele>
        <time>2021-07-07T09:31:49Z</time>
      </trkpt>
      <trkpt lat="42.49424" lon="1.89514">
        <ele>1752.62</ele>
        <time>2021-07-07T09:31:57Z</time>
      </trkpt>
      <trkpt lat="42.49419" lon="1.89525">
        <ele>1750.7</ele>
        <time>2021-07-07T09:32:04Z</time>
      </trkpt>
      <trkpt lat="42.49416" lon="1.89539">
        <ele>1747.81</ele>
        <time>2021-07-07T09:32:11Z</time>
      </trkpt>
      <trkpt lat="42.49413" lon="1.89556">
        <ele>1744.45</ele>
        <time>2021-07-07T09:32:19Z</time>
      </trkpt>
      <trkpt lat="42.49411" lon="1.89567">
        <ele>1743.49</ele>
        <time>2021-07-07T09:32:24Z</time>
      </trkpt>
      <trkpt lat="42.4941" lon="1.89583">
        <ele>1742.05</ele>
        <time>2021-07-07T09:32:31Z</time>
      </trkpt>
      <trkpt lat="42.49406" lon="1.89592">
        <ele>1739.16</ele>
        <time>2021-07-07T09:32:37Z</time>
      </trkpt>
      <trkpt lat="42.49394" lon="1.89603">
        <ele>1737.72</ele>
        <time>2021-07-07T09:32:47Z</time>
      </trkpt>
      <trkpt lat="42.49385" lon="1.89609">
        <ele>1734.84</ele>
        <time>2021-07-07T09:32:54Z</time>
      </trkpt>
      <trkpt lat="42.49377" lon="1.89618">
        <ele>1734.36</ele>
        <time>2021-07-07T09:33:01Z</time>
      </trkpt>
      <trkpt lat="42.49374" lon="1.89624">
        <ele>1732.43</ele>
        <time>2021-07-07T09:33:05Z</time>
      </trkpt>
      <trkpt lat="42.49371" lon="1.89639">
        <ele>1730.51</ele>
        <time>2021-07-07T09:33:13Z</time>
      </trkpt>
      <trkpt lat="42.49363" lon="1.89652">
        <ele>1727.15</ele>
        <time>2021-07-07T09:33:21Z</time>
      </trkpt>
      <trkpt lat="42.49361" lon="1.89655">
        <ele>1726.18</ele>
        <time>2021-07-07T09:33:23Z</time>
      </trkpt>
      <trkpt lat="42.4936" lon="1.89659">
        <ele>1725.7</ele>
        <time>2021-07-07T09:33:25Z</time>
      </trkpt>
      <trkpt lat="42.4936" lon="1.89669">
        <ele>1722.82</ele>
        <time>2021-07-07T09:33:31Z</time>
      </trkpt>
      <trkpt lat="42.49352" lon="1.89678">
        <ele>1722.34</ele>
        <time>2021-07-07T09:33:37Z</time>
      </trkpt>
      <trkpt lat="42.49346" lon="1.89679">
        <ele>1721.38</ele>
        <time>2021-07-07T09:33:41Z</time>
      </trkpt>
      <trkpt lat="42.49333" lon="1.89685">
        <ele>1720.42</ele>
        <time>2021-07-07T09:33:50Z</time>
      </trkpt>
      <trkpt lat="42.49332" lon="1.89686">
        <ele>1720.42</ele>
        <time>2021-07-07T09:33:57Z</time>
      </trkpt>
      <trkpt lat="42.49331" lon="1.89687">
        <ele>1720.42</ele>
        <time>2021-07-07T09:34:04Z</time>
      </trkpt>
      <trkpt lat="42.4933" lon="1.89687">
        <ele>1720.9</ele>
        <time>2021-07-07T09:34:18Z</time>
      </trkpt>
      <trkpt lat="42.4933" lon="1.89687">
        <ele>1720.9</ele>
        <time>2021-07-07T09:34:19Z</time>
      </trkpt>
      <trkpt lat="42.49324" lon="1.89686">
        <ele>1719.94</ele>
        <time>2021-07-07T09:34:24Z</time>
      </trkpt>
      <trkpt lat="42.4932" lon="1.89685">
        <ele>1719.46</ele>
        <time>2021-07-07T09:34:27Z</time>
      </trkpt>
      <trkpt lat="42.49318" lon="1.89682">
        <ele>1719.94</ele>
        <time>2021-07-07T09:34:34Z</time>
      </trkpt>
      <trkpt lat="42.49318" lon="1.8968">
        <ele>1720.42</ele>
        <time>2021-07-07T09:34:43Z</time>
      </trkpt>
      <trkpt lat="42.49318" lon="1.89679">
        <ele>1719.94</ele>
        <time>2021-07-07T09:34:53Z</time>
      </trkpt>
      <trkpt lat="42.49319" lon="1.89681">
        <ele>1719.46</ele>
        <time>2021-07-07T09:35:00Z</time>
      </trkpt>
      <trkpt lat="42.49322" lon="1.89686">
        <ele>1719.94</ele>
        <time>2021-07-07T09:35:07Z</time>
      </trkpt>
      <trkpt lat="42.49321" lon="1.89686">
        <ele>1719.46</ele>
        <time>2021-07-07T09:35:10Z</time>
      </trkpt>
      <trkpt lat="42.49318" lon="1.89682">
        <ele>1719.46</ele>
        <time>2021-07-07T09:35:18Z</time>
      </trkpt>
      <trkpt lat="42.49317" lon="1.89682">
        <ele>1719.46</ele>
        <time>2021-07-07T09:35:28Z</time>
      </trkpt>
      <trkpt lat="42.49317" lon="1.89681">
        <ele>1719.46</ele>
        <time>2021-07-07T09:35:39Z</time>
      </trkpt>
      <trkpt lat="42.49317" lon="1.8968">
        <ele>1719.46</ele>
        <time>2021-07-07T09:35:50Z</time>
      </trkpt>
      <trkpt lat="42.49317" lon="1.8968">
        <ele>1719.46</ele>
        <time>2021-07-07T09:36:02Z</time>
      </trkpt>
      <trkpt lat="42.49318" lon="1.89679">
        <ele>1718.97</ele>
        <time>2021-07-07T09:36:10Z</time>
      </trkpt>
      <trkpt lat="42.49317" lon="1.89679">
        <ele>1719.46</ele>
        <time>2021-07-07T09:36:21Z</time>
      </trkpt>
      <trkpt lat="42.49316" lon="1.89681">
        <ele>1718.49</ele>
        <time>2021-07-07T09:36:23Z</time>
      </trkpt>
      <trkpt lat="42.49312" lon="1.89681">
        <ele>1718.01</ele>
        <time>2021-07-07T09:36:30Z</time>
      </trkpt>
      <trkpt lat="42.49312" lon="1.89681">
        <ele>1718.01</ele>
        <time>2021-07-07T09:36:38Z</time>
      </trkpt>
      <trkpt lat="42.49312" lon="1.89682">
        <ele>1717.53</ele>
        <time>2021-07-07T09:36:46Z</time>
      </trkpt>
      <trkpt lat="42.49312" lon="1.89682">
        <ele>1717.53</ele>
        <time>2021-07-07T09:36:59Z</time>
      </trkpt>
      <trkpt lat="42.49312" lon="1.89683">
        <ele>1717.53</ele>
        <time>2021-07-07T09:37:09Z</time>
      </trkpt>
      <trkpt lat="42.49312" lon="1.89683">
        <ele>1717.53</ele>
        <time>2021-07-07T09:37:17Z</time>
      </trkpt>
      <trkpt lat="42.49311" lon="1.89683">
        <ele>1717.05</ele>
        <time>2021-07-07T09:37:22Z</time>
      </trkpt>
      <trkpt lat="42.493" lon="1.89685">
        <ele>1717.05</ele>
        <time>2021-07-07T09:37:30Z</time>
      </trkpt>
      <trkpt lat="42.49289" lon="1.89689">
        <ele>1716.09</ele>
        <time>2021-07-07T09:37:37Z</time>
      </trkpt>
      <trkpt lat="42.49286" lon="1.89689">
        <ele>1715.61</ele>
        <time>2021-07-07T09:37:39Z</time>
      </trkpt>
      <trkpt lat="42.4928" lon="1.89696">
        <ele>1714.65</ele>
        <time>2021-07-07T09:37:44Z</time>
      </trkpt>
      <trkpt lat="42.49273" lon="1.89701">
        <ele>1712.73</ele>
        <time>2021-07-07T09:37:50Z</time>
      </trkpt>
      <trkpt lat="42.49267" lon="1.89706">
        <ele>1712.25</ele>
        <time>2021-07-07T09:37:56Z</time>
      </trkpt>
      <trkpt lat="42.49265" lon="1.89708">
        <ele>1711.28</ele>
        <time>2021-07-07T09:37:58Z</time>
      </trkpt>
      <trkpt lat="42.49258" lon="1.89714">
        <ele>1710.32</ele>
        <time>2021-07-07T09:38:04Z</time>
      </trkpt>
      <trkpt lat="42.49251" lon="1.89723">
        <ele>1708.88</ele>
        <time>2021-07-07T09:38:11Z</time>
      </trkpt>
      <trkpt lat="42.49248" lon="1.89727">
        <ele>1707.92</ele>
        <time>2021-07-07T09:38:17Z</time>
      </trkpt>
      <trkpt lat="42.49245" lon="1.89728">
        <ele>1707.92</ele>
        <time>2021-07-07T09:38:23Z</time>
      </trkpt>
      <trkpt lat="42.49235" lon="1.89741">
        <ele>1706</ele>
        <time>2021-07-07T09:38:31Z</time>
      </trkpt>
      <trkpt lat="42.49233" lon="1.89746">
        <ele>1706</ele>
        <time>2021-07-07T09:38:33Z</time>
      </trkpt>
      <trkpt lat="42.49231" lon="1.89747">
        <ele>1705.04</ele>
        <time>2021-07-07T09:38:37Z</time>
      </trkpt>
      <trkpt lat="42.49225" lon="1.89752">
        <ele>1704.07</ele>
        <time>2021-07-07T09:38:43Z</time>
      </trkpt>
      <trkpt lat="42.49222" lon="1.89752">
        <ele>1704.07</ele>
        <time>2021-07-07T09:38:49Z</time>
      </trkpt>
      <trkpt lat="42.49221" lon="1.89755">
        <ele>1704.07</ele>
        <time>2021-07-07T09:39:00Z</time>
      </trkpt>
      <trkpt lat="42.49221" lon="1.89756">
        <ele>1703.59</ele>
        <time>2021-07-07T09:39:14Z</time>
      </trkpt>
      <trkpt lat="42.49221" lon="1.89757">
        <ele>1703.59</ele>
        <time>2021-07-07T09:39:30Z</time>
      </trkpt>
      <trkpt lat="42.49221" lon="1.89759">
        <ele>1703.59</ele>
        <time>2021-07-07T09:39:44Z</time>
      </trkpt>
      <trkpt lat="42.49219" lon="1.8976">
        <ele>1703.11</ele>
        <time>2021-07-07T09:39:51Z</time>
      </trkpt>
      <trkpt lat="42.49217" lon="1.89761">
        <ele>1703.11</ele>
        <time>2021-07-07T09:39:53Z</time>
      </trkpt>
      <trkpt lat="42.49207" lon="1.89763">
        <ele>1702.15</ele>
        <time>2021-07-07T09:40:00Z</time>
      </trkpt>
      <trkpt lat="42.49198" lon="1.89769">
        <ele>1702.15</ele>
        <time>2021-07-07T09:40:07Z</time>
      </trkpt>
      <trkpt lat="42.49187" lon="1.89773">
        <ele>1701.67</ele>
        <time>2021-07-07T09:40:14Z</time>
      </trkpt>
      <trkpt lat="42.49184" lon="1.89774">
        <ele>1701.67</ele>
        <time>2021-07-07T09:40:16Z</time>
      </trkpt>
      <trkpt lat="42.49169" lon="1.8978">
        <ele>1701.67</ele>
        <time>2021-07-07T09:40:25Z</time>
      </trkpt>
      <trkpt lat="42.49163" lon="1.89782">
        <ele>1702.15</ele>
        <time>2021-07-07T09:40:29Z</time>
      </trkpt>
      <trkpt lat="42.49157" lon="1.89782">
        <ele>1702.15</ele>
        <time>2021-07-07T09:40:33Z</time>
      </trkpt>
      <trkpt lat="42.49147" lon="1.89789">
        <ele>1702.15</ele>
        <time>2021-07-07T09:40:39Z</time>
      </trkpt>
      <trkpt lat="42.49132" lon="1.89797">
        <ele>1702.63</ele>
        <time>2021-07-07T09:40:48Z</time>
      </trkpt>
      <trkpt lat="42.49127" lon="1.89796">
        <ele>1703.11</ele>
        <time>2021-07-07T09:40:51Z</time>
      </trkpt>
      <trkpt lat="42.49119" lon="1.89788">
        <ele>1703.59</ele>
        <time>2021-07-07T09:40:57Z</time>
      </trkpt>
      <trkpt lat="42.49111" lon="1.89779">
        <ele>1704.55</ele>
        <time>2021-07-07T09:41:04Z</time>
      </trkpt>
      <trkpt lat="42.49105" lon="1.89768">
        <ele>1705.52</ele>
        <time>2021-07-07T09:41:11Z</time>
      </trkpt>
      <trkpt lat="42.49095" lon="1.8976">
        <ele>1704.55</ele>
        <time>2021-07-07T09:41:18Z</time>
      </trkpt>
      <trkpt lat="42.49091" lon="1.89751">
        <ele>1703.11</ele>
        <time>2021-07-07T09:41:24Z</time>
      </trkpt>
      <trkpt lat="42.49088" lon="1.89747">
        <ele>1701.67</ele>
        <time>2021-07-07T09:41:27Z</time>
      </trkpt>
      <trkpt lat="42.49078" lon="1.89739">
        <ele>1700.71</ele>
        <time>2021-07-07T09:41:34Z</time>
      </trkpt>
      <trkpt lat="42.49073" lon="1.89734">
        <ele>1702.15</ele>
        <time>2021-07-07T09:41:41Z</time>
      </trkpt>
      <trkpt lat="42.49073" lon="1.89734">
        <ele>1701.67</ele>
        <time>2021-07-07T09:41:42Z</time>
      </trkpt>
      <trkpt lat="42.49067" lon="1.89724">
        <ele>1699.27</ele>
        <time>2021-07-07T09:41:48Z</time>
      </trkpt>
      <trkpt lat="42.49055" lon="1.8971">
        <ele>1697.83</ele>
        <time>2021-07-07T09:41:57Z</time>
      </trkpt>
      <trkpt lat="42.49045" lon="1.897">
        <ele>1699.75</ele>
        <time>2021-07-07T09:42:05Z</time>
      </trkpt>
      <trkpt lat="42.49039" lon="1.89698">
        <ele>1699.75</ele>
        <time>2021-07-07T09:42:10Z</time>
      </trkpt>
      <trkpt lat="42.49033" lon="1.89696">
        <ele>1699.75</ele>
        <time>2021-07-07T09:42:15Z</time>
      </trkpt>
      <trkpt lat="42.49023" lon="1.89686">
        <ele>1700.23</ele>
        <time>2021-07-07T09:42:23Z</time>
      </trkpt>
      <trkpt lat="42.49014" lon="1.89678">
        <ele>1700.23</ele>
        <time>2021-07-07T09:42:30Z</time>
      </trkpt>
      <trkpt lat="42.49004" lon="1.89672">
        <ele>1700.23</ele>
        <time>2021-07-07T09:42:37Z</time>
      </trkpt>
      <trkpt lat="42.48991" lon="1.8966">
        <ele>1700.23</ele>
        <time>2021-07-07T09:42:47Z</time>
      </trkpt>
      <trkpt lat="42.48981" lon="1.89652">
        <ele>1700.23</ele>
        <time>2021-07-07T09:42:55Z</time>
      </trkpt>
      <trkpt lat="42.48977" lon="1.89651">
        <ele>1700.23</ele>
        <time>2021-07-07T09:42:58Z</time>
      </trkpt>
      <trkpt lat="42.48975" lon="1.89649">
        <ele>1700.23</ele>
        <time>2021-07-07T09:43:06Z</time>
      </trkpt>
      <trkpt lat="42.48975" lon="1.89649">
        <ele>1701.19</ele>
        <time>2021-07-07T09:43:24Z</time>
      </trkpt>
      <trkpt lat="42.48974" lon="1.89649">
        <ele>1700.23</ele>
        <time>2021-07-07T09:43:37Z</time>
      </trkpt>
      <trkpt lat="42.48968" lon="1.89645">
        <ele>1699.27</ele>
        <time>2021-07-07T09:43:42Z</time>
      </trkpt>
      <trkpt lat="42.48958" lon="1.89633">
        <ele>1698.79</ele>
        <time>2021-07-07T09:43:50Z</time>
      </trkpt>
      <trkpt lat="42.48951" lon="1.89622">
        <ele>1697.34</ele>
        <time>2021-07-07T09:43:58Z</time>
      </trkpt>
      <trkpt lat="42.48943" lon="1.89606">
        <ele>1694.46</ele>
        <time>2021-07-07T09:44:06Z</time>
      </trkpt>
      <trkpt lat="42.48932" lon="1.89601">
        <ele>1694.46</ele>
        <time>2021-07-07T09:44:13Z</time>
      </trkpt>
      <trkpt lat="42.48919" lon="1.89597">
        <ele>1693.02</ele>
        <time>2021-07-07T09:44:23Z</time>
      </trkpt>
      <trkpt lat="42.48909" lon="1.89588">
        <ele>1691.58</ele>
        <time>2021-07-07T09:44:32Z</time>
      </trkpt>
      <trkpt lat="42.48909" lon="1.89584">
        <ele>1692.06</ele>
        <time>2021-07-07T09:44:41Z</time>
      </trkpt>
      <trkpt lat="42.48909" lon="1.89586">
        <ele>1692.06</ele>
        <time>2021-07-07T09:44:50Z</time>
      </trkpt>
      <trkpt lat="42.48905" lon="1.89581">
        <ele>1690.62</ele>
        <time>2021-07-07T09:44:57Z</time>
      </trkpt>
      <trkpt lat="42.48902" lon="1.89579">
        <ele>1693.5</ele>
        <time>2021-07-07T09:45:05Z</time>
      </trkpt>
      <trkpt lat="42.48902" lon="1.89579">
        <ele>1689.17</ele>
        <time>2021-07-07T09:45:09Z</time>
      </trkpt>
      <trkpt lat="42.48902" lon="1.89579">
        <ele>1692.54</ele>
        <time>2021-07-07T09:45:10Z</time>
      </trkpt>
      <trkpt lat="42.48902" lon="1.89579">
        <ele>1691.58</ele>
        <time>2021-07-07T09:45:22Z</time>
      </trkpt>
      <trkpt lat="42.489" lon="1.89572">
        <ele>1691.1</ele>
        <time>2021-07-07T09:45:26Z</time>
      </trkpt>
      <trkpt lat="42.48896" lon="1.89555">
        <ele>1689.17</ele>
        <time>2021-07-07T09:45:34Z</time>
      </trkpt>
      <trkpt lat="42.48898" lon="1.89541">
        <ele>1688.21</ele>
        <time>2021-07-07T09:45:41Z</time>
      </trkpt>
      <trkpt lat="42.48898" lon="1.89539">
        <ele>1687.73</ele>
        <time>2021-07-07T09:45:42Z</time>
      </trkpt>
      <trkpt lat="42.48894" lon="1.89526">
        <ele>1685.33</ele>
        <time>2021-07-07T09:45:49Z</time>
      </trkpt>
      <trkpt lat="42.48887" lon="1.89519">
        <ele>1683.89</ele>
        <time>2021-07-07T09:45:55Z</time>
      </trkpt>
      <trkpt lat="42.4888" lon="1.89512">
        <ele>1682.44</ele>
        <time>2021-07-07T09:46:01Z</time>
      </trkpt>
      <trkpt lat="42.48875" lon="1.89501">
        <ele>1680.52</ele>
        <time>2021-07-07T09:46:09Z</time>
      </trkpt>
      <trkpt lat="42.48875" lon="1.89499">
        <ele>1680.52</ele>
        <time>2021-07-07T09:46:10Z</time>
      </trkpt>
      <trkpt lat="42.48872" lon="1.89497">
        <ele>1679.08</ele>
        <time>2021-07-07T09:46:13Z</time>
      </trkpt>
      <trkpt lat="42.48865" lon="1.89487">
        <ele>1678.12</ele>
        <time>2021-07-07T09:46:21Z</time>
      </trkpt>
      <trkpt lat="42.48864" lon="1.89486">
        <ele>1678.6</ele>
        <time>2021-07-07T09:46:22Z</time>
      </trkpt>
      <trkpt lat="42.48863" lon="1.8948">
        <ele>1676.68</ele>
        <time>2021-07-07T09:46:25Z</time>
      </trkpt>
      <trkpt lat="42.48858" lon="1.89465">
        <ele>1674.75</ele>
        <time>2021-07-07T09:46:32Z</time>
      </trkpt>
      <trkpt lat="42.48856" lon="1.89458">
        <ele>1674.27</ele>
        <time>2021-07-07T09:46:36Z</time>
      </trkpt>
      <trkpt lat="42.48856" lon="1.89453">
        <ele>1673.79</ele>
        <time>2021-07-07T09:46:39Z</time>
      </trkpt>
      <trkpt lat="42.48854" lon="1.89445">
        <ele>1671.87</ele>
        <time>2021-07-07T09:46:44Z</time>
      </trkpt>
      <trkpt lat="42.48852" lon="1.89436">
        <ele>1671.39</ele>
        <time>2021-07-07T09:46:50Z</time>
      </trkpt>
      <trkpt lat="42.48847" lon="1.89425">
        <ele>1670.91</ele>
        <time>2021-07-07T09:46:58Z</time>
      </trkpt>
      <trkpt lat="42.48845" lon="1.89423">
        <ele>1670.43</ele>
        <time>2021-07-07T09:47:04Z</time>
      </trkpt>
      <trkpt lat="42.48843" lon="1.89415">
        <ele>1669.47</ele>
        <time>2021-07-07T09:47:09Z</time>
      </trkpt>
      <trkpt lat="42.4884" lon="1.89409">
        <ele>1667.54</ele>
        <time>2021-07-07T09:47:14Z</time>
      </trkpt>
      <trkpt lat="42.48836" lon="1.89396">
        <ele>1666.58</ele>
        <time>2021-07-07T09:47:22Z</time>
      </trkpt>
      <trkpt lat="42.48834" lon="1.89394">
        <ele>1666.1</ele>
        <time>2021-07-07T09:47:25Z</time>
      </trkpt>
      <trkpt lat="42.48832" lon="1.89392">
        <ele>1665.14</ele>
        <time>2021-07-07T09:47:28Z</time>
      </trkpt>
      <trkpt lat="42.48828" lon="1.89385">
        <ele>1663.7</ele>
        <time>2021-07-07T09:47:34Z</time>
      </trkpt>
      <trkpt lat="42.48821" lon="1.8938">
        <ele>1662.26</ele>
        <time>2021-07-07T09:47:41Z</time>
      </trkpt>
      <trkpt lat="42.48817" lon="1.89372">
        <ele>1660.33</ele>
        <time>2021-07-07T09:47:47Z</time>
      </trkpt>
      <trkpt lat="42.48811" lon="1.8937">
        <ele>1658.41</ele>
        <time>2021-07-07T09:47:52Z</time>
      </trkpt>
      <trkpt lat="42.48808" lon="1.89369">
        <ele>1657.45</ele>
        <time>2021-07-07T09:47:54Z</time>
      </trkpt>
      <trkpt lat="42.48802" lon="1.8936">
        <ele>1655.53</ele>
        <time>2021-07-07T09:48:01Z</time>
      </trkpt>
      <trkpt lat="42.488" lon="1.89357">
        <ele>1655.05</ele>
        <time>2021-07-07T09:48:03Z</time>
      </trkpt>
      <trkpt lat="42.48794" lon="1.8934">
        <ele>1653.6</ele>
        <time>2021-07-07T09:48:12Z</time>
      </trkpt>
      <trkpt lat="42.4879" lon="1.89323">
        <ele>1651.68</ele>
        <time>2021-07-07T09:48:21Z</time>
      </trkpt>
      <trkpt lat="42.48789" lon="1.89318">
        <ele>1651.2</ele>
        <time>2021-07-07T09:48:25Z</time>
      </trkpt>
      <trkpt lat="42.48785" lon="1.89314">
        <ele>1649.76</ele>
        <time>2021-07-07T09:48:29Z</time>
      </trkpt>
      <trkpt lat="42.48776" lon="1.89306">
        <ele>1646.88</ele>
        <time>2021-07-07T09:48:37Z</time>
      </trkpt>
      <trkpt lat="42.48773" lon="1.89303">
        <ele>1646.88</ele>
        <time>2021-07-07T09:48:40Z</time>
      </trkpt>
      <trkpt lat="42.48761" lon="1.89295">
        <ele>1643.99</ele>
        <time>2021-07-07T09:48:49Z</time>
      </trkpt>
      <trkpt lat="42.48752" lon="1.89287">
        <ele>1642.07</ele>
        <time>2021-07-07T09:48:57Z</time>
      </trkpt>
      <trkpt lat="42.48748" lon="1.89283">
        <ele>1641.11</ele>
        <time>2021-07-07T09:49:01Z</time>
      </trkpt>
      <trkpt lat="42.48741" lon="1.89273">
        <ele>1640.15</ele>
        <time>2021-07-07T09:49:09Z</time>
      </trkpt>
      <trkpt lat="42.48733" lon="1.89269">
        <ele>1638.7</ele>
        <time>2021-07-07T09:49:16Z</time>
      </trkpt>
      <trkpt lat="42.48729" lon="1.89257">
        <ele>1637.26</ele>
        <time>2021-07-07T09:49:25Z</time>
      </trkpt>
      <trkpt lat="42.48723" lon="1.89245">
        <ele>1636.78</ele>
        <time>2021-07-07T09:49:32Z</time>
      </trkpt>
      <trkpt lat="42.48723" lon="1.89244">
        <ele>1636.3</ele>
        <time>2021-07-07T09:49:33Z</time>
      </trkpt>
      <trkpt lat="42.48722" lon="1.89242">
        <ele>1636.3</ele>
        <time>2021-07-07T09:49:35Z</time>
      </trkpt>
      <trkpt lat="42.48719" lon="1.89232">
        <ele>1635.82</ele>
        <time>2021-07-07T09:49:42Z</time>
      </trkpt>
      <trkpt lat="42.48719" lon="1.8923">
        <ele>1635.34</ele>
        <time>2021-07-07T09:49:43Z</time>
      </trkpt>
      <trkpt lat="42.48719" lon="1.89224">
        <ele>1634.86</ele>
        <time>2021-07-07T09:49:47Z</time>
      </trkpt>
      <trkpt lat="42.48713" lon="1.89212">
        <ele>1633.42</ele>
        <time>2021-07-07T09:49:55Z</time>
      </trkpt>
      <trkpt lat="42.4871" lon="1.89204">
        <ele>1632.94</ele>
        <time>2021-07-07T09:50:01Z</time>
      </trkpt>
      <trkpt lat="42.48709" lon="1.89203">
        <ele>1634.86</ele>
        <time>2021-07-07T09:50:12Z</time>
      </trkpt>
      <trkpt lat="42.48707" lon="1.89198">
        <ele>1631.49</ele>
        <time>2021-07-07T09:50:16Z</time>
      </trkpt>
      <trkpt lat="42.48705" lon="1.89191">
        <ele>1631.49</ele>
        <time>2021-07-07T09:50:21Z</time>
      </trkpt>
      <trkpt lat="42.48707" lon="1.89202">
        <ele>1631.98</ele>
        <time>2021-07-07T09:50:27Z</time>
      </trkpt>
      <trkpt lat="42.48708" lon="1.89204">
        <ele>1632.46</ele>
        <time>2021-07-07T09:50:33Z</time>
      </trkpt>
      <trkpt lat="42.48706" lon="1.89202">
        <ele>1632.46</ele>
        <time>2021-07-07T09:50:41Z</time>
      </trkpt>
      <trkpt lat="42.48707" lon="1.89202">
        <ele>1632.94</ele>
        <time>2021-07-07T09:50:44Z</time>
      </trkpt>
      <trkpt lat="42.48706" lon="1.89193">
        <ele>1631.98</ele>
        <time>2021-07-07T09:50:49Z</time>
      </trkpt>
      <trkpt lat="42.48703" lon="1.89187">
        <ele>1631.01</ele>
        <time>2021-07-07T09:50:52Z</time>
      </trkpt>
      <trkpt lat="42.48701" lon="1.89179">
        <ele>1630.05</ele>
        <time>2021-07-07T09:50:56Z</time>
      </trkpt>
      <trkpt lat="42.48691" lon="1.8916">
        <ele>1627.17</ele>
        <time>2021-07-07T09:51:07Z</time>
      </trkpt>
      <trkpt lat="42.48679" lon="1.89146">
        <ele>1625.25</ele>
        <time>2021-07-07T09:51:17Z</time>
      </trkpt>
      <trkpt lat="42.48671" lon="1.89133">
        <ele>1623.32</ele>
        <time>2021-07-07T09:51:24Z</time>
      </trkpt>
      <trkpt lat="42.48666" lon="1.89119">
        <ele>1621.4</ele>
        <time>2021-07-07T09:51:32Z</time>
      </trkpt>
      <trkpt lat="42.48657" lon="1.89104">
        <ele>1620.44</ele>
        <time>2021-07-07T09:51:40Z</time>
      </trkpt>
      <trkpt lat="42.48646" lon="1.89092">
        <ele>1619</ele>
        <time>2021-07-07T09:51:48Z</time>
      </trkpt>
      <trkpt lat="42.4864" lon="1.89091">
        <ele>1617.56</ele>
        <time>2021-07-07T09:51:54Z</time>
      </trkpt>
      <trkpt lat="42.48631" lon="1.8909">
        <ele>1615.63</ele>
        <time>2021-07-07T09:52:01Z</time>
      </trkpt>
      <trkpt lat="42.48621" lon="1.89089">
        <ele>1614.67</ele>
        <time>2021-07-07T09:52:07Z</time>
      </trkpt>
      <trkpt lat="42.48609" lon="1.89088">
        <ele>1614.19</ele>
        <time>2021-07-07T09:52:15Z</time>
      </trkpt>
      <trkpt lat="42.48603" lon="1.89086">
        <ele>1612.27</ele>
        <time>2021-07-07T09:52:19Z</time>
      </trkpt>
      <trkpt lat="42.48598" lon="1.8909">
        <ele>1612.27</ele>
        <time>2021-07-07T09:52:26Z</time>
      </trkpt>
      <trkpt lat="42.48594" lon="1.89087">
        <ele>1611.31</ele>
        <time>2021-07-07T09:52:31Z</time>
      </trkpt>
      <trkpt lat="42.4859" lon="1.89085">
        <ele>1610.83</ele>
        <time>2021-07-07T09:52:34Z</time>
      </trkpt>
      <trkpt lat="42.48578" lon="1.89086">
        <ele>1609.86</ele>
        <time>2021-07-07T09:52:42Z</time>
      </trkpt>
      <trkpt lat="42.48563" lon="1.89091">
        <ele>1608.9</ele>
        <time>2021-07-07T09:52:51Z</time>
      </trkpt>
      <trkpt lat="42.48551" lon="1.89097">
        <ele>1607.94</ele>
        <time>2021-07-07T09:53:00Z</time>
      </trkpt>
      <trkpt lat="42.48549" lon="1.89099">
        <ele>1607.94</ele>
        <time>2021-07-07T09:53:02Z</time>
      </trkpt>
      <trkpt lat="42.48544" lon="1.89102">
        <ele>1607.46</ele>
        <time>2021-07-07T09:53:06Z</time>
      </trkpt>
      <trkpt lat="42.48534" lon="1.8911">
        <ele>1606.5</ele>
        <time>2021-07-07T09:53:15Z</time>
      </trkpt>
      <trkpt lat="42.48525" lon="1.89118">
        <ele>1605.54</ele>
        <time>2021-07-07T09:53:23Z</time>
      </trkpt>
      <trkpt lat="42.48518" lon="1.89125">
        <ele>1604.58</ele>
        <time>2021-07-07T09:53:30Z</time>
      </trkpt>
      <trkpt lat="42.48507" lon="1.89136">
        <ele>1603.62</ele>
        <time>2021-07-07T09:53:38Z</time>
      </trkpt>
      <trkpt lat="42.48497" lon="1.89149">
        <ele>1603.62</ele>
        <time>2021-07-07T09:53:50Z</time>
      </trkpt>
      <trkpt lat="42.48497" lon="1.89146">
        <ele>1603.14</ele>
        <time>2021-07-07T09:53:58Z</time>
      </trkpt>
      <trkpt lat="42.48497" lon="1.89148">
        <ele>1602.66</ele>
        <time>2021-07-07T09:54:08Z</time>
      </trkpt>
      <trkpt lat="42.48496" lon="1.8915">
        <ele>1602.66</ele>
        <time>2021-07-07T09:54:10Z</time>
      </trkpt>
      <trkpt lat="42.48495" lon="1.89153">
        <ele>1602.66</ele>
        <time>2021-07-07T09:54:16Z</time>
      </trkpt>
      <trkpt lat="42.48494" lon="1.89157">
        <ele>1603.14</ele>
        <time>2021-07-07T09:54:27Z</time>
      </trkpt>
      <trkpt lat="42.48491" lon="1.8916">
        <ele>1602.66</ele>
        <time>2021-07-07T09:54:37Z</time>
      </trkpt>
    </trkseg>
  </trk>
</gpx>